<?xml version="1.0" encoding="UTF-8" standalone="no" ?>
<gpx xmlns="http://www.topografix.com/GPX/1/1" xmlns:xsi="http://www.w3.org/2001/XMLSchema-instance" xsi:schemaLocation="http://www.topografix.com/GPX/1/1 http://www.topografix.com/GPX/1/1/gpx.xsd" version="1.1" creator="VisuGPX - https://www.visugpx.com">
  <metadata>
    <name>chemin du soleil dernier jour</name>
    <desc><![CDATA[Chemin du soleil dernier jour]]></desc>
  </metadata>
  <trk>
    <name><![CDATA[07-JUIL-11 14:59:31]]></name>
    <trkseg>
      <trkpt lat="43.84513" lon="6.73438">
        <ele>1024.42</ele>
        <time>2011-07-06T08:00:41Z</time>
      </trkpt>
      <trkpt lat="43.84514" lon="6.73443">
        <ele>1025.38</ele>
        <time>2011-07-06T08:01:06Z</time>
      </trkpt>
      <trkpt lat="43.84514" lon="6.73441">
        <ele>1024.9</ele>
        <time>2011-07-06T08:01:25Z</time>
      </trkpt>
      <trkpt lat="43.84514" lon="6.73445">
        <ele>1024.9</ele>
        <time>2011-07-06T08:01:42Z</time>
      </trkpt>
      <trkpt lat="43.84514" lon="6.73445">
        <ele>1025.38</ele>
        <time>2011-07-06T08:02:16Z</time>
      </trkpt>
      <trkpt lat="43.84514" lon="6.73444">
        <ele>1025.38</ele>
        <time>2011-07-06T08:02:45Z</time>
      </trkpt>
      <trkpt lat="43.84514" lon="6.73444">
        <ele>1025.38</ele>
        <time>2011-07-06T08:02:50Z</time>
      </trkpt>
      <trkpt lat="43.84514" lon="6.73444">
        <ele>1025.86</ele>
        <time>2011-07-06T08:03:17Z</time>
      </trkpt>
      <trkpt lat="43.84514" lon="6.73444">
        <ele>1025.86</ele>
        <time>2011-07-06T08:03:49Z</time>
      </trkpt>
      <trkpt lat="43.84518" lon="6.7344">
        <ele>1025.86</ele>
        <time>2011-07-06T08:03:54Z</time>
      </trkpt>
      <trkpt lat="43.84511" lon="6.7342">
        <ele>1027.31</ele>
        <time>2011-07-06T08:04:05Z</time>
      </trkpt>
      <trkpt lat="43.84505" lon="6.73366">
        <ele>1027.79</ele>
        <time>2011-07-06T08:04:21Z</time>
      </trkpt>
      <trkpt lat="43.84504" lon="6.73329">
        <ele>1029.71</ele>
        <time>2011-07-06T08:04:34Z</time>
      </trkpt>
      <trkpt lat="43.8449" lon="6.73301">
        <ele>1031.63</ele>
        <time>2011-07-06T08:04:47Z</time>
      </trkpt>
      <trkpt lat="43.84488" lon="6.73301">
        <ele>1032.11</ele>
        <time>2011-07-06T08:04:48Z</time>
      </trkpt>
      <trkpt lat="43.84477" lon="6.73341">
        <ele>1033.07</ele>
        <time>2011-07-06T08:05:00Z</time>
      </trkpt>
      <trkpt lat="43.84475" lon="6.73425">
        <ele>1034.52</ele>
        <time>2011-07-06T08:05:19Z</time>
      </trkpt>
      <trkpt lat="43.84464" lon="6.73492">
        <ele>1036.44</ele>
        <time>2011-07-06T08:05:35Z</time>
      </trkpt>
      <trkpt lat="43.84447" lon="6.73554">
        <ele>1039.32</ele>
        <time>2011-07-06T08:05:53Z</time>
      </trkpt>
      <trkpt lat="43.84429" lon="6.73623">
        <ele>1041.73</ele>
        <time>2011-07-06T08:06:13Z</time>
      </trkpt>
      <trkpt lat="43.84411" lon="6.73681">
        <ele>1044.13</ele>
        <time>2011-07-06T08:06:30Z</time>
      </trkpt>
      <trkpt lat="43.84386" lon="6.73745">
        <ele>1047.01</ele>
        <time>2011-07-06T08:06:50Z</time>
      </trkpt>
      <trkpt lat="43.84359" lon="6.73803">
        <ele>1050.38</ele>
        <time>2011-07-06T08:07:08Z</time>
      </trkpt>
      <trkpt lat="43.84333" lon="6.73873">
        <ele>1053.26</ele>
        <time>2011-07-06T08:07:28Z</time>
      </trkpt>
      <trkpt lat="43.84316" lon="6.73948">
        <ele>1056.15</ele>
        <time>2011-07-06T08:07:49Z</time>
      </trkpt>
      <trkpt lat="43.843" lon="6.74003">
        <ele>1059.03</ele>
        <time>2011-07-06T08:08:05Z</time>
      </trkpt>
      <trkpt lat="43.84286" lon="6.74066">
        <ele>1060.47</ele>
        <time>2011-07-06T08:08:23Z</time>
      </trkpt>
      <trkpt lat="43.84255" lon="6.74078">
        <ele>1063.36</ele>
        <time>2011-07-06T08:08:36Z</time>
      </trkpt>
      <trkpt lat="43.84212" lon="6.74043">
        <ele>1066.24</ele>
        <time>2011-07-06T08:08:53Z</time>
      </trkpt>
      <trkpt lat="43.84187" lon="6.73992">
        <ele>1068.64</ele>
        <time>2011-07-06T08:09:08Z</time>
      </trkpt>
      <trkpt lat="43.84182" lon="6.73954">
        <ele>1067.68</ele>
        <time>2011-07-06T08:09:20Z</time>
      </trkpt>
      <trkpt lat="43.84169" lon="6.73927">
        <ele>1067.68</ele>
        <time>2011-07-06T08:09:31Z</time>
      </trkpt>
      <trkpt lat="43.84141" lon="6.73912">
        <ele>1066.72</ele>
        <time>2011-07-06T08:09:44Z</time>
      </trkpt>
      <trkpt lat="43.84104" lon="6.73907">
        <ele>1064.8</ele>
        <time>2011-07-06T08:09:52Z</time>
      </trkpt>
      <trkpt lat="43.84098" lon="6.73904">
        <ele>1064.8</ele>
        <time>2011-07-06T08:09:53Z</time>
      </trkpt>
      <trkpt lat="43.84085" lon="6.73896">
        <ele>1064.8</ele>
        <time>2011-07-06T08:09:55Z</time>
      </trkpt>
      <trkpt lat="43.84078" lon="6.7389">
        <ele>1064.8</ele>
        <time>2011-07-06T08:09:56Z</time>
      </trkpt>
      <trkpt lat="43.84003" lon="6.73823">
        <ele>1062.39</ele>
        <time>2011-07-06T08:10:06Z</time>
      </trkpt>
      <trkpt lat="43.83995" lon="6.73822">
        <ele>1062.87</ele>
        <time>2011-07-06T08:10:07Z</time>
      </trkpt>
      <trkpt lat="43.83987" lon="6.73822">
        <ele>1062.39</ele>
        <time>2011-07-06T08:10:08Z</time>
      </trkpt>
      <trkpt lat="43.83893" lon="6.73849">
        <ele>1060.95</ele>
        <time>2011-07-06T08:10:20Z</time>
      </trkpt>
      <trkpt lat="43.83857" lon="6.73867">
        <ele>1061.91</ele>
        <time>2011-07-06T08:10:25Z</time>
      </trkpt>
      <trkpt lat="43.83817" lon="6.73887">
        <ele>1063.36</ele>
        <time>2011-07-06T08:10:31Z</time>
      </trkpt>
      <trkpt lat="43.83811" lon="6.73893">
        <ele>1063.36</ele>
        <time>2011-07-06T08:10:32Z</time>
      </trkpt>
      <trkpt lat="43.83807" lon="6.73899">
        <ele>1063.36</ele>
        <time>2011-07-06T08:10:33Z</time>
      </trkpt>
      <trkpt lat="43.83804" lon="6.73907">
        <ele>1063.84</ele>
        <time>2011-07-06T08:10:34Z</time>
      </trkpt>
      <trkpt lat="43.83801" lon="6.73915">
        <ele>1063.84</ele>
        <time>2011-07-06T08:10:35Z</time>
      </trkpt>
      <trkpt lat="43.838" lon="6.73922">
        <ele>1063.84</ele>
        <time>2011-07-06T08:10:36Z</time>
      </trkpt>
      <trkpt lat="43.83794" lon="6.73973">
        <ele>1064.8</ele>
        <time>2011-07-06T08:10:43Z</time>
      </trkpt>
      <trkpt lat="43.83794" lon="6.73979">
        <ele>1065.28</ele>
        <time>2011-07-06T08:10:44Z</time>
      </trkpt>
      <trkpt lat="43.83795" lon="6.73997">
        <ele>1065.76</ele>
        <time>2011-07-06T08:10:47Z</time>
      </trkpt>
      <trkpt lat="43.83796" lon="6.74003">
        <ele>1065.76</ele>
        <time>2011-07-06T08:10:48Z</time>
      </trkpt>
      <trkpt lat="43.83804" lon="6.74085">
        <ele>1068.64</ele>
        <time>2011-07-06T08:11:04Z</time>
      </trkpt>
      <trkpt lat="43.83804" lon="6.74139">
        <ele>1069.6</ele>
        <time>2011-07-06T08:11:16Z</time>
      </trkpt>
      <trkpt lat="43.83793" lon="6.74206">
        <ele>1071.53</ele>
        <time>2011-07-06T08:11:32Z</time>
      </trkpt>
      <trkpt lat="43.83764" lon="6.74238">
        <ele>1073.45</ele>
        <time>2011-07-06T08:11:44Z</time>
      </trkpt>
      <trkpt lat="43.83717" lon="6.74276">
        <ele>1075.37</ele>
        <time>2011-07-06T08:11:59Z</time>
      </trkpt>
      <trkpt lat="43.8367" lon="6.74308">
        <ele>1075.85</ele>
        <time>2011-07-06T08:12:13Z</time>
      </trkpt>
      <trkpt lat="43.83615" lon="6.74281">
        <ele>1077.78</ele>
        <time>2011-07-06T08:12:29Z</time>
      </trkpt>
      <trkpt lat="43.83571" lon="6.74219">
        <ele>1080.18</ele>
        <time>2011-07-06T08:12:46Z</time>
      </trkpt>
      <trkpt lat="43.83544" lon="6.74148">
        <ele>1081.62</ele>
        <time>2011-07-06T08:13:01Z</time>
      </trkpt>
      <trkpt lat="43.83516" lon="6.74125">
        <ele>1081.14</ele>
        <time>2011-07-06T08:13:08Z</time>
      </trkpt>
      <trkpt lat="43.8344" lon="6.74104">
        <ele>1079.22</ele>
        <time>2011-07-06T08:13:20Z</time>
      </trkpt>
      <trkpt lat="43.83372" lon="6.74091">
        <ele>1076.81</ele>
        <time>2011-07-06T08:13:29Z</time>
      </trkpt>
      <trkpt lat="43.83364" lon="6.74093">
        <ele>1076.33</ele>
        <time>2011-07-06T08:13:30Z</time>
      </trkpt>
      <trkpt lat="43.83357" lon="6.74096">
        <ele>1075.85</ele>
        <time>2011-07-06T08:13:31Z</time>
      </trkpt>
      <trkpt lat="43.8335" lon="6.74099">
        <ele>1075.85</ele>
        <time>2011-07-06T08:13:32Z</time>
      </trkpt>
      <trkpt lat="43.83342" lon="6.74103">
        <ele>1075.37</ele>
        <time>2011-07-06T08:13:33Z</time>
      </trkpt>
      <trkpt lat="43.83319" lon="6.74113">
        <ele>1074.41</ele>
        <time>2011-07-06T08:13:36Z</time>
      </trkpt>
      <trkpt lat="43.83311" lon="6.74113">
        <ele>1074.41</ele>
        <time>2011-07-06T08:13:37Z</time>
      </trkpt>
      <trkpt lat="43.83302" lon="6.74111">
        <ele>1072.97</ele>
        <time>2011-07-06T08:13:38Z</time>
      </trkpt>
      <trkpt lat="43.83294" lon="6.74106">
        <ele>1072.97</ele>
        <time>2011-07-06T08:13:39Z</time>
      </trkpt>
      <trkpt lat="43.83286" lon="6.74098">
        <ele>1072.49</ele>
        <time>2011-07-06T08:13:40Z</time>
      </trkpt>
      <trkpt lat="43.83279" lon="6.7409">
        <ele>1072.01</ele>
        <time>2011-07-06T08:13:41Z</time>
      </trkpt>
      <trkpt lat="43.83271" lon="6.74082">
        <ele>1072.01</ele>
        <time>2011-07-06T08:13:42Z</time>
      </trkpt>
      <trkpt lat="43.83237" lon="6.74047">
        <ele>1068.64</ele>
        <time>2011-07-06T08:13:46Z</time>
      </trkpt>
      <trkpt lat="43.83228" lon="6.74038">
        <ele>1068.16</ele>
        <time>2011-07-06T08:13:47Z</time>
      </trkpt>
      <trkpt lat="43.83174" lon="6.73991">
        <ele>1064.8</ele>
        <time>2011-07-06T08:13:53Z</time>
      </trkpt>
      <trkpt lat="43.83155" lon="6.73979">
        <ele>1063.84</ele>
        <time>2011-07-06T08:13:55Z</time>
      </trkpt>
      <trkpt lat="43.83145" lon="6.73976">
        <ele>1062.87</ele>
        <time>2011-07-06T08:13:56Z</time>
      </trkpt>
      <trkpt lat="43.83135" lon="6.73976">
        <ele>1062.39</ele>
        <time>2011-07-06T08:13:57Z</time>
      </trkpt>
      <trkpt lat="43.83125" lon="6.73978">
        <ele>1062.87</ele>
        <time>2011-07-06T08:13:58Z</time>
      </trkpt>
      <trkpt lat="43.83115" lon="6.73982">
        <ele>1062.39</ele>
        <time>2011-07-06T08:13:59Z</time>
      </trkpt>
      <trkpt lat="43.83106" lon="6.73985">
        <ele>1062.87</ele>
        <time>2011-07-06T08:14:00Z</time>
      </trkpt>
      <trkpt lat="43.83097" lon="6.73988">
        <ele>1062.39</ele>
        <time>2011-07-06T08:14:01Z</time>
      </trkpt>
      <trkpt lat="43.83029" lon="6.74008">
        <ele>1061.91</ele>
        <time>2011-07-06T08:14:09Z</time>
      </trkpt>
      <trkpt lat="43.82954" lon="6.74021">
        <ele>1063.36</ele>
        <time>2011-07-06T08:14:20Z</time>
      </trkpt>
      <trkpt lat="43.82947" lon="6.74023">
        <ele>1062.87</ele>
        <time>2011-07-06T08:14:21Z</time>
      </trkpt>
      <trkpt lat="43.82941" lon="6.74027">
        <ele>1063.36</ele>
        <time>2011-07-06T08:14:22Z</time>
      </trkpt>
      <trkpt lat="43.82936" lon="6.74031">
        <ele>1063.36</ele>
        <time>2011-07-06T08:14:23Z</time>
      </trkpt>
      <trkpt lat="43.8293" lon="6.74035">
        <ele>1062.87</ele>
        <time>2011-07-06T08:14:24Z</time>
      </trkpt>
      <trkpt lat="43.82883" lon="6.74076">
        <ele>1063.84</ele>
        <time>2011-07-06T08:14:33Z</time>
      </trkpt>
      <trkpt lat="43.82878" lon="6.7408">
        <ele>1063.36</ele>
        <time>2011-07-06T08:14:34Z</time>
      </trkpt>
      <trkpt lat="43.82872" lon="6.74084">
        <ele>1063.84</ele>
        <time>2011-07-06T08:14:35Z</time>
      </trkpt>
      <trkpt lat="43.82861" lon="6.7409">
        <ele>1064.32</ele>
        <time>2011-07-06T08:14:37Z</time>
      </trkpt>
      <trkpt lat="43.82787" lon="6.74105">
        <ele>1065.28</ele>
        <time>2011-07-06T08:14:50Z</time>
      </trkpt>
      <trkpt lat="43.82748" lon="6.74112">
        <ele>1065.76</ele>
        <time>2011-07-06T08:14:57Z</time>
      </trkpt>
      <trkpt lat="43.82689" lon="6.74109">
        <ele>1067.68</ele>
        <time>2011-07-06T08:15:11Z</time>
      </trkpt>
      <trkpt lat="43.82621" lon="6.74132">
        <ele>1070.57</ele>
        <time>2011-07-06T08:15:29Z</time>
      </trkpt>
      <trkpt lat="43.82575" lon="6.74148">
        <ele>1072.49</ele>
        <time>2011-07-06T08:15:42Z</time>
      </trkpt>
      <trkpt lat="43.82523" lon="6.74156">
        <ele>1074.89</ele>
        <time>2011-07-06T08:15:57Z</time>
      </trkpt>
      <trkpt lat="43.82485" lon="6.74155">
        <ele>1076.33</ele>
        <time>2011-07-06T08:16:12Z</time>
      </trkpt>
      <trkpt lat="43.82483" lon="6.74158">
        <ele>1076.81</ele>
        <time>2011-07-06T08:16:27Z</time>
      </trkpt>
      <trkpt lat="43.82484" lon="6.74158">
        <ele>1076.81</ele>
        <time>2011-07-06T08:16:56Z</time>
      </trkpt>
      <trkpt lat="43.82484" lon="6.74158">
        <ele>1077.29</ele>
        <time>2011-07-06T08:17:32Z</time>
      </trkpt>
      <trkpt lat="43.82484" lon="6.74158">
        <ele>1077.29</ele>
        <time>2011-07-06T08:18:05Z</time>
      </trkpt>
      <trkpt lat="43.82484" lon="6.74157">
        <ele>1076.33</ele>
        <time>2011-07-06T08:18:32Z</time>
      </trkpt>
      <trkpt lat="43.82457" lon="6.74166">
        <ele>1074.89</ele>
        <time>2011-07-06T08:18:43Z</time>
      </trkpt>
      <trkpt lat="43.82446" lon="6.74164">
        <ele>1074.41</ele>
        <time>2011-07-06T08:18:45Z</time>
      </trkpt>
      <trkpt lat="43.82411" lon="6.74156">
        <ele>1073.93</ele>
        <time>2011-07-06T08:18:52Z</time>
      </trkpt>
      <trkpt lat="43.82407" lon="6.74153">
        <ele>1073.93</ele>
        <time>2011-07-06T08:18:53Z</time>
      </trkpt>
      <trkpt lat="43.82367" lon="6.74125">
        <ele>1073.45</ele>
        <time>2011-07-06T08:19:01Z</time>
      </trkpt>
      <trkpt lat="43.8233" lon="6.7409">
        <ele>1072.97</ele>
        <time>2011-07-06T08:19:09Z</time>
      </trkpt>
      <trkpt lat="43.82312" lon="6.74077">
        <ele>1073.93</ele>
        <time>2011-07-06T08:19:13Z</time>
      </trkpt>
      <trkpt lat="43.8225" lon="6.7404">
        <ele>1073.93</ele>
        <time>2011-07-06T08:19:27Z</time>
      </trkpt>
      <trkpt lat="43.82241" lon="6.74035">
        <ele>1074.41</ele>
        <time>2011-07-06T08:19:29Z</time>
      </trkpt>
      <trkpt lat="43.82221" lon="6.74025">
        <ele>1074.89</ele>
        <time>2011-07-06T08:19:34Z</time>
      </trkpt>
      <trkpt lat="43.82217" lon="6.74022">
        <ele>1075.37</ele>
        <time>2011-07-06T08:19:35Z</time>
      </trkpt>
      <trkpt lat="43.82144" lon="6.73984">
        <ele>1075.85</ele>
        <time>2011-07-06T08:19:53Z</time>
      </trkpt>
      <trkpt lat="43.82073" lon="6.73944">
        <ele>1075.85</ele>
        <time>2011-07-06T08:20:10Z</time>
      </trkpt>
      <trkpt lat="43.82065" lon="6.7394">
        <ele>1075.85</ele>
        <time>2011-07-06T08:20:12Z</time>
      </trkpt>
      <trkpt lat="43.8206" lon="6.73939">
        <ele>1075.85</ele>
        <time>2011-07-06T08:20:13Z</time>
      </trkpt>
      <trkpt lat="43.81991" lon="6.73916">
        <ele>1076.81</ele>
        <time>2011-07-06T08:20:29Z</time>
      </trkpt>
      <trkpt lat="43.81987" lon="6.73913">
        <ele>1077.29</ele>
        <time>2011-07-06T08:20:30Z</time>
      </trkpt>
      <trkpt lat="43.81966" lon="6.73902">
        <ele>1079.22</ele>
        <time>2011-07-06T08:20:36Z</time>
      </trkpt>
      <trkpt lat="43.81962" lon="6.73902">
        <ele>1079.22</ele>
        <time>2011-07-06T08:20:37Z</time>
      </trkpt>
      <trkpt lat="43.81901" lon="6.7391">
        <ele>1078.26</ele>
        <time>2011-07-06T08:20:50Z</time>
      </trkpt>
      <trkpt lat="43.81844" lon="6.73923">
        <ele>1079.7</ele>
        <time>2011-07-06T08:21:05Z</time>
      </trkpt>
      <trkpt lat="43.81799" lon="6.73934">
        <ele>1082.58</ele>
        <time>2011-07-06T08:21:19Z</time>
      </trkpt>
      <trkpt lat="43.81752" lon="6.73934">
        <ele>1084.5</ele>
        <time>2011-07-06T08:21:34Z</time>
      </trkpt>
      <trkpt lat="43.8171" lon="6.73934">
        <ele>1087.87</ele>
        <time>2011-07-06T08:21:51Z</time>
      </trkpt>
      <trkpt lat="43.81686" lon="6.73931">
        <ele>1090.75</ele>
        <time>2011-07-06T08:22:04Z</time>
      </trkpt>
      <trkpt lat="43.81664" lon="6.73921">
        <ele>1093.64</ele>
        <time>2011-07-06T08:22:19Z</time>
      </trkpt>
      <trkpt lat="43.81657" lon="6.73915">
        <ele>1094.6</ele>
        <time>2011-07-06T08:22:33Z</time>
      </trkpt>
      <trkpt lat="43.81657" lon="6.73916">
        <ele>1095.08</ele>
        <time>2011-07-06T08:22:46Z</time>
      </trkpt>
      <trkpt lat="43.81656" lon="6.73916">
        <ele>1095.08</ele>
        <time>2011-07-06T08:22:47Z</time>
      </trkpt>
      <trkpt lat="43.81655" lon="6.73916">
        <ele>1095.08</ele>
        <time>2011-07-06T08:22:48Z</time>
      </trkpt>
      <trkpt lat="43.81654" lon="6.73915">
        <ele>1095.56</ele>
        <time>2011-07-06T08:22:49Z</time>
      </trkpt>
      <trkpt lat="43.81652" lon="6.73913">
        <ele>1095.56</ele>
        <time>2011-07-06T08:22:50Z</time>
      </trkpt>
      <trkpt lat="43.81651" lon="6.73911">
        <ele>1096.04</ele>
        <time>2011-07-06T08:22:51Z</time>
      </trkpt>
      <trkpt lat="43.81649" lon="6.7391">
        <ele>1096.04</ele>
        <time>2011-07-06T08:22:52Z</time>
      </trkpt>
      <trkpt lat="43.81648" lon="6.73909">
        <ele>1096.04</ele>
        <time>2011-07-06T08:22:53Z</time>
      </trkpt>
      <trkpt lat="43.81647" lon="6.73909">
        <ele>1097</ele>
        <time>2011-07-06T08:22:54Z</time>
      </trkpt>
      <trkpt lat="43.81646" lon="6.73908">
        <ele>1097</ele>
        <time>2011-07-06T08:22:55Z</time>
      </trkpt>
      <trkpt lat="43.81627" lon="6.73903">
        <ele>1099.4</ele>
        <time>2011-07-06T08:23:08Z</time>
      </trkpt>
      <trkpt lat="43.81607" lon="6.73901">
        <ele>1102.29</ele>
        <time>2011-07-06T08:23:20Z</time>
      </trkpt>
      <trkpt lat="43.81586" lon="6.73893">
        <ele>1105.65</ele>
        <time>2011-07-06T08:23:34Z</time>
      </trkpt>
      <trkpt lat="43.8158" lon="6.73868">
        <ele>1108.06</ele>
        <time>2011-07-06T08:23:47Z</time>
      </trkpt>
      <trkpt lat="43.81569" lon="6.7385">
        <ele>1111.42</ele>
        <time>2011-07-06T08:24:00Z</time>
      </trkpt>
      <trkpt lat="43.81566" lon="6.7385">
        <ele>1111.42</ele>
        <time>2011-07-06T08:24:02Z</time>
      </trkpt>
      <trkpt lat="43.81565" lon="6.73852">
        <ele>1111.9</ele>
        <time>2011-07-06T08:24:03Z</time>
      </trkpt>
      <trkpt lat="43.81564" lon="6.73854">
        <ele>1111.9</ele>
        <time>2011-07-06T08:24:04Z</time>
      </trkpt>
      <trkpt lat="43.81564" lon="6.73856">
        <ele>1111.9</ele>
        <time>2011-07-06T08:24:05Z</time>
      </trkpt>
      <trkpt lat="43.81564" lon="6.73858">
        <ele>1112.38</ele>
        <time>2011-07-06T08:24:06Z</time>
      </trkpt>
      <trkpt lat="43.81564" lon="6.73861">
        <ele>1112.38</ele>
        <time>2011-07-06T08:24:07Z</time>
      </trkpt>
      <trkpt lat="43.81565" lon="6.7388">
        <ele>1113.82</ele>
        <time>2011-07-06T08:24:16Z</time>
      </trkpt>
      <trkpt lat="43.81561" lon="6.73888">
        <ele>1114.31</ele>
        <time>2011-07-06T08:24:20Z</time>
      </trkpt>
      <trkpt lat="43.8156" lon="6.73888">
        <ele>1114.31</ele>
        <time>2011-07-06T08:24:21Z</time>
      </trkpt>
      <trkpt lat="43.81558" lon="6.73887">
        <ele>1114.79</ele>
        <time>2011-07-06T08:24:22Z</time>
      </trkpt>
      <trkpt lat="43.81557" lon="6.73886">
        <ele>1114.79</ele>
        <time>2011-07-06T08:24:23Z</time>
      </trkpt>
      <trkpt lat="43.81556" lon="6.73884">
        <ele>1114.79</ele>
        <time>2011-07-06T08:24:24Z</time>
      </trkpt>
      <trkpt lat="43.81555" lon="6.73882">
        <ele>1114.79</ele>
        <time>2011-07-06T08:24:25Z</time>
      </trkpt>
      <trkpt lat="43.81554" lon="6.7388">
        <ele>1114.79</ele>
        <time>2011-07-06T08:24:26Z</time>
      </trkpt>
      <trkpt lat="43.81554" lon="6.73878">
        <ele>1115.27</ele>
        <time>2011-07-06T08:24:27Z</time>
      </trkpt>
      <trkpt lat="43.81553" lon="6.73876">
        <ele>1115.27</ele>
        <time>2011-07-06T08:24:28Z</time>
      </trkpt>
      <trkpt lat="43.81553" lon="6.73874">
        <ele>1115.75</ele>
        <time>2011-07-06T08:24:29Z</time>
      </trkpt>
      <trkpt lat="43.81553" lon="6.73866">
        <ele>1116.23</ele>
        <time>2011-07-06T08:24:33Z</time>
      </trkpt>
      <trkpt lat="43.8155" lon="6.73864">
        <ele>1116.71</ele>
        <time>2011-07-06T08:24:36Z</time>
      </trkpt>
      <trkpt lat="43.81549" lon="6.73864">
        <ele>1116.71</ele>
        <time>2011-07-06T08:24:37Z</time>
      </trkpt>
      <trkpt lat="43.81547" lon="6.73865">
        <ele>1117.19</ele>
        <time>2011-07-06T08:24:38Z</time>
      </trkpt>
      <trkpt lat="43.81546" lon="6.73867">
        <ele>1116.71</ele>
        <time>2011-07-06T08:24:39Z</time>
      </trkpt>
      <trkpt lat="43.81546" lon="6.73869">
        <ele>1117.19</ele>
        <time>2011-07-06T08:24:40Z</time>
      </trkpt>
      <trkpt lat="43.81546" lon="6.73871">
        <ele>1117.19</ele>
        <time>2011-07-06T08:24:41Z</time>
      </trkpt>
      <trkpt lat="43.81546" lon="6.73874">
        <ele>1118.15</ele>
        <time>2011-07-06T08:24:42Z</time>
      </trkpt>
      <trkpt lat="43.81546" lon="6.73876">
        <ele>1117.67</ele>
        <time>2011-07-06T08:24:43Z</time>
      </trkpt>
      <trkpt lat="43.81546" lon="6.73878">
        <ele>1117.67</ele>
        <time>2011-07-06T08:24:44Z</time>
      </trkpt>
      <trkpt lat="43.81537" lon="6.73895">
        <ele>1120.55</ele>
        <time>2011-07-06T08:24:57Z</time>
      </trkpt>
      <trkpt lat="43.81535" lon="6.73894">
        <ele>1121.03</ele>
        <time>2011-07-06T08:24:58Z</time>
      </trkpt>
      <trkpt lat="43.81535" lon="6.73893">
        <ele>1121.03</ele>
        <time>2011-07-06T08:24:59Z</time>
      </trkpt>
      <trkpt lat="43.81533" lon="6.73891">
        <ele>1121.03</ele>
        <time>2011-07-06T08:25:00Z</time>
      </trkpt>
      <trkpt lat="43.81532" lon="6.7389">
        <ele>1121.03</ele>
        <time>2011-07-06T08:25:01Z</time>
      </trkpt>
      <trkpt lat="43.81532" lon="6.73888">
        <ele>1121.03</ele>
        <time>2011-07-06T08:25:02Z</time>
      </trkpt>
      <trkpt lat="43.81531" lon="6.73887">
        <ele>1122</ele>
        <time>2011-07-06T08:25:03Z</time>
      </trkpt>
      <trkpt lat="43.81531" lon="6.73885">
        <ele>1122</ele>
        <time>2011-07-06T08:25:04Z</time>
      </trkpt>
      <trkpt lat="43.81531" lon="6.73883">
        <ele>1122</ele>
        <time>2011-07-06T08:25:05Z</time>
      </trkpt>
      <trkpt lat="43.81532" lon="6.73881">
        <ele>1122</ele>
        <time>2011-07-06T08:25:06Z</time>
      </trkpt>
      <trkpt lat="43.81531" lon="6.73879">
        <ele>1122.96</ele>
        <time>2011-07-06T08:25:07Z</time>
      </trkpt>
      <trkpt lat="43.81531" lon="6.73877">
        <ele>1122.48</ele>
        <time>2011-07-06T08:25:08Z</time>
      </trkpt>
      <trkpt lat="43.8153" lon="6.73875">
        <ele>1122.96</ele>
        <time>2011-07-06T08:25:09Z</time>
      </trkpt>
      <trkpt lat="43.81529" lon="6.73874">
        <ele>1123.44</ele>
        <time>2011-07-06T08:25:10Z</time>
      </trkpt>
      <trkpt lat="43.81528" lon="6.73873">
        <ele>1123.92</ele>
        <time>2011-07-06T08:25:11Z</time>
      </trkpt>
      <trkpt lat="43.81522" lon="6.73863">
        <ele>1125.36</ele>
        <time>2011-07-06T08:25:19Z</time>
      </trkpt>
      <trkpt lat="43.81503" lon="6.73861">
        <ele>1128.24</ele>
        <time>2011-07-06T08:25:35Z</time>
      </trkpt>
      <trkpt lat="43.81486" lon="6.73886">
        <ele>1129.69</ele>
        <time>2011-07-06T08:25:48Z</time>
      </trkpt>
      <trkpt lat="43.81462" lon="6.73888">
        <ele>1131.61</ele>
        <time>2011-07-06T08:26:00Z</time>
      </trkpt>
      <trkpt lat="43.8145" lon="6.73855">
        <ele>1131.61</ele>
        <time>2011-07-06T08:26:12Z</time>
      </trkpt>
      <trkpt lat="43.8145" lon="6.73852">
        <ele>1131.61</ele>
        <time>2011-07-06T08:26:13Z</time>
      </trkpt>
      <trkpt lat="43.81455" lon="6.73851">
        <ele>1132.09</ele>
        <time>2011-07-06T08:26:15Z</time>
      </trkpt>
      <trkpt lat="43.81445" lon="6.7385">
        <ele>1135.45</ele>
        <time>2011-07-06T08:26:27Z</time>
      </trkpt>
      <trkpt lat="43.81442" lon="6.73852">
        <ele>1135.45</ele>
        <time>2011-07-06T08:26:29Z</time>
      </trkpt>
      <trkpt lat="43.81428" lon="6.73842">
        <ele>1137.38</ele>
        <time>2011-07-06T08:26:39Z</time>
      </trkpt>
      <trkpt lat="43.81426" lon="6.73839">
        <ele>1138.34</ele>
        <time>2011-07-06T08:26:41Z</time>
      </trkpt>
      <trkpt lat="43.81411" lon="6.73815">
        <ele>1141.7</ele>
        <time>2011-07-06T08:26:55Z</time>
      </trkpt>
      <trkpt lat="43.81398" lon="6.73789">
        <ele>1144.59</ele>
        <time>2011-07-06T08:27:10Z</time>
      </trkpt>
      <trkpt lat="43.81397" lon="6.73785">
        <ele>1145.55</ele>
        <time>2011-07-06T08:27:12Z</time>
      </trkpt>
      <trkpt lat="43.81384" lon="6.73758">
        <ele>1147.95</ele>
        <time>2011-07-06T08:27:27Z</time>
      </trkpt>
      <trkpt lat="43.81373" lon="6.73736">
        <ele>1150.84</ele>
        <time>2011-07-06T08:27:39Z</time>
      </trkpt>
      <trkpt lat="43.8136" lon="6.73707">
        <ele>1153.72</ele>
        <time>2011-07-06T08:27:55Z</time>
      </trkpt>
      <trkpt lat="43.81348" lon="6.73679">
        <ele>1155.64</ele>
        <time>2011-07-06T08:28:11Z</time>
      </trkpt>
      <trkpt lat="43.81347" lon="6.73651">
        <ele>1158.05</ele>
        <time>2011-07-06T08:28:25Z</time>
      </trkpt>
      <trkpt lat="43.81346" lon="6.73643">
        <ele>1159.97</ele>
        <time>2011-07-06T08:28:29Z</time>
      </trkpt>
      <trkpt lat="43.81346" lon="6.73617">
        <ele>1162.37</ele>
        <time>2011-07-06T08:28:43Z</time>
      </trkpt>
      <trkpt lat="43.81345" lon="6.73596">
        <ele>1164.77</ele>
        <time>2011-07-06T08:28:56Z</time>
      </trkpt>
      <trkpt lat="43.81344" lon="6.73586">
        <ele>1166.22</ele>
        <time>2011-07-06T08:29:08Z</time>
      </trkpt>
      <trkpt lat="43.81342" lon="6.73579">
        <ele>1167.18</ele>
        <time>2011-07-06T08:29:20Z</time>
      </trkpt>
      <trkpt lat="43.81336" lon="6.73573">
        <ele>1170.06</ele>
        <time>2011-07-06T08:29:33Z</time>
      </trkpt>
      <trkpt lat="43.81328" lon="6.73562">
        <ele>1172.95</ele>
        <time>2011-07-06T08:29:49Z</time>
      </trkpt>
      <trkpt lat="43.81321" lon="6.73551">
        <ele>1175.83</ele>
        <time>2011-07-06T08:30:04Z</time>
      </trkpt>
      <trkpt lat="43.81318" lon="6.73541">
        <ele>1176.79</ele>
        <time>2011-07-06T08:30:17Z</time>
      </trkpt>
      <trkpt lat="43.81311" lon="6.73521">
        <ele>1180.16</ele>
        <time>2011-07-06T08:30:28Z</time>
      </trkpt>
      <trkpt lat="43.81295" lon="6.73492">
        <ele>1182.08</ele>
        <time>2011-07-06T08:30:45Z</time>
      </trkpt>
      <trkpt lat="43.81281" lon="6.73467">
        <ele>1184.96</ele>
        <time>2011-07-06T08:31:01Z</time>
      </trkpt>
      <trkpt lat="43.8127" lon="6.73441">
        <ele>1188.33</ele>
        <time>2011-07-06T08:31:16Z</time>
      </trkpt>
      <trkpt lat="43.8127" lon="6.73434">
        <ele>1188.81</ele>
        <time>2011-07-06T08:31:20Z</time>
      </trkpt>
      <trkpt lat="43.81261" lon="6.7342">
        <ele>1191.21</ele>
        <time>2011-07-06T08:31:31Z</time>
      </trkpt>
      <trkpt lat="43.81258" lon="6.73414">
        <ele>1191.69</ele>
        <time>2011-07-06T08:31:35Z</time>
      </trkpt>
      <trkpt lat="43.81246" lon="6.73384">
        <ele>1193.61</ele>
        <time>2011-07-06T08:31:51Z</time>
      </trkpt>
      <trkpt lat="43.81237" lon="6.7336">
        <ele>1196.98</ele>
        <time>2011-07-06T08:32:05Z</time>
      </trkpt>
      <trkpt lat="43.81229" lon="6.73354">
        <ele>1198.42</ele>
        <time>2011-07-06T08:32:13Z</time>
      </trkpt>
      <trkpt lat="43.8122" lon="6.73343">
        <ele>1199.86</ele>
        <time>2011-07-06T08:32:23Z</time>
      </trkpt>
      <trkpt lat="43.8121" lon="6.73324">
        <ele>1203.71</ele>
        <time>2011-07-06T08:32:37Z</time>
      </trkpt>
      <trkpt lat="43.81197" lon="6.733">
        <ele>1207.07</ele>
        <time>2011-07-06T08:32:54Z</time>
      </trkpt>
      <trkpt lat="43.81196" lon="6.73299">
        <ele>1207.07</ele>
        <time>2011-07-06T08:32:55Z</time>
      </trkpt>
      <trkpt lat="43.81192" lon="6.73292">
        <ele>1208.03</ele>
        <time>2011-07-06T08:33:00Z</time>
      </trkpt>
      <trkpt lat="43.8119" lon="6.73287">
        <ele>1208.51</ele>
        <time>2011-07-06T08:33:03Z</time>
      </trkpt>
      <trkpt lat="43.81183" lon="6.73302">
        <ele>1210.44</ele>
        <time>2011-07-06T08:33:16Z</time>
      </trkpt>
      <trkpt lat="43.81184" lon="6.73304">
        <ele>1210.44</ele>
        <time>2011-07-06T08:33:17Z</time>
      </trkpt>
      <trkpt lat="43.81184" lon="6.73309">
        <ele>1210.44</ele>
        <time>2011-07-06T08:33:20Z</time>
      </trkpt>
      <trkpt lat="43.81181" lon="6.73313">
        <ele>1211.4</ele>
        <time>2011-07-06T08:33:23Z</time>
      </trkpt>
      <trkpt lat="43.81171" lon="6.73296">
        <ele>1213.32</ele>
        <time>2011-07-06T08:33:36Z</time>
      </trkpt>
      <trkpt lat="43.81171" lon="6.73289">
        <ele>1213.8</ele>
        <time>2011-07-06T08:33:48Z</time>
      </trkpt>
      <trkpt lat="43.81167" lon="6.73271">
        <ele>1216.21</ele>
        <time>2011-07-06T08:34:04Z</time>
      </trkpt>
      <trkpt lat="43.81166" lon="6.73266">
        <ele>1216.21</ele>
        <time>2011-07-06T08:34:18Z</time>
      </trkpt>
      <trkpt lat="43.81163" lon="6.73259">
        <ele>1217.65</ele>
        <time>2011-07-06T08:34:22Z</time>
      </trkpt>
      <trkpt lat="43.81154" lon="6.73233">
        <ele>1221.01</ele>
        <time>2011-07-06T08:34:36Z</time>
      </trkpt>
      <trkpt lat="43.81152" lon="6.73228">
        <ele>1221.97</ele>
        <time>2011-07-06T08:34:39Z</time>
      </trkpt>
      <trkpt lat="43.81144" lon="6.73223">
        <ele>1222.93</ele>
        <time>2011-07-06T08:34:46Z</time>
      </trkpt>
      <trkpt lat="43.8113" lon="6.73203">
        <ele>1226.3</ele>
        <time>2011-07-06T08:35:02Z</time>
      </trkpt>
      <trkpt lat="43.8113" lon="6.73194">
        <ele>1226.78</ele>
        <time>2011-07-06T08:35:06Z</time>
      </trkpt>
      <trkpt lat="43.81123" lon="6.73185">
        <ele>1228.22</ele>
        <time>2011-07-06T08:35:13Z</time>
      </trkpt>
      <trkpt lat="43.8112" lon="6.7318">
        <ele>1228.7</ele>
        <time>2011-07-06T08:35:17Z</time>
      </trkpt>
      <trkpt lat="43.81119" lon="6.73169">
        <ele>1229.66</ele>
        <time>2011-07-06T08:35:23Z</time>
      </trkpt>
      <trkpt lat="43.81121" lon="6.73146">
        <ele>1232.55</ele>
        <time>2011-07-06T08:35:37Z</time>
      </trkpt>
      <trkpt lat="43.81112" lon="6.73139">
        <ele>1233.99</ele>
        <time>2011-07-06T08:35:50Z</time>
      </trkpt>
      <trkpt lat="43.81102" lon="6.73123">
        <ele>1236.87</ele>
        <time>2011-07-06T08:36:07Z</time>
      </trkpt>
      <trkpt lat="43.81108" lon="6.73104">
        <ele>1238.32</ele>
        <time>2011-07-06T08:36:22Z</time>
      </trkpt>
      <trkpt lat="43.8111" lon="6.73099">
        <ele>1238.8</ele>
        <time>2011-07-06T08:36:26Z</time>
      </trkpt>
      <trkpt lat="43.81115" lon="6.73084">
        <ele>1240.24</ele>
        <time>2011-07-06T08:36:42Z</time>
      </trkpt>
      <trkpt lat="43.81113" lon="6.73053">
        <ele>1242.64</ele>
        <time>2011-07-06T08:36:56Z</time>
      </trkpt>
      <trkpt lat="43.81105" lon="6.73016">
        <ele>1246.01</ele>
        <time>2011-07-06T08:37:12Z</time>
      </trkpt>
      <trkpt lat="43.81103" lon="6.72973">
        <ele>1248.41</ele>
        <time>2011-07-06T08:37:29Z</time>
      </trkpt>
      <trkpt lat="43.81111" lon="6.72943">
        <ele>1250.33</ele>
        <time>2011-07-06T08:37:42Z</time>
      </trkpt>
      <trkpt lat="43.81105" lon="6.72901">
        <ele>1252.74</ele>
        <time>2011-07-06T08:37:59Z</time>
      </trkpt>
      <trkpt lat="43.81091" lon="6.72873">
        <ele>1255.14</ele>
        <time>2011-07-06T08:38:13Z</time>
      </trkpt>
      <trkpt lat="43.81072" lon="6.72849">
        <ele>1256.58</ele>
        <time>2011-07-06T08:38:26Z</time>
      </trkpt>
      <trkpt lat="43.81051" lon="6.72832">
        <ele>1258.98</ele>
        <time>2011-07-06T08:38:41Z</time>
      </trkpt>
      <trkpt lat="43.81038" lon="6.72807">
        <ele>1261.87</ele>
        <time>2011-07-06T08:38:56Z</time>
      </trkpt>
      <trkpt lat="43.81017" lon="6.72788">
        <ele>1263.79</ele>
        <time>2011-07-06T08:39:12Z</time>
      </trkpt>
      <trkpt lat="43.80999" lon="6.72763">
        <ele>1266.67</ele>
        <time>2011-07-06T08:39:28Z</time>
      </trkpt>
      <trkpt lat="43.80989" lon="6.72744">
        <ele>1269.56</ele>
        <time>2011-07-06T08:39:40Z</time>
      </trkpt>
      <trkpt lat="43.80985" lon="6.72715">
        <ele>1271.96</ele>
        <time>2011-07-06T08:39:56Z</time>
      </trkpt>
      <trkpt lat="43.80985" lon="6.72697">
        <ele>1274.36</ele>
        <time>2011-07-06T08:40:07Z</time>
      </trkpt>
      <trkpt lat="43.80986" lon="6.72683">
        <ele>1275.81</ele>
        <time>2011-07-06T08:40:20Z</time>
      </trkpt>
      <trkpt lat="43.8098" lon="6.72667">
        <ele>1278.69</ele>
        <time>2011-07-06T08:40:36Z</time>
      </trkpt>
      <trkpt lat="43.8097" lon="6.72658">
        <ele>1280.61</ele>
        <time>2011-07-06T08:40:54Z</time>
      </trkpt>
      <trkpt lat="43.80965" lon="6.72656">
        <ele>1282.06</ele>
        <time>2011-07-06T08:41:01Z</time>
      </trkpt>
      <trkpt lat="43.80956" lon="6.72644">
        <ele>1284.94</ele>
        <time>2011-07-06T08:41:18Z</time>
      </trkpt>
      <trkpt lat="43.80954" lon="6.7264">
        <ele>1286.38</ele>
        <time>2011-07-06T08:41:34Z</time>
      </trkpt>
      <trkpt lat="43.8095" lon="6.7262">
        <ele>1288.3</ele>
        <time>2011-07-06T08:41:52Z</time>
      </trkpt>
      <trkpt lat="43.80946" lon="6.72606">
        <ele>1291.19</ele>
        <time>2011-07-06T08:42:08Z</time>
      </trkpt>
      <trkpt lat="43.80944" lon="6.72588">
        <ele>1293.59</ele>
        <time>2011-07-06T08:42:25Z</time>
      </trkpt>
      <trkpt lat="43.80938" lon="6.72572">
        <ele>1295.99</ele>
        <time>2011-07-06T08:42:40Z</time>
      </trkpt>
      <trkpt lat="43.80937" lon="6.72554">
        <ele>1298.4</ele>
        <time>2011-07-06T08:42:57Z</time>
      </trkpt>
      <trkpt lat="43.80937" lon="6.72547">
        <ele>1299.36</ele>
        <time>2011-07-06T08:43:03Z</time>
      </trkpt>
      <trkpt lat="43.80936" lon="6.72543">
        <ele>1299.84</ele>
        <time>2011-07-06T08:43:07Z</time>
      </trkpt>
      <trkpt lat="43.80932" lon="6.72522">
        <ele>1301.76</ele>
        <time>2011-07-06T08:43:25Z</time>
      </trkpt>
      <trkpt lat="43.80923" lon="6.72511">
        <ele>1305.13</ele>
        <time>2011-07-06T08:43:41Z</time>
      </trkpt>
      <trkpt lat="43.8091" lon="6.72504">
        <ele>1307.05</ele>
        <time>2011-07-06T08:43:59Z</time>
      </trkpt>
      <trkpt lat="43.80908" lon="6.72502">
        <ele>1308.01</ele>
        <time>2011-07-06T08:44:15Z</time>
      </trkpt>
      <trkpt lat="43.809" lon="6.72496">
        <ele>1308.97</ele>
        <time>2011-07-06T08:44:22Z</time>
      </trkpt>
      <trkpt lat="43.80883" lon="6.72473">
        <ele>1312.34</ele>
        <time>2011-07-06T08:44:39Z</time>
      </trkpt>
      <trkpt lat="43.80863" lon="6.72469">
        <ele>1314.74</ele>
        <time>2011-07-06T08:44:54Z</time>
      </trkpt>
      <trkpt lat="43.80843" lon="6.72468">
        <ele>1317.14</ele>
        <time>2011-07-06T08:45:08Z</time>
      </trkpt>
      <trkpt lat="43.80833" lon="6.72468">
        <ele>1318.1</ele>
        <time>2011-07-06T08:45:15Z</time>
      </trkpt>
      <trkpt lat="43.80828" lon="6.72469">
        <ele>1319.07</ele>
        <time>2011-07-06T08:45:19Z</time>
      </trkpt>
      <trkpt lat="43.80805" lon="6.72472">
        <ele>1320.99</ele>
        <time>2011-07-06T08:45:34Z</time>
      </trkpt>
      <trkpt lat="43.80789" lon="6.72472">
        <ele>1322.43</ele>
        <time>2011-07-06T08:45:44Z</time>
      </trkpt>
      <trkpt lat="43.80782" lon="6.72472">
        <ele>1323.39</ele>
        <time>2011-07-06T08:45:50Z</time>
      </trkpt>
      <trkpt lat="43.80773" lon="6.72479">
        <ele>1323.87</ele>
        <time>2011-07-06T08:46:03Z</time>
      </trkpt>
      <trkpt lat="43.80773" lon="6.7248">
        <ele>1323.39</ele>
        <time>2011-07-06T08:46:16Z</time>
      </trkpt>
      <trkpt lat="43.80777" lon="6.72476">
        <ele>1321.95</ele>
        <time>2011-07-06T08:52:54Z</time>
      </trkpt>
      <trkpt lat="43.80774" lon="6.72478">
        <ele>1323.87</ele>
        <time>2011-07-06T08:53:00Z</time>
      </trkpt>
      <trkpt lat="43.80772" lon="6.72476">
        <ele>1327.24</ele>
        <time>2011-07-06T08:53:17Z</time>
      </trkpt>
      <trkpt lat="43.80772" lon="6.72476">
        <ele>1328.2</ele>
        <time>2011-07-06T08:53:19Z</time>
      </trkpt>
      <trkpt lat="43.80771" lon="6.72474">
        <ele>1330.12</ele>
        <time>2011-07-06T08:53:43Z</time>
      </trkpt>
      <trkpt lat="43.80771" lon="6.72474">
        <ele>1333.97</ele>
        <time>2011-07-06T08:54:16Z</time>
      </trkpt>
      <trkpt lat="43.80771" lon="6.72473">
        <ele>1335.41</ele>
        <time>2011-07-06T08:54:43Z</time>
      </trkpt>
      <trkpt lat="43.80771" lon="6.72473">
        <ele>1335.41</ele>
        <time>2011-07-06T08:55:21Z</time>
      </trkpt>
      <trkpt lat="43.80771" lon="6.72472">
        <ele>1334.45</ele>
        <time>2011-07-06T08:55:49Z</time>
      </trkpt>
      <trkpt lat="43.80771" lon="6.72472">
        <ele>1334.45</ele>
        <time>2011-07-06T08:56:18Z</time>
      </trkpt>
      <trkpt lat="43.8077" lon="6.72472">
        <ele>1333.97</ele>
        <time>2011-07-06T08:56:42Z</time>
      </trkpt>
      <trkpt lat="43.80754" lon="6.72492">
        <ele>1331.08</ele>
        <time>2011-07-06T08:56:51Z</time>
      </trkpt>
      <trkpt lat="43.80744" lon="6.72496">
        <ele>1330.12</ele>
        <time>2011-07-06T08:56:54Z</time>
      </trkpt>
      <trkpt lat="43.80735" lon="6.72497">
        <ele>1328.68</ele>
        <time>2011-07-06T08:56:56Z</time>
      </trkpt>
      <trkpt lat="43.8073" lon="6.72498">
        <ele>1328.68</ele>
        <time>2011-07-06T08:56:57Z</time>
      </trkpt>
      <trkpt lat="43.80713" lon="6.72486">
        <ele>1325.31</ele>
        <time>2011-07-06T08:57:04Z</time>
      </trkpt>
      <trkpt lat="43.80717" lon="6.7248">
        <ele>1324.35</ele>
        <time>2011-07-06T08:57:06Z</time>
      </trkpt>
      <trkpt lat="43.80725" lon="6.72471">
        <ele>1323.87</ele>
        <time>2011-07-06T08:57:09Z</time>
      </trkpt>
      <trkpt lat="43.80719" lon="6.72459">
        <ele>1320.99</ele>
        <time>2011-07-06T08:57:16Z</time>
      </trkpt>
      <trkpt lat="43.80694" lon="6.72469">
        <ele>1317.14</ele>
        <time>2011-07-06T08:57:24Z</time>
      </trkpt>
      <trkpt lat="43.80687" lon="6.72469">
        <ele>1315.7</ele>
        <time>2011-07-06T08:57:27Z</time>
      </trkpt>
      <trkpt lat="43.80679" lon="6.72471">
        <ele>1314.74</ele>
        <time>2011-07-06T08:57:39Z</time>
      </trkpt>
      <trkpt lat="43.80678" lon="6.7247">
        <ele>1314.26</ele>
        <time>2011-07-06T08:58:09Z</time>
      </trkpt>
      <trkpt lat="43.80683" lon="6.72457">
        <ele>1312.34</ele>
        <time>2011-07-06T08:58:14Z</time>
      </trkpt>
      <trkpt lat="43.80698" lon="6.7242">
        <ele>1308.97</ele>
        <time>2011-07-06T08:58:24Z</time>
      </trkpt>
      <trkpt lat="43.80699" lon="6.72402">
        <ele>1308.01</ele>
        <time>2011-07-06T08:58:28Z</time>
      </trkpt>
      <trkpt lat="43.80664" lon="6.7236">
        <ele>1307.05</ele>
        <time>2011-07-06T08:58:41Z</time>
      </trkpt>
      <trkpt lat="43.80642" lon="6.72331">
        <ele>1304.65</ele>
        <time>2011-07-06T08:58:50Z</time>
      </trkpt>
      <trkpt lat="43.80638" lon="6.72327">
        <ele>1304.65</ele>
        <time>2011-07-06T08:58:51Z</time>
      </trkpt>
      <trkpt lat="43.80636" lon="6.72323">
        <ele>1304.65</ele>
        <time>2011-07-06T08:58:52Z</time>
      </trkpt>
      <trkpt lat="43.8063" lon="6.72308">
        <ele>1306.57</ele>
        <time>2011-07-06T08:59:02Z</time>
      </trkpt>
      <trkpt lat="43.80624" lon="6.72292">
        <ele>1305.61</ele>
        <time>2011-07-06T08:59:16Z</time>
      </trkpt>
      <trkpt lat="43.80622" lon="6.72287">
        <ele>1305.13</ele>
        <time>2011-07-06T08:59:21Z</time>
      </trkpt>
      <trkpt lat="43.80621" lon="6.72284">
        <ele>1304.17</ele>
        <time>2011-07-06T08:59:22Z</time>
      </trkpt>
      <trkpt lat="43.8062" lon="6.72281">
        <ele>1304.65</ele>
        <time>2011-07-06T08:59:23Z</time>
      </trkpt>
      <trkpt lat="43.80612" lon="6.72246">
        <ele>1303.2</ele>
        <time>2011-07-06T08:59:33Z</time>
      </trkpt>
      <trkpt lat="43.80606" lon="6.7223">
        <ele>1302.24</ele>
        <time>2011-07-06T08:59:43Z</time>
      </trkpt>
      <trkpt lat="43.80602" lon="6.72202">
        <ele>1300.32</ele>
        <time>2011-07-06T08:59:51Z</time>
      </trkpt>
      <trkpt lat="43.80602" lon="6.72198">
        <ele>1299.84</ele>
        <time>2011-07-06T08:59:52Z</time>
      </trkpt>
      <trkpt lat="43.80602" lon="6.72195">
        <ele>1299.84</ele>
        <time>2011-07-06T08:59:53Z</time>
      </trkpt>
      <trkpt lat="43.80599" lon="6.72174">
        <ele>1296.96</ele>
        <time>2011-07-06T09:00:04Z</time>
      </trkpt>
      <trkpt lat="43.80598" lon="6.72175">
        <ele>1295.99</ele>
        <time>2011-07-06T09:00:05Z</time>
      </trkpt>
      <trkpt lat="43.80593" lon="6.72182">
        <ele>1295.03</ele>
        <time>2011-07-06T09:00:14Z</time>
      </trkpt>
      <trkpt lat="43.80592" lon="6.72176">
        <ele>1295.03</ele>
        <time>2011-07-06T09:00:20Z</time>
      </trkpt>
      <trkpt lat="43.80593" lon="6.72151">
        <ele>1291.67</ele>
        <time>2011-07-06T09:00:29Z</time>
      </trkpt>
      <trkpt lat="43.80595" lon="6.72125">
        <ele>1288.78</ele>
        <time>2011-07-06T09:00:34Z</time>
      </trkpt>
      <trkpt lat="43.80595" lon="6.72091">
        <ele>1285.9</ele>
        <time>2011-07-06T09:00:43Z</time>
      </trkpt>
      <trkpt lat="43.80585" lon="6.72078">
        <ele>1282.54</ele>
        <time>2011-07-06T09:00:51Z</time>
      </trkpt>
      <trkpt lat="43.80583" lon="6.7205">
        <ele>1279.17</ele>
        <time>2011-07-06T09:00:59Z</time>
      </trkpt>
      <trkpt lat="43.80582" lon="6.72031">
        <ele>1275.81</ele>
        <time>2011-07-06T09:01:10Z</time>
      </trkpt>
      <trkpt lat="43.80587" lon="6.7201">
        <ele>1273.88</ele>
        <time>2011-07-06T09:01:17Z</time>
      </trkpt>
      <trkpt lat="43.80587" lon="6.71998">
        <ele>1272.92</ele>
        <time>2011-07-06T09:01:22Z</time>
      </trkpt>
      <trkpt lat="43.80594" lon="6.71969">
        <ele>1272.92</ele>
        <time>2011-07-06T09:01:28Z</time>
      </trkpt>
      <trkpt lat="43.80595" lon="6.71963">
        <ele>1272.92</ele>
        <time>2011-07-06T09:01:29Z</time>
      </trkpt>
      <trkpt lat="43.80596" lon="6.71958">
        <ele>1272.92</ele>
        <time>2011-07-06T09:01:30Z</time>
      </trkpt>
      <trkpt lat="43.80597" lon="6.71952">
        <ele>1272.92</ele>
        <time>2011-07-06T09:01:31Z</time>
      </trkpt>
      <trkpt lat="43.80597" lon="6.71946">
        <ele>1272.44</ele>
        <time>2011-07-06T09:01:32Z</time>
      </trkpt>
      <trkpt lat="43.80598" lon="6.7194">
        <ele>1271.48</ele>
        <time>2011-07-06T09:01:33Z</time>
      </trkpt>
      <trkpt lat="43.80599" lon="6.71934">
        <ele>1271.48</ele>
        <time>2011-07-06T09:01:34Z</time>
      </trkpt>
      <trkpt lat="43.80603" lon="6.71912">
        <ele>1270.52</ele>
        <time>2011-07-06T09:01:38Z</time>
      </trkpt>
      <trkpt lat="43.80603" lon="6.71906">
        <ele>1270.52</ele>
        <time>2011-07-06T09:01:39Z</time>
      </trkpt>
      <trkpt lat="43.80602" lon="6.71893">
        <ele>1269.56</ele>
        <time>2011-07-06T09:01:41Z</time>
      </trkpt>
      <trkpt lat="43.80603" lon="6.71849">
        <ele>1268.6</ele>
        <time>2011-07-06T09:01:47Z</time>
      </trkpt>
      <trkpt lat="43.80604" lon="6.71842">
        <ele>1267.64</ele>
        <time>2011-07-06T09:01:48Z</time>
      </trkpt>
      <trkpt lat="43.80606" lon="6.7183">
        <ele>1267.64</ele>
        <time>2011-07-06T09:01:50Z</time>
      </trkpt>
      <trkpt lat="43.80605" lon="6.71824">
        <ele>1267.16</ele>
        <time>2011-07-06T09:01:51Z</time>
      </trkpt>
      <trkpt lat="43.806" lon="6.71799">
        <ele>1266.19</ele>
        <time>2011-07-06T09:01:55Z</time>
      </trkpt>
      <trkpt lat="43.80597" lon="6.71793">
        <ele>1265.71</ele>
        <time>2011-07-06T09:01:56Z</time>
      </trkpt>
      <trkpt lat="43.80578" lon="6.71755">
        <ele>1265.71</ele>
        <time>2011-07-06T09:02:03Z</time>
      </trkpt>
      <trkpt lat="43.80571" lon="6.71747">
        <ele>1265.71</ele>
        <time>2011-07-06T09:02:05Z</time>
      </trkpt>
      <trkpt lat="43.80568" lon="6.71742">
        <ele>1265.71</ele>
        <time>2011-07-06T09:02:06Z</time>
      </trkpt>
      <trkpt lat="43.80561" lon="6.71734">
        <ele>1265.23</ele>
        <time>2011-07-06T09:02:08Z</time>
      </trkpt>
      <trkpt lat="43.80558" lon="6.7173">
        <ele>1265.71</ele>
        <time>2011-07-06T09:02:09Z</time>
      </trkpt>
      <trkpt lat="43.80536" lon="6.717">
        <ele>1266.19</ele>
        <time>2011-07-06T09:02:15Z</time>
      </trkpt>
      <trkpt lat="43.80524" lon="6.71679">
        <ele>1265.71</ele>
        <time>2011-07-06T09:02:19Z</time>
      </trkpt>
      <trkpt lat="43.80522" lon="6.71675">
        <ele>1265.71</ele>
        <time>2011-07-06T09:02:20Z</time>
      </trkpt>
      <trkpt lat="43.80519" lon="6.71671">
        <ele>1264.75</ele>
        <time>2011-07-06T09:02:21Z</time>
      </trkpt>
      <trkpt lat="43.80516" lon="6.71666">
        <ele>1264.27</ele>
        <time>2011-07-06T09:02:22Z</time>
      </trkpt>
      <trkpt lat="43.80513" lon="6.71662">
        <ele>1263.31</ele>
        <time>2011-07-06T09:02:23Z</time>
      </trkpt>
      <trkpt lat="43.80509" lon="6.71658">
        <ele>1262.35</ele>
        <time>2011-07-06T09:02:24Z</time>
      </trkpt>
      <trkpt lat="43.80505" lon="6.71656">
        <ele>1261.87</ele>
        <time>2011-07-06T09:02:25Z</time>
      </trkpt>
      <trkpt lat="43.80502" lon="6.71656">
        <ele>1261.39</ele>
        <time>2011-07-06T09:02:26Z</time>
      </trkpt>
      <trkpt lat="43.80499" lon="6.71655">
        <ele>1260.91</ele>
        <time>2011-07-06T09:02:27Z</time>
      </trkpt>
      <trkpt lat="43.80495" lon="6.71655">
        <ele>1259.46</ele>
        <time>2011-07-06T09:02:28Z</time>
      </trkpt>
      <trkpt lat="43.80492" lon="6.71654">
        <ele>1259.46</ele>
        <time>2011-07-06T09:02:29Z</time>
      </trkpt>
      <trkpt lat="43.80489" lon="6.71654">
        <ele>1258.98</ele>
        <time>2011-07-06T09:02:30Z</time>
      </trkpt>
      <trkpt lat="43.80488" lon="6.71658">
        <ele>1259.46</ele>
        <time>2011-07-06T09:02:39Z</time>
      </trkpt>
      <trkpt lat="43.80488" lon="6.71653">
        <ele>1258.98</ele>
        <time>2011-07-06T09:02:52Z</time>
      </trkpt>
      <trkpt lat="43.80486" lon="6.71637">
        <ele>1255.14</ele>
        <time>2011-07-06T09:03:00Z</time>
      </trkpt>
      <trkpt lat="43.80478" lon="6.71624">
        <ele>1251.29</ele>
        <time>2011-07-06T09:03:06Z</time>
      </trkpt>
      <trkpt lat="43.80479" lon="6.71616">
        <ele>1250.33</ele>
        <time>2011-07-06T09:03:08Z</time>
      </trkpt>
      <trkpt lat="43.80481" lon="6.71612">
        <ele>1249.85</ele>
        <time>2011-07-06T09:03:09Z</time>
      </trkpt>
      <trkpt lat="43.80492" lon="6.71584">
        <ele>1245.53</ele>
        <time>2011-07-06T09:03:18Z</time>
      </trkpt>
      <trkpt lat="43.80496" lon="6.71577">
        <ele>1245.04</ele>
        <time>2011-07-06T09:03:20Z</time>
      </trkpt>
      <trkpt lat="43.80498" lon="6.71574">
        <ele>1244.56</ele>
        <time>2011-07-06T09:03:21Z</time>
      </trkpt>
      <trkpt lat="43.80501" lon="6.71527">
        <ele>1240.72</ele>
        <time>2011-07-06T09:03:30Z</time>
      </trkpt>
      <trkpt lat="43.805" lon="6.71521">
        <ele>1240.24</ele>
        <time>2011-07-06T09:03:31Z</time>
      </trkpt>
      <trkpt lat="43.80494" lon="6.71483">
        <ele>1237.35</ele>
        <time>2011-07-06T09:03:40Z</time>
      </trkpt>
      <trkpt lat="43.80485" lon="6.71474">
        <ele>1234.95</ele>
        <time>2011-07-06T09:03:44Z</time>
      </trkpt>
      <trkpt lat="43.80477" lon="6.71466">
        <ele>1233.51</ele>
        <time>2011-07-06T09:03:47Z</time>
      </trkpt>
      <trkpt lat="43.80463" lon="6.71458">
        <ele>1230.14</ele>
        <time>2011-07-06T09:03:53Z</time>
      </trkpt>
      <trkpt lat="43.80457" lon="6.71458">
        <ele>1229.18</ele>
        <time>2011-07-06T09:03:55Z</time>
      </trkpt>
      <trkpt lat="43.8042" lon="6.71463">
        <ele>1226.78</ele>
        <time>2011-07-06T09:04:05Z</time>
      </trkpt>
      <trkpt lat="43.80416" lon="6.71461">
        <ele>1227.26</ele>
        <time>2011-07-06T09:04:06Z</time>
      </trkpt>
      <trkpt lat="43.804" lon="6.71451">
        <ele>1225.82</ele>
        <time>2011-07-06T09:04:10Z</time>
      </trkpt>
      <trkpt lat="43.80381" lon="6.71431">
        <ele>1222.45</ele>
        <time>2011-07-06T09:04:16Z</time>
      </trkpt>
      <trkpt lat="43.80375" lon="6.71428">
        <ele>1221.49</ele>
        <time>2011-07-06T09:04:18Z</time>
      </trkpt>
      <trkpt lat="43.80364" lon="6.7142">
        <ele>1218.61</ele>
        <time>2011-07-06T09:04:22Z</time>
      </trkpt>
      <trkpt lat="43.8036" lon="6.71415">
        <ele>1217.17</ele>
        <time>2011-07-06T09:04:24Z</time>
      </trkpt>
      <trkpt lat="43.80357" lon="6.71399">
        <ele>1214.28</ele>
        <time>2011-07-06T09:04:31Z</time>
      </trkpt>
      <trkpt lat="43.80345" lon="6.71396">
        <ele>1210.92</ele>
        <time>2011-07-06T09:04:38Z</time>
      </trkpt>
      <trkpt lat="43.80334" lon="6.71388">
        <ele>1208.51</ele>
        <time>2011-07-06T09:04:44Z</time>
      </trkpt>
      <trkpt lat="43.80323" lon="6.71375">
        <ele>1205.63</ele>
        <time>2011-07-06T09:04:51Z</time>
      </trkpt>
      <trkpt lat="43.80307" lon="6.7135">
        <ele>1202.27</ele>
        <time>2011-07-06T09:05:00Z</time>
      </trkpt>
      <trkpt lat="43.80294" lon="6.71329">
        <ele>1199.38</ele>
        <time>2011-07-06T09:05:07Z</time>
      </trkpt>
      <trkpt lat="43.80277" lon="6.71279">
        <ele>1196.02</ele>
        <time>2011-07-06T09:05:17Z</time>
      </trkpt>
      <trkpt lat="43.80276" lon="6.71275">
        <ele>1196.02</ele>
        <time>2011-07-06T09:05:18Z</time>
      </trkpt>
      <trkpt lat="43.80266" lon="6.71252">
        <ele>1192.65</ele>
        <time>2011-07-06T09:05:24Z</time>
      </trkpt>
      <trkpt lat="43.80253" lon="6.71236">
        <ele>1190.25</ele>
        <time>2011-07-06T09:05:30Z</time>
      </trkpt>
      <trkpt lat="43.8024" lon="6.71218">
        <ele>1186.88</ele>
        <time>2011-07-06T09:05:37Z</time>
      </trkpt>
      <trkpt lat="43.8022" lon="6.71203">
        <ele>1184</ele>
        <time>2011-07-06T09:05:44Z</time>
      </trkpt>
      <trkpt lat="43.80206" lon="6.71195">
        <ele>1180.64</ele>
        <time>2011-07-06T09:05:52Z</time>
      </trkpt>
      <trkpt lat="43.80204" lon="6.71195">
        <ele>1180.64</ele>
        <time>2011-07-06T09:05:53Z</time>
      </trkpt>
      <trkpt lat="43.8019" lon="6.71191">
        <ele>1177.75</ele>
        <time>2011-07-06T09:06:03Z</time>
      </trkpt>
      <trkpt lat="43.80184" lon="6.71188">
        <ele>1176.31</ele>
        <time>2011-07-06T09:06:10Z</time>
      </trkpt>
      <trkpt lat="43.80178" lon="6.71185">
        <ele>1174.87</ele>
        <time>2011-07-06T09:06:14Z</time>
      </trkpt>
      <trkpt lat="43.80176" lon="6.71185">
        <ele>1174.87</ele>
        <time>2011-07-06T09:06:15Z</time>
      </trkpt>
      <trkpt lat="43.80175" lon="6.71185">
        <ele>1174.87</ele>
        <time>2011-07-06T09:06:16Z</time>
      </trkpt>
      <trkpt lat="43.80173" lon="6.71185">
        <ele>1174.39</ele>
        <time>2011-07-06T09:06:17Z</time>
      </trkpt>
      <trkpt lat="43.80172" lon="6.71184">
        <ele>1173.91</ele>
        <time>2011-07-06T09:06:18Z</time>
      </trkpt>
      <trkpt lat="43.8017" lon="6.71183">
        <ele>1172.95</ele>
        <time>2011-07-06T09:06:19Z</time>
      </trkpt>
      <trkpt lat="43.80169" lon="6.71181">
        <ele>1171.98</ele>
        <time>2011-07-06T09:06:20Z</time>
      </trkpt>
      <trkpt lat="43.80167" lon="6.7118">
        <ele>1171.98</ele>
        <time>2011-07-06T09:06:21Z</time>
      </trkpt>
      <trkpt lat="43.80166" lon="6.71178">
        <ele>1171.98</ele>
        <time>2011-07-06T09:06:22Z</time>
      </trkpt>
      <trkpt lat="43.80164" lon="6.71177">
        <ele>1171.98</ele>
        <time>2011-07-06T09:06:23Z</time>
      </trkpt>
      <trkpt lat="43.80162" lon="6.71175">
        <ele>1171.02</ele>
        <time>2011-07-06T09:06:24Z</time>
      </trkpt>
      <trkpt lat="43.80161" lon="6.71174">
        <ele>1170.54</ele>
        <time>2011-07-06T09:06:25Z</time>
      </trkpt>
      <trkpt lat="43.80159" lon="6.71174">
        <ele>1170.06</ele>
        <time>2011-07-06T09:06:26Z</time>
      </trkpt>
      <trkpt lat="43.80158" lon="6.71174">
        <ele>1170.06</ele>
        <time>2011-07-06T09:06:27Z</time>
      </trkpt>
      <trkpt lat="43.80154" lon="6.71173">
        <ele>1169.1</ele>
        <time>2011-07-06T09:06:29Z</time>
      </trkpt>
      <trkpt lat="43.80134" lon="6.71171">
        <ele>1165.26</ele>
        <time>2011-07-06T09:06:36Z</time>
      </trkpt>
      <trkpt lat="43.80121" lon="6.71172">
        <ele>1163.81</ele>
        <time>2011-07-06T09:06:41Z</time>
      </trkpt>
      <trkpt lat="43.80119" lon="6.7117">
        <ele>1163.33</ele>
        <time>2011-07-06T09:06:42Z</time>
      </trkpt>
      <trkpt lat="43.80118" lon="6.71169">
        <ele>1163.33</ele>
        <time>2011-07-06T09:06:43Z</time>
      </trkpt>
      <trkpt lat="43.80116" lon="6.71168">
        <ele>1162.85</ele>
        <time>2011-07-06T09:06:44Z</time>
      </trkpt>
      <trkpt lat="43.80115" lon="6.71168">
        <ele>1162.37</ele>
        <time>2011-07-06T09:06:45Z</time>
      </trkpt>
      <trkpt lat="43.80113" lon="6.71168">
        <ele>1162.37</ele>
        <time>2011-07-06T09:06:46Z</time>
      </trkpt>
      <trkpt lat="43.80113" lon="6.71167">
        <ele>1162.37</ele>
        <time>2011-07-06T09:06:55Z</time>
      </trkpt>
      <trkpt lat="43.80106" lon="6.71161">
        <ele>1160.45</ele>
        <time>2011-07-06T09:07:06Z</time>
      </trkpt>
      <trkpt lat="43.80106" lon="6.7116">
        <ele>1159.97</ele>
        <time>2011-07-06T09:07:07Z</time>
      </trkpt>
      <trkpt lat="43.80104" lon="6.71159">
        <ele>1159.97</ele>
        <time>2011-07-06T09:07:08Z</time>
      </trkpt>
      <trkpt lat="43.80103" lon="6.71158">
        <ele>1159.49</ele>
        <time>2011-07-06T09:07:09Z</time>
      </trkpt>
      <trkpt lat="43.80093" lon="6.7115">
        <ele>1156.12</ele>
        <time>2011-07-06T09:07:20Z</time>
      </trkpt>
      <trkpt lat="43.80078" lon="6.71143">
        <ele>1153.72</ele>
        <time>2011-07-06T09:07:27Z</time>
      </trkpt>
      <trkpt lat="43.80064" lon="6.71135">
        <ele>1150.35</ele>
        <time>2011-07-06T09:07:34Z</time>
      </trkpt>
      <trkpt lat="43.80044" lon="6.7111">
        <ele>1147.47</ele>
        <time>2011-07-06T09:07:44Z</time>
      </trkpt>
      <trkpt lat="43.80039" lon="6.71105">
        <ele>1146.51</ele>
        <time>2011-07-06T09:07:46Z</time>
      </trkpt>
      <trkpt lat="43.80022" lon="6.71074">
        <ele>1143.14</ele>
        <time>2011-07-06T09:07:55Z</time>
      </trkpt>
      <trkpt lat="43.79988" lon="6.7104">
        <ele>1140.26</ele>
        <time>2011-07-06T09:08:08Z</time>
      </trkpt>
      <trkpt lat="43.79984" lon="6.71034">
        <ele>1138.34</ele>
        <time>2011-07-06T09:08:12Z</time>
      </trkpt>
      <trkpt lat="43.79975" lon="6.71024">
        <ele>1135.45</ele>
        <time>2011-07-06T09:08:18Z</time>
      </trkpt>
      <trkpt lat="43.79974" lon="6.71022">
        <ele>1135.45</ele>
        <time>2011-07-06T09:08:19Z</time>
      </trkpt>
      <trkpt lat="43.79969" lon="6.7103">
        <ele>1134.49</ele>
        <time>2011-07-06T09:08:22Z</time>
      </trkpt>
      <trkpt lat="43.79958" lon="6.71052">
        <ele>1134.49</ele>
        <time>2011-07-06T09:08:27Z</time>
      </trkpt>
      <trkpt lat="43.79938" lon="6.71056">
        <ele>1136.42</ele>
        <time>2011-07-06T09:08:40Z</time>
      </trkpt>
      <trkpt lat="43.79938" lon="6.71056">
        <ele>1135.45</ele>
        <time>2011-07-06T09:09:07Z</time>
      </trkpt>
      <trkpt lat="43.79938" lon="6.71056">
        <ele>1135.45</ele>
        <time>2011-07-06T09:09:35Z</time>
      </trkpt>
      <trkpt lat="43.79938" lon="6.71056">
        <ele>1135.45</ele>
        <time>2011-07-06T09:09:43Z</time>
      </trkpt>
      <trkpt lat="43.79931" lon="6.71053">
        <ele>1134.97</ele>
        <time>2011-07-06T09:09:48Z</time>
      </trkpt>
      <trkpt lat="43.7991" lon="6.71028">
        <ele>1133.05</ele>
        <time>2011-07-06T09:10:00Z</time>
      </trkpt>
      <trkpt lat="43.79876" lon="6.71">
        <ele>1134.01</ele>
        <time>2011-07-06T09:10:12Z</time>
      </trkpt>
      <trkpt lat="43.79845" lon="6.70986">
        <ele>1133.53</ele>
        <time>2011-07-06T09:10:25Z</time>
      </trkpt>
      <trkpt lat="43.7983" lon="6.70987">
        <ele>1130.65</ele>
        <time>2011-07-06T09:10:29Z</time>
      </trkpt>
      <trkpt lat="43.79826" lon="6.70988">
        <ele>1129.69</ele>
        <time>2011-07-06T09:10:30Z</time>
      </trkpt>
      <trkpt lat="43.79812" lon="6.7099">
        <ele>1127.28</ele>
        <time>2011-07-06T09:10:33Z</time>
      </trkpt>
      <trkpt lat="43.79801" lon="6.70995">
        <ele>1125.84</ele>
        <time>2011-07-06T09:10:36Z</time>
      </trkpt>
      <trkpt lat="43.79785" lon="6.71011">
        <ele>1122.96</ele>
        <time>2011-07-06T09:10:41Z</time>
      </trkpt>
      <trkpt lat="43.79762" lon="6.71027">
        <ele>1119.59</ele>
        <time>2011-07-06T09:10:46Z</time>
      </trkpt>
      <trkpt lat="43.79747" lon="6.70995">
        <ele>1116.71</ele>
        <time>2011-07-06T09:10:52Z</time>
      </trkpt>
      <trkpt lat="43.79743" lon="6.70985">
        <ele>1115.75</ele>
        <time>2011-07-06T09:10:54Z</time>
      </trkpt>
      <trkpt lat="43.79731" lon="6.70971">
        <ele>1112.86</ele>
        <time>2011-07-06T09:10:58Z</time>
      </trkpt>
      <trkpt lat="43.79724" lon="6.70965">
        <ele>1110.94</ele>
        <time>2011-07-06T09:11:00Z</time>
      </trkpt>
      <trkpt lat="43.79721" lon="6.70961">
        <ele>1110.46</ele>
        <time>2011-07-06T09:11:01Z</time>
      </trkpt>
      <trkpt lat="43.79718" lon="6.70957">
        <ele>1109.5</ele>
        <time>2011-07-06T09:11:02Z</time>
      </trkpt>
      <trkpt lat="43.79715" lon="6.70952">
        <ele>1109.02</ele>
        <time>2011-07-06T09:11:03Z</time>
      </trkpt>
      <trkpt lat="43.79712" lon="6.70949">
        <ele>1108.54</ele>
        <time>2011-07-06T09:11:04Z</time>
      </trkpt>
      <trkpt lat="43.79709" lon="6.70947">
        <ele>1108.06</ele>
        <time>2011-07-06T09:11:05Z</time>
      </trkpt>
      <trkpt lat="43.79706" lon="6.70947">
        <ele>1107.1</ele>
        <time>2011-07-06T09:11:06Z</time>
      </trkpt>
      <trkpt lat="43.79702" lon="6.70949">
        <ele>1106.61</ele>
        <time>2011-07-06T09:11:07Z</time>
      </trkpt>
      <trkpt lat="43.79699" lon="6.7095">
        <ele>1106.13</ele>
        <time>2011-07-06T09:11:08Z</time>
      </trkpt>
      <trkpt lat="43.79691" lon="6.70949">
        <ele>1104.69</ele>
        <time>2011-07-06T09:11:11Z</time>
      </trkpt>
      <trkpt lat="43.79681" lon="6.70915">
        <ele>1105.17</ele>
        <time>2011-07-06T09:11:22Z</time>
      </trkpt>
      <trkpt lat="43.7968" lon="6.70907">
        <ele>1105.65</ele>
        <time>2011-07-06T09:11:33Z</time>
      </trkpt>
      <trkpt lat="43.79678" lon="6.709">
        <ele>1105.65</ele>
        <time>2011-07-06T09:11:40Z</time>
      </trkpt>
      <trkpt lat="43.79676" lon="6.70897">
        <ele>1105.65</ele>
        <time>2011-07-06T09:11:41Z</time>
      </trkpt>
      <trkpt lat="43.79675" lon="6.70895">
        <ele>1105.17</ele>
        <time>2011-07-06T09:11:42Z</time>
      </trkpt>
      <trkpt lat="43.79673" lon="6.70893">
        <ele>1105.17</ele>
        <time>2011-07-06T09:11:43Z</time>
      </trkpt>
      <trkpt lat="43.79671" lon="6.70891">
        <ele>1105.65</ele>
        <time>2011-07-06T09:11:44Z</time>
      </trkpt>
      <trkpt lat="43.7966" lon="6.70876">
        <ele>1105.17</ele>
        <time>2011-07-06T09:11:57Z</time>
      </trkpt>
      <trkpt lat="43.79661" lon="6.70876">
        <ele>1105.65</ele>
        <time>2011-07-06T09:12:26Z</time>
      </trkpt>
      <trkpt lat="43.79661" lon="6.70879">
        <ele>1105.65</ele>
        <time>2011-07-06T09:12:28Z</time>
      </trkpt>
      <trkpt lat="43.79662" lon="6.70879">
        <ele>1105.65</ele>
        <time>2011-07-06T09:12:39Z</time>
      </trkpt>
      <trkpt lat="43.79662" lon="6.70879">
        <ele>1105.17</ele>
        <time>2011-07-06T09:13:12Z</time>
      </trkpt>
      <trkpt lat="43.79662" lon="6.70879">
        <ele>1104.21</ele>
        <time>2011-07-06T09:13:43Z</time>
      </trkpt>
      <trkpt lat="43.79664" lon="6.7088">
        <ele>1104.69</ele>
        <time>2011-07-06T09:14:07Z</time>
      </trkpt>
      <trkpt lat="43.79664" lon="6.70882">
        <ele>1104.69</ele>
        <time>2011-07-06T09:14:08Z</time>
      </trkpt>
      <trkpt lat="43.79665" lon="6.70883">
        <ele>1104.69</ele>
        <time>2011-07-06T09:14:09Z</time>
      </trkpt>
      <trkpt lat="43.79666" lon="6.70885">
        <ele>1105.17</ele>
        <time>2011-07-06T09:14:10Z</time>
      </trkpt>
      <trkpt lat="43.79668" lon="6.70887">
        <ele>1105.17</ele>
        <time>2011-07-06T09:14:11Z</time>
      </trkpt>
      <trkpt lat="43.7967" lon="6.70888">
        <ele>1105.17</ele>
        <time>2011-07-06T09:14:12Z</time>
      </trkpt>
      <trkpt lat="43.79672" lon="6.7089">
        <ele>1104.69</ele>
        <time>2011-07-06T09:14:13Z</time>
      </trkpt>
      <trkpt lat="43.79673" lon="6.70893">
        <ele>1104.69</ele>
        <time>2011-07-06T09:14:14Z</time>
      </trkpt>
      <trkpt lat="43.79675" lon="6.70897">
        <ele>1104.69</ele>
        <time>2011-07-06T09:14:15Z</time>
      </trkpt>
      <trkpt lat="43.79677" lon="6.70901">
        <ele>1105.17</ele>
        <time>2011-07-06T09:14:16Z</time>
      </trkpt>
      <trkpt lat="43.79678" lon="6.70905">
        <ele>1104.69</ele>
        <time>2011-07-06T09:14:17Z</time>
      </trkpt>
      <trkpt lat="43.79679" lon="6.70909">
        <ele>1104.21</ele>
        <time>2011-07-06T09:14:18Z</time>
      </trkpt>
      <trkpt lat="43.79684" lon="6.70935">
        <ele>1103.73</ele>
        <time>2011-07-06T09:14:23Z</time>
      </trkpt>
      <trkpt lat="43.79686" lon="6.7094">
        <ele>1103.25</ele>
        <time>2011-07-06T09:14:24Z</time>
      </trkpt>
      <trkpt lat="43.79703" lon="6.70996">
        <ele>1102.29</ele>
        <time>2011-07-06T09:14:36Z</time>
      </trkpt>
      <trkpt lat="43.79703" lon="6.71017">
        <ele>1100.85</ele>
        <time>2011-07-06T09:14:39Z</time>
      </trkpt>
      <trkpt lat="43.797" lon="6.71035">
        <ele>1100.37</ele>
        <time>2011-07-06T09:14:41Z</time>
      </trkpt>
      <trkpt lat="43.79699" lon="6.71104">
        <ele>1097.48</ele>
        <time>2011-07-06T09:14:48Z</time>
      </trkpt>
      <trkpt lat="43.79688" lon="6.71162">
        <ele>1093.64</ele>
        <time>2011-07-06T09:14:53Z</time>
      </trkpt>
      <trkpt lat="43.79685" lon="6.71174">
        <ele>1093.64</ele>
        <time>2011-07-06T09:14:54Z</time>
      </trkpt>
      <trkpt lat="43.79681" lon="6.71186">
        <ele>1092.68</ele>
        <time>2011-07-06T09:14:55Z</time>
      </trkpt>
      <trkpt lat="43.79676" lon="6.71197">
        <ele>1091.71</ele>
        <time>2011-07-06T09:14:56Z</time>
      </trkpt>
      <trkpt lat="43.79667" lon="6.7122">
        <ele>1090.75</ele>
        <time>2011-07-06T09:14:58Z</time>
      </trkpt>
      <trkpt lat="43.79664" lon="6.71232">
        <ele>1090.27</ele>
        <time>2011-07-06T09:14:59Z</time>
      </trkpt>
      <trkpt lat="43.79663" lon="6.71245">
        <ele>1090.27</ele>
        <time>2011-07-06T09:15:00Z</time>
      </trkpt>
      <trkpt lat="43.79663" lon="6.71257">
        <ele>1090.27</ele>
        <time>2011-07-06T09:15:01Z</time>
      </trkpt>
      <trkpt lat="43.79663" lon="6.7127">
        <ele>1090.75</ele>
        <time>2011-07-06T09:15:02Z</time>
      </trkpt>
      <trkpt lat="43.79657" lon="6.71332">
        <ele>1090.27</ele>
        <time>2011-07-06T09:15:08Z</time>
      </trkpt>
      <trkpt lat="43.79653" lon="6.7134">
        <ele>1089.79</ele>
        <time>2011-07-06T09:15:09Z</time>
      </trkpt>
      <trkpt lat="43.79647" lon="6.71346">
        <ele>1089.79</ele>
        <time>2011-07-06T09:15:10Z</time>
      </trkpt>
      <trkpt lat="43.79641" lon="6.7135">
        <ele>1089.31</ele>
        <time>2011-07-06T09:15:11Z</time>
      </trkpt>
      <trkpt lat="43.79636" lon="6.71353">
        <ele>1088.83</ele>
        <time>2011-07-06T09:15:12Z</time>
      </trkpt>
      <trkpt lat="43.79609" lon="6.71365">
        <ele>1087.87</ele>
        <time>2011-07-06T09:15:20Z</time>
      </trkpt>
      <trkpt lat="43.79568" lon="6.71381">
        <ele>1087.39</ele>
        <time>2011-07-06T09:15:33Z</time>
      </trkpt>
      <trkpt lat="43.79519" lon="6.71394">
        <ele>1085.95</ele>
        <time>2011-07-06T09:15:44Z</time>
      </trkpt>
      <trkpt lat="43.79514" lon="6.71394">
        <ele>1085.47</ele>
        <time>2011-07-06T09:15:45Z</time>
      </trkpt>
      <trkpt lat="43.7949" lon="6.71392">
        <ele>1084.5</ele>
        <time>2011-07-06T09:15:50Z</time>
      </trkpt>
      <trkpt lat="43.79485" lon="6.71393">
        <ele>1084.5</ele>
        <time>2011-07-06T09:15:51Z</time>
      </trkpt>
      <trkpt lat="43.79481" lon="6.71394">
        <ele>1084.5</ele>
        <time>2011-07-06T09:15:52Z</time>
      </trkpt>
      <trkpt lat="43.79476" lon="6.71395">
        <ele>1084.02</ele>
        <time>2011-07-06T09:15:53Z</time>
      </trkpt>
      <trkpt lat="43.79472" lon="6.71397">
        <ele>1083.54</ele>
        <time>2011-07-06T09:15:54Z</time>
      </trkpt>
      <trkpt lat="43.79467" lon="6.71399">
        <ele>1084.02</ele>
        <time>2011-07-06T09:15:55Z</time>
      </trkpt>
      <trkpt lat="43.79411" lon="6.71425">
        <ele>1080.66</ele>
        <time>2011-07-06T09:16:07Z</time>
      </trkpt>
      <trkpt lat="43.79407" lon="6.71428">
        <ele>1080.66</ele>
        <time>2011-07-06T09:16:08Z</time>
      </trkpt>
      <trkpt lat="43.79403" lon="6.71432">
        <ele>1079.7</ele>
        <time>2011-07-06T09:16:09Z</time>
      </trkpt>
      <trkpt lat="43.794" lon="6.71436">
        <ele>1079.7</ele>
        <time>2011-07-06T09:16:10Z</time>
      </trkpt>
      <trkpt lat="43.79396" lon="6.71442">
        <ele>1079.7</ele>
        <time>2011-07-06T09:16:11Z</time>
      </trkpt>
      <trkpt lat="43.79392" lon="6.71448">
        <ele>1079.22</ele>
        <time>2011-07-06T09:16:12Z</time>
      </trkpt>
      <trkpt lat="43.79386" lon="6.71463">
        <ele>1078.26</ele>
        <time>2011-07-06T09:16:14Z</time>
      </trkpt>
      <trkpt lat="43.79375" lon="6.71489">
        <ele>1077.29</ele>
        <time>2011-07-06T09:16:17Z</time>
      </trkpt>
      <trkpt lat="43.7937" lon="6.71496">
        <ele>1076.33</ele>
        <time>2011-07-06T09:16:18Z</time>
      </trkpt>
      <trkpt lat="43.79364" lon="6.71503">
        <ele>1076.33</ele>
        <time>2011-07-06T09:16:19Z</time>
      </trkpt>
      <trkpt lat="43.79358" lon="6.71508">
        <ele>1076.33</ele>
        <time>2011-07-06T09:16:20Z</time>
      </trkpt>
      <trkpt lat="43.79351" lon="6.71512">
        <ele>1076.33</ele>
        <time>2011-07-06T09:16:21Z</time>
      </trkpt>
      <trkpt lat="43.79331" lon="6.71523">
        <ele>1075.37</ele>
        <time>2011-07-06T09:16:25Z</time>
      </trkpt>
      <trkpt lat="43.79328" lon="6.71527">
        <ele>1075.37</ele>
        <time>2011-07-06T09:16:26Z</time>
      </trkpt>
      <trkpt lat="43.79326" lon="6.7153">
        <ele>1075.37</ele>
        <time>2011-07-06T09:16:27Z</time>
      </trkpt>
      <trkpt lat="43.79325" lon="6.71534">
        <ele>1075.37</ele>
        <time>2011-07-06T09:16:28Z</time>
      </trkpt>
      <trkpt lat="43.79325" lon="6.71538">
        <ele>1075.37</ele>
        <time>2011-07-06T09:16:29Z</time>
      </trkpt>
      <trkpt lat="43.79324" lon="6.71542">
        <ele>1075.37</ele>
        <time>2011-07-06T09:16:30Z</time>
      </trkpt>
      <trkpt lat="43.79324" lon="6.71545">
        <ele>1075.37</ele>
        <time>2011-07-06T09:16:31Z</time>
      </trkpt>
      <trkpt lat="43.79323" lon="6.71548">
        <ele>1075.37</ele>
        <time>2011-07-06T09:16:32Z</time>
      </trkpt>
      <trkpt lat="43.79322" lon="6.7155">
        <ele>1075.37</ele>
        <time>2011-07-06T09:16:33Z</time>
      </trkpt>
      <trkpt lat="43.79322" lon="6.71553">
        <ele>1074.89</ele>
        <time>2011-07-06T09:16:34Z</time>
      </trkpt>
      <trkpt lat="43.79322" lon="6.71555">
        <ele>1074.89</ele>
        <time>2011-07-06T09:16:35Z</time>
      </trkpt>
      <trkpt lat="43.79322" lon="6.71551">
        <ele>1074.89</ele>
        <time>2011-07-06T09:16:42Z</time>
      </trkpt>
      <trkpt lat="43.79323" lon="6.71549">
        <ele>1074.89</ele>
        <time>2011-07-06T09:16:43Z</time>
      </trkpt>
      <trkpt lat="43.79323" lon="6.71547">
        <ele>1074.89</ele>
        <time>2011-07-06T09:16:44Z</time>
      </trkpt>
      <trkpt lat="43.79324" lon="6.71545">
        <ele>1074.41</ele>
        <time>2011-07-06T09:16:45Z</time>
      </trkpt>
      <trkpt lat="43.79324" lon="6.71543">
        <ele>1074.41</ele>
        <time>2011-07-06T09:16:46Z</time>
      </trkpt>
      <trkpt lat="43.79324" lon="6.71541">
        <ele>1074.89</ele>
        <time>2011-07-06T09:16:47Z</time>
      </trkpt>
      <trkpt lat="43.79324" lon="6.71539">
        <ele>1074.41</ele>
        <time>2011-07-06T09:16:48Z</time>
      </trkpt>
      <trkpt lat="43.79324" lon="6.71537">
        <ele>1074.89</ele>
        <time>2011-07-06T09:17:01Z</time>
      </trkpt>
      <trkpt lat="43.79324" lon="6.71535">
        <ele>1074.41</ele>
        <time>2011-07-06T09:17:02Z</time>
      </trkpt>
      <trkpt lat="43.79324" lon="6.71533">
        <ele>1074.41</ele>
        <time>2011-07-06T09:17:03Z</time>
      </trkpt>
      <trkpt lat="43.79324" lon="6.71532">
        <ele>1074.89</ele>
        <time>2011-07-06T09:17:04Z</time>
      </trkpt>
      <trkpt lat="43.79323" lon="6.7153">
        <ele>1074.89</ele>
        <time>2011-07-06T09:17:05Z</time>
      </trkpt>
      <trkpt lat="43.79321" lon="6.7153">
        <ele>1074.89</ele>
        <time>2011-07-06T09:17:06Z</time>
      </trkpt>
      <trkpt lat="43.79319" lon="6.7153">
        <ele>1074.41</ele>
        <time>2011-07-06T09:17:07Z</time>
      </trkpt>
      <trkpt lat="43.79316" lon="6.71531">
        <ele>1074.41</ele>
        <time>2011-07-06T09:17:08Z</time>
      </trkpt>
      <trkpt lat="43.79263" lon="6.7153">
        <ele>1073.93</ele>
        <time>2011-07-06T09:17:23Z</time>
      </trkpt>
      <trkpt lat="43.79243" lon="6.71522">
        <ele>1072.97</ele>
        <time>2011-07-06T09:17:28Z</time>
      </trkpt>
      <trkpt lat="43.7921" lon="6.7151">
        <ele>1072.49</ele>
        <time>2011-07-06T09:17:36Z</time>
      </trkpt>
      <trkpt lat="43.79167" lon="6.71506">
        <ele>1072.01</ele>
        <time>2011-07-06T09:17:49Z</time>
      </trkpt>
      <trkpt lat="43.79148" lon="6.71509">
        <ele>1070.08</ele>
        <time>2011-07-06T09:17:58Z</time>
      </trkpt>
      <trkpt lat="43.79144" lon="6.71513">
        <ele>1070.08</ele>
        <time>2011-07-06T09:18:07Z</time>
      </trkpt>
      <trkpt lat="43.79144" lon="6.71513">
        <ele>1070.08</ele>
        <time>2011-07-06T09:18:08Z</time>
      </trkpt>
      <trkpt lat="43.79142" lon="6.71515">
        <ele>1070.08</ele>
        <time>2011-07-06T09:18:10Z</time>
      </trkpt>
      <trkpt lat="43.79141" lon="6.71515">
        <ele>1070.57</ele>
        <time>2011-07-06T09:18:11Z</time>
      </trkpt>
      <trkpt lat="43.79137" lon="6.71515">
        <ele>1071.05</ele>
        <time>2011-07-06T09:18:16Z</time>
      </trkpt>
      <trkpt lat="43.79131" lon="6.71518">
        <ele>1071.05</ele>
        <time>2011-07-06T09:18:30Z</time>
      </trkpt>
      <trkpt lat="43.7913" lon="6.71518">
        <ele>1071.53</ele>
        <time>2011-07-06T09:18:48Z</time>
      </trkpt>
      <trkpt lat="43.79128" lon="6.71519">
        <ele>1071.53</ele>
        <time>2011-07-06T09:18:57Z</time>
      </trkpt>
      <trkpt lat="43.79122" lon="6.7152">
        <ele>1071.53</ele>
        <time>2011-07-06T09:19:03Z</time>
      </trkpt>
      <trkpt lat="43.79121" lon="6.7152">
        <ele>1071.53</ele>
        <time>2011-07-06T09:19:04Z</time>
      </trkpt>
      <trkpt lat="43.79115" lon="6.71521">
        <ele>1071.05</ele>
        <time>2011-07-06T09:19:16Z</time>
      </trkpt>
      <trkpt lat="43.79113" lon="6.7152">
        <ele>1071.05</ele>
        <time>2011-07-06T09:19:17Z</time>
      </trkpt>
      <trkpt lat="43.79109" lon="6.7152">
        <ele>1071.05</ele>
        <time>2011-07-06T09:19:19Z</time>
      </trkpt>
      <trkpt lat="43.79108" lon="6.71522">
        <ele>1070.57</ele>
        <time>2011-07-06T09:19:20Z</time>
      </trkpt>
      <trkpt lat="43.79107" lon="6.71525">
        <ele>1070.57</ele>
        <time>2011-07-06T09:19:21Z</time>
      </trkpt>
      <trkpt lat="43.79106" lon="6.71528">
        <ele>1071.05</ele>
        <time>2011-07-06T09:19:22Z</time>
      </trkpt>
      <trkpt lat="43.79105" lon="6.71532">
        <ele>1071.05</ele>
        <time>2011-07-06T09:19:23Z</time>
      </trkpt>
      <trkpt lat="43.79111" lon="6.71574">
        <ele>1070.57</ele>
        <time>2011-07-06T09:19:34Z</time>
      </trkpt>
      <trkpt lat="43.79118" lon="6.71617">
        <ele>1071.53</ele>
        <time>2011-07-06T09:19:46Z</time>
      </trkpt>
      <trkpt lat="43.79112" lon="6.71662">
        <ele>1072.01</ele>
        <time>2011-07-06T09:19:57Z</time>
      </trkpt>
      <trkpt lat="43.79105" lon="6.71728">
        <ele>1072.49</ele>
        <time>2011-07-06T09:20:11Z</time>
      </trkpt>
      <trkpt lat="43.79099" lon="6.71772">
        <ele>1074.89</ele>
        <time>2011-07-06T09:20:24Z</time>
      </trkpt>
      <trkpt lat="43.79083" lon="6.71807">
        <ele>1077.29</ele>
        <time>2011-07-06T09:20:39Z</time>
      </trkpt>
      <trkpt lat="43.79066" lon="6.71858">
        <ele>1078.26</ele>
        <time>2011-07-06T09:20:54Z</time>
      </trkpt>
      <trkpt lat="43.79056" lon="6.71907">
        <ele>1079.22</ele>
        <time>2011-07-06T09:21:07Z</time>
      </trkpt>
      <trkpt lat="43.79054" lon="6.71953">
        <ele>1081.14</ele>
        <time>2011-07-06T09:21:22Z</time>
      </trkpt>
      <trkpt lat="43.79039" lon="6.72001">
        <ele>1081.62</ele>
        <time>2011-07-06T09:21:36Z</time>
      </trkpt>
      <trkpt lat="43.79031" lon="6.72057">
        <ele>1082.58</ele>
        <time>2011-07-06T09:21:50Z</time>
      </trkpt>
      <trkpt lat="43.79019" lon="6.72108">
        <ele>1084.5</ele>
        <time>2011-07-06T09:22:03Z</time>
      </trkpt>
      <trkpt lat="43.79007" lon="6.72151">
        <ele>1086.91</ele>
        <time>2011-07-06T09:22:16Z</time>
      </trkpt>
      <trkpt lat="43.78997" lon="6.72202">
        <ele>1088.35</ele>
        <time>2011-07-06T09:22:31Z</time>
      </trkpt>
      <trkpt lat="43.78984" lon="6.72245">
        <ele>1090.27</ele>
        <time>2011-07-06T09:22:45Z</time>
      </trkpt>
      <trkpt lat="43.78974" lon="6.72289">
        <ele>1092.68</ele>
        <time>2011-07-06T09:22:59Z</time>
      </trkpt>
      <trkpt lat="43.78968" lon="6.72319">
        <ele>1092.68</ele>
        <time>2011-07-06T09:23:10Z</time>
      </trkpt>
      <trkpt lat="43.78968" lon="6.72329">
        <ele>1093.16</ele>
        <time>2011-07-06T09:23:23Z</time>
      </trkpt>
      <trkpt lat="43.78967" lon="6.72353">
        <ele>1094.12</ele>
        <time>2011-07-06T09:23:31Z</time>
      </trkpt>
      <trkpt lat="43.78962" lon="6.72404">
        <ele>1095.56</ele>
        <time>2011-07-06T09:23:46Z</time>
      </trkpt>
      <trkpt lat="43.78956" lon="6.72461">
        <ele>1097</ele>
        <time>2011-07-06T09:24:00Z</time>
      </trkpt>
      <trkpt lat="43.78946" lon="6.72514">
        <ele>1098.44</ele>
        <time>2011-07-06T09:24:14Z</time>
      </trkpt>
      <trkpt lat="43.78941" lon="6.72551">
        <ele>1099.89</ele>
        <time>2011-07-06T09:24:26Z</time>
      </trkpt>
      <trkpt lat="43.7893" lon="6.7259">
        <ele>1101.33</ele>
        <time>2011-07-06T09:24:40Z</time>
      </trkpt>
      <trkpt lat="43.78921" lon="6.72627">
        <ele>1103.73</ele>
        <time>2011-07-06T09:24:54Z</time>
      </trkpt>
      <trkpt lat="43.78907" lon="6.72664">
        <ele>1105.65</ele>
        <time>2011-07-06T09:25:08Z</time>
      </trkpt>
      <trkpt lat="43.78896" lon="6.72706">
        <ele>1106.61</ele>
        <time>2011-07-06T09:25:22Z</time>
      </trkpt>
      <trkpt lat="43.7889" lon="6.72731">
        <ele>1109.02</ele>
        <time>2011-07-06T09:25:32Z</time>
      </trkpt>
      <trkpt lat="43.78888" lon="6.72733">
        <ele>1109.02</ele>
        <time>2011-07-06T09:25:33Z</time>
      </trkpt>
      <trkpt lat="43.78887" lon="6.72735">
        <ele>1109.5</ele>
        <time>2011-07-06T09:25:34Z</time>
      </trkpt>
      <trkpt lat="43.78886" lon="6.72736">
        <ele>1109.98</ele>
        <time>2011-07-06T09:25:35Z</time>
      </trkpt>
      <trkpt lat="43.78885" lon="6.72737">
        <ele>1110.46</ele>
        <time>2011-07-06T09:25:36Z</time>
      </trkpt>
      <trkpt lat="43.78883" lon="6.72739">
        <ele>1110.46</ele>
        <time>2011-07-06T09:25:37Z</time>
      </trkpt>
      <trkpt lat="43.78882" lon="6.7274">
        <ele>1110.46</ele>
        <time>2011-07-06T09:25:38Z</time>
      </trkpt>
      <trkpt lat="43.78881" lon="6.72742">
        <ele>1110.94</ele>
        <time>2011-07-06T09:25:39Z</time>
      </trkpt>
      <trkpt lat="43.7888" lon="6.72743">
        <ele>1111.42</ele>
        <time>2011-07-06T09:25:40Z</time>
      </trkpt>
      <trkpt lat="43.78878" lon="6.72752">
        <ele>1111.9</ele>
        <time>2011-07-06T09:25:45Z</time>
      </trkpt>
      <trkpt lat="43.78878" lon="6.72754">
        <ele>1112.38</ele>
        <time>2011-07-06T09:25:46Z</time>
      </trkpt>
      <trkpt lat="43.78879" lon="6.72756">
        <ele>1111.9</ele>
        <time>2011-07-06T09:25:47Z</time>
      </trkpt>
      <trkpt lat="43.78878" lon="6.72806">
        <ele>1111.42</ele>
        <time>2011-07-06T09:26:01Z</time>
      </trkpt>
      <trkpt lat="43.78858" lon="6.72828">
        <ele>1112.86</ele>
        <time>2011-07-06T09:26:13Z</time>
      </trkpt>
      <trkpt lat="43.78843" lon="6.72856">
        <ele>1114.31</ele>
        <time>2011-07-06T09:26:27Z</time>
      </trkpt>
      <trkpt lat="43.78837" lon="6.72888">
        <ele>1115.75</ele>
        <time>2011-07-06T09:26:41Z</time>
      </trkpt>
      <trkpt lat="43.78829" lon="6.72913">
        <ele>1119.11</ele>
        <time>2011-07-06T09:26:55Z</time>
      </trkpt>
      <trkpt lat="43.78825" lon="6.72929">
        <ele>1121.03</ele>
        <time>2011-07-06T09:27:07Z</time>
      </trkpt>
      <trkpt lat="43.78821" lon="6.72941">
        <ele>1122.48</ele>
        <time>2011-07-06T09:27:17Z</time>
      </trkpt>
      <trkpt lat="43.78817" lon="6.72957">
        <ele>1124.4</ele>
        <time>2011-07-06T09:27:31Z</time>
      </trkpt>
      <trkpt lat="43.78814" lon="6.72972">
        <ele>1126.32</ele>
        <time>2011-07-06T09:27:44Z</time>
      </trkpt>
      <trkpt lat="43.78816" lon="6.72987">
        <ele>1127.76</ele>
        <time>2011-07-06T09:27:59Z</time>
      </trkpt>
      <trkpt lat="43.78816" lon="6.72997">
        <ele>1128.24</ele>
        <time>2011-07-06T09:28:11Z</time>
      </trkpt>
      <trkpt lat="43.78816" lon="6.73">
        <ele>1128.73</ele>
        <time>2011-07-06T09:28:13Z</time>
      </trkpt>
      <trkpt lat="43.78816" lon="6.73001">
        <ele>1128.73</ele>
        <time>2011-07-06T09:28:14Z</time>
      </trkpt>
      <trkpt lat="43.78819" lon="6.73027">
        <ele>1130.65</ele>
        <time>2011-07-06T09:28:27Z</time>
      </trkpt>
      <trkpt lat="43.78822" lon="6.73053">
        <ele>1133.53</ele>
        <time>2011-07-06T09:28:41Z</time>
      </trkpt>
      <trkpt lat="43.78821" lon="6.73076">
        <ele>1136.9</ele>
        <time>2011-07-06T09:28:55Z</time>
      </trkpt>
      <trkpt lat="43.7882" lon="6.73086">
        <ele>1137.86</ele>
        <time>2011-07-06T09:29:07Z</time>
      </trkpt>
      <trkpt lat="43.78824" lon="6.731">
        <ele>1140.74</ele>
        <time>2011-07-06T09:29:21Z</time>
      </trkpt>
      <trkpt lat="43.78823" lon="6.73116">
        <ele>1142.18</ele>
        <time>2011-07-06T09:29:34Z</time>
      </trkpt>
      <trkpt lat="43.78822" lon="6.73133">
        <ele>1144.11</ele>
        <time>2011-07-06T09:29:48Z</time>
      </trkpt>
      <trkpt lat="43.78818" lon="6.7315">
        <ele>1146.51</ele>
        <time>2011-07-06T09:30:02Z</time>
      </trkpt>
      <trkpt lat="43.78818" lon="6.73151">
        <ele>1146.51</ele>
        <time>2011-07-06T09:30:03Z</time>
      </trkpt>
      <trkpt lat="43.78817" lon="6.73152">
        <ele>1146.99</ele>
        <time>2011-07-06T09:30:04Z</time>
      </trkpt>
      <trkpt lat="43.78815" lon="6.73157">
        <ele>1146.99</ele>
        <time>2011-07-06T09:30:08Z</time>
      </trkpt>
      <trkpt lat="43.78811" lon="6.73168">
        <ele>1147.95</ele>
        <time>2011-07-06T09:30:16Z</time>
      </trkpt>
      <trkpt lat="43.78807" lon="6.73186">
        <ele>1149.87</ele>
        <time>2011-07-06T09:30:31Z</time>
      </trkpt>
      <trkpt lat="43.78805" lon="6.73202">
        <ele>1152.76</ele>
        <time>2011-07-06T09:30:45Z</time>
      </trkpt>
      <trkpt lat="43.78805" lon="6.73204">
        <ele>1152.28</ele>
        <time>2011-07-06T09:30:46Z</time>
      </trkpt>
      <trkpt lat="43.78805" lon="6.73209">
        <ele>1153.24</ele>
        <time>2011-07-06T09:30:50Z</time>
      </trkpt>
      <trkpt lat="43.78802" lon="6.73224">
        <ele>1155.16</ele>
        <time>2011-07-06T09:31:02Z</time>
      </trkpt>
      <trkpt lat="43.78801" lon="6.73233">
        <ele>1155.64</ele>
        <time>2011-07-06T09:31:08Z</time>
      </trkpt>
      <trkpt lat="43.788" lon="6.73237">
        <ele>1156.6</ele>
        <time>2011-07-06T09:31:11Z</time>
      </trkpt>
      <trkpt lat="43.78799" lon="6.73248">
        <ele>1157.56</ele>
        <time>2011-07-06T09:31:20Z</time>
      </trkpt>
      <trkpt lat="43.788" lon="6.73249">
        <ele>1157.56</ele>
        <time>2011-07-06T09:31:21Z</time>
      </trkpt>
      <trkpt lat="43.78801" lon="6.7325">
        <ele>1157.56</ele>
        <time>2011-07-06T09:31:22Z</time>
      </trkpt>
      <trkpt lat="43.78804" lon="6.73252">
        <ele>1157.56</ele>
        <time>2011-07-06T09:31:24Z</time>
      </trkpt>
      <trkpt lat="43.78804" lon="6.73254">
        <ele>1158.05</ele>
        <time>2011-07-06T09:31:25Z</time>
      </trkpt>
      <trkpt lat="43.78806" lon="6.73255">
        <ele>1157.56</ele>
        <time>2011-07-06T09:31:26Z</time>
      </trkpt>
      <trkpt lat="43.78807" lon="6.73257">
        <ele>1157.56</ele>
        <time>2011-07-06T09:31:27Z</time>
      </trkpt>
      <trkpt lat="43.78807" lon="6.73259">
        <ele>1158.05</ele>
        <time>2011-07-06T09:31:28Z</time>
      </trkpt>
      <trkpt lat="43.78808" lon="6.73261">
        <ele>1157.56</ele>
        <time>2011-07-06T09:31:29Z</time>
      </trkpt>
      <trkpt lat="43.78809" lon="6.73262">
        <ele>1157.56</ele>
        <time>2011-07-06T09:31:30Z</time>
      </trkpt>
      <trkpt lat="43.7881" lon="6.73265">
        <ele>1157.56</ele>
        <time>2011-07-06T09:31:31Z</time>
      </trkpt>
      <trkpt lat="43.78823" lon="6.73302">
        <ele>1158.05</ele>
        <time>2011-07-06T09:31:43Z</time>
      </trkpt>
      <trkpt lat="43.78829" lon="6.73325">
        <ele>1161.41</ele>
        <time>2011-07-06T09:31:53Z</time>
      </trkpt>
      <trkpt lat="43.78829" lon="6.73331">
        <ele>1161.89</ele>
        <time>2011-07-06T09:31:56Z</time>
      </trkpt>
      <trkpt lat="43.78829" lon="6.73333">
        <ele>1161.89</ele>
        <time>2011-07-06T09:31:57Z</time>
      </trkpt>
      <trkpt lat="43.78827" lon="6.73334">
        <ele>1162.37</ele>
        <time>2011-07-06T09:32:00Z</time>
      </trkpt>
      <trkpt lat="43.78823" lon="6.73332">
        <ele>1162.37</ele>
        <time>2011-07-06T09:32:12Z</time>
      </trkpt>
      <trkpt lat="43.78822" lon="6.73331">
        <ele>1162.85</ele>
        <time>2011-07-06T09:32:32Z</time>
      </trkpt>
      <trkpt lat="43.78822" lon="6.73331">
        <ele>1162.37</ele>
        <time>2011-07-06T09:32:56Z</time>
      </trkpt>
      <trkpt lat="43.78822" lon="6.73331">
        <ele>1161.41</ele>
        <time>2011-07-06T09:33:32Z</time>
      </trkpt>
      <trkpt lat="43.78822" lon="6.73331">
        <ele>1162.37</ele>
        <time>2011-07-06T09:34:08Z</time>
      </trkpt>
      <trkpt lat="43.78822" lon="6.73329">
        <ele>1162.37</ele>
        <time>2011-07-06T09:34:09Z</time>
      </trkpt>
      <trkpt lat="43.78821" lon="6.73327">
        <ele>1162.37</ele>
        <time>2011-07-06T09:34:10Z</time>
      </trkpt>
      <trkpt lat="43.7882" lon="6.73325">
        <ele>1162.37</ele>
        <time>2011-07-06T09:34:11Z</time>
      </trkpt>
      <trkpt lat="43.7882" lon="6.73323">
        <ele>1162.37</ele>
        <time>2011-07-06T09:34:12Z</time>
      </trkpt>
      <trkpt lat="43.78819" lon="6.7332">
        <ele>1162.85</ele>
        <time>2011-07-06T09:34:13Z</time>
      </trkpt>
      <trkpt lat="43.78818" lon="6.73317">
        <ele>1162.37</ele>
        <time>2011-07-06T09:34:14Z</time>
      </trkpt>
      <trkpt lat="43.78817" lon="6.73315">
        <ele>1162.85</ele>
        <time>2011-07-06T09:34:15Z</time>
      </trkpt>
      <trkpt lat="43.78815" lon="6.73312">
        <ele>1162.85</ele>
        <time>2011-07-06T09:34:16Z</time>
      </trkpt>
      <trkpt lat="43.78814" lon="6.7331">
        <ele>1162.85</ele>
        <time>2011-07-06T09:34:17Z</time>
      </trkpt>
      <trkpt lat="43.7879" lon="6.73276">
        <ele>1165.74</ele>
        <time>2011-07-06T09:34:32Z</time>
      </trkpt>
      <trkpt lat="43.78773" lon="6.73237">
        <ele>1167.66</ele>
        <time>2011-07-06T09:34:47Z</time>
      </trkpt>
      <trkpt lat="43.78764" lon="6.73194">
        <ele>1171.02</ele>
        <time>2011-07-06T09:35:01Z</time>
      </trkpt>
      <trkpt lat="43.78759" lon="6.73133">
        <ele>1173.43</ele>
        <time>2011-07-06T09:35:20Z</time>
      </trkpt>
      <trkpt lat="43.7875" lon="6.73093">
        <ele>1176.31</ele>
        <time>2011-07-06T09:35:35Z</time>
      </trkpt>
      <trkpt lat="43.78742" lon="6.73107">
        <ele>1176.31</ele>
        <time>2011-07-06T09:35:40Z</time>
      </trkpt>
      <trkpt lat="43.78741" lon="6.73112">
        <ele>1176.31</ele>
        <time>2011-07-06T09:35:41Z</time>
      </trkpt>
      <trkpt lat="43.78741" lon="6.73116">
        <ele>1176.31</ele>
        <time>2011-07-06T09:35:42Z</time>
      </trkpt>
      <trkpt lat="43.78742" lon="6.73121">
        <ele>1176.79</ele>
        <time>2011-07-06T09:35:43Z</time>
      </trkpt>
      <trkpt lat="43.78742" lon="6.73126">
        <ele>1176.79</ele>
        <time>2011-07-06T09:35:44Z</time>
      </trkpt>
      <trkpt lat="43.78743" lon="6.73129">
        <ele>1176.79</ele>
        <time>2011-07-06T09:35:45Z</time>
      </trkpt>
      <trkpt lat="43.78739" lon="6.73189">
        <ele>1179.67</ele>
        <time>2011-07-06T09:36:01Z</time>
      </trkpt>
      <trkpt lat="43.78743" lon="6.73241">
        <ele>1182.56</ele>
        <time>2011-07-06T09:36:14Z</time>
      </trkpt>
      <trkpt lat="43.78744" lon="6.7326">
        <ele>1184</ele>
        <time>2011-07-06T09:36:18Z</time>
      </trkpt>
      <trkpt lat="43.78754" lon="6.73322">
        <ele>1187.37</ele>
        <time>2011-07-06T09:36:33Z</time>
      </trkpt>
      <trkpt lat="43.78758" lon="6.73387">
        <ele>1190.25</ele>
        <time>2011-07-06T09:36:49Z</time>
      </trkpt>
      <trkpt lat="43.78771" lon="6.73448">
        <ele>1193.13</ele>
        <time>2011-07-06T09:37:03Z</time>
      </trkpt>
      <trkpt lat="43.78733" lon="6.73426">
        <ele>1193.61</ele>
        <time>2011-07-06T09:37:16Z</time>
      </trkpt>
      <trkpt lat="43.78718" lon="6.73421">
        <ele>1193.61</ele>
        <time>2011-07-06T09:37:17Z</time>
      </trkpt>
      <trkpt lat="43.78715" lon="6.73417">
        <ele>1193.61</ele>
        <time>2011-07-06T09:37:32Z</time>
      </trkpt>
      <trkpt lat="43.78714" lon="6.73415">
        <ele>1194.58</ele>
        <time>2011-07-06T09:38:00Z</time>
      </trkpt>
      <trkpt lat="43.78714" lon="6.73413">
        <ele>1194.09</ele>
        <time>2011-07-06T09:38:05Z</time>
      </trkpt>
      <trkpt lat="43.78711" lon="6.73412">
        <ele>1194.09</ele>
        <time>2011-07-06T09:38:07Z</time>
      </trkpt>
      <trkpt lat="43.78709" lon="6.7341">
        <ele>1194.09</ele>
        <time>2011-07-06T09:38:19Z</time>
      </trkpt>
      <trkpt lat="43.78713" lon="6.73419">
        <ele>1194.09</ele>
        <time>2011-07-06T09:38:38Z</time>
      </trkpt>
      <trkpt lat="43.78716" lon="6.73419">
        <ele>1194.58</ele>
        <time>2011-07-06T09:38:50Z</time>
      </trkpt>
      <trkpt lat="43.78714" lon="6.73419">
        <ele>1194.58</ele>
        <time>2011-07-06T09:39:03Z</time>
      </trkpt>
      <trkpt lat="43.78713" lon="6.73419">
        <ele>1194.09</ele>
        <time>2011-07-06T09:39:04Z</time>
      </trkpt>
      <trkpt lat="43.78699" lon="6.73415">
        <ele>1191.21</ele>
        <time>2011-07-06T09:39:08Z</time>
      </trkpt>
      <trkpt lat="43.78679" lon="6.73416">
        <ele>1186.88</ele>
        <time>2011-07-06T09:39:12Z</time>
      </trkpt>
      <trkpt lat="43.78677" lon="6.73417">
        <ele>1186.88</ele>
        <time>2011-07-06T09:39:13Z</time>
      </trkpt>
      <trkpt lat="43.78661" lon="6.73423">
        <ele>1185.44</ele>
        <time>2011-07-06T09:39:22Z</time>
      </trkpt>
      <trkpt lat="43.7866" lon="6.73422">
        <ele>1185.44</ele>
        <time>2011-07-06T09:39:38Z</time>
      </trkpt>
      <trkpt lat="43.78659" lon="6.73419">
        <ele>1184.48</ele>
        <time>2011-07-06T09:39:39Z</time>
      </trkpt>
      <trkpt lat="43.78658" lon="6.73417">
        <ele>1183.52</ele>
        <time>2011-07-06T09:39:40Z</time>
      </trkpt>
      <trkpt lat="43.78656" lon="6.73413">
        <ele>1183.52</ele>
        <time>2011-07-06T09:39:41Z</time>
      </trkpt>
      <trkpt lat="43.78654" lon="6.73411">
        <ele>1183.04</ele>
        <time>2011-07-06T09:39:42Z</time>
      </trkpt>
      <trkpt lat="43.78635" lon="6.73391">
        <ele>1180.64</ele>
        <time>2011-07-06T09:39:52Z</time>
      </trkpt>
      <trkpt lat="43.7862" lon="6.73396">
        <ele>1176.79</ele>
        <time>2011-07-06T09:39:59Z</time>
      </trkpt>
      <trkpt lat="43.78618" lon="6.734">
        <ele>1173.91</ele>
        <time>2011-07-06T09:40:04Z</time>
      </trkpt>
      <trkpt lat="43.78616" lon="6.734">
        <ele>1173.91</ele>
        <time>2011-07-06T09:40:05Z</time>
      </trkpt>
      <trkpt lat="43.78608" lon="6.734">
        <ele>1170.54</ele>
        <time>2011-07-06T09:40:11Z</time>
      </trkpt>
      <trkpt lat="43.78593" lon="6.73372">
        <ele>1170.54</ele>
        <time>2011-07-06T09:40:21Z</time>
      </trkpt>
      <trkpt lat="43.78584" lon="6.73365">
        <ele>1168.14</ele>
        <time>2011-07-06T09:40:29Z</time>
      </trkpt>
      <trkpt lat="43.78575" lon="6.73356">
        <ele>1166.22</ele>
        <time>2011-07-06T09:40:32Z</time>
      </trkpt>
      <trkpt lat="43.78557" lon="6.73333">
        <ele>1162.37</ele>
        <time>2011-07-06T09:40:38Z</time>
      </trkpt>
      <trkpt lat="43.78552" lon="6.7333">
        <ele>1162.37</ele>
        <time>2011-07-06T09:40:39Z</time>
      </trkpt>
      <trkpt lat="43.78533" lon="6.73313">
        <ele>1159.49</ele>
        <time>2011-07-06T09:40:43Z</time>
      </trkpt>
      <trkpt lat="43.78514" lon="6.73297">
        <ele>1156.6</ele>
        <time>2011-07-06T09:40:47Z</time>
      </trkpt>
      <trkpt lat="43.7851" lon="6.73292">
        <ele>1156.12</ele>
        <time>2011-07-06T09:40:48Z</time>
      </trkpt>
      <trkpt lat="43.78505" lon="6.73289">
        <ele>1155.64</ele>
        <time>2011-07-06T09:40:49Z</time>
      </trkpt>
      <trkpt lat="43.785" lon="6.73287">
        <ele>1155.64</ele>
        <time>2011-07-06T09:40:50Z</time>
      </trkpt>
      <trkpt lat="43.78485" lon="6.73278">
        <ele>1155.16</ele>
        <time>2011-07-06T09:40:53Z</time>
      </trkpt>
      <trkpt lat="43.78478" lon="6.73273">
        <ele>1155.16</ele>
        <time>2011-07-06T09:40:55Z</time>
      </trkpt>
      <trkpt lat="43.7847" lon="6.73272">
        <ele>1155.16</ele>
        <time>2011-07-06T09:40:57Z</time>
      </trkpt>
      <trkpt lat="43.78465" lon="6.73271">
        <ele>1155.16</ele>
        <time>2011-07-06T09:40:58Z</time>
      </trkpt>
      <trkpt lat="43.78461" lon="6.73269">
        <ele>1155.16</ele>
        <time>2011-07-06T09:40:59Z</time>
      </trkpt>
      <trkpt lat="43.78428" lon="6.73259">
        <ele>1153.24</ele>
        <time>2011-07-06T09:41:05Z</time>
      </trkpt>
      <trkpt lat="43.78396" lon="6.7325">
        <ele>1149.87</ele>
        <time>2011-07-06T09:41:10Z</time>
      </trkpt>
      <trkpt lat="43.7839" lon="6.73247">
        <ele>1148.91</ele>
        <time>2011-07-06T09:41:11Z</time>
      </trkpt>
      <trkpt lat="43.78362" lon="6.73226">
        <ele>1144.59</ele>
        <time>2011-07-06T09:41:16Z</time>
      </trkpt>
      <trkpt lat="43.78356" lon="6.7322">
        <ele>1144.59</ele>
        <time>2011-07-06T09:41:17Z</time>
      </trkpt>
      <trkpt lat="43.78327" lon="6.73194">
        <ele>1142.66</ele>
        <time>2011-07-06T09:41:22Z</time>
      </trkpt>
      <trkpt lat="43.78322" lon="6.7319">
        <ele>1143.14</ele>
        <time>2011-07-06T09:41:23Z</time>
      </trkpt>
      <trkpt lat="43.78312" lon="6.73181">
        <ele>1142.66</ele>
        <time>2011-07-06T09:41:25Z</time>
      </trkpt>
      <trkpt lat="43.78297" lon="6.73165">
        <ele>1143.63</ele>
        <time>2011-07-06T09:41:29Z</time>
      </trkpt>
      <trkpt lat="43.78265" lon="6.73139">
        <ele>1143.14</ele>
        <time>2011-07-06T09:41:36Z</time>
      </trkpt>
      <trkpt lat="43.78212" lon="6.73125">
        <ele>1144.59</ele>
        <time>2011-07-06T09:41:47Z</time>
      </trkpt>
      <trkpt lat="43.78207" lon="6.73123">
        <ele>1144.59</ele>
        <time>2011-07-06T09:41:48Z</time>
      </trkpt>
      <trkpt lat="43.78203" lon="6.7312">
        <ele>1144.11</ele>
        <time>2011-07-06T09:41:49Z</time>
      </trkpt>
      <trkpt lat="43.78144" lon="6.73078">
        <ele>1143.14</ele>
        <time>2011-07-06T09:42:02Z</time>
      </trkpt>
      <trkpt lat="43.78101" lon="6.73053">
        <ele>1145.07</ele>
        <time>2011-07-06T09:42:16Z</time>
      </trkpt>
      <trkpt lat="43.78063" lon="6.73037">
        <ele>1147.47</ele>
        <time>2011-07-06T09:42:29Z</time>
      </trkpt>
      <trkpt lat="43.78027" lon="6.73026">
        <ele>1148.91</ele>
        <time>2011-07-06T09:42:42Z</time>
      </trkpt>
      <trkpt lat="43.78003" lon="6.73018">
        <ele>1151.8</ele>
        <time>2011-07-06T09:42:53Z</time>
      </trkpt>
      <trkpt lat="43.77979" lon="6.73019">
        <ele>1154.68</ele>
        <time>2011-07-06T09:43:04Z</time>
      </trkpt>
      <trkpt lat="43.77956" lon="6.73017">
        <ele>1156.12</ele>
        <time>2011-07-06T09:43:16Z</time>
      </trkpt>
      <trkpt lat="43.7794" lon="6.73013">
        <ele>1155.16</ele>
        <time>2011-07-06T09:43:21Z</time>
      </trkpt>
      <trkpt lat="43.77935" lon="6.73012">
        <ele>1154.68</ele>
        <time>2011-07-06T09:43:22Z</time>
      </trkpt>
      <trkpt lat="43.77926" lon="6.73011">
        <ele>1154.68</ele>
        <time>2011-07-06T09:43:24Z</time>
      </trkpt>
      <trkpt lat="43.77917" lon="6.7301">
        <ele>1155.16</ele>
        <time>2011-07-06T09:43:26Z</time>
      </trkpt>
      <trkpt lat="43.77913" lon="6.7301">
        <ele>1155.16</ele>
        <time>2011-07-06T09:43:27Z</time>
      </trkpt>
      <trkpt lat="43.77903" lon="6.73015">
        <ele>1154.68</ele>
        <time>2011-07-06T09:43:30Z</time>
      </trkpt>
      <trkpt lat="43.77884" lon="6.73025">
        <ele>1156.6</ele>
        <time>2011-07-06T09:43:43Z</time>
      </trkpt>
      <trkpt lat="43.77885" lon="6.73026">
        <ele>1156.6</ele>
        <time>2011-07-06T09:44:04Z</time>
      </trkpt>
      <trkpt lat="43.77884" lon="6.73026">
        <ele>1156.12</ele>
        <time>2011-07-06T09:44:19Z</time>
      </trkpt>
      <trkpt lat="43.77885" lon="6.73015">
        <ele>1157.56</ele>
        <time>2011-07-06T09:44:29Z</time>
      </trkpt>
      <trkpt lat="43.77886" lon="6.73009">
        <ele>1158.05</ele>
        <time>2011-07-06T09:44:38Z</time>
      </trkpt>
      <trkpt lat="43.77886" lon="6.73002">
        <ele>1158.53</ele>
        <time>2011-07-06T09:44:41Z</time>
      </trkpt>
      <trkpt lat="43.77885" lon="6.73">
        <ele>1159.01</ele>
        <time>2011-07-06T09:44:42Z</time>
      </trkpt>
      <trkpt lat="43.77885" lon="6.72998">
        <ele>1159.49</ele>
        <time>2011-07-06T09:44:43Z</time>
      </trkpt>
      <trkpt lat="43.77873" lon="6.72953">
        <ele>1160.93</ele>
        <time>2011-07-06T09:44:59Z</time>
      </trkpt>
      <trkpt lat="43.77867" lon="6.72922">
        <ele>1163.81</ele>
        <time>2011-07-06T09:45:11Z</time>
      </trkpt>
      <trkpt lat="43.77853" lon="6.72895">
        <ele>1161.89</ele>
        <time>2011-07-06T09:45:24Z</time>
      </trkpt>
      <trkpt lat="43.77852" lon="6.72892">
        <ele>1161.41</ele>
        <time>2011-07-06T09:45:36Z</time>
      </trkpt>
      <trkpt lat="43.77852" lon="6.72892">
        <ele>1160.93</ele>
        <time>2011-07-06T09:46:06Z</time>
      </trkpt>
      <trkpt lat="43.77852" lon="6.72892">
        <ele>1161.41</ele>
        <time>2011-07-06T09:46:42Z</time>
      </trkpt>
      <trkpt lat="43.77852" lon="6.72892">
        <ele>1159.97</ele>
        <time>2011-07-06T09:47:18Z</time>
      </trkpt>
      <trkpt lat="43.77852" lon="6.72892">
        <ele>1159.97</ele>
        <time>2011-07-06T09:47:19Z</time>
      </trkpt>
      <trkpt lat="43.77816" lon="6.72908">
        <ele>1153.24</ele>
        <time>2011-07-06T10:16:04Z</time>
      </trkpt>
      <trkpt lat="43.77804" lon="6.72919">
        <ele>1149.87</ele>
        <time>2011-07-06T10:16:07Z</time>
      </trkpt>
      <trkpt lat="43.77799" lon="6.72922">
        <ele>1150.35</ele>
        <time>2011-07-06T10:16:08Z</time>
      </trkpt>
      <trkpt lat="43.77781" lon="6.72932">
        <ele>1148.43</ele>
        <time>2011-07-06T10:16:11Z</time>
      </trkpt>
      <trkpt lat="43.77757" lon="6.72948">
        <ele>1146.51</ele>
        <time>2011-07-06T10:16:15Z</time>
      </trkpt>
      <trkpt lat="43.77718" lon="6.72972">
        <ele>1143.63</ele>
        <time>2011-07-06T10:16:21Z</time>
      </trkpt>
      <trkpt lat="43.77651" lon="6.73011">
        <ele>1140.74</ele>
        <time>2011-07-06T10:16:31Z</time>
      </trkpt>
      <trkpt lat="43.77565" lon="6.73062">
        <ele>1137.38</ele>
        <time>2011-07-06T10:16:45Z</time>
      </trkpt>
      <trkpt lat="43.77535" lon="6.73077">
        <ele>1137.38</ele>
        <time>2011-07-06T10:16:51Z</time>
      </trkpt>
      <trkpt lat="43.77486" lon="6.73086">
        <ele>1138.34</ele>
        <time>2011-07-06T10:17:04Z</time>
      </trkpt>
      <trkpt lat="43.77485" lon="6.73084">
        <ele>1138.34</ele>
        <time>2011-07-06T10:17:05Z</time>
      </trkpt>
      <trkpt lat="43.77484" lon="6.73082">
        <ele>1138.82</ele>
        <time>2011-07-06T10:17:06Z</time>
      </trkpt>
      <trkpt lat="43.77483" lon="6.7308">
        <ele>1138.34</ele>
        <time>2011-07-06T10:17:07Z</time>
      </trkpt>
      <trkpt lat="43.77482" lon="6.73076">
        <ele>1138.34</ele>
        <time>2011-07-06T10:17:08Z</time>
      </trkpt>
      <trkpt lat="43.77482" lon="6.73072">
        <ele>1138.34</ele>
        <time>2011-07-06T10:17:09Z</time>
      </trkpt>
      <trkpt lat="43.77477" lon="6.73027">
        <ele>1140.26</ele>
        <time>2011-07-06T10:17:24Z</time>
      </trkpt>
      <trkpt lat="43.77476" lon="6.73013">
        <ele>1141.22</ele>
        <time>2011-07-06T10:17:30Z</time>
      </trkpt>
      <trkpt lat="43.77476" lon="6.73011">
        <ele>1141.22</ele>
        <time>2011-07-06T10:17:31Z</time>
      </trkpt>
      <trkpt lat="43.77475" lon="6.73008">
        <ele>1140.74</ele>
        <time>2011-07-06T10:17:32Z</time>
      </trkpt>
      <trkpt lat="43.77475" lon="6.73006">
        <ele>1141.22</ele>
        <time>2011-07-06T10:17:33Z</time>
      </trkpt>
      <trkpt lat="43.77474" lon="6.73004">
        <ele>1141.22</ele>
        <time>2011-07-06T10:17:34Z</time>
      </trkpt>
      <trkpt lat="43.77474" lon="6.73002">
        <ele>1141.22</ele>
        <time>2011-07-06T10:17:35Z</time>
      </trkpt>
      <trkpt lat="43.77473" lon="6.73">
        <ele>1141.22</ele>
        <time>2011-07-06T10:17:36Z</time>
      </trkpt>
      <trkpt lat="43.77473" lon="6.72998">
        <ele>1141.7</ele>
        <time>2011-07-06T10:17:37Z</time>
      </trkpt>
      <trkpt lat="43.77473" lon="6.72996">
        <ele>1142.18</ele>
        <time>2011-07-06T10:17:38Z</time>
      </trkpt>
      <trkpt lat="43.77472" lon="6.72994">
        <ele>1142.18</ele>
        <time>2011-07-06T10:17:39Z</time>
      </trkpt>
      <trkpt lat="43.77472" lon="6.72992">
        <ele>1142.18</ele>
        <time>2011-07-06T10:17:40Z</time>
      </trkpt>
      <trkpt lat="43.77469" lon="6.72972">
        <ele>1142.18</ele>
        <time>2011-07-06T10:17:49Z</time>
      </trkpt>
      <trkpt lat="43.77467" lon="6.7297">
        <ele>1142.66</ele>
        <time>2011-07-06T10:18:03Z</time>
      </trkpt>
      <trkpt lat="43.77467" lon="6.7297">
        <ele>1142.18</ele>
        <time>2011-07-06T10:18:31Z</time>
      </trkpt>
      <trkpt lat="43.77466" lon="6.72969">
        <ele>1142.18</ele>
        <time>2011-07-06T10:18:55Z</time>
      </trkpt>
      <trkpt lat="43.77454" lon="6.72971">
        <ele>1142.18</ele>
        <time>2011-07-06T10:30:50Z</time>
      </trkpt>
      <trkpt lat="43.77456" lon="6.72971">
        <ele>1142.18</ele>
        <time>2011-07-06T10:30:51Z</time>
      </trkpt>
      <trkpt lat="43.77467" lon="6.72968">
        <ele>1141.7</ele>
        <time>2011-07-06T10:31:02Z</time>
      </trkpt>
      <trkpt lat="43.77465" lon="6.72947">
        <ele>1143.63</ele>
        <time>2011-07-06T10:31:12Z</time>
      </trkpt>
      <trkpt lat="43.77461" lon="6.72926">
        <ele>1144.59</ele>
        <time>2011-07-06T10:31:23Z</time>
      </trkpt>
      <trkpt lat="43.77457" lon="6.72919">
        <ele>1145.07</ele>
        <time>2011-07-06T10:31:28Z</time>
      </trkpt>
      <trkpt lat="43.77456" lon="6.72912">
        <ele>1145.55</ele>
        <time>2011-07-06T10:31:32Z</time>
      </trkpt>
      <trkpt lat="43.77455" lon="6.72905">
        <ele>1146.51</ele>
        <time>2011-07-06T10:31:36Z</time>
      </trkpt>
      <trkpt lat="43.77451" lon="6.72892">
        <ele>1146.99</ele>
        <time>2011-07-06T10:31:45Z</time>
      </trkpt>
      <trkpt lat="43.77449" lon="6.72888">
        <ele>1147.47</ele>
        <time>2011-07-06T10:31:48Z</time>
      </trkpt>
      <trkpt lat="43.77451" lon="6.72876">
        <ele>1148.43</ele>
        <time>2011-07-06T10:31:56Z</time>
      </trkpt>
      <trkpt lat="43.77429" lon="6.72846">
        <ele>1149.39</ele>
        <time>2011-07-06T10:32:11Z</time>
      </trkpt>
      <trkpt lat="43.77418" lon="6.72819">
        <ele>1151.32</ele>
        <time>2011-07-06T10:32:25Z</time>
      </trkpt>
      <trkpt lat="43.7741" lon="6.7279">
        <ele>1152.76</ele>
        <time>2011-07-06T10:32:38Z</time>
      </trkpt>
      <trkpt lat="43.77403" lon="6.72762">
        <ele>1154.2</ele>
        <time>2011-07-06T10:32:51Z</time>
      </trkpt>
      <trkpt lat="43.77403" lon="6.7276">
        <ele>1153.24</ele>
        <time>2011-07-06T10:32:52Z</time>
      </trkpt>
      <trkpt lat="43.77402" lon="6.7275">
        <ele>1153.72</ele>
        <time>2011-07-06T10:32:56Z</time>
      </trkpt>
      <trkpt lat="43.77395" lon="6.72716">
        <ele>1154.68</ele>
        <time>2011-07-06T10:33:11Z</time>
      </trkpt>
      <trkpt lat="43.77393" lon="6.727">
        <ele>1156.12</ele>
        <time>2011-07-06T10:33:19Z</time>
      </trkpt>
      <trkpt lat="43.77385" lon="6.72684">
        <ele>1157.08</ele>
        <time>2011-07-06T10:33:28Z</time>
      </trkpt>
      <trkpt lat="43.77382" lon="6.72679">
        <ele>1157.08</ele>
        <time>2011-07-06T10:33:31Z</time>
      </trkpt>
      <trkpt lat="43.77371" lon="6.72657">
        <ele>1157.56</ele>
        <time>2011-07-06T10:33:43Z</time>
      </trkpt>
      <trkpt lat="43.77356" lon="6.72636">
        <ele>1159.01</ele>
        <time>2011-07-06T10:33:53Z</time>
      </trkpt>
      <trkpt lat="43.77336" lon="6.72626">
        <ele>1160.45</ele>
        <time>2011-07-06T10:34:06Z</time>
      </trkpt>
      <trkpt lat="43.77316" lon="6.72616">
        <ele>1163.33</ele>
        <time>2011-07-06T10:34:20Z</time>
      </trkpt>
      <trkpt lat="43.77315" lon="6.72615">
        <ele>1163.33</ele>
        <time>2011-07-06T10:34:35Z</time>
      </trkpt>
      <trkpt lat="43.77314" lon="6.72613">
        <ele>1162.85</ele>
        <time>2011-07-06T10:34:52Z</time>
      </trkpt>
      <trkpt lat="43.77314" lon="6.72613">
        <ele>1164.29</ele>
        <time>2011-07-06T10:35:14Z</time>
      </trkpt>
      <trkpt lat="43.77314" lon="6.72613">
        <ele>1163.81</ele>
        <time>2011-07-06T10:35:16Z</time>
      </trkpt>
      <trkpt lat="43.77316" lon="6.72605">
        <ele>1162.85</ele>
        <time>2011-07-06T10:35:20Z</time>
      </trkpt>
      <trkpt lat="43.77331" lon="6.72558">
        <ele>1160.93</ele>
        <time>2011-07-06T10:35:31Z</time>
      </trkpt>
      <trkpt lat="43.77328" lon="6.72556">
        <ele>1160.93</ele>
        <time>2011-07-06T10:35:33Z</time>
      </trkpt>
      <trkpt lat="43.77308" lon="6.72547">
        <ele>1162.37</ele>
        <time>2011-07-06T10:35:43Z</time>
      </trkpt>
      <trkpt lat="43.77279" lon="6.72542">
        <ele>1163.33</ele>
        <time>2011-07-06T10:35:58Z</time>
      </trkpt>
      <trkpt lat="43.77255" lon="6.72518">
        <ele>1164.29</ele>
        <time>2011-07-06T10:36:12Z</time>
      </trkpt>
      <trkpt lat="43.77239" lon="6.72485">
        <ele>1162.37</ele>
        <time>2011-07-06T10:36:21Z</time>
      </trkpt>
      <trkpt lat="43.77237" lon="6.7248">
        <ele>1162.85</ele>
        <time>2011-07-06T10:36:22Z</time>
      </trkpt>
      <trkpt lat="43.77236" lon="6.72474">
        <ele>1162.37</ele>
        <time>2011-07-06T10:36:23Z</time>
      </trkpt>
      <trkpt lat="43.77221" lon="6.72382">
        <ele>1160.93</ele>
        <time>2011-07-06T10:36:39Z</time>
      </trkpt>
      <trkpt lat="43.77216" lon="6.72296">
        <ele>1159.01</ele>
        <time>2011-07-06T10:36:53Z</time>
      </trkpt>
      <trkpt lat="43.77214" lon="6.72284">
        <ele>1159.01</ele>
        <time>2011-07-06T10:36:55Z</time>
      </trkpt>
      <trkpt lat="43.77213" lon="6.72276">
        <ele>1159.49</ele>
        <time>2011-07-06T10:36:56Z</time>
      </trkpt>
      <trkpt lat="43.77211" lon="6.7227">
        <ele>1159.01</ele>
        <time>2011-07-06T10:36:57Z</time>
      </trkpt>
      <trkpt lat="43.77211" lon="6.72264">
        <ele>1159.01</ele>
        <time>2011-07-06T10:36:58Z</time>
      </trkpt>
      <trkpt lat="43.7721" lon="6.72258">
        <ele>1159.01</ele>
        <time>2011-07-06T10:36:59Z</time>
      </trkpt>
      <trkpt lat="43.77209" lon="6.72252">
        <ele>1158.53</ele>
        <time>2011-07-06T10:37:00Z</time>
      </trkpt>
      <trkpt lat="43.77201" lon="6.72203">
        <ele>1157.56</ele>
        <time>2011-07-06T10:37:12Z</time>
      </trkpt>
      <trkpt lat="43.77203" lon="6.72152">
        <ele>1159.97</ele>
        <time>2011-07-06T10:37:23Z</time>
      </trkpt>
      <trkpt lat="43.77185" lon="6.7209">
        <ele>1161.89</ele>
        <time>2011-07-06T10:37:38Z</time>
      </trkpt>
      <trkpt lat="43.77169" lon="6.72039">
        <ele>1161.89</ele>
        <time>2011-07-06T10:37:49Z</time>
      </trkpt>
      <trkpt lat="43.77161" lon="6.72014">
        <ele>1160.45</ele>
        <time>2011-07-06T10:37:54Z</time>
      </trkpt>
      <trkpt lat="43.77161" lon="6.72008">
        <ele>1159.97</ele>
        <time>2011-07-06T10:37:55Z</time>
      </trkpt>
      <trkpt lat="43.7716" lon="6.71978">
        <ele>1160.93</ele>
        <time>2011-07-06T10:38:05Z</time>
      </trkpt>
      <trkpt lat="43.7716" lon="6.71978">
        <ele>1159.97</ele>
        <time>2011-07-06T10:38:28Z</time>
      </trkpt>
      <trkpt lat="43.7716" lon="6.71977">
        <ele>1161.41</ele>
        <time>2011-07-06T10:38:53Z</time>
      </trkpt>
      <trkpt lat="43.7716" lon="6.71977">
        <ele>1160.93</ele>
        <time>2011-07-06T10:39:13Z</time>
      </trkpt>
      <trkpt lat="43.77161" lon="6.71977">
        <ele>1160.93</ele>
        <time>2011-07-06T10:39:43Z</time>
      </trkpt>
      <trkpt lat="43.77169" lon="6.71936">
        <ele>1159.01</ele>
        <time>2011-07-06T10:39:52Z</time>
      </trkpt>
      <trkpt lat="43.7717" lon="6.7193">
        <ele>1157.56</ele>
        <time>2011-07-06T10:39:53Z</time>
      </trkpt>
      <trkpt lat="43.77173" lon="6.71917">
        <ele>1156.6</ele>
        <time>2011-07-06T10:39:55Z</time>
      </trkpt>
      <trkpt lat="43.77178" lon="6.71906">
        <ele>1156.12</ele>
        <time>2011-07-06T10:39:57Z</time>
      </trkpt>
      <trkpt lat="43.7718" lon="6.71901">
        <ele>1155.16</ele>
        <time>2011-07-06T10:39:58Z</time>
      </trkpt>
      <trkpt lat="43.77182" lon="6.71895">
        <ele>1155.16</ele>
        <time>2011-07-06T10:39:59Z</time>
      </trkpt>
      <trkpt lat="43.77185" lon="6.71891">
        <ele>1155.64</ele>
        <time>2011-07-06T10:40:00Z</time>
      </trkpt>
      <trkpt lat="43.77187" lon="6.71886">
        <ele>1155.64</ele>
        <time>2011-07-06T10:40:01Z</time>
      </trkpt>
      <trkpt lat="43.7719" lon="6.71881">
        <ele>1154.68</ele>
        <time>2011-07-06T10:40:02Z</time>
      </trkpt>
      <trkpt lat="43.77193" lon="6.71877">
        <ele>1154.2</ele>
        <time>2011-07-06T10:40:03Z</time>
      </trkpt>
      <trkpt lat="43.77205" lon="6.71855">
        <ele>1153.72</ele>
        <time>2011-07-06T10:40:07Z</time>
      </trkpt>
      <trkpt lat="43.77207" lon="6.71847">
        <ele>1153.72</ele>
        <time>2011-07-06T10:40:08Z</time>
      </trkpt>
      <trkpt lat="43.77209" lon="6.71838">
        <ele>1153.24</ele>
        <time>2011-07-06T10:40:09Z</time>
      </trkpt>
      <trkpt lat="43.7721" lon="6.71829">
        <ele>1152.76</ele>
        <time>2011-07-06T10:40:10Z</time>
      </trkpt>
      <trkpt lat="43.77208" lon="6.71819">
        <ele>1152.76</ele>
        <time>2011-07-06T10:40:11Z</time>
      </trkpt>
      <trkpt lat="43.77206" lon="6.71811">
        <ele>1152.76</ele>
        <time>2011-07-06T10:40:12Z</time>
      </trkpt>
      <trkpt lat="43.77202" lon="6.71803">
        <ele>1152.28</ele>
        <time>2011-07-06T10:40:13Z</time>
      </trkpt>
      <trkpt lat="43.77197" lon="6.71795">
        <ele>1151.32</ele>
        <time>2011-07-06T10:40:14Z</time>
      </trkpt>
      <trkpt lat="43.77191" lon="6.71787">
        <ele>1150.84</ele>
        <time>2011-07-06T10:40:15Z</time>
      </trkpt>
      <trkpt lat="43.77155" lon="6.71743">
        <ele>1147.95</ele>
        <time>2011-07-06T10:40:20Z</time>
      </trkpt>
      <trkpt lat="43.77126" lon="6.71702">
        <ele>1146.51</ele>
        <time>2011-07-06T10:40:24Z</time>
      </trkpt>
      <trkpt lat="43.771" lon="6.71654">
        <ele>1144.11</ele>
        <time>2011-07-06T10:40:28Z</time>
      </trkpt>
      <trkpt lat="43.77079" lon="6.71603">
        <ele>1140.74</ele>
        <time>2011-07-06T10:40:32Z</time>
      </trkpt>
      <trkpt lat="43.77074" lon="6.71589">
        <ele>1140.74</ele>
        <time>2011-07-06T10:40:33Z</time>
      </trkpt>
      <trkpt lat="43.7706" lon="6.71546">
        <ele>1138.82</ele>
        <time>2011-07-06T10:40:36Z</time>
      </trkpt>
      <trkpt lat="43.77042" lon="6.71474">
        <ele>1134.49</ele>
        <time>2011-07-06T10:40:41Z</time>
      </trkpt>
      <trkpt lat="43.77036" lon="6.7146">
        <ele>1134.97</ele>
        <time>2011-07-06T10:40:42Z</time>
      </trkpt>
      <trkpt lat="43.7703" lon="6.71447">
        <ele>1134.49</ele>
        <time>2011-07-06T10:40:43Z</time>
      </trkpt>
      <trkpt lat="43.77023" lon="6.71434">
        <ele>1133.53</ele>
        <time>2011-07-06T10:40:44Z</time>
      </trkpt>
      <trkpt lat="43.77015" lon="6.71421">
        <ele>1132.57</ele>
        <time>2011-07-06T10:40:45Z</time>
      </trkpt>
      <trkpt lat="43.77005" lon="6.71409">
        <ele>1131.61</ele>
        <time>2011-07-06T10:40:46Z</time>
      </trkpt>
      <trkpt lat="43.76995" lon="6.71398">
        <ele>1131.13</ele>
        <time>2011-07-06T10:40:47Z</time>
      </trkpt>
      <trkpt lat="43.76984" lon="6.71388">
        <ele>1129.69</ele>
        <time>2011-07-06T10:40:48Z</time>
      </trkpt>
      <trkpt lat="43.76936" lon="6.7134">
        <ele>1125.84</ele>
        <time>2011-07-06T10:40:53Z</time>
      </trkpt>
      <trkpt lat="43.76926" lon="6.71331">
        <ele>1125.84</ele>
        <time>2011-07-06T10:40:54Z</time>
      </trkpt>
      <trkpt lat="43.7687" lon="6.713">
        <ele>1122.48</ele>
        <time>2011-07-06T10:40:59Z</time>
      </trkpt>
      <trkpt lat="43.76859" lon="6.71296">
        <ele>1122.48</ele>
        <time>2011-07-06T10:41:00Z</time>
      </trkpt>
      <trkpt lat="43.76848" lon="6.71293">
        <ele>1121.03</ele>
        <time>2011-07-06T10:41:01Z</time>
      </trkpt>
      <trkpt lat="43.76814" lon="6.7129">
        <ele>1119.11</ele>
        <time>2011-07-06T10:41:04Z</time>
      </trkpt>
      <trkpt lat="43.76803" lon="6.71293">
        <ele>1117.19</ele>
        <time>2011-07-06T10:41:05Z</time>
      </trkpt>
      <trkpt lat="43.76793" lon="6.71299">
        <ele>1115.27</ele>
        <time>2011-07-06T10:41:06Z</time>
      </trkpt>
      <trkpt lat="43.76784" lon="6.71306">
        <ele>1114.79</ele>
        <time>2011-07-06T10:41:07Z</time>
      </trkpt>
      <trkpt lat="43.76775" lon="6.71314">
        <ele>1113.82</ele>
        <time>2011-07-06T10:41:08Z</time>
      </trkpt>
      <trkpt lat="43.76746" lon="6.71337">
        <ele>1112.86</ele>
        <time>2011-07-06T10:41:11Z</time>
      </trkpt>
      <trkpt lat="43.76727" lon="6.71353">
        <ele>1111.42</ele>
        <time>2011-07-06T10:41:13Z</time>
      </trkpt>
      <trkpt lat="43.76716" lon="6.71357">
        <ele>1110.94</ele>
        <time>2011-07-06T10:41:14Z</time>
      </trkpt>
      <trkpt lat="43.76705" lon="6.71359">
        <ele>1109.98</ele>
        <time>2011-07-06T10:41:15Z</time>
      </trkpt>
      <trkpt lat="43.76694" lon="6.71357">
        <ele>1109.5</ele>
        <time>2011-07-06T10:41:16Z</time>
      </trkpt>
      <trkpt lat="43.76683" lon="6.71354">
        <ele>1109.02</ele>
        <time>2011-07-06T10:41:17Z</time>
      </trkpt>
      <trkpt lat="43.76672" lon="6.7135">
        <ele>1108.54</ele>
        <time>2011-07-06T10:41:18Z</time>
      </trkpt>
      <trkpt lat="43.76628" lon="6.71334">
        <ele>1104.69</ele>
        <time>2011-07-06T10:41:22Z</time>
      </trkpt>
      <trkpt lat="43.76618" lon="6.71327">
        <ele>1104.21</ele>
        <time>2011-07-06T10:41:23Z</time>
      </trkpt>
      <trkpt lat="43.76609" lon="6.71317">
        <ele>1102.77</ele>
        <time>2011-07-06T10:41:24Z</time>
      </trkpt>
      <trkpt lat="43.76602" lon="6.71305">
        <ele>1103.25</ele>
        <time>2011-07-06T10:41:25Z</time>
      </trkpt>
      <trkpt lat="43.76594" lon="6.71294">
        <ele>1102.29</ele>
        <time>2011-07-06T10:41:26Z</time>
      </trkpt>
      <trkpt lat="43.76586" lon="6.71285">
        <ele>1101.33</ele>
        <time>2011-07-06T10:41:27Z</time>
      </trkpt>
      <trkpt lat="43.76556" lon="6.71259">
        <ele>1098.44</ele>
        <time>2011-07-06T10:41:32Z</time>
      </trkpt>
      <trkpt lat="43.7655" lon="6.71251">
        <ele>1098.44</ele>
        <time>2011-07-06T10:41:34Z</time>
      </trkpt>
      <trkpt lat="43.76542" lon="6.71244">
        <ele>1097.48</ele>
        <time>2011-07-06T10:41:36Z</time>
      </trkpt>
      <trkpt lat="43.76539" lon="6.71241">
        <ele>1097.96</ele>
        <time>2011-07-06T10:41:37Z</time>
      </trkpt>
      <trkpt lat="43.76481" lon="6.712">
        <ele>1098.44</ele>
        <time>2011-07-06T10:41:53Z</time>
      </trkpt>
      <trkpt lat="43.76406" lon="6.71143">
        <ele>1100.85</ele>
        <time>2011-07-06T10:42:13Z</time>
      </trkpt>
      <trkpt lat="43.7635" lon="6.71096">
        <ele>1101.81</ele>
        <time>2011-07-06T10:42:29Z</time>
      </trkpt>
      <trkpt lat="43.76309" lon="6.71034">
        <ele>1103.73</ele>
        <time>2011-07-06T10:42:46Z</time>
      </trkpt>
      <trkpt lat="43.76304" lon="6.70998">
        <ele>1106.61</ele>
        <time>2011-07-06T10:42:58Z</time>
      </trkpt>
      <trkpt lat="43.76295" lon="6.70956">
        <ele>1108.54</ele>
        <time>2011-07-06T10:43:12Z</time>
      </trkpt>
      <trkpt lat="43.76283" lon="6.70899">
        <ele>1110.94</ele>
        <time>2011-07-06T10:43:28Z</time>
      </trkpt>
      <trkpt lat="43.76253" lon="6.70843">
        <ele>1111.9</ele>
        <time>2011-07-06T10:43:46Z</time>
      </trkpt>
      <trkpt lat="43.76231" lon="6.70806">
        <ele>1110.94</ele>
        <time>2011-07-06T10:43:55Z</time>
      </trkpt>
      <trkpt lat="43.7618" lon="6.70732">
        <ele>1110.94</ele>
        <time>2011-07-06T10:44:11Z</time>
      </trkpt>
      <trkpt lat="43.76146" lon="6.70663">
        <ele>1112.86</ele>
        <time>2011-07-06T10:44:26Z</time>
      </trkpt>
      <trkpt lat="43.76126" lon="6.70623">
        <ele>1114.79</ele>
        <time>2011-07-06T10:44:39Z</time>
      </trkpt>
      <trkpt lat="43.76113" lon="6.70594">
        <ele>1117.19</ele>
        <time>2011-07-06T10:44:50Z</time>
      </trkpt>
      <trkpt lat="43.76101" lon="6.70565">
        <ele>1119.11</ele>
        <time>2011-07-06T10:45:01Z</time>
      </trkpt>
      <trkpt lat="43.76089" lon="6.70548">
        <ele>1122</ele>
        <time>2011-07-06T10:45:10Z</time>
      </trkpt>
      <trkpt lat="43.76068" lon="6.70525">
        <ele>1124.4</ele>
        <time>2011-07-06T10:45:25Z</time>
      </trkpt>
      <trkpt lat="43.76054" lon="6.70498">
        <ele>1126.8</ele>
        <time>2011-07-06T10:45:38Z</time>
      </trkpt>
      <trkpt lat="43.76043" lon="6.70464">
        <ele>1127.76</ele>
        <time>2011-07-06T10:45:50Z</time>
      </trkpt>
      <trkpt lat="43.76037" lon="6.70427">
        <ele>1130.17</ele>
        <time>2011-07-06T10:46:04Z</time>
      </trkpt>
      <trkpt lat="43.76034" lon="6.70391">
        <ele>1133.05</ele>
        <time>2011-07-06T10:46:19Z</time>
      </trkpt>
      <trkpt lat="43.76034" lon="6.70389">
        <ele>1133.05</ele>
        <time>2011-07-06T10:46:20Z</time>
      </trkpt>
      <trkpt lat="43.76034" lon="6.70387">
        <ele>1133.05</ele>
        <time>2011-07-06T10:46:21Z</time>
      </trkpt>
      <trkpt lat="43.76032" lon="6.70359">
        <ele>1136.9</ele>
        <time>2011-07-06T10:46:34Z</time>
      </trkpt>
      <trkpt lat="43.7603" lon="6.70344">
        <ele>1137.86</ele>
        <time>2011-07-06T10:46:41Z</time>
      </trkpt>
      <trkpt lat="43.7603" lon="6.70343">
        <ele>1137.86</ele>
        <time>2011-07-06T10:46:42Z</time>
      </trkpt>
      <trkpt lat="43.7603" lon="6.70341">
        <ele>1138.34</ele>
        <time>2011-07-06T10:46:43Z</time>
      </trkpt>
      <trkpt lat="43.76031" lon="6.70339">
        <ele>1138.34</ele>
        <time>2011-07-06T10:46:44Z</time>
      </trkpt>
      <trkpt lat="43.76032" lon="6.70337">
        <ele>1138.82</ele>
        <time>2011-07-06T10:46:45Z</time>
      </trkpt>
      <trkpt lat="43.76033" lon="6.70337">
        <ele>1138.82</ele>
        <time>2011-07-06T10:46:46Z</time>
      </trkpt>
      <trkpt lat="43.76034" lon="6.70336">
        <ele>1138.82</ele>
        <time>2011-07-06T10:46:47Z</time>
      </trkpt>
      <trkpt lat="43.76035" lon="6.70336">
        <ele>1139.3</ele>
        <time>2011-07-06T10:46:48Z</time>
      </trkpt>
      <trkpt lat="43.76037" lon="6.70335">
        <ele>1139.3</ele>
        <time>2011-07-06T10:46:49Z</time>
      </trkpt>
      <trkpt lat="43.76038" lon="6.70336">
        <ele>1139.78</ele>
        <time>2011-07-06T10:46:50Z</time>
      </trkpt>
      <trkpt lat="43.76041" lon="6.70337">
        <ele>1140.26</ele>
        <time>2011-07-06T10:46:52Z</time>
      </trkpt>
      <trkpt lat="43.76043" lon="6.70338">
        <ele>1140.26</ele>
        <time>2011-07-06T10:46:53Z</time>
      </trkpt>
      <trkpt lat="43.76044" lon="6.70339">
        <ele>1140.74</ele>
        <time>2011-07-06T10:46:54Z</time>
      </trkpt>
      <trkpt lat="43.76047" lon="6.7034">
        <ele>1141.22</ele>
        <time>2011-07-06T10:46:56Z</time>
      </trkpt>
      <trkpt lat="43.76048" lon="6.70339">
        <ele>1141.7</ele>
        <time>2011-07-06T10:46:57Z</time>
      </trkpt>
      <trkpt lat="43.76049" lon="6.70338">
        <ele>1141.7</ele>
        <time>2011-07-06T10:46:58Z</time>
      </trkpt>
      <trkpt lat="43.76054" lon="6.70326">
        <ele>1143.63</ele>
        <time>2011-07-06T10:47:07Z</time>
      </trkpt>
      <trkpt lat="43.76053" lon="6.70307">
        <ele>1146.99</ele>
        <time>2011-07-06T10:47:18Z</time>
      </trkpt>
      <trkpt lat="43.76053" lon="6.70303">
        <ele>1146.99</ele>
        <time>2011-07-06T10:47:20Z</time>
      </trkpt>
      <trkpt lat="43.7605" lon="6.7029">
        <ele>1150.35</ele>
        <time>2011-07-06T10:47:27Z</time>
      </trkpt>
      <trkpt lat="43.76049" lon="6.70288">
        <ele>1150.84</ele>
        <time>2011-07-06T10:47:28Z</time>
      </trkpt>
      <trkpt lat="43.76043" lon="6.70259">
        <ele>1150.35</ele>
        <time>2011-07-06T10:47:41Z</time>
      </trkpt>
      <trkpt lat="43.76037" lon="6.7023">
        <ele>1152.76</ele>
        <time>2011-07-06T10:47:56Z</time>
      </trkpt>
      <trkpt lat="43.76036" lon="6.70227">
        <ele>1152.28</ele>
        <time>2011-07-06T10:48:11Z</time>
      </trkpt>
      <trkpt lat="43.76035" lon="6.70204">
        <ele>1152.76</ele>
        <time>2011-07-06T10:48:22Z</time>
      </trkpt>
      <trkpt lat="43.7603" lon="6.7016">
        <ele>1154.68</ele>
        <time>2011-07-06T10:48:40Z</time>
      </trkpt>
      <trkpt lat="43.7603" lon="6.70156">
        <ele>1155.16</ele>
        <time>2011-07-06T10:48:42Z</time>
      </trkpt>
      <trkpt lat="43.7603" lon="6.70154">
        <ele>1155.16</ele>
        <time>2011-07-06T10:48:43Z</time>
      </trkpt>
      <trkpt lat="43.7603" lon="6.70152">
        <ele>1155.16</ele>
        <time>2011-07-06T10:48:44Z</time>
      </trkpt>
      <trkpt lat="43.7603" lon="6.7015">
        <ele>1155.16</ele>
        <time>2011-07-06T10:48:45Z</time>
      </trkpt>
      <trkpt lat="43.76031" lon="6.70148">
        <ele>1155.64</ele>
        <time>2011-07-06T10:48:46Z</time>
      </trkpt>
      <trkpt lat="43.76031" lon="6.70146">
        <ele>1155.64</ele>
        <time>2011-07-06T10:48:47Z</time>
      </trkpt>
      <trkpt lat="43.76032" lon="6.70144">
        <ele>1156.12</ele>
        <time>2011-07-06T10:48:48Z</time>
      </trkpt>
      <trkpt lat="43.76032" lon="6.70142">
        <ele>1156.12</ele>
        <time>2011-07-06T10:48:49Z</time>
      </trkpt>
      <trkpt lat="43.76032" lon="6.7014">
        <ele>1156.6</ele>
        <time>2011-07-06T10:48:50Z</time>
      </trkpt>
      <trkpt lat="43.76032" lon="6.70139">
        <ele>1156.6</ele>
        <time>2011-07-06T10:48:51Z</time>
      </trkpt>
      <trkpt lat="43.76036" lon="6.70119">
        <ele>1159.01</ele>
        <time>2011-07-06T10:49:03Z</time>
      </trkpt>
      <trkpt lat="43.76036" lon="6.7011">
        <ele>1159.49</ele>
        <time>2011-07-06T10:49:08Z</time>
      </trkpt>
      <trkpt lat="43.76037" lon="6.70109">
        <ele>1159.97</ele>
        <time>2011-07-06T10:49:09Z</time>
      </trkpt>
      <trkpt lat="43.76036" lon="6.70096">
        <ele>1161.41</ele>
        <time>2011-07-06T10:49:15Z</time>
      </trkpt>
      <trkpt lat="43.76036" lon="6.70095">
        <ele>1161.89</ele>
        <time>2011-07-06T10:49:16Z</time>
      </trkpt>
      <trkpt lat="43.76036" lon="6.70093">
        <ele>1161.89</ele>
        <time>2011-07-06T10:49:17Z</time>
      </trkpt>
      <trkpt lat="43.76035" lon="6.70092">
        <ele>1161.89</ele>
        <time>2011-07-06T10:49:18Z</time>
      </trkpt>
      <trkpt lat="43.76035" lon="6.70091">
        <ele>1161.89</ele>
        <time>2011-07-06T10:49:19Z</time>
      </trkpt>
      <trkpt lat="43.76035" lon="6.70089">
        <ele>1161.89</ele>
        <time>2011-07-06T10:49:20Z</time>
      </trkpt>
      <trkpt lat="43.76035" lon="6.70088">
        <ele>1162.37</ele>
        <time>2011-07-06T10:49:21Z</time>
      </trkpt>
      <trkpt lat="43.76034" lon="6.70086">
        <ele>1161.89</ele>
        <time>2011-07-06T10:49:22Z</time>
      </trkpt>
      <trkpt lat="43.76034" lon="6.70084">
        <ele>1162.37</ele>
        <time>2011-07-06T10:49:23Z</time>
      </trkpt>
      <trkpt lat="43.76031" lon="6.70054">
        <ele>1164.29</ele>
        <time>2011-07-06T10:49:39Z</time>
      </trkpt>
      <trkpt lat="43.7603" lon="6.70051">
        <ele>1165.26</ele>
        <time>2011-07-06T10:49:41Z</time>
      </trkpt>
      <trkpt lat="43.7603" lon="6.7005">
        <ele>1165.74</ele>
        <time>2011-07-06T10:49:42Z</time>
      </trkpt>
      <trkpt lat="43.7603" lon="6.70048">
        <ele>1165.74</ele>
        <time>2011-07-06T10:49:43Z</time>
      </trkpt>
      <trkpt lat="43.7603" lon="6.70047">
        <ele>1165.26</ele>
        <time>2011-07-06T10:49:44Z</time>
      </trkpt>
      <trkpt lat="43.7603" lon="6.70045">
        <ele>1165.74</ele>
        <time>2011-07-06T10:49:45Z</time>
      </trkpt>
      <trkpt lat="43.7603" lon="6.70043">
        <ele>1165.74</ele>
        <time>2011-07-06T10:49:46Z</time>
      </trkpt>
      <trkpt lat="43.7603" lon="6.70037">
        <ele>1166.7</ele>
        <time>2011-07-06T10:49:49Z</time>
      </trkpt>
      <trkpt lat="43.76029" lon="6.70036">
        <ele>1166.7</ele>
        <time>2011-07-06T10:49:50Z</time>
      </trkpt>
      <trkpt lat="43.76029" lon="6.70034">
        <ele>1166.7</ele>
        <time>2011-07-06T10:49:51Z</time>
      </trkpt>
      <trkpt lat="43.76029" lon="6.70032">
        <ele>1167.18</ele>
        <time>2011-07-06T10:49:52Z</time>
      </trkpt>
      <trkpt lat="43.76028" lon="6.70031">
        <ele>1167.66</ele>
        <time>2011-07-06T10:49:53Z</time>
      </trkpt>
      <trkpt lat="43.76028" lon="6.70029">
        <ele>1167.66</ele>
        <time>2011-07-06T10:49:54Z</time>
      </trkpt>
      <trkpt lat="43.76027" lon="6.70027">
        <ele>1168.14</ele>
        <time>2011-07-06T10:49:55Z</time>
      </trkpt>
      <trkpt lat="43.76028" lon="6.70026">
        <ele>1167.66</ele>
        <time>2011-07-06T10:49:56Z</time>
      </trkpt>
      <trkpt lat="43.76028" lon="6.70024">
        <ele>1168.14</ele>
        <time>2011-07-06T10:49:57Z</time>
      </trkpt>
      <trkpt lat="43.76028" lon="6.70022">
        <ele>1168.14</ele>
        <time>2011-07-06T10:49:58Z</time>
      </trkpt>
      <trkpt lat="43.76028" lon="6.7002">
        <ele>1168.14</ele>
        <time>2011-07-06T10:49:59Z</time>
      </trkpt>
      <trkpt lat="43.76026" lon="6.7">
        <ele>1171.5</ele>
        <time>2011-07-06T10:50:11Z</time>
      </trkpt>
      <trkpt lat="43.76028" lon="6.69999">
        <ele>1171.98</ele>
        <time>2011-07-06T10:50:25Z</time>
      </trkpt>
      <trkpt lat="43.76029" lon="6.7">
        <ele>1171.98</ele>
        <time>2011-07-06T10:50:26Z</time>
      </trkpt>
      <trkpt lat="43.7603" lon="6.70001">
        <ele>1172.47</ele>
        <time>2011-07-06T10:50:27Z</time>
      </trkpt>
      <trkpt lat="43.7604" lon="6.70017">
        <ele>1174.87</ele>
        <time>2011-07-06T10:50:42Z</time>
      </trkpt>
      <trkpt lat="43.76045" lon="6.70021">
        <ele>1175.35</ele>
        <time>2011-07-06T10:50:50Z</time>
      </trkpt>
      <trkpt lat="43.76045" lon="6.70015">
        <ele>1176.31</ele>
        <time>2011-07-06T10:50:54Z</time>
      </trkpt>
      <trkpt lat="43.76044" lon="6.70014">
        <ele>1176.79</ele>
        <time>2011-07-06T10:50:55Z</time>
      </trkpt>
      <trkpt lat="43.76044" lon="6.70011">
        <ele>1177.27</ele>
        <time>2011-07-06T10:50:57Z</time>
      </trkpt>
      <trkpt lat="43.76043" lon="6.70003">
        <ele>1178.23</ele>
        <time>2011-07-06T10:51:08Z</time>
      </trkpt>
      <trkpt lat="43.76042" lon="6.70001">
        <ele>1178.23</ele>
        <time>2011-07-06T10:51:09Z</time>
      </trkpt>
      <trkpt lat="43.76042" lon="6.69998">
        <ele>1178.71</ele>
        <time>2011-07-06T10:51:10Z</time>
      </trkpt>
      <trkpt lat="43.76041" lon="6.69996">
        <ele>1178.71</ele>
        <time>2011-07-06T10:51:11Z</time>
      </trkpt>
      <trkpt lat="43.76041" lon="6.69994">
        <ele>1178.71</ele>
        <time>2011-07-06T10:51:12Z</time>
      </trkpt>
      <trkpt lat="43.76041" lon="6.69991">
        <ele>1179.19</ele>
        <time>2011-07-06T10:51:13Z</time>
      </trkpt>
      <trkpt lat="43.7604" lon="6.69989">
        <ele>1179.19</ele>
        <time>2011-07-06T10:51:14Z</time>
      </trkpt>
      <trkpt lat="43.7604" lon="6.69987">
        <ele>1179.19</ele>
        <time>2011-07-06T10:51:15Z</time>
      </trkpt>
      <trkpt lat="43.7604" lon="6.69985">
        <ele>1179.67</ele>
        <time>2011-07-06T10:51:16Z</time>
      </trkpt>
      <trkpt lat="43.7604" lon="6.69983">
        <ele>1180.16</ele>
        <time>2011-07-06T10:51:17Z</time>
      </trkpt>
      <trkpt lat="43.7604" lon="6.69972">
        <ele>1182.08</ele>
        <time>2011-07-06T10:51:28Z</time>
      </trkpt>
      <trkpt lat="43.7604" lon="6.6997">
        <ele>1182.56</ele>
        <time>2011-07-06T10:51:29Z</time>
      </trkpt>
      <trkpt lat="43.76037" lon="6.69949">
        <ele>1184</ele>
        <time>2011-07-06T10:51:46Z</time>
      </trkpt>
      <trkpt lat="43.76037" lon="6.69945">
        <ele>1184.48</ele>
        <time>2011-07-06T10:51:49Z</time>
      </trkpt>
      <trkpt lat="43.76035" lon="6.69928">
        <ele>1186.4</ele>
        <time>2011-07-06T10:52:04Z</time>
      </trkpt>
      <trkpt lat="43.76033" lon="6.69909">
        <ele>1189.29</ele>
        <time>2011-07-06T10:52:21Z</time>
      </trkpt>
      <trkpt lat="43.76032" lon="6.69895">
        <ele>1190.73</ele>
        <time>2011-07-06T10:52:35Z</time>
      </trkpt>
      <trkpt lat="43.76032" lon="6.69884">
        <ele>1193.13</ele>
        <time>2011-07-06T10:52:46Z</time>
      </trkpt>
      <trkpt lat="43.76031" lon="6.69878">
        <ele>1193.61</ele>
        <time>2011-07-06T10:52:51Z</time>
      </trkpt>
      <trkpt lat="43.76028" lon="6.6986">
        <ele>1195.06</ele>
        <time>2011-07-06T10:53:07Z</time>
      </trkpt>
      <trkpt lat="43.76025" lon="6.6984">
        <ele>1196.98</ele>
        <time>2011-07-06T10:53:20Z</time>
      </trkpt>
      <trkpt lat="43.76022" lon="6.69821">
        <ele>1197.46</ele>
        <time>2011-07-06T10:53:34Z</time>
      </trkpt>
      <trkpt lat="43.76019" lon="6.69804">
        <ele>1199.86</ele>
        <time>2011-07-06T10:53:48Z</time>
      </trkpt>
      <trkpt lat="43.76016" lon="6.69786">
        <ele>1202.27</ele>
        <time>2011-07-06T10:54:03Z</time>
      </trkpt>
      <trkpt lat="43.76014" lon="6.69776">
        <ele>1203.23</ele>
        <time>2011-07-06T10:54:21Z</time>
      </trkpt>
      <trkpt lat="43.76014" lon="6.69772">
        <ele>1203.71</ele>
        <time>2011-07-06T10:54:24Z</time>
      </trkpt>
      <trkpt lat="43.76013" lon="6.6977">
        <ele>1204.19</ele>
        <time>2011-07-06T10:54:25Z</time>
      </trkpt>
      <trkpt lat="43.76013" lon="6.69768">
        <ele>1204.19</ele>
        <time>2011-07-06T10:54:26Z</time>
      </trkpt>
      <trkpt lat="43.76012" lon="6.69765">
        <ele>1204.19</ele>
        <time>2011-07-06T10:54:27Z</time>
      </trkpt>
      <trkpt lat="43.76012" lon="6.69763">
        <ele>1204.19</ele>
        <time>2011-07-06T10:54:28Z</time>
      </trkpt>
      <trkpt lat="43.76012" lon="6.69761">
        <ele>1204.67</ele>
        <time>2011-07-06T10:54:29Z</time>
      </trkpt>
      <trkpt lat="43.76011" lon="6.69759">
        <ele>1204.19</ele>
        <time>2011-07-06T10:54:30Z</time>
      </trkpt>
      <trkpt lat="43.76006" lon="6.69733">
        <ele>1207.07</ele>
        <time>2011-07-06T10:54:43Z</time>
      </trkpt>
      <trkpt lat="43.76003" lon="6.69717">
        <ele>1209.96</ele>
        <time>2011-07-06T10:54:53Z</time>
      </trkpt>
      <trkpt lat="43.76" lon="6.69691">
        <ele>1212.36</ele>
        <time>2011-07-06T10:55:07Z</time>
      </trkpt>
      <trkpt lat="43.75999" lon="6.6969">
        <ele>1212.84</ele>
        <time>2011-07-06T10:55:08Z</time>
      </trkpt>
      <trkpt lat="43.75999" lon="6.69688">
        <ele>1213.32</ele>
        <time>2011-07-06T10:55:09Z</time>
      </trkpt>
      <trkpt lat="43.75994" lon="6.69664">
        <ele>1215.24</ele>
        <time>2011-07-06T10:55:23Z</time>
      </trkpt>
      <trkpt lat="43.7599" lon="6.69644">
        <ele>1216.21</ele>
        <time>2011-07-06T10:55:34Z</time>
      </trkpt>
      <trkpt lat="43.75989" lon="6.69642">
        <ele>1216.69</ele>
        <time>2011-07-06T10:55:35Z</time>
      </trkpt>
      <trkpt lat="43.75988" lon="6.6964">
        <ele>1216.69</ele>
        <time>2011-07-06T10:55:36Z</time>
      </trkpt>
      <trkpt lat="43.75983" lon="6.69624">
        <ele>1219.09</ele>
        <time>2011-07-06T10:55:44Z</time>
      </trkpt>
      <trkpt lat="43.75973" lon="6.69597">
        <ele>1221.01</ele>
        <time>2011-07-06T10:55:58Z</time>
      </trkpt>
      <trkpt lat="43.75955" lon="6.69573">
        <ele>1221.97</ele>
        <time>2011-07-06T10:56:10Z</time>
      </trkpt>
      <trkpt lat="43.75931" lon="6.69551">
        <ele>1223.42</ele>
        <time>2011-07-06T10:56:24Z</time>
      </trkpt>
      <trkpt lat="43.75908" lon="6.69529">
        <ele>1225.34</ele>
        <time>2011-07-06T10:56:37Z</time>
      </trkpt>
      <trkpt lat="43.75887" lon="6.6951">
        <ele>1227.26</ele>
        <time>2011-07-06T10:56:51Z</time>
      </trkpt>
      <trkpt lat="43.75869" lon="6.69494">
        <ele>1230.14</ele>
        <time>2011-07-06T10:57:04Z</time>
      </trkpt>
      <trkpt lat="43.75864" lon="6.69488">
        <ele>1231.59</ele>
        <time>2011-07-06T10:57:09Z</time>
      </trkpt>
      <trkpt lat="43.7585" lon="6.69473">
        <ele>1233.51</ele>
        <time>2011-07-06T10:57:22Z</time>
      </trkpt>
      <trkpt lat="43.75826" lon="6.69451">
        <ele>1235.43</ele>
        <time>2011-07-06T10:57:37Z</time>
      </trkpt>
      <trkpt lat="43.75792" lon="6.69428">
        <ele>1236.87</ele>
        <time>2011-07-06T10:57:53Z</time>
      </trkpt>
      <trkpt lat="43.75769" lon="6.69409">
        <ele>1238.8</ele>
        <time>2011-07-06T10:58:07Z</time>
      </trkpt>
      <trkpt lat="43.75757" lon="6.69399">
        <ele>1240.72</ele>
        <time>2011-07-06T10:58:16Z</time>
      </trkpt>
      <trkpt lat="43.75745" lon="6.69382">
        <ele>1243.6</ele>
        <time>2011-07-06T10:58:30Z</time>
      </trkpt>
      <trkpt lat="43.75743" lon="6.6938">
        <ele>1244.08</ele>
        <time>2011-07-06T10:58:43Z</time>
      </trkpt>
      <trkpt lat="43.75726" lon="6.69358">
        <ele>1246.01</ele>
        <time>2011-07-06T10:58:59Z</time>
      </trkpt>
      <trkpt lat="43.75714" lon="6.69343">
        <ele>1248.89</ele>
        <time>2011-07-06T10:59:12Z</time>
      </trkpt>
      <trkpt lat="43.75706" lon="6.69335">
        <ele>1250.81</ele>
        <time>2011-07-06T10:59:26Z</time>
      </trkpt>
      <trkpt lat="43.75705" lon="6.69333">
        <ele>1250.33</ele>
        <time>2011-07-06T10:59:31Z</time>
      </trkpt>
      <trkpt lat="43.75703" lon="6.69331">
        <ele>1251.29</ele>
        <time>2011-07-06T10:59:33Z</time>
      </trkpt>
      <trkpt lat="43.75701" lon="6.69329">
        <ele>1250.81</ele>
        <time>2011-07-06T10:59:34Z</time>
      </trkpt>
      <trkpt lat="43.757" lon="6.69328">
        <ele>1250.81</ele>
        <time>2011-07-06T10:59:35Z</time>
      </trkpt>
      <trkpt lat="43.75699" lon="6.69327">
        <ele>1251.29</ele>
        <time>2011-07-06T10:59:36Z</time>
      </trkpt>
      <trkpt lat="43.75697" lon="6.69326">
        <ele>1250.81</ele>
        <time>2011-07-06T10:59:37Z</time>
      </trkpt>
      <trkpt lat="43.75696" lon="6.69325">
        <ele>1251.77</ele>
        <time>2011-07-06T10:59:38Z</time>
      </trkpt>
      <trkpt lat="43.75695" lon="6.69323">
        <ele>1251.29</ele>
        <time>2011-07-06T10:59:39Z</time>
      </trkpt>
      <trkpt lat="43.75694" lon="6.69322">
        <ele>1251.77</ele>
        <time>2011-07-06T10:59:40Z</time>
      </trkpt>
      <trkpt lat="43.75686" lon="6.69311">
        <ele>1253.22</ele>
        <time>2011-07-06T10:59:49Z</time>
      </trkpt>
      <trkpt lat="43.75685" lon="6.6931">
        <ele>1253.7</ele>
        <time>2011-07-06T10:59:50Z</time>
      </trkpt>
      <trkpt lat="43.7567" lon="6.69296">
        <ele>1256.58</ele>
        <time>2011-07-06T11:00:04Z</time>
      </trkpt>
      <trkpt lat="43.75656" lon="6.69285">
        <ele>1259.46</ele>
        <time>2011-07-06T11:00:16Z</time>
      </trkpt>
      <trkpt lat="43.7564" lon="6.69272">
        <ele>1260.91</ele>
        <time>2011-07-06T11:00:29Z</time>
      </trkpt>
      <trkpt lat="43.75628" lon="6.69264">
        <ele>1262.83</ele>
        <time>2011-07-06T11:00:43Z</time>
      </trkpt>
      <trkpt lat="43.75623" lon="6.69256">
        <ele>1265.23</ele>
        <time>2011-07-06T11:00:51Z</time>
      </trkpt>
      <trkpt lat="43.75622" lon="6.69255">
        <ele>1264.75</ele>
        <time>2011-07-06T11:00:52Z</time>
      </trkpt>
      <trkpt lat="43.75621" lon="6.69255">
        <ele>1265.23</ele>
        <time>2011-07-06T11:00:53Z</time>
      </trkpt>
      <trkpt lat="43.7562" lon="6.69254">
        <ele>1265.23</ele>
        <time>2011-07-06T11:00:54Z</time>
      </trkpt>
      <trkpt lat="43.75619" lon="6.69253">
        <ele>1265.23</ele>
        <time>2011-07-06T11:00:55Z</time>
      </trkpt>
      <trkpt lat="43.75607" lon="6.69245">
        <ele>1267.64</ele>
        <time>2011-07-06T11:01:10Z</time>
      </trkpt>
      <trkpt lat="43.75599" lon="6.6924">
        <ele>1269.56</ele>
        <time>2011-07-06T11:01:18Z</time>
      </trkpt>
      <trkpt lat="43.75591" lon="6.69239">
        <ele>1270.52</ele>
        <time>2011-07-06T11:01:31Z</time>
      </trkpt>
      <trkpt lat="43.75575" lon="6.69237">
        <ele>1273.88</ele>
        <time>2011-07-06T11:01:42Z</time>
      </trkpt>
      <trkpt lat="43.75563" lon="6.69237">
        <ele>1276.29</ele>
        <time>2011-07-06T11:01:54Z</time>
      </trkpt>
      <trkpt lat="43.7556" lon="6.69234">
        <ele>1275.81</ele>
        <time>2011-07-06T11:02:06Z</time>
      </trkpt>
      <trkpt lat="43.75559" lon="6.69232">
        <ele>1276.29</ele>
        <time>2011-07-06T11:02:07Z</time>
      </trkpt>
      <trkpt lat="43.75557" lon="6.69232">
        <ele>1276.29</ele>
        <time>2011-07-06T11:02:08Z</time>
      </trkpt>
      <trkpt lat="43.75554" lon="6.69231">
        <ele>1276.29</ele>
        <time>2011-07-06T11:02:10Z</time>
      </trkpt>
      <trkpt lat="43.75553" lon="6.69232">
        <ele>1276.29</ele>
        <time>2011-07-06T11:02:11Z</time>
      </trkpt>
      <trkpt lat="43.75552" lon="6.69233">
        <ele>1276.77</ele>
        <time>2011-07-06T11:02:12Z</time>
      </trkpt>
      <trkpt lat="43.75551" lon="6.69235">
        <ele>1276.77</ele>
        <time>2011-07-06T11:02:13Z</time>
      </trkpt>
      <trkpt lat="43.75549" lon="6.69237">
        <ele>1276.77</ele>
        <time>2011-07-06T11:02:14Z</time>
      </trkpt>
      <trkpt lat="43.75548" lon="6.6924">
        <ele>1277.25</ele>
        <time>2011-07-06T11:02:15Z</time>
      </trkpt>
      <trkpt lat="43.75548" lon="6.69242">
        <ele>1277.73</ele>
        <time>2011-07-06T11:02:16Z</time>
      </trkpt>
      <trkpt lat="43.75547" lon="6.69244">
        <ele>1277.73</ele>
        <time>2011-07-06T11:02:17Z</time>
      </trkpt>
      <trkpt lat="43.75547" lon="6.69247">
        <ele>1278.21</ele>
        <time>2011-07-06T11:02:18Z</time>
      </trkpt>
      <trkpt lat="43.75547" lon="6.6925">
        <ele>1277.73</ele>
        <time>2011-07-06T11:02:19Z</time>
      </trkpt>
      <trkpt lat="43.75547" lon="6.69253">
        <ele>1278.21</ele>
        <time>2011-07-06T11:02:20Z</time>
      </trkpt>
      <trkpt lat="43.75547" lon="6.69256">
        <ele>1277.73</ele>
        <time>2011-07-06T11:02:21Z</time>
      </trkpt>
      <trkpt lat="43.75547" lon="6.69258">
        <ele>1277.73</ele>
        <time>2011-07-06T11:02:22Z</time>
      </trkpt>
      <trkpt lat="43.75546" lon="6.69261">
        <ele>1277.73</ele>
        <time>2011-07-06T11:02:23Z</time>
      </trkpt>
      <trkpt lat="43.75545" lon="6.69262">
        <ele>1278.21</ele>
        <time>2011-07-06T11:02:24Z</time>
      </trkpt>
      <trkpt lat="43.75543" lon="6.69264">
        <ele>1278.21</ele>
        <time>2011-07-06T11:02:25Z</time>
      </trkpt>
      <trkpt lat="43.75542" lon="6.69264">
        <ele>1278.69</ele>
        <time>2011-07-06T11:02:26Z</time>
      </trkpt>
      <trkpt lat="43.7554" lon="6.69264">
        <ele>1278.69</ele>
        <time>2011-07-06T11:02:27Z</time>
      </trkpt>
      <trkpt lat="43.75538" lon="6.69263">
        <ele>1278.69</ele>
        <time>2011-07-06T11:02:28Z</time>
      </trkpt>
      <trkpt lat="43.75536" lon="6.69262">
        <ele>1279.17</ele>
        <time>2011-07-06T11:02:29Z</time>
      </trkpt>
      <trkpt lat="43.75535" lon="6.6926">
        <ele>1278.69</ele>
        <time>2011-07-06T11:02:30Z</time>
      </trkpt>
      <trkpt lat="43.75534" lon="6.69258">
        <ele>1279.17</ele>
        <time>2011-07-06T11:02:31Z</time>
      </trkpt>
      <trkpt lat="43.75534" lon="6.69256">
        <ele>1279.65</ele>
        <time>2011-07-06T11:02:32Z</time>
      </trkpt>
      <trkpt lat="43.75534" lon="6.69253">
        <ele>1279.65</ele>
        <time>2011-07-06T11:02:33Z</time>
      </trkpt>
      <trkpt lat="43.75535" lon="6.6925">
        <ele>1279.17</ele>
        <time>2011-07-06T11:02:34Z</time>
      </trkpt>
      <trkpt lat="43.75535" lon="6.69248">
        <ele>1279.65</ele>
        <time>2011-07-06T11:02:35Z</time>
      </trkpt>
      <trkpt lat="43.75536" lon="6.69246">
        <ele>1279.65</ele>
        <time>2011-07-06T11:02:36Z</time>
      </trkpt>
      <trkpt lat="43.75549" lon="6.69212">
        <ele>1281.09</ele>
        <time>2011-07-06T11:02:52Z</time>
      </trkpt>
      <trkpt lat="43.75555" lon="6.69202">
        <ele>1282.54</ele>
        <time>2011-07-06T11:02:58Z</time>
      </trkpt>
      <trkpt lat="43.75556" lon="6.69199">
        <ele>1282.54</ele>
        <time>2011-07-06T11:02:59Z</time>
      </trkpt>
      <trkpt lat="43.75557" lon="6.69197">
        <ele>1282.54</ele>
        <time>2011-07-06T11:03:00Z</time>
      </trkpt>
      <trkpt lat="43.75558" lon="6.69196">
        <ele>1282.54</ele>
        <time>2011-07-06T11:03:01Z</time>
      </trkpt>
      <trkpt lat="43.7556" lon="6.69195">
        <ele>1283.02</ele>
        <time>2011-07-06T11:03:02Z</time>
      </trkpt>
      <trkpt lat="43.7558" lon="6.69179">
        <ele>1284.94</ele>
        <time>2011-07-06T11:03:16Z</time>
      </trkpt>
      <trkpt lat="43.75599" lon="6.69163">
        <ele>1288.3</ele>
        <time>2011-07-06T11:03:30Z</time>
      </trkpt>
      <trkpt lat="43.75622" lon="6.69154">
        <ele>1291.67</ele>
        <time>2011-07-06T11:03:45Z</time>
      </trkpt>
      <trkpt lat="43.75651" lon="6.69162">
        <ele>1293.59</ele>
        <time>2011-07-06T11:04:03Z</time>
      </trkpt>
      <trkpt lat="43.75675" lon="6.6917">
        <ele>1295.51</ele>
        <time>2011-07-06T11:04:17Z</time>
      </trkpt>
      <trkpt lat="43.757" lon="6.69171">
        <ele>1298.88</ele>
        <time>2011-07-06T11:04:31Z</time>
      </trkpt>
      <trkpt lat="43.75727" lon="6.6917">
        <ele>1301.28</ele>
        <time>2011-07-06T11:04:47Z</time>
      </trkpt>
      <trkpt lat="43.75748" lon="6.69171">
        <ele>1303.2</ele>
        <time>2011-07-06T11:05:02Z</time>
      </trkpt>
      <trkpt lat="43.75748" lon="6.69171">
        <ele>1303.69</ele>
        <time>2011-07-06T11:05:24Z</time>
      </trkpt>
      <trkpt lat="43.7575" lon="6.69167">
        <ele>1303.69</ele>
        <time>2011-07-06T11:05:28Z</time>
      </trkpt>
      <trkpt lat="43.75752" lon="6.69167">
        <ele>1304.17</ele>
        <time>2011-07-06T11:05:29Z</time>
      </trkpt>
      <trkpt lat="43.75753" lon="6.69166">
        <ele>1304.17</ele>
        <time>2011-07-06T11:05:30Z</time>
      </trkpt>
      <trkpt lat="43.75754" lon="6.69165">
        <ele>1304.17</ele>
        <time>2011-07-06T11:05:31Z</time>
      </trkpt>
      <trkpt lat="43.75755" lon="6.69164">
        <ele>1304.17</ele>
        <time>2011-07-06T11:05:32Z</time>
      </trkpt>
      <trkpt lat="43.75757" lon="6.69163">
        <ele>1303.69</ele>
        <time>2011-07-06T11:05:33Z</time>
      </trkpt>
      <trkpt lat="43.75783" lon="6.69146">
        <ele>1307.05</ele>
        <time>2011-07-06T11:05:49Z</time>
      </trkpt>
      <trkpt lat="43.75807" lon="6.69136">
        <ele>1310.9</ele>
        <time>2011-07-06T11:06:04Z</time>
      </trkpt>
      <trkpt lat="43.75836" lon="6.69146">
        <ele>1312.34</ele>
        <time>2011-07-06T11:06:20Z</time>
      </trkpt>
      <trkpt lat="43.75859" lon="6.69162">
        <ele>1315.7</ele>
        <time>2011-07-06T11:06:34Z</time>
      </trkpt>
      <trkpt lat="43.75882" lon="6.69184">
        <ele>1317.62</ele>
        <time>2011-07-06T11:06:49Z</time>
      </trkpt>
      <trkpt lat="43.75898" lon="6.69197">
        <ele>1320.51</ele>
        <time>2011-07-06T11:07:00Z</time>
      </trkpt>
      <trkpt lat="43.75917" lon="6.6922">
        <ele>1322.91</ele>
        <time>2011-07-06T11:07:14Z</time>
      </trkpt>
      <trkpt lat="43.75946" lon="6.69244">
        <ele>1324.35</ele>
        <time>2011-07-06T11:07:31Z</time>
      </trkpt>
      <trkpt lat="43.75979" lon="6.69276">
        <ele>1326.76</ele>
        <time>2011-07-06T11:07:47Z</time>
      </trkpt>
      <trkpt lat="43.75997" lon="6.6928">
        <ele>1328.68</ele>
        <time>2011-07-06T11:07:55Z</time>
      </trkpt>
      <trkpt lat="43.76" lon="6.69276">
        <ele>1328.2</ele>
        <time>2011-07-06T11:07:57Z</time>
      </trkpt>
      <trkpt lat="43.76" lon="6.69274">
        <ele>1329.16</ele>
        <time>2011-07-06T11:07:58Z</time>
      </trkpt>
      <trkpt lat="43.76" lon="6.69272">
        <ele>1329.16</ele>
        <time>2011-07-06T11:07:59Z</time>
      </trkpt>
      <trkpt lat="43.76001" lon="6.69269">
        <ele>1329.64</ele>
        <time>2011-07-06T11:08:00Z</time>
      </trkpt>
      <trkpt lat="43.76001" lon="6.69266">
        <ele>1329.64</ele>
        <time>2011-07-06T11:08:01Z</time>
      </trkpt>
      <trkpt lat="43.75996" lon="6.69234">
        <ele>1332.04</ele>
        <time>2011-07-06T11:08:14Z</time>
      </trkpt>
      <trkpt lat="43.75996" lon="6.69222">
        <ele>1333.49</ele>
        <time>2011-07-06T11:08:19Z</time>
      </trkpt>
      <trkpt lat="43.75993" lon="6.69192">
        <ele>1334.45</ele>
        <time>2011-07-06T11:08:31Z</time>
      </trkpt>
      <trkpt lat="43.75984" lon="6.69166">
        <ele>1336.85</ele>
        <time>2011-07-06T11:08:44Z</time>
      </trkpt>
      <trkpt lat="43.75977" lon="6.69142">
        <ele>1338.29</ele>
        <time>2011-07-06T11:08:57Z</time>
      </trkpt>
      <trkpt lat="43.75977" lon="6.6914">
        <ele>1339.25</ele>
        <time>2011-07-06T11:08:58Z</time>
      </trkpt>
      <trkpt lat="43.75977" lon="6.69137">
        <ele>1339.25</ele>
        <time>2011-07-06T11:08:59Z</time>
      </trkpt>
      <trkpt lat="43.75977" lon="6.69136">
        <ele>1339.25</ele>
        <time>2011-07-06T11:09:00Z</time>
      </trkpt>
      <trkpt lat="43.75976" lon="6.69134">
        <ele>1339.73</ele>
        <time>2011-07-06T11:09:01Z</time>
      </trkpt>
      <trkpt lat="43.75975" lon="6.69103">
        <ele>1341.66</ele>
        <time>2011-07-06T11:09:15Z</time>
      </trkpt>
      <trkpt lat="43.75984" lon="6.69064">
        <ele>1344.06</ele>
        <time>2011-07-06T11:09:31Z</time>
      </trkpt>
      <trkpt lat="43.75988" lon="6.69037">
        <ele>1345.98</ele>
        <time>2011-07-06T11:09:42Z</time>
      </trkpt>
      <trkpt lat="43.75995" lon="6.69003">
        <ele>1348.87</ele>
        <time>2011-07-06T11:09:56Z</time>
      </trkpt>
      <trkpt lat="43.76007" lon="6.68977">
        <ele>1350.31</ele>
        <time>2011-07-06T11:10:11Z</time>
      </trkpt>
      <trkpt lat="43.76007" lon="6.68977">
        <ele>1350.31</ele>
        <time>2011-07-06T11:10:39Z</time>
      </trkpt>
      <trkpt lat="43.76008" lon="6.68976">
        <ele>1350.79</ele>
        <time>2011-07-06T11:10:52Z</time>
      </trkpt>
      <trkpt lat="43.76008" lon="6.68976">
        <ele>1350.79</ele>
        <time>2011-07-06T11:11:24Z</time>
      </trkpt>
      <trkpt lat="43.76008" lon="6.68976">
        <ele>1349.83</ele>
        <time>2011-07-06T11:11:56Z</time>
      </trkpt>
      <trkpt lat="43.76001" lon="6.68983">
        <ele>1349.83</ele>
        <time>2011-07-06T11:12:07Z</time>
      </trkpt>
      <trkpt lat="43.76001" lon="6.68984">
        <ele>1349.83</ele>
        <time>2011-07-06T11:12:08Z</time>
      </trkpt>
      <trkpt lat="43.76" lon="6.68986">
        <ele>1349.83</ele>
        <time>2011-07-06T11:12:09Z</time>
      </trkpt>
      <trkpt lat="43.75999" lon="6.68989">
        <ele>1349.83</ele>
        <time>2011-07-06T11:12:10Z</time>
      </trkpt>
      <trkpt lat="43.75999" lon="6.68993">
        <ele>1348.87</ele>
        <time>2011-07-06T11:12:11Z</time>
      </trkpt>
      <trkpt lat="43.75996" lon="6.69001">
        <ele>1348.39</ele>
        <time>2011-07-06T11:12:13Z</time>
      </trkpt>
      <trkpt lat="43.75988" lon="6.69051">
        <ele>1344.54</ele>
        <time>2011-07-06T11:12:21Z</time>
      </trkpt>
      <trkpt lat="43.75987" lon="6.69057">
        <ele>1344.54</ele>
        <time>2011-07-06T11:12:22Z</time>
      </trkpt>
      <trkpt lat="43.75983" lon="6.69074">
        <ele>1343.58</ele>
        <time>2011-07-06T11:12:25Z</time>
      </trkpt>
      <trkpt lat="43.75977" lon="6.69098">
        <ele>1341.18</ele>
        <time>2011-07-06T11:12:35Z</time>
      </trkpt>
      <trkpt lat="43.75977" lon="6.69098">
        <ele>1341.66</ele>
        <time>2011-07-06T11:13:01Z</time>
      </trkpt>
      <trkpt lat="43.75977" lon="6.69098">
        <ele>1341.18</ele>
        <time>2011-07-06T11:13:24Z</time>
      </trkpt>
      <trkpt lat="43.75977" lon="6.69098">
        <ele>1342.62</ele>
        <time>2011-07-06T11:13:30Z</time>
      </trkpt>
      <trkpt lat="43.75977" lon="6.69098">
        <ele>1342.62</ele>
        <time>2011-07-06T11:14:04Z</time>
      </trkpt>
      <trkpt lat="43.75977" lon="6.69098">
        <ele>1342.62</ele>
        <time>2011-07-06T11:14:39Z</time>
      </trkpt>
      <trkpt lat="43.75977" lon="6.69098">
        <ele>1343.1</ele>
        <time>2011-07-06T11:14:55Z</time>
      </trkpt>
      <trkpt lat="43.75977" lon="6.69098">
        <ele>1343.1</ele>
        <time>2011-07-06T11:15:21Z</time>
      </trkpt>
      <trkpt lat="43.75974" lon="6.69102">
        <ele>1343.1</ele>
        <time>2011-07-06T11:15:51Z</time>
      </trkpt>
      <trkpt lat="43.75974" lon="6.69102">
        <ele>1343.1</ele>
        <time>2011-07-06T11:16:21Z</time>
      </trkpt>
      <trkpt lat="43.75974" lon="6.69103">
        <ele>1343.1</ele>
        <time>2011-07-06T11:16:58Z</time>
      </trkpt>
      <trkpt lat="43.75975" lon="6.69103">
        <ele>1343.58</ele>
        <time>2011-07-06T11:17:35Z</time>
      </trkpt>
      <trkpt lat="43.75975" lon="6.69103">
        <ele>1343.58</ele>
        <time>2011-07-06T11:18:14Z</time>
      </trkpt>
      <trkpt lat="43.75975" lon="6.69104">
        <ele>1344.06</ele>
        <time>2011-07-06T11:18:50Z</time>
      </trkpt>
      <trkpt lat="43.75976" lon="6.69109">
        <ele>1343.58</ele>
        <time>2011-07-06T11:18:52Z</time>
      </trkpt>
      <trkpt lat="43.75976" lon="6.69113">
        <ele>1343.58</ele>
        <time>2011-07-06T11:18:53Z</time>
      </trkpt>
      <trkpt lat="43.75976" lon="6.69117">
        <ele>1343.1</ele>
        <time>2011-07-06T11:18:54Z</time>
      </trkpt>
      <trkpt lat="43.75976" lon="6.69122">
        <ele>1342.62</ele>
        <time>2011-07-06T11:18:55Z</time>
      </trkpt>
      <trkpt lat="43.75977" lon="6.69128">
        <ele>1342.62</ele>
        <time>2011-07-06T11:18:56Z</time>
      </trkpt>
      <trkpt lat="43.75977" lon="6.69135">
        <ele>1342.14</ele>
        <time>2011-07-06T11:18:57Z</time>
      </trkpt>
      <trkpt lat="43.75978" lon="6.69142">
        <ele>1342.14</ele>
        <time>2011-07-06T11:18:58Z</time>
      </trkpt>
      <trkpt lat="43.75979" lon="6.6915">
        <ele>1341.66</ele>
        <time>2011-07-06T11:18:59Z</time>
      </trkpt>
      <trkpt lat="43.75981" lon="6.69158">
        <ele>1341.18</ele>
        <time>2011-07-06T11:19:00Z</time>
      </trkpt>
      <trkpt lat="43.75984" lon="6.69166">
        <ele>1340.22</ele>
        <time>2011-07-06T11:19:01Z</time>
      </trkpt>
      <trkpt lat="43.75987" lon="6.69174">
        <ele>1339.25</ele>
        <time>2011-07-06T11:19:02Z</time>
      </trkpt>
      <trkpt lat="43.7599" lon="6.69183">
        <ele>1339.25</ele>
        <time>2011-07-06T11:19:03Z</time>
      </trkpt>
      <trkpt lat="43.75993" lon="6.69192">
        <ele>1337.81</ele>
        <time>2011-07-06T11:19:04Z</time>
      </trkpt>
      <trkpt lat="43.75995" lon="6.69201">
        <ele>1337.33</ele>
        <time>2011-07-06T11:19:05Z</time>
      </trkpt>
      <trkpt lat="43.75995" lon="6.6921">
        <ele>1337.33</ele>
        <time>2011-07-06T11:19:06Z</time>
      </trkpt>
      <trkpt lat="43.75996" lon="6.6922">
        <ele>1336.85</ele>
        <time>2011-07-06T11:19:07Z</time>
      </trkpt>
      <trkpt lat="43.75997" lon="6.6923">
        <ele>1335.89</ele>
        <time>2011-07-06T11:19:08Z</time>
      </trkpt>
      <trkpt lat="43.76001" lon="6.69256">
        <ele>1334.45</ele>
        <time>2011-07-06T11:19:11Z</time>
      </trkpt>
      <trkpt lat="43.76001" lon="6.69264">
        <ele>1333.97</ele>
        <time>2011-07-06T11:19:12Z</time>
      </trkpt>
      <trkpt lat="43.76001" lon="6.69271">
        <ele>1332.04</ele>
        <time>2011-07-06T11:19:13Z</time>
      </trkpt>
      <trkpt lat="43.75999" lon="6.69276">
        <ele>1331.56</ele>
        <time>2011-07-06T11:19:14Z</time>
      </trkpt>
      <trkpt lat="43.75996" lon="6.69281">
        <ele>1331.56</ele>
        <time>2011-07-06T11:19:15Z</time>
      </trkpt>
      <trkpt lat="43.75993" lon="6.69284">
        <ele>1331.56</ele>
        <time>2011-07-06T11:19:16Z</time>
      </trkpt>
      <trkpt lat="43.75989" lon="6.69284">
        <ele>1330.6</ele>
        <time>2011-07-06T11:19:17Z</time>
      </trkpt>
      <trkpt lat="43.75985" lon="6.69282">
        <ele>1330.6</ele>
        <time>2011-07-06T11:19:18Z</time>
      </trkpt>
      <trkpt lat="43.75981" lon="6.69279">
        <ele>1330.12</ele>
        <time>2011-07-06T11:19:19Z</time>
      </trkpt>
      <trkpt lat="43.75978" lon="6.69276">
        <ele>1330.12</ele>
        <time>2011-07-06T11:19:20Z</time>
      </trkpt>
      <trkpt lat="43.75975" lon="6.69272">
        <ele>1329.16</ele>
        <time>2011-07-06T11:19:21Z</time>
      </trkpt>
      <trkpt lat="43.75972" lon="6.69269">
        <ele>1328.68</ele>
        <time>2011-07-06T11:19:22Z</time>
      </trkpt>
      <trkpt lat="43.75961" lon="6.69258">
        <ele>1328.68</ele>
        <time>2011-07-06T11:19:25Z</time>
      </trkpt>
      <trkpt lat="43.75957" lon="6.69254">
        <ele>1328.2</ele>
        <time>2011-07-06T11:19:26Z</time>
      </trkpt>
      <trkpt lat="43.75931" lon="6.69232">
        <ele>1327.24</ele>
        <time>2011-07-06T11:19:32Z</time>
      </trkpt>
      <trkpt lat="43.75917" lon="6.69221">
        <ele>1326.28</ele>
        <time>2011-07-06T11:19:35Z</time>
      </trkpt>
      <trkpt lat="43.75914" lon="6.69216">
        <ele>1325.31</ele>
        <time>2011-07-06T11:19:36Z</time>
      </trkpt>
      <trkpt lat="43.7591" lon="6.6921">
        <ele>1325.31</ele>
        <time>2011-07-06T11:19:37Z</time>
      </trkpt>
      <trkpt lat="43.75905" lon="6.69204">
        <ele>1324.83</ele>
        <time>2011-07-06T11:19:38Z</time>
      </trkpt>
      <trkpt lat="43.759" lon="6.69198">
        <ele>1324.35</ele>
        <time>2011-07-06T11:19:39Z</time>
      </trkpt>
      <trkpt lat="43.75888" lon="6.69188">
        <ele>1323.39</ele>
        <time>2011-07-06T11:19:41Z</time>
      </trkpt>
      <trkpt lat="43.75861" lon="6.69164">
        <ele>1319.55</ele>
        <time>2011-07-06T11:19:45Z</time>
      </trkpt>
      <trkpt lat="43.75848" lon="6.69151">
        <ele>1318.1</ele>
        <time>2011-07-06T11:19:47Z</time>
      </trkpt>
      <trkpt lat="43.75843" lon="6.69146">
        <ele>1317.62</ele>
        <time>2011-07-06T11:19:48Z</time>
      </trkpt>
      <trkpt lat="43.75836" lon="6.69142">
        <ele>1317.62</ele>
        <time>2011-07-06T11:19:49Z</time>
      </trkpt>
      <trkpt lat="43.75829" lon="6.69139">
        <ele>1316.66</ele>
        <time>2011-07-06T11:19:50Z</time>
      </trkpt>
      <trkpt lat="43.75822" lon="6.69136">
        <ele>1316.18</ele>
        <time>2011-07-06T11:19:51Z</time>
      </trkpt>
      <trkpt lat="43.75814" lon="6.69135">
        <ele>1315.7</ele>
        <time>2011-07-06T11:19:52Z</time>
      </trkpt>
      <trkpt lat="43.75806" lon="6.69134">
        <ele>1314.74</ele>
        <time>2011-07-06T11:19:53Z</time>
      </trkpt>
      <trkpt lat="43.75798" lon="6.69135">
        <ele>1313.78</ele>
        <time>2011-07-06T11:19:54Z</time>
      </trkpt>
      <trkpt lat="43.75791" lon="6.69138">
        <ele>1312.82</ele>
        <time>2011-07-06T11:19:55Z</time>
      </trkpt>
      <trkpt lat="43.75782" lon="6.69142">
        <ele>1311.38</ele>
        <time>2011-07-06T11:19:56Z</time>
      </trkpt>
      <trkpt lat="43.75774" lon="6.69147">
        <ele>1310.9</ele>
        <time>2011-07-06T11:19:57Z</time>
      </trkpt>
      <trkpt lat="43.75751" lon="6.69163">
        <ele>1307.05</ele>
        <time>2011-07-06T11:20:00Z</time>
      </trkpt>
      <trkpt lat="43.75744" lon="6.69166">
        <ele>1307.05</ele>
        <time>2011-07-06T11:20:01Z</time>
      </trkpt>
      <trkpt lat="43.75737" lon="6.69168">
        <ele>1306.09</ele>
        <time>2011-07-06T11:20:02Z</time>
      </trkpt>
      <trkpt lat="43.75729" lon="6.69168">
        <ele>1305.13</ele>
        <time>2011-07-06T11:20:03Z</time>
      </trkpt>
      <trkpt lat="43.75722" lon="6.69168">
        <ele>1305.13</ele>
        <time>2011-07-06T11:20:04Z</time>
      </trkpt>
      <trkpt lat="43.75707" lon="6.69168">
        <ele>1304.17</ele>
        <time>2011-07-06T11:20:06Z</time>
      </trkpt>
      <trkpt lat="43.75673" lon="6.69166">
        <ele>1300.32</ele>
        <time>2011-07-06T11:20:10Z</time>
      </trkpt>
      <trkpt lat="43.75636" lon="6.69153">
        <ele>1297.44</ele>
        <time>2011-07-06T11:20:14Z</time>
      </trkpt>
      <trkpt lat="43.75628" lon="6.69151">
        <ele>1295.99</ele>
        <time>2011-07-06T11:20:15Z</time>
      </trkpt>
      <trkpt lat="43.7562" lon="6.69151">
        <ele>1295.51</ele>
        <time>2011-07-06T11:20:16Z</time>
      </trkpt>
      <trkpt lat="43.75612" lon="6.69153">
        <ele>1295.03</ele>
        <time>2011-07-06T11:20:17Z</time>
      </trkpt>
      <trkpt lat="43.75603" lon="6.69157">
        <ele>1294.07</ele>
        <time>2011-07-06T11:20:18Z</time>
      </trkpt>
      <trkpt lat="43.75595" lon="6.69162">
        <ele>1293.11</ele>
        <time>2011-07-06T11:20:19Z</time>
      </trkpt>
      <trkpt lat="43.75587" lon="6.69168">
        <ele>1291.67</ele>
        <time>2011-07-06T11:20:20Z</time>
      </trkpt>
      <trkpt lat="43.75563" lon="6.69188">
        <ele>1288.3</ele>
        <time>2011-07-06T11:20:23Z</time>
      </trkpt>
      <trkpt lat="43.75558" lon="6.69194">
        <ele>1287.34</ele>
        <time>2011-07-06T11:20:24Z</time>
      </trkpt>
      <trkpt lat="43.75553" lon="6.69201">
        <ele>1286.38</ele>
        <time>2011-07-06T11:20:25Z</time>
      </trkpt>
      <trkpt lat="43.75548" lon="6.69207">
        <ele>1285.9</ele>
        <time>2011-07-06T11:20:26Z</time>
      </trkpt>
      <trkpt lat="43.75541" lon="6.69218">
        <ele>1284.46</ele>
        <time>2011-07-06T11:20:28Z</time>
      </trkpt>
      <trkpt lat="43.75537" lon="6.69221">
        <ele>1284.46</ele>
        <time>2011-07-06T11:20:29Z</time>
      </trkpt>
      <trkpt lat="43.75533" lon="6.69223">
        <ele>1284.46</ele>
        <time>2011-07-06T11:20:30Z</time>
      </trkpt>
      <trkpt lat="43.75531" lon="6.69225">
        <ele>1284.94</ele>
        <time>2011-07-06T11:20:31Z</time>
      </trkpt>
      <trkpt lat="43.7553" lon="6.69227">
        <ele>1284.94</ele>
        <time>2011-07-06T11:20:32Z</time>
      </trkpt>
      <trkpt lat="43.7553" lon="6.69228">
        <ele>1285.42</ele>
        <time>2011-07-06T11:20:45Z</time>
      </trkpt>
      <trkpt lat="43.7553" lon="6.69228">
        <ele>1284.94</ele>
        <time>2011-07-06T11:21:24Z</time>
      </trkpt>
      <trkpt lat="43.7553" lon="6.69228">
        <ele>1285.42</ele>
        <time>2011-07-06T11:22:03Z</time>
      </trkpt>
      <trkpt lat="43.75518" lon="6.69243">
        <ele>1282.54</ele>
        <time>2011-07-06T11:22:13Z</time>
      </trkpt>
      <trkpt lat="43.7551" lon="6.69257">
        <ele>1280.61</ele>
        <time>2011-07-06T11:22:21Z</time>
      </trkpt>
      <trkpt lat="43.75504" lon="6.69259">
        <ele>1279.17</ele>
        <time>2011-07-06T11:22:25Z</time>
      </trkpt>
      <trkpt lat="43.75504" lon="6.69255">
        <ele>1278.21</ele>
        <time>2011-07-06T11:22:27Z</time>
      </trkpt>
      <trkpt lat="43.75503" lon="6.69251">
        <ele>1277.25</ele>
        <time>2011-07-06T11:22:29Z</time>
      </trkpt>
      <trkpt lat="43.75502" lon="6.69239">
        <ele>1275.33</ele>
        <time>2011-07-06T11:22:33Z</time>
      </trkpt>
      <trkpt lat="43.755" lon="6.69229">
        <ele>1274.85</ele>
        <time>2011-07-06T11:22:37Z</time>
      </trkpt>
      <trkpt lat="43.75493" lon="6.69202">
        <ele>1270.52</ele>
        <time>2011-07-06T11:22:44Z</time>
      </trkpt>
      <trkpt lat="43.75492" lon="6.69199">
        <ele>1270.52</ele>
        <time>2011-07-06T11:22:45Z</time>
      </trkpt>
      <trkpt lat="43.75485" lon="6.69186">
        <ele>1267.64</ele>
        <time>2011-07-06T11:22:56Z</time>
      </trkpt>
      <trkpt lat="43.75484" lon="6.69186">
        <ele>1267.64</ele>
        <time>2011-07-06T11:23:09Z</time>
      </trkpt>
      <trkpt lat="43.75483" lon="6.69185">
        <ele>1267.16</ele>
        <time>2011-07-06T11:23:28Z</time>
      </trkpt>
      <trkpt lat="43.75482" lon="6.69185">
        <ele>1267.16</ele>
        <time>2011-07-06T11:24:02Z</time>
      </trkpt>
      <trkpt lat="43.75473" lon="6.69216">
        <ele>1263.79</ele>
        <time>2011-07-06T11:24:13Z</time>
      </trkpt>
      <trkpt lat="43.75471" lon="6.69221">
        <ele>1263.79</ele>
        <time>2011-07-06T11:24:14Z</time>
      </trkpt>
      <trkpt lat="43.75462" lon="6.6924">
        <ele>1261.87</ele>
        <time>2011-07-06T11:24:18Z</time>
      </trkpt>
      <trkpt lat="43.75458" lon="6.69248">
        <ele>1260.91</ele>
        <time>2011-07-06T11:24:20Z</time>
      </trkpt>
      <trkpt lat="43.75446" lon="6.69269">
        <ele>1258.5</ele>
        <time>2011-07-06T11:24:30Z</time>
      </trkpt>
      <trkpt lat="43.75445" lon="6.69269">
        <ele>1257.54</ele>
        <time>2011-07-06T11:24:31Z</time>
      </trkpt>
      <trkpt lat="43.75446" lon="6.69265">
        <ele>1256.58</ele>
        <time>2011-07-06T11:24:34Z</time>
      </trkpt>
      <trkpt lat="43.75445" lon="6.69237">
        <ele>1254.18</ele>
        <time>2011-07-06T11:24:39Z</time>
      </trkpt>
      <trkpt lat="43.75443" lon="6.69211">
        <ele>1252.25</ele>
        <time>2011-07-06T11:24:44Z</time>
      </trkpt>
      <trkpt lat="43.75443" lon="6.69194">
        <ele>1250.33</ele>
        <time>2011-07-06T11:24:47Z</time>
      </trkpt>
      <trkpt lat="43.7544" lon="6.69169">
        <ele>1248.89</ele>
        <time>2011-07-06T11:24:51Z</time>
      </trkpt>
      <trkpt lat="43.75437" lon="6.69148">
        <ele>1247.93</ele>
        <time>2011-07-06T11:24:54Z</time>
      </trkpt>
      <trkpt lat="43.75433" lon="6.69118">
        <ele>1246.01</ele>
        <time>2011-07-06T11:24:59Z</time>
      </trkpt>
      <trkpt lat="43.75428" lon="6.6908">
        <ele>1241.68</ele>
        <time>2011-07-06T11:25:08Z</time>
      </trkpt>
      <trkpt lat="43.75422" lon="6.69055">
        <ele>1238.8</ele>
        <time>2011-07-06T11:25:13Z</time>
      </trkpt>
      <trkpt lat="43.75422" lon="6.69054">
        <ele>1239.28</ele>
        <time>2011-07-06T11:25:26Z</time>
      </trkpt>
      <trkpt lat="43.75422" lon="6.69054">
        <ele>1239.28</ele>
        <time>2011-07-06T11:25:29Z</time>
      </trkpt>
      <trkpt lat="43.75422" lon="6.69053">
        <ele>1239.28</ele>
        <time>2011-07-06T11:25:30Z</time>
      </trkpt>
      <trkpt lat="43.75421" lon="6.69051">
        <ele>1238.8</ele>
        <time>2011-07-06T11:25:31Z</time>
      </trkpt>
      <trkpt lat="43.75422" lon="6.69036">
        <ele>1237.83</ele>
        <time>2011-07-06T11:25:36Z</time>
      </trkpt>
      <trkpt lat="43.75421" lon="6.69028">
        <ele>1236.87</ele>
        <time>2011-07-06T11:25:42Z</time>
      </trkpt>
      <trkpt lat="43.75421" lon="6.69026">
        <ele>1236.39</ele>
        <time>2011-07-06T11:25:43Z</time>
      </trkpt>
      <trkpt lat="43.75421" lon="6.69022">
        <ele>1236.39</ele>
        <time>2011-07-06T11:25:44Z</time>
      </trkpt>
      <trkpt lat="43.75422" lon="6.68983">
        <ele>1235.91</ele>
        <time>2011-07-06T11:25:53Z</time>
      </trkpt>
      <trkpt lat="43.75421" lon="6.68949">
        <ele>1234.95</ele>
        <time>2011-07-06T11:26:02Z</time>
      </trkpt>
      <trkpt lat="43.75419" lon="6.68936">
        <ele>1233.03</ele>
        <time>2011-07-06T11:26:06Z</time>
      </trkpt>
      <trkpt lat="43.75419" lon="6.68926">
        <ele>1232.55</ele>
        <time>2011-07-06T11:26:08Z</time>
      </trkpt>
      <trkpt lat="43.75418" lon="6.68916">
        <ele>1231.11</ele>
        <time>2011-07-06T11:26:10Z</time>
      </trkpt>
      <trkpt lat="43.75419" lon="6.68907">
        <ele>1229.18</ele>
        <time>2011-07-06T11:26:13Z</time>
      </trkpt>
      <trkpt lat="43.75419" lon="6.68904">
        <ele>1229.18</ele>
        <time>2011-07-06T11:26:14Z</time>
      </trkpt>
      <trkpt lat="43.7542" lon="6.68899">
        <ele>1228.7</ele>
        <time>2011-07-06T11:26:22Z</time>
      </trkpt>
      <trkpt lat="43.75417" lon="6.68901">
        <ele>1226.78</ele>
        <time>2011-07-06T11:26:34Z</time>
      </trkpt>
      <trkpt lat="43.75416" lon="6.68903">
        <ele>1225.82</ele>
        <time>2011-07-06T11:26:35Z</time>
      </trkpt>
      <trkpt lat="43.75415" lon="6.68904">
        <ele>1225.82</ele>
        <time>2011-07-06T11:26:36Z</time>
      </trkpt>
      <trkpt lat="43.75404" lon="6.68897">
        <ele>1223.42</ele>
        <time>2011-07-06T11:26:45Z</time>
      </trkpt>
      <trkpt lat="43.754" lon="6.68894">
        <ele>1221.97</ele>
        <time>2011-07-06T11:26:47Z</time>
      </trkpt>
      <trkpt lat="43.75393" lon="6.6889">
        <ele>1221.01</ele>
        <time>2011-07-06T11:26:49Z</time>
      </trkpt>
      <trkpt lat="43.75385" lon="6.68892">
        <ele>1219.09</ele>
        <time>2011-07-06T11:26:52Z</time>
      </trkpt>
      <trkpt lat="43.75377" lon="6.68885">
        <ele>1218.13</ele>
        <time>2011-07-06T11:26:56Z</time>
      </trkpt>
      <trkpt lat="43.75377" lon="6.68882">
        <ele>1218.13</ele>
        <time>2011-07-06T11:27:00Z</time>
      </trkpt>
      <trkpt lat="43.75377" lon="6.68879">
        <ele>1218.61</ele>
        <time>2011-07-06T11:27:02Z</time>
      </trkpt>
      <trkpt lat="43.75369" lon="6.6885">
        <ele>1218.13</ele>
        <time>2011-07-06T11:27:14Z</time>
      </trkpt>
      <trkpt lat="43.75374" lon="6.6888">
        <ele>1217.17</ele>
        <time>2011-07-06T11:27:24Z</time>
      </trkpt>
      <trkpt lat="43.75374" lon="6.6888">
        <ele>1218.13</ele>
        <time>2011-07-06T11:27:45Z</time>
      </trkpt>
      <trkpt lat="43.75374" lon="6.68876">
        <ele>1217.17</ele>
        <time>2011-07-06T11:28:12Z</time>
      </trkpt>
      <trkpt lat="43.75374" lon="6.68874">
        <ele>1217.17</ele>
        <time>2011-07-06T11:28:13Z</time>
      </trkpt>
      <trkpt lat="43.75372" lon="6.68868">
        <ele>1217.17</ele>
        <time>2011-07-06T11:28:28Z</time>
      </trkpt>
      <trkpt lat="43.75372" lon="6.68868">
        <ele>1217.17</ele>
        <time>2011-07-06T11:28:57Z</time>
      </trkpt>
      <trkpt lat="43.75372" lon="6.68868">
        <ele>1217.65</ele>
        <time>2011-07-06T11:29:39Z</time>
      </trkpt>
      <trkpt lat="43.75372" lon="6.68868">
        <ele>1217.65</ele>
        <time>2011-07-06T11:30:11Z</time>
      </trkpt>
      <trkpt lat="43.75372" lon="6.68867">
        <ele>1217.65</ele>
        <time>2011-07-06T11:30:44Z</time>
      </trkpt>
      <trkpt lat="43.75372" lon="6.68867">
        <ele>1216.69</ele>
        <time>2011-07-06T11:31:18Z</time>
      </trkpt>
      <trkpt lat="43.75372" lon="6.68867">
        <ele>1217.17</ele>
        <time>2011-07-06T11:31:54Z</time>
      </trkpt>
      <trkpt lat="43.7537" lon="6.68861">
        <ele>1217.65</ele>
        <time>2011-07-06T11:32:21Z</time>
      </trkpt>
      <trkpt lat="43.7536" lon="6.68833">
        <ele>1219.09</ele>
        <time>2011-07-06T11:32:32Z</time>
      </trkpt>
      <trkpt lat="43.75343" lon="6.68787">
        <ele>1220.05</ele>
        <time>2011-07-06T11:32:46Z</time>
      </trkpt>
      <trkpt lat="43.75324" lon="6.68771">
        <ele>1219.09</ele>
        <time>2011-07-06T11:32:57Z</time>
      </trkpt>
      <trkpt lat="43.75322" lon="6.68771">
        <ele>1218.61</ele>
        <time>2011-07-06T11:33:09Z</time>
      </trkpt>
      <trkpt lat="43.75322" lon="6.68771">
        <ele>1218.61</ele>
        <time>2011-07-06T11:33:46Z</time>
      </trkpt>
      <trkpt lat="43.75322" lon="6.6877">
        <ele>1218.61</ele>
        <time>2011-07-06T11:34:27Z</time>
      </trkpt>
      <trkpt lat="43.75322" lon="6.6877">
        <ele>1218.61</ele>
        <time>2011-07-06T11:35:02Z</time>
      </trkpt>
      <trkpt lat="43.75319" lon="6.68771">
        <ele>1219.09</ele>
        <time>2011-07-06T11:35:15Z</time>
      </trkpt>
      <trkpt lat="43.75319" lon="6.68771">
        <ele>1219.57</ele>
        <time>2011-07-06T11:35:49Z</time>
      </trkpt>
      <trkpt lat="43.75318" lon="6.68769">
        <ele>1219.09</ele>
        <time>2011-07-06T11:36:12Z</time>
      </trkpt>
      <trkpt lat="43.75317" lon="6.68768">
        <ele>1219.09</ele>
        <time>2011-07-06T11:36:17Z</time>
      </trkpt>
      <trkpt lat="43.75316" lon="6.68767">
        <ele>1219.09</ele>
        <time>2011-07-06T11:36:18Z</time>
      </trkpt>
      <trkpt lat="43.7529" lon="6.68725">
        <ele>1216.21</ele>
        <time>2011-07-06T11:36:31Z</time>
      </trkpt>
      <trkpt lat="43.75275" lon="6.68701">
        <ele>1215.24</ele>
        <time>2011-07-06T11:36:36Z</time>
      </trkpt>
      <trkpt lat="43.7527" lon="6.68698">
        <ele>1215.24</ele>
        <time>2011-07-06T11:36:37Z</time>
      </trkpt>
      <trkpt lat="43.7526" lon="6.68695">
        <ele>1214.28</ele>
        <time>2011-07-06T11:36:39Z</time>
      </trkpt>
      <trkpt lat="43.75254" lon="6.68692">
        <ele>1214.28</ele>
        <time>2011-07-06T11:36:40Z</time>
      </trkpt>
      <trkpt lat="43.7525" lon="6.68691">
        <ele>1213.8</ele>
        <time>2011-07-06T11:36:41Z</time>
      </trkpt>
      <trkpt lat="43.75245" lon="6.6869">
        <ele>1213.32</ele>
        <time>2011-07-06T11:36:42Z</time>
      </trkpt>
      <trkpt lat="43.7524" lon="6.68687">
        <ele>1212.36</ele>
        <time>2011-07-06T11:36:43Z</time>
      </trkpt>
      <trkpt lat="43.75235" lon="6.68684">
        <ele>1212.36</ele>
        <time>2011-07-06T11:36:44Z</time>
      </trkpt>
      <trkpt lat="43.7523" lon="6.6868">
        <ele>1211.4</ele>
        <time>2011-07-06T11:36:45Z</time>
      </trkpt>
      <trkpt lat="43.75225" lon="6.68675">
        <ele>1210.92</ele>
        <time>2011-07-06T11:36:46Z</time>
      </trkpt>
      <trkpt lat="43.75195" lon="6.6865">
        <ele>1208.03</ele>
        <time>2011-07-06T11:36:53Z</time>
      </trkpt>
      <trkpt lat="43.75181" lon="6.68636">
        <ele>1205.15</ele>
        <time>2011-07-06T11:37:00Z</time>
      </trkpt>
      <trkpt lat="43.7517" lon="6.68631">
        <ele>1202.75</ele>
        <time>2011-07-06T11:37:04Z</time>
      </trkpt>
      <trkpt lat="43.75167" lon="6.68633">
        <ele>1202.27</ele>
        <time>2011-07-06T11:37:05Z</time>
      </trkpt>
      <trkpt lat="43.75164" lon="6.68635">
        <ele>1201.79</ele>
        <time>2011-07-06T11:37:06Z</time>
      </trkpt>
      <trkpt lat="43.75161" lon="6.68639">
        <ele>1200.82</ele>
        <time>2011-07-06T11:37:07Z</time>
      </trkpt>
      <trkpt lat="43.7516" lon="6.68642">
        <ele>1200.82</ele>
        <time>2011-07-06T11:37:08Z</time>
      </trkpt>
      <trkpt lat="43.75155" lon="6.68653">
        <ele>1198.9</ele>
        <time>2011-07-06T11:37:11Z</time>
      </trkpt>
      <trkpt lat="43.75151" lon="6.6868">
        <ele>1196.02</ele>
        <time>2011-07-06T11:37:18Z</time>
      </trkpt>
      <trkpt lat="43.75152" lon="6.68692">
        <ele>1194.09</ele>
        <time>2011-07-06T11:37:21Z</time>
      </trkpt>
      <trkpt lat="43.75151" lon="6.68693">
        <ele>1193.61</ele>
        <time>2011-07-06T11:37:22Z</time>
      </trkpt>
      <trkpt lat="43.7515" lon="6.68693">
        <ele>1193.13</ele>
        <time>2011-07-06T11:37:23Z</time>
      </trkpt>
      <trkpt lat="43.75149" lon="6.68691">
        <ele>1193.13</ele>
        <time>2011-07-06T11:37:24Z</time>
      </trkpt>
      <trkpt lat="43.75148" lon="6.6869">
        <ele>1192.17</ele>
        <time>2011-07-06T11:37:25Z</time>
      </trkpt>
      <trkpt lat="43.75147" lon="6.68688">
        <ele>1191.69</ele>
        <time>2011-07-06T11:37:26Z</time>
      </trkpt>
      <trkpt lat="43.75134" lon="6.68669">
        <ele>1189.77</ele>
        <time>2011-07-06T11:37:36Z</time>
      </trkpt>
      <trkpt lat="43.75126" lon="6.68682">
        <ele>1189.77</ele>
        <time>2011-07-06T11:37:45Z</time>
      </trkpt>
      <trkpt lat="43.7512" lon="6.68702">
        <ele>1188.33</ele>
        <time>2011-07-06T11:37:55Z</time>
      </trkpt>
      <trkpt lat="43.75102" lon="6.68731">
        <ele>1188.81</ele>
        <time>2011-07-06T11:38:08Z</time>
      </trkpt>
      <trkpt lat="43.75083" lon="6.68748">
        <ele>1187.85</ele>
        <time>2011-07-06T11:38:20Z</time>
      </trkpt>
      <trkpt lat="43.75074" lon="6.68752">
        <ele>1187.85</ele>
        <time>2011-07-06T11:38:36Z</time>
      </trkpt>
      <trkpt lat="43.75071" lon="6.68754">
        <ele>1187.37</ele>
        <time>2011-07-06T11:38:42Z</time>
      </trkpt>
      <trkpt lat="43.75064" lon="6.68764">
        <ele>1188.33</ele>
        <time>2011-07-06T11:38:49Z</time>
      </trkpt>
      <trkpt lat="43.75051" lon="6.68767">
        <ele>1188.81</ele>
        <time>2011-07-06T11:38:54Z</time>
      </trkpt>
      <trkpt lat="43.75024" lon="6.68804">
        <ele>1186.88</ele>
        <time>2011-07-06T11:39:08Z</time>
      </trkpt>
      <trkpt lat="43.75023" lon="6.68815">
        <ele>1186.4</ele>
        <time>2011-07-06T11:39:10Z</time>
      </trkpt>
      <trkpt lat="43.75021" lon="6.68827">
        <ele>1184.96</ele>
        <time>2011-07-06T11:39:13Z</time>
      </trkpt>
      <trkpt lat="43.75015" lon="6.6885">
        <ele>1182.08</ele>
        <time>2011-07-06T11:39:18Z</time>
      </trkpt>
      <trkpt lat="43.75011" lon="6.68868">
        <ele>1180.16</ele>
        <time>2011-07-06T11:39:22Z</time>
      </trkpt>
      <trkpt lat="43.75007" lon="6.68881">
        <ele>1177.75</ele>
        <time>2011-07-06T11:39:25Z</time>
      </trkpt>
      <trkpt lat="43.75003" lon="6.68896">
        <ele>1174.39</ele>
        <time>2011-07-06T11:39:28Z</time>
      </trkpt>
      <trkpt lat="43.75002" lon="6.68926">
        <ele>1171.02</ele>
        <time>2011-07-06T11:39:33Z</time>
      </trkpt>
      <trkpt lat="43.75001" lon="6.68948">
        <ele>1167.66</ele>
        <time>2011-07-06T11:39:37Z</time>
      </trkpt>
      <trkpt lat="43.74999" lon="6.68956">
        <ele>1166.7</ele>
        <time>2011-07-06T11:39:39Z</time>
      </trkpt>
      <trkpt lat="43.74995" lon="6.68975">
        <ele>1163.81</ele>
        <time>2011-07-06T11:39:52Z</time>
      </trkpt>
      <trkpt lat="43.74996" lon="6.68981">
        <ele>1162.85</ele>
        <time>2011-07-06T11:39:58Z</time>
      </trkpt>
      <trkpt lat="43.74999" lon="6.68998">
        <ele>1159.97</ele>
        <time>2011-07-06T11:40:03Z</time>
      </trkpt>
      <trkpt lat="43.75" lon="6.69025">
        <ele>1156.12</ele>
        <time>2011-07-06T11:40:08Z</time>
      </trkpt>
      <trkpt lat="43.75001" lon="6.69039">
        <ele>1154.68</ele>
        <time>2011-07-06T11:40:10Z</time>
      </trkpt>
      <trkpt lat="43.74999" lon="6.6906">
        <ele>1151.32</ele>
        <time>2011-07-06T11:40:14Z</time>
      </trkpt>
      <trkpt lat="43.74999" lon="6.69061">
        <ele>1151.32</ele>
        <time>2011-07-06T11:40:15Z</time>
      </trkpt>
      <trkpt lat="43.74998" lon="6.69099">
        <ele>1147.95</ele>
        <time>2011-07-06T11:40:19Z</time>
      </trkpt>
      <trkpt lat="43.74999" lon="6.69148">
        <ele>1144.59</ele>
        <time>2011-07-06T11:40:24Z</time>
      </trkpt>
      <trkpt lat="43.75001" lon="6.69177">
        <ele>1141.22</ele>
        <time>2011-07-06T11:40:28Z</time>
      </trkpt>
      <trkpt lat="43.75001" lon="6.69191">
        <ele>1139.78</ele>
        <time>2011-07-06T11:40:30Z</time>
      </trkpt>
      <trkpt lat="43.74997" lon="6.69218">
        <ele>1137.86</ele>
        <time>2011-07-06T11:40:33Z</time>
      </trkpt>
      <trkpt lat="43.74995" lon="6.69226">
        <ele>1136.9</ele>
        <time>2011-07-06T11:40:34Z</time>
      </trkpt>
      <trkpt lat="43.74992" lon="6.69234">
        <ele>1137.38</ele>
        <time>2011-07-06T11:40:35Z</time>
      </trkpt>
      <trkpt lat="43.74984" lon="6.6926">
        <ele>1134.97</ele>
        <time>2011-07-06T11:40:39Z</time>
      </trkpt>
      <trkpt lat="43.74977" lon="6.69276">
        <ele>1132.57</ele>
        <time>2011-07-06T11:40:42Z</time>
      </trkpt>
      <trkpt lat="43.74976" lon="6.69282">
        <ele>1132.09</ele>
        <time>2011-07-06T11:40:43Z</time>
      </trkpt>
      <trkpt lat="43.74974" lon="6.69288">
        <ele>1131.61</ele>
        <time>2011-07-06T11:40:44Z</time>
      </trkpt>
      <trkpt lat="43.74954" lon="6.69354">
        <ele>1129.21</ele>
        <time>2011-07-06T11:40:53Z</time>
      </trkpt>
      <trkpt lat="43.74949" lon="6.69366">
        <ele>1128.24</ele>
        <time>2011-07-06T11:40:55Z</time>
      </trkpt>
      <trkpt lat="43.74938" lon="6.69395">
        <ele>1126.8</ele>
        <time>2011-07-06T11:40:59Z</time>
      </trkpt>
      <trkpt lat="43.74931" lon="6.69409">
        <ele>1126.32</ele>
        <time>2011-07-06T11:41:01Z</time>
      </trkpt>
      <trkpt lat="43.7491" lon="6.6944">
        <ele>1125.36</ele>
        <time>2011-07-06T11:41:06Z</time>
      </trkpt>
      <trkpt lat="43.74905" lon="6.69447">
        <ele>1125.36</ele>
        <time>2011-07-06T11:41:07Z</time>
      </trkpt>
      <trkpt lat="43.74902" lon="6.69455">
        <ele>1125.36</ele>
        <time>2011-07-06T11:41:08Z</time>
      </trkpt>
      <trkpt lat="43.74882" lon="6.69497">
        <ele>1124.88</ele>
        <time>2011-07-06T11:41:14Z</time>
      </trkpt>
      <trkpt lat="43.74878" lon="6.6951">
        <ele>1122.48</ele>
        <time>2011-07-06T11:41:16Z</time>
      </trkpt>
      <trkpt lat="43.74875" lon="6.69523">
        <ele>1121.52</ele>
        <time>2011-07-06T11:41:18Z</time>
      </trkpt>
      <trkpt lat="43.74871" lon="6.69533">
        <ele>1120.07</ele>
        <time>2011-07-06T11:41:20Z</time>
      </trkpt>
      <trkpt lat="43.74864" lon="6.69556">
        <ele>1117.19</ele>
        <time>2011-07-06T11:41:25Z</time>
      </trkpt>
      <trkpt lat="43.74862" lon="6.69561">
        <ele>1116.71</ele>
        <time>2011-07-06T11:41:26Z</time>
      </trkpt>
      <trkpt lat="43.74858" lon="6.69573">
        <ele>1115.75</ele>
        <time>2011-07-06T11:41:28Z</time>
      </trkpt>
      <trkpt lat="43.74855" lon="6.69584">
        <ele>1114.31</ele>
        <time>2011-07-06T11:41:30Z</time>
      </trkpt>
      <trkpt lat="43.74846" lon="6.69606">
        <ele>1113.82</ele>
        <time>2011-07-06T11:41:34Z</time>
      </trkpt>
      <trkpt lat="43.7484" lon="6.69624">
        <ele>1113.82</ele>
        <time>2011-07-06T11:41:37Z</time>
      </trkpt>
      <trkpt lat="43.74838" lon="6.69629">
        <ele>1113.34</ele>
        <time>2011-07-06T11:41:38Z</time>
      </trkpt>
      <trkpt lat="43.74819" lon="6.69659">
        <ele>1109.5</ele>
        <time>2011-07-06T11:41:45Z</time>
      </trkpt>
      <trkpt lat="43.74816" lon="6.69663">
        <ele>1109.5</ele>
        <time>2011-07-06T11:41:46Z</time>
      </trkpt>
      <trkpt lat="43.74814" lon="6.69665">
        <ele>1108.54</ele>
        <time>2011-07-06T11:41:47Z</time>
      </trkpt>
      <trkpt lat="43.74798" lon="6.69696">
        <ele>1105.17</ele>
        <time>2011-07-06T11:41:53Z</time>
      </trkpt>
      <trkpt lat="43.74788" lon="6.69719">
        <ele>1102.77</ele>
        <time>2011-07-06T11:41:57Z</time>
      </trkpt>
      <trkpt lat="43.74785" lon="6.69724">
        <ele>1102.29</ele>
        <time>2011-07-06T11:41:58Z</time>
      </trkpt>
      <trkpt lat="43.74777" lon="6.69737">
        <ele>1099.89</ele>
        <time>2011-07-06T11:42:01Z</time>
      </trkpt>
      <trkpt lat="43.74769" lon="6.69757">
        <ele>1096.52</ele>
        <time>2011-07-06T11:42:06Z</time>
      </trkpt>
      <trkpt lat="43.74761" lon="6.69782">
        <ele>1094.6</ele>
        <time>2011-07-06T11:42:13Z</time>
      </trkpt>
      <trkpt lat="43.74759" lon="6.69787">
        <ele>1093.64</ele>
        <time>2011-07-06T11:42:15Z</time>
      </trkpt>
      <trkpt lat="43.74759" lon="6.6979">
        <ele>1093.16</ele>
        <time>2011-07-06T11:42:16Z</time>
      </trkpt>
      <trkpt lat="43.74757" lon="6.69796">
        <ele>1092.2</ele>
        <time>2011-07-06T11:42:18Z</time>
      </trkpt>
      <trkpt lat="43.74754" lon="6.69798">
        <ele>1092.2</ele>
        <time>2011-07-06T11:42:20Z</time>
      </trkpt>
      <trkpt lat="43.74753" lon="6.69798">
        <ele>1092.68</ele>
        <time>2011-07-06T11:42:27Z</time>
      </trkpt>
      <trkpt lat="43.74753" lon="6.69799">
        <ele>1092.2</ele>
        <time>2011-07-06T11:42:34Z</time>
      </trkpt>
      <trkpt lat="43.74753" lon="6.69805">
        <ele>1091.71</ele>
        <time>2011-07-06T11:42:40Z</time>
      </trkpt>
      <trkpt lat="43.74751" lon="6.69807">
        <ele>1091.23</ele>
        <time>2011-07-06T11:42:41Z</time>
      </trkpt>
      <trkpt lat="43.74735" lon="6.69828">
        <ele>1089.79</ele>
        <time>2011-07-06T11:42:50Z</time>
      </trkpt>
      <trkpt lat="43.74735" lon="6.69828">
        <ele>1089.31</ele>
        <time>2011-07-06T11:43:10Z</time>
      </trkpt>
      <trkpt lat="43.74736" lon="6.69828">
        <ele>1089.79</ele>
        <time>2011-07-06T11:43:39Z</time>
      </trkpt>
      <trkpt lat="43.74735" lon="6.69828">
        <ele>1090.27</ele>
        <time>2011-07-06T11:44:16Z</time>
      </trkpt>
      <trkpt lat="43.74733" lon="6.69834">
        <ele>1089.31</ele>
        <time>2011-07-06T11:44:41Z</time>
      </trkpt>
      <trkpt lat="43.74731" lon="6.69838">
        <ele>1089.79</ele>
        <time>2011-07-06T11:44:42Z</time>
      </trkpt>
      <trkpt lat="43.74729" lon="6.69841">
        <ele>1089.79</ele>
        <time>2011-07-06T11:44:43Z</time>
      </trkpt>
      <trkpt lat="43.74726" lon="6.69845">
        <ele>1088.83</ele>
        <time>2011-07-06T11:44:44Z</time>
      </trkpt>
      <trkpt lat="43.74723" lon="6.69848">
        <ele>1089.31</ele>
        <time>2011-07-06T11:44:45Z</time>
      </trkpt>
      <trkpt lat="43.74712" lon="6.69859">
        <ele>1088.83</ele>
        <time>2011-07-06T11:44:48Z</time>
      </trkpt>
      <trkpt lat="43.74709" lon="6.69863">
        <ele>1090.27</ele>
        <time>2011-07-06T11:44:49Z</time>
      </trkpt>
      <trkpt lat="43.74706" lon="6.69866">
        <ele>1088.35</ele>
        <time>2011-07-06T11:44:50Z</time>
      </trkpt>
      <trkpt lat="43.74703" lon="6.6987">
        <ele>1088.35</ele>
        <time>2011-07-06T11:44:51Z</time>
      </trkpt>
      <trkpt lat="43.74699" lon="6.69873">
        <ele>1088.35</ele>
        <time>2011-07-06T11:44:52Z</time>
      </trkpt>
      <trkpt lat="43.74696" lon="6.69876">
        <ele>1088.83</ele>
        <time>2011-07-06T11:44:53Z</time>
      </trkpt>
      <trkpt lat="43.74692" lon="6.69879">
        <ele>1088.35</ele>
        <time>2011-07-06T11:44:54Z</time>
      </trkpt>
      <trkpt lat="43.74633" lon="6.69923">
        <ele>1088.35</ele>
        <time>2011-07-06T11:45:09Z</time>
      </trkpt>
      <trkpt lat="43.74612" lon="6.69938">
        <ele>1089.31</ele>
        <time>2011-07-06T11:45:14Z</time>
      </trkpt>
      <trkpt lat="43.7454" lon="6.69972">
        <ele>1089.31</ele>
        <time>2011-07-06T11:45:30Z</time>
      </trkpt>
      <trkpt lat="43.74518" lon="6.69985">
        <ele>1090.27</ele>
        <time>2011-07-06T11:45:35Z</time>
      </trkpt>
      <trkpt lat="43.74496" lon="6.69992">
        <ele>1089.79</ele>
        <time>2011-07-06T11:45:40Z</time>
      </trkpt>
      <trkpt lat="43.74492" lon="6.69991">
        <ele>1089.79</ele>
        <time>2011-07-06T11:45:41Z</time>
      </trkpt>
      <trkpt lat="43.74487" lon="6.6999">
        <ele>1089.79</ele>
        <time>2011-07-06T11:45:42Z</time>
      </trkpt>
      <trkpt lat="43.74482" lon="6.69988">
        <ele>1089.31</ele>
        <time>2011-07-06T11:45:43Z</time>
      </trkpt>
      <trkpt lat="43.74478" lon="6.69985">
        <ele>1089.79</ele>
        <time>2011-07-06T11:45:44Z</time>
      </trkpt>
      <trkpt lat="43.74474" lon="6.69981">
        <ele>1089.79</ele>
        <time>2011-07-06T11:45:45Z</time>
      </trkpt>
      <trkpt lat="43.74469" lon="6.69977">
        <ele>1088.83</ele>
        <time>2011-07-06T11:45:46Z</time>
      </trkpt>
      <trkpt lat="43.74466" lon="6.69972">
        <ele>1088.83</ele>
        <time>2011-07-06T11:45:47Z</time>
      </trkpt>
      <trkpt lat="43.74462" lon="6.69967">
        <ele>1089.31</ele>
        <time>2011-07-06T11:45:48Z</time>
      </trkpt>
      <trkpt lat="43.74457" lon="6.69962">
        <ele>1088.35</ele>
        <time>2011-07-06T11:45:49Z</time>
      </trkpt>
      <trkpt lat="43.74452" lon="6.69958">
        <ele>1088.83</ele>
        <time>2011-07-06T11:45:50Z</time>
      </trkpt>
      <trkpt lat="43.74447" lon="6.69954">
        <ele>1088.83</ele>
        <time>2011-07-06T11:45:51Z</time>
      </trkpt>
      <trkpt lat="43.74404" lon="6.69923">
        <ele>1087.39</ele>
        <time>2011-07-06T11:45:59Z</time>
      </trkpt>
      <trkpt lat="43.74399" lon="6.69919">
        <ele>1087.39</ele>
        <time>2011-07-06T11:46:00Z</time>
      </trkpt>
      <trkpt lat="43.74395" lon="6.69913">
        <ele>1086.91</ele>
        <time>2011-07-06T11:46:01Z</time>
      </trkpt>
      <trkpt lat="43.74392" lon="6.69907">
        <ele>1087.39</ele>
        <time>2011-07-06T11:46:02Z</time>
      </trkpt>
      <trkpt lat="43.74389" lon="6.699">
        <ele>1087.87</ele>
        <time>2011-07-06T11:46:03Z</time>
      </trkpt>
      <trkpt lat="43.74386" lon="6.69894">
        <ele>1087.39</ele>
        <time>2011-07-06T11:46:04Z</time>
      </trkpt>
      <trkpt lat="43.74383" lon="6.69887">
        <ele>1087.39</ele>
        <time>2011-07-06T11:46:05Z</time>
      </trkpt>
      <trkpt lat="43.74379" lon="6.69881">
        <ele>1086.91</ele>
        <time>2011-07-06T11:46:06Z</time>
      </trkpt>
      <trkpt lat="43.74366" lon="6.69862">
        <ele>1086.91</ele>
        <time>2011-07-06T11:46:10Z</time>
      </trkpt>
      <trkpt lat="43.74361" lon="6.69859">
        <ele>1087.39</ele>
        <time>2011-07-06T11:46:11Z</time>
      </trkpt>
      <trkpt lat="43.74348" lon="6.6985">
        <ele>1087.39</ele>
        <time>2011-07-06T11:46:14Z</time>
      </trkpt>
      <trkpt lat="43.74344" lon="6.69846">
        <ele>1087.39</ele>
        <time>2011-07-06T11:46:15Z</time>
      </trkpt>
      <trkpt lat="43.7434" lon="6.69841">
        <ele>1087.39</ele>
        <time>2011-07-06T11:46:16Z</time>
      </trkpt>
      <trkpt lat="43.74338" lon="6.69835">
        <ele>1087.87</ele>
        <time>2011-07-06T11:46:17Z</time>
      </trkpt>
      <trkpt lat="43.74337" lon="6.6983">
        <ele>1087.87</ele>
        <time>2011-07-06T11:46:18Z</time>
      </trkpt>
      <trkpt lat="43.74336" lon="6.69824">
        <ele>1087.87</ele>
        <time>2011-07-06T11:46:19Z</time>
      </trkpt>
      <trkpt lat="43.74334" lon="6.69819">
        <ele>1088.35</ele>
        <time>2011-07-06T11:46:20Z</time>
      </trkpt>
      <trkpt lat="43.74334" lon="6.69813">
        <ele>1088.83</ele>
        <time>2011-07-06T11:46:21Z</time>
      </trkpt>
      <trkpt lat="43.74327" lon="6.69771">
        <ele>1089.79</ele>
        <time>2011-07-06T11:46:29Z</time>
      </trkpt>
      <trkpt lat="43.74318" lon="6.69683">
        <ele>1090.27</ele>
        <time>2011-07-06T11:46:45Z</time>
      </trkpt>
      <trkpt lat="43.74317" lon="6.69665">
        <ele>1091.71</ele>
        <time>2011-07-06T11:46:48Z</time>
      </trkpt>
      <trkpt lat="43.74316" lon="6.69659">
        <ele>1091.71</ele>
        <time>2011-07-06T11:46:49Z</time>
      </trkpt>
      <trkpt lat="43.7431" lon="6.69571">
        <ele>1091.71</ele>
        <time>2011-07-06T11:47:04Z</time>
      </trkpt>
      <trkpt lat="43.74307" lon="6.69543">
        <ele>1092.2</ele>
        <time>2011-07-06T11:47:09Z</time>
      </trkpt>
      <trkpt lat="43.74304" lon="6.69531">
        <ele>1092.2</ele>
        <time>2011-07-06T11:47:11Z</time>
      </trkpt>
      <trkpt lat="43.74302" lon="6.69524">
        <ele>1091.71</ele>
        <time>2011-07-06T11:47:12Z</time>
      </trkpt>
      <trkpt lat="43.74274" lon="6.69419">
        <ele>1089.31</ele>
        <time>2011-07-06T11:47:27Z</time>
      </trkpt>
      <trkpt lat="43.74257" lon="6.69354">
        <ele>1086.43</ele>
        <time>2011-07-06T11:47:34Z</time>
      </trkpt>
      <trkpt lat="43.74242" lon="6.69301">
        <ele>1083.54</ele>
        <time>2011-07-06T11:47:39Z</time>
      </trkpt>
      <trkpt lat="43.74228" lon="6.69256">
        <ele>1080.66</ele>
        <time>2011-07-06T11:47:43Z</time>
      </trkpt>
      <trkpt lat="43.74218" lon="6.69223">
        <ele>1079.22</ele>
        <time>2011-07-06T11:47:46Z</time>
      </trkpt>
      <trkpt lat="43.74216" lon="6.69213">
        <ele>1079.22</ele>
        <time>2011-07-06T11:47:47Z</time>
      </trkpt>
      <trkpt lat="43.74214" lon="6.69202">
        <ele>1079.22</ele>
        <time>2011-07-06T11:47:48Z</time>
      </trkpt>
      <trkpt lat="43.74211" lon="6.69169">
        <ele>1077.78</ele>
        <time>2011-07-06T11:47:51Z</time>
      </trkpt>
      <trkpt lat="43.74209" lon="6.6916">
        <ele>1079.22</ele>
        <time>2011-07-06T11:47:52Z</time>
      </trkpt>
      <trkpt lat="43.74203" lon="6.69126">
        <ele>1080.18</ele>
        <time>2011-07-06T11:47:56Z</time>
      </trkpt>
      <trkpt lat="43.74202" lon="6.69117">
        <ele>1079.7</ele>
        <time>2011-07-06T11:47:57Z</time>
      </trkpt>
      <trkpt lat="43.74202" lon="6.69075">
        <ele>1080.18</ele>
        <time>2011-07-06T11:48:02Z</time>
      </trkpt>
      <trkpt lat="43.74201" lon="6.69059">
        <ele>1081.14</ele>
        <time>2011-07-06T11:48:04Z</time>
      </trkpt>
      <trkpt lat="43.74202" lon="6.68991">
        <ele>1082.1</ele>
        <time>2011-07-06T11:48:13Z</time>
      </trkpt>
      <trkpt lat="43.74194" lon="6.68945">
        <ele>1082.1</ele>
        <time>2011-07-06T11:48:20Z</time>
      </trkpt>
      <trkpt lat="43.74183" lon="6.68905">
        <ele>1082.58</ele>
        <time>2011-07-06T11:48:26Z</time>
      </trkpt>
      <trkpt lat="43.74174" lon="6.6887">
        <ele>1083.06</ele>
        <time>2011-07-06T11:48:31Z</time>
      </trkpt>
      <trkpt lat="43.74168" lon="6.68859">
        <ele>1083.06</ele>
        <time>2011-07-06T11:48:33Z</time>
      </trkpt>
      <trkpt lat="43.74164" lon="6.68855">
        <ele>1083.06</ele>
        <time>2011-07-06T11:48:34Z</time>
      </trkpt>
      <trkpt lat="43.74159" lon="6.68852">
        <ele>1083.54</ele>
        <time>2011-07-06T11:48:35Z</time>
      </trkpt>
      <trkpt lat="43.74135" lon="6.68841">
        <ele>1083.54</ele>
        <time>2011-07-06T11:48:40Z</time>
      </trkpt>
      <trkpt lat="43.7413" lon="6.68838">
        <ele>1083.54</ele>
        <time>2011-07-06T11:48:41Z</time>
      </trkpt>
      <trkpt lat="43.74107" lon="6.68824">
        <ele>1082.1</ele>
        <time>2011-07-06T11:48:45Z</time>
      </trkpt>
      <trkpt lat="43.74095" lon="6.68818">
        <ele>1082.1</ele>
        <time>2011-07-06T11:48:47Z</time>
      </trkpt>
      <trkpt lat="43.74088" lon="6.68816">
        <ele>1082.1</ele>
        <time>2011-07-06T11:48:48Z</time>
      </trkpt>
      <trkpt lat="43.74061" lon="6.68814">
        <ele>1082.1</ele>
        <time>2011-07-06T11:48:52Z</time>
      </trkpt>
      <trkpt lat="43.74055" lon="6.68815">
        <ele>1082.1</ele>
        <time>2011-07-06T11:48:53Z</time>
      </trkpt>
      <trkpt lat="43.74049" lon="6.68817">
        <ele>1082.58</ele>
        <time>2011-07-06T11:48:54Z</time>
      </trkpt>
      <trkpt lat="43.74037" lon="6.68824">
        <ele>1082.1</ele>
        <time>2011-07-06T11:48:56Z</time>
      </trkpt>
      <trkpt lat="43.74033" lon="6.68829">
        <ele>1082.1</ele>
        <time>2011-07-06T11:48:57Z</time>
      </trkpt>
      <trkpt lat="43.74028" lon="6.68836">
        <ele>1082.1</ele>
        <time>2011-07-06T11:48:58Z</time>
      </trkpt>
      <trkpt lat="43.74" lon="6.68878">
        <ele>1082.58</ele>
        <time>2011-07-06T11:49:05Z</time>
      </trkpt>
      <trkpt lat="43.73998" lon="6.68885">
        <ele>1082.58</ele>
        <time>2011-07-06T11:49:06Z</time>
      </trkpt>
      <trkpt lat="43.73988" lon="6.68926">
        <ele>1084.02</ele>
        <time>2011-07-06T11:49:12Z</time>
      </trkpt>
      <trkpt lat="43.73968" lon="6.68983">
        <ele>1084.99</ele>
        <time>2011-07-06T11:49:22Z</time>
      </trkpt>
      <trkpt lat="43.73959" lon="6.68996">
        <ele>1084.99</ele>
        <time>2011-07-06T11:49:25Z</time>
      </trkpt>
      <trkpt lat="43.73955" lon="6.69">
        <ele>1084.99</ele>
        <time>2011-07-06T11:49:26Z</time>
      </trkpt>
      <trkpt lat="43.73951" lon="6.69003">
        <ele>1085.95</ele>
        <time>2011-07-06T11:49:27Z</time>
      </trkpt>
      <trkpt lat="43.7393" lon="6.69011">
        <ele>1086.43</ele>
        <time>2011-07-06T11:49:32Z</time>
      </trkpt>
      <trkpt lat="43.73925" lon="6.69011">
        <ele>1086.43</ele>
        <time>2011-07-06T11:49:33Z</time>
      </trkpt>
      <trkpt lat="43.73917" lon="6.69011">
        <ele>1086.43</ele>
        <time>2011-07-06T11:49:35Z</time>
      </trkpt>
      <trkpt lat="43.73913" lon="6.6901">
        <ele>1086.43</ele>
        <time>2011-07-06T11:49:36Z</time>
      </trkpt>
      <trkpt lat="43.73909" lon="6.69008">
        <ele>1086.91</ele>
        <time>2011-07-06T11:49:37Z</time>
      </trkpt>
      <trkpt lat="43.73906" lon="6.69006">
        <ele>1086.91</ele>
        <time>2011-07-06T11:49:38Z</time>
      </trkpt>
      <trkpt lat="43.73902" lon="6.69003">
        <ele>1086.91</ele>
        <time>2011-07-06T11:49:39Z</time>
      </trkpt>
      <trkpt lat="43.73898" lon="6.69">
        <ele>1086.91</ele>
        <time>2011-07-06T11:49:40Z</time>
      </trkpt>
      <trkpt lat="43.73863" lon="6.68963">
        <ele>1088.35</ele>
        <time>2011-07-06T11:49:51Z</time>
      </trkpt>
      <trkpt lat="43.73834" lon="6.68906">
        <ele>1090.27</ele>
        <time>2011-07-06T11:50:04Z</time>
      </trkpt>
      <trkpt lat="43.73816" lon="6.68894">
        <ele>1090.75</ele>
        <time>2011-07-06T11:50:09Z</time>
      </trkpt>
      <trkpt lat="43.73813" lon="6.68895">
        <ele>1090.27</ele>
        <time>2011-07-06T11:50:10Z</time>
      </trkpt>
      <trkpt lat="43.73808" lon="6.68896">
        <ele>1090.27</ele>
        <time>2011-07-06T11:50:11Z</time>
      </trkpt>
      <trkpt lat="43.73788" lon="6.68901">
        <ele>1091.23</ele>
        <time>2011-07-06T11:50:16Z</time>
      </trkpt>
      <trkpt lat="43.7376" lon="6.68869">
        <ele>1092.68</ele>
        <time>2011-07-06T11:50:27Z</time>
      </trkpt>
      <trkpt lat="43.73743" lon="6.68821">
        <ele>1094.12</ele>
        <time>2011-07-06T11:50:38Z</time>
      </trkpt>
      <trkpt lat="43.73721" lon="6.68763">
        <ele>1096.52</ele>
        <time>2011-07-06T11:50:53Z</time>
      </trkpt>
      <trkpt lat="43.73698" lon="6.68726">
        <ele>1097.96</ele>
        <time>2011-07-06T11:51:08Z</time>
      </trkpt>
      <trkpt lat="43.73676" lon="6.68712">
        <ele>1097.96</ele>
        <time>2011-07-06T11:51:19Z</time>
      </trkpt>
      <trkpt lat="43.73655" lon="6.68681">
        <ele>1096.04</ele>
        <time>2011-07-06T11:51:28Z</time>
      </trkpt>
      <trkpt lat="43.73652" lon="6.68678">
        <ele>1096.04</ele>
        <time>2011-07-06T11:51:29Z</time>
      </trkpt>
      <trkpt lat="43.73649" lon="6.68676">
        <ele>1096.04</ele>
        <time>2011-07-06T11:51:30Z</time>
      </trkpt>
      <trkpt lat="43.73619" lon="6.68675">
        <ele>1097.48</ele>
        <time>2011-07-06T11:51:41Z</time>
      </trkpt>
      <trkpt lat="43.73595" lon="6.68646">
        <ele>1098.92</ele>
        <time>2011-07-06T11:51:53Z</time>
      </trkpt>
      <trkpt lat="43.73571" lon="6.68603">
        <ele>1101.33</ele>
        <time>2011-07-06T11:52:06Z</time>
      </trkpt>
      <trkpt lat="43.7357" lon="6.68599">
        <ele>1101.33</ele>
        <time>2011-07-06T11:52:17Z</time>
      </trkpt>
      <trkpt lat="43.73562" lon="6.6858">
        <ele>1101.33</ele>
        <time>2011-07-06T11:52:35Z</time>
      </trkpt>
      <trkpt lat="43.73546" lon="6.68547">
        <ele>1099.4</ele>
        <time>2011-07-06T11:52:41Z</time>
      </trkpt>
      <trkpt lat="43.73534" lon="6.68521">
        <ele>1099.4</ele>
        <time>2011-07-06T11:52:45Z</time>
      </trkpt>
      <trkpt lat="43.73496" lon="6.68461">
        <ele>1097</ele>
        <time>2011-07-06T11:52:55Z</time>
      </trkpt>
      <trkpt lat="43.7349" lon="6.68457">
        <ele>1097.48</ele>
        <time>2011-07-06T11:52:56Z</time>
      </trkpt>
      <trkpt lat="43.73484" lon="6.68455">
        <ele>1097.48</ele>
        <time>2011-07-06T11:52:57Z</time>
      </trkpt>
      <trkpt lat="43.73478" lon="6.68453">
        <ele>1097</ele>
        <time>2011-07-06T11:52:58Z</time>
      </trkpt>
      <trkpt lat="43.73472" lon="6.68452">
        <ele>1097</ele>
        <time>2011-07-06T11:52:59Z</time>
      </trkpt>
      <trkpt lat="43.73466" lon="6.68452">
        <ele>1097</ele>
        <time>2011-07-06T11:53:00Z</time>
      </trkpt>
      <trkpt lat="43.7346" lon="6.68454">
        <ele>1097</ele>
        <time>2011-07-06T11:53:01Z</time>
      </trkpt>
      <trkpt lat="43.73454" lon="6.68457">
        <ele>1096.04</ele>
        <time>2011-07-06T11:53:02Z</time>
      </trkpt>
      <trkpt lat="43.73447" lon="6.68461">
        <ele>1095.56</ele>
        <time>2011-07-06T11:53:03Z</time>
      </trkpt>
      <trkpt lat="43.73442" lon="6.68466">
        <ele>1095.56</ele>
        <time>2011-07-06T11:53:04Z</time>
      </trkpt>
      <trkpt lat="43.73437" lon="6.68472">
        <ele>1095.56</ele>
        <time>2011-07-06T11:53:05Z</time>
      </trkpt>
      <trkpt lat="43.73431" lon="6.68478">
        <ele>1095.08</ele>
        <time>2011-07-06T11:53:06Z</time>
      </trkpt>
      <trkpt lat="43.73366" lon="6.68553">
        <ele>1093.64</ele>
        <time>2011-07-06T11:53:18Z</time>
      </trkpt>
      <trkpt lat="43.73334" lon="6.68591">
        <ele>1095.08</ele>
        <time>2011-07-06T11:53:24Z</time>
      </trkpt>
      <trkpt lat="43.73328" lon="6.68597">
        <ele>1095.56</ele>
        <time>2011-07-06T11:53:25Z</time>
      </trkpt>
      <trkpt lat="43.73309" lon="6.68618">
        <ele>1096.52</ele>
        <time>2011-07-06T11:53:29Z</time>
      </trkpt>
      <trkpt lat="43.73305" lon="6.68622">
        <ele>1096.52</ele>
        <time>2011-07-06T11:53:30Z</time>
      </trkpt>
      <trkpt lat="43.73267" lon="6.68667">
        <ele>1098.92</ele>
        <time>2011-07-06T11:53:44Z</time>
      </trkpt>
      <trkpt lat="43.73234" lon="6.68669">
        <ele>1099.4</ele>
        <time>2011-07-06T11:53:55Z</time>
      </trkpt>
      <trkpt lat="43.73225" lon="6.68667">
        <ele>1098.92</ele>
        <time>2011-07-06T11:53:57Z</time>
      </trkpt>
      <trkpt lat="43.7321" lon="6.68663">
        <ele>1097.48</ele>
        <time>2011-07-06T11:54:00Z</time>
      </trkpt>
      <trkpt lat="43.73204" lon="6.68659">
        <ele>1097</ele>
        <time>2011-07-06T11:54:01Z</time>
      </trkpt>
      <trkpt lat="43.73199" lon="6.68653">
        <ele>1096.52</ele>
        <time>2011-07-06T11:54:02Z</time>
      </trkpt>
      <trkpt lat="43.73175" lon="6.68628">
        <ele>1094.12</ele>
        <time>2011-07-06T11:54:06Z</time>
      </trkpt>
      <trkpt lat="43.73145" lon="6.68594">
        <ele>1093.16</ele>
        <time>2011-07-06T11:54:12Z</time>
      </trkpt>
      <trkpt lat="43.73139" lon="6.68591">
        <ele>1093.16</ele>
        <time>2011-07-06T11:54:13Z</time>
      </trkpt>
      <trkpt lat="43.73077" lon="6.68555">
        <ele>1093.64</ele>
        <time>2011-07-06T11:54:25Z</time>
      </trkpt>
      <trkpt lat="43.73034" lon="6.68534">
        <ele>1094.6</ele>
        <time>2011-07-06T11:54:36Z</time>
      </trkpt>
      <trkpt lat="43.73034" lon="6.68534">
        <ele>1094.6</ele>
        <time>2011-07-06T11:54:55Z</time>
      </trkpt>
      <trkpt lat="43.73034" lon="6.68534">
        <ele>1095.08</ele>
        <time>2011-07-06T11:55:22Z</time>
      </trkpt>
      <trkpt lat="43.73037" lon="6.6853">
        <ele>1095.08</ele>
        <time>2011-07-06T11:55:26Z</time>
      </trkpt>
      <trkpt lat="43.73036" lon="6.68528">
        <ele>1095.08</ele>
        <time>2011-07-06T11:55:27Z</time>
      </trkpt>
      <trkpt lat="43.73035" lon="6.68527">
        <ele>1095.08</ele>
        <time>2011-07-06T11:55:28Z</time>
      </trkpt>
      <trkpt lat="43.73033" lon="6.68523">
        <ele>1095.08</ele>
        <time>2011-07-06T11:55:36Z</time>
      </trkpt>
      <trkpt lat="43.73032" lon="6.68521">
        <ele>1095.56</ele>
        <time>2011-07-06T11:55:37Z</time>
      </trkpt>
      <trkpt lat="43.7303" lon="6.6852">
        <ele>1095.08</ele>
        <time>2011-07-06T11:55:38Z</time>
      </trkpt>
      <trkpt lat="43.73029" lon="6.68518">
        <ele>1095.08</ele>
        <time>2011-07-06T11:55:39Z</time>
      </trkpt>
      <trkpt lat="43.73027" lon="6.68515">
        <ele>1095.08</ele>
        <time>2011-07-06T11:55:40Z</time>
      </trkpt>
      <trkpt lat="43.73025" lon="6.68511">
        <ele>1094.6</ele>
        <time>2011-07-06T11:55:41Z</time>
      </trkpt>
      <trkpt lat="43.73023" lon="6.68507">
        <ele>1094.6</ele>
        <time>2011-07-06T11:55:42Z</time>
      </trkpt>
      <trkpt lat="43.7302" lon="6.68503">
        <ele>1094.6</ele>
        <time>2011-07-06T11:55:43Z</time>
      </trkpt>
      <trkpt lat="43.73016" lon="6.68498">
        <ele>1094.12</ele>
        <time>2011-07-06T11:55:44Z</time>
      </trkpt>
      <trkpt lat="43.73011" lon="6.68493">
        <ele>1092.68</ele>
        <time>2011-07-06T11:55:45Z</time>
      </trkpt>
      <trkpt lat="43.73006" lon="6.68487">
        <ele>1092.68</ele>
        <time>2011-07-06T11:55:46Z</time>
      </trkpt>
      <trkpt lat="43.72995" lon="6.68475">
        <ele>1091.23</ele>
        <time>2011-07-06T11:55:48Z</time>
      </trkpt>
      <trkpt lat="43.72989" lon="6.68469">
        <ele>1090.75</ele>
        <time>2011-07-06T11:55:49Z</time>
      </trkpt>
      <trkpt lat="43.72982" lon="6.68465">
        <ele>1090.27</ele>
        <time>2011-07-06T11:55:50Z</time>
      </trkpt>
      <trkpt lat="43.72975" lon="6.68463">
        <ele>1090.75</ele>
        <time>2011-07-06T11:55:51Z</time>
      </trkpt>
      <trkpt lat="43.72968" lon="6.68461">
        <ele>1090.27</ele>
        <time>2011-07-06T11:55:52Z</time>
      </trkpt>
      <trkpt lat="43.72961" lon="6.6846">
        <ele>1091.23</ele>
        <time>2011-07-06T11:55:53Z</time>
      </trkpt>
      <trkpt lat="43.72899" lon="6.68447">
        <ele>1090.27</ele>
        <time>2011-07-06T11:56:02Z</time>
      </trkpt>
      <trkpt lat="43.72885" lon="6.68443">
        <ele>1089.31</ele>
        <time>2011-07-06T11:56:04Z</time>
      </trkpt>
      <trkpt lat="43.72878" lon="6.68439">
        <ele>1089.31</ele>
        <time>2011-07-06T11:56:05Z</time>
      </trkpt>
      <trkpt lat="43.72871" lon="6.68434">
        <ele>1088.35</ele>
        <time>2011-07-06T11:56:06Z</time>
      </trkpt>
      <trkpt lat="43.72855" lon="6.68418">
        <ele>1088.35</ele>
        <time>2011-07-06T11:56:09Z</time>
      </trkpt>
      <trkpt lat="43.72849" lon="6.68416">
        <ele>1087.87</ele>
        <time>2011-07-06T11:56:10Z</time>
      </trkpt>
      <trkpt lat="43.72842" lon="6.68414">
        <ele>1086.43</ele>
        <time>2011-07-06T11:56:11Z</time>
      </trkpt>
      <trkpt lat="43.72826" lon="6.68411">
        <ele>1084.99</ele>
        <time>2011-07-06T11:56:13Z</time>
      </trkpt>
      <trkpt lat="43.72817" lon="6.68412">
        <ele>1084.5</ele>
        <time>2011-07-06T11:56:14Z</time>
      </trkpt>
      <trkpt lat="43.72809" lon="6.68414">
        <ele>1083.54</ele>
        <time>2011-07-06T11:56:15Z</time>
      </trkpt>
      <trkpt lat="43.72801" lon="6.68417">
        <ele>1083.06</ele>
        <time>2011-07-06T11:56:16Z</time>
      </trkpt>
      <trkpt lat="43.72775" lon="6.68424">
        <ele>1082.1</ele>
        <time>2011-07-06T11:56:19Z</time>
      </trkpt>
      <trkpt lat="43.72766" lon="6.68423">
        <ele>1081.62</ele>
        <time>2011-07-06T11:56:20Z</time>
      </trkpt>
      <trkpt lat="43.72757" lon="6.68421">
        <ele>1081.14</ele>
        <time>2011-07-06T11:56:21Z</time>
      </trkpt>
      <trkpt lat="43.72693" lon="6.68392">
        <ele>1078.74</ele>
        <time>2011-07-06T11:56:29Z</time>
      </trkpt>
      <trkpt lat="43.7261" lon="6.68372">
        <ele>1075.37</ele>
        <time>2011-07-06T11:56:40Z</time>
      </trkpt>
      <trkpt lat="43.72596" lon="6.68371">
        <ele>1074.89</ele>
        <time>2011-07-06T11:56:42Z</time>
      </trkpt>
      <trkpt lat="43.72545" lon="6.68363">
        <ele>1072.49</ele>
        <time>2011-07-06T11:56:49Z</time>
      </trkpt>
      <trkpt lat="43.72537" lon="6.68363">
        <ele>1072.97</ele>
        <time>2011-07-06T11:56:50Z</time>
      </trkpt>
      <trkpt lat="43.72493" lon="6.68362">
        <ele>1072.97</ele>
        <time>2011-07-06T11:56:57Z</time>
      </trkpt>
      <trkpt lat="43.72487" lon="6.6836">
        <ele>1072.01</ele>
        <time>2011-07-06T11:56:58Z</time>
      </trkpt>
      <trkpt lat="43.72476" lon="6.68355">
        <ele>1071.53</ele>
        <time>2011-07-06T11:57:00Z</time>
      </trkpt>
      <trkpt lat="43.72457" lon="6.68347">
        <ele>1070.08</ele>
        <time>2011-07-06T11:57:04Z</time>
      </trkpt>
      <trkpt lat="43.72452" lon="6.68342">
        <ele>1069.12</ele>
        <time>2011-07-06T11:57:12Z</time>
      </trkpt>
      <trkpt lat="43.7245" lon="6.68341">
        <ele>1069.12</ele>
        <time>2011-07-06T11:57:15Z</time>
      </trkpt>
      <trkpt lat="43.72447" lon="6.6834">
        <ele>1069.12</ele>
        <time>2011-07-06T11:57:16Z</time>
      </trkpt>
      <trkpt lat="43.72444" lon="6.68338">
        <ele>1069.12</ele>
        <time>2011-07-06T11:57:17Z</time>
      </trkpt>
      <trkpt lat="43.72441" lon="6.68335">
        <ele>1068.64</ele>
        <time>2011-07-06T11:57:18Z</time>
      </trkpt>
      <trkpt lat="43.72438" lon="6.68332">
        <ele>1069.12</ele>
        <time>2011-07-06T11:57:19Z</time>
      </trkpt>
      <trkpt lat="43.72409" lon="6.68304">
        <ele>1065.76</ele>
        <time>2011-07-06T11:57:26Z</time>
      </trkpt>
      <trkpt lat="43.72391" lon="6.68292">
        <ele>1063.84</ele>
        <time>2011-07-06T11:57:29Z</time>
      </trkpt>
      <trkpt lat="43.72363" lon="6.68272">
        <ele>1060.47</ele>
        <time>2011-07-06T11:57:33Z</time>
      </trkpt>
      <trkpt lat="43.72347" lon="6.68262">
        <ele>1059.03</ele>
        <time>2011-07-06T11:57:35Z</time>
      </trkpt>
      <trkpt lat="43.72316" lon="6.68242">
        <ele>1056.15</ele>
        <time>2011-07-06T11:57:39Z</time>
      </trkpt>
      <trkpt lat="43.72286" lon="6.68222">
        <ele>1054.7</ele>
        <time>2011-07-06T11:57:43Z</time>
      </trkpt>
      <trkpt lat="43.72272" lon="6.68214">
        <ele>1053.74</ele>
        <time>2011-07-06T11:57:45Z</time>
      </trkpt>
      <trkpt lat="43.72265" lon="6.68213">
        <ele>1053.74</ele>
        <time>2011-07-06T11:57:46Z</time>
      </trkpt>
      <trkpt lat="43.72257" lon="6.68212">
        <ele>1051.82</ele>
        <time>2011-07-06T11:57:47Z</time>
      </trkpt>
      <trkpt lat="43.72251" lon="6.68214">
        <ele>1052.3</ele>
        <time>2011-07-06T11:57:48Z</time>
      </trkpt>
      <trkpt lat="43.72244" lon="6.68217">
        <ele>1051.34</ele>
        <time>2011-07-06T11:57:49Z</time>
      </trkpt>
      <trkpt lat="43.72239" lon="6.68222">
        <ele>1050.38</ele>
        <time>2011-07-06T11:57:50Z</time>
      </trkpt>
      <trkpt lat="43.72233" lon="6.68228">
        <ele>1049.9</ele>
        <time>2011-07-06T11:57:51Z</time>
      </trkpt>
      <trkpt lat="43.72228" lon="6.68235">
        <ele>1048.94</ele>
        <time>2011-07-06T11:57:52Z</time>
      </trkpt>
      <trkpt lat="43.72223" lon="6.68243">
        <ele>1047.97</ele>
        <time>2011-07-06T11:57:53Z</time>
      </trkpt>
      <trkpt lat="43.7222" lon="6.68251">
        <ele>1047.49</ele>
        <time>2011-07-06T11:57:54Z</time>
      </trkpt>
      <trkpt lat="43.72216" lon="6.68258">
        <ele>1047.01</ele>
        <time>2011-07-06T11:57:55Z</time>
      </trkpt>
      <trkpt lat="43.72214" lon="6.68265">
        <ele>1046.05</ele>
        <time>2011-07-06T11:57:56Z</time>
      </trkpt>
      <trkpt lat="43.72212" lon="6.68272">
        <ele>1046.05</ele>
        <time>2011-07-06T11:57:57Z</time>
      </trkpt>
      <trkpt lat="43.722" lon="6.68303">
        <ele>1042.21</ele>
        <time>2011-07-06T11:58:02Z</time>
      </trkpt>
      <trkpt lat="43.72196" lon="6.68306">
        <ele>1042.21</ele>
        <time>2011-07-06T11:58:03Z</time>
      </trkpt>
      <trkpt lat="43.72193" lon="6.68307">
        <ele>1041.73</ele>
        <time>2011-07-06T11:58:04Z</time>
      </trkpt>
      <trkpt lat="43.72189" lon="6.68306">
        <ele>1041.25</ele>
        <time>2011-07-06T11:58:05Z</time>
      </trkpt>
      <trkpt lat="43.72185" lon="6.68305">
        <ele>1041.25</ele>
        <time>2011-07-06T11:58:06Z</time>
      </trkpt>
      <trkpt lat="43.72173" lon="6.68299">
        <ele>1041.25</ele>
        <time>2011-07-06T11:58:09Z</time>
      </trkpt>
      <trkpt lat="43.72157" lon="6.68295">
        <ele>1039.32</ele>
        <time>2011-07-06T11:58:12Z</time>
      </trkpt>
      <trkpt lat="43.72152" lon="6.68297">
        <ele>1038.84</ele>
        <time>2011-07-06T11:58:13Z</time>
      </trkpt>
      <trkpt lat="43.72147" lon="6.68301">
        <ele>1038.36</ele>
        <time>2011-07-06T11:58:14Z</time>
      </trkpt>
      <trkpt lat="43.72144" lon="6.68308">
        <ele>1036.92</ele>
        <time>2011-07-06T11:58:15Z</time>
      </trkpt>
      <trkpt lat="43.72141" lon="6.68316">
        <ele>1037.4</ele>
        <time>2011-07-06T11:58:16Z</time>
      </trkpt>
      <trkpt lat="43.72138" lon="6.68323">
        <ele>1035.96</ele>
        <time>2011-07-06T11:58:17Z</time>
      </trkpt>
      <trkpt lat="43.72134" lon="6.6833">
        <ele>1036.44</ele>
        <time>2011-07-06T11:58:18Z</time>
      </trkpt>
      <trkpt lat="43.72128" lon="6.68334">
        <ele>1035</ele>
        <time>2011-07-06T11:58:19Z</time>
      </trkpt>
      <trkpt lat="43.72121" lon="6.68336">
        <ele>1034.52</ele>
        <time>2011-07-06T11:58:20Z</time>
      </trkpt>
      <trkpt lat="43.72114" lon="6.68336">
        <ele>1034.52</ele>
        <time>2011-07-06T11:58:21Z</time>
      </trkpt>
      <trkpt lat="43.72107" lon="6.68334">
        <ele>1034.04</ele>
        <time>2011-07-06T11:58:22Z</time>
      </trkpt>
      <trkpt lat="43.72099" lon="6.6833">
        <ele>1033.55</ele>
        <time>2011-07-06T11:58:23Z</time>
      </trkpt>
      <trkpt lat="43.7209" lon="6.68326">
        <ele>1032.59</ele>
        <time>2011-07-06T11:58:24Z</time>
      </trkpt>
      <trkpt lat="43.72082" lon="6.68321">
        <ele>1032.59</ele>
        <time>2011-07-06T11:58:25Z</time>
      </trkpt>
      <trkpt lat="43.72052" lon="6.68296">
        <ele>1030.67</ele>
        <time>2011-07-06T11:58:29Z</time>
      </trkpt>
      <trkpt lat="43.72004" lon="6.68257">
        <ele>1029.23</ele>
        <time>2011-07-06T11:58:35Z</time>
      </trkpt>
      <trkpt lat="43.71995" lon="6.68253">
        <ele>1029.23</ele>
        <time>2011-07-06T11:58:36Z</time>
      </trkpt>
      <trkpt lat="43.71986" lon="6.68249">
        <ele>1028.75</ele>
        <time>2011-07-06T11:58:37Z</time>
      </trkpt>
      <trkpt lat="43.71941" lon="6.68237">
        <ele>1027.31</ele>
        <time>2011-07-06T11:58:42Z</time>
      </trkpt>
      <trkpt lat="43.71933" lon="6.68233">
        <ele>1026.83</ele>
        <time>2011-07-06T11:58:43Z</time>
      </trkpt>
      <trkpt lat="43.71925" lon="6.68228">
        <ele>1026.83</ele>
        <time>2011-07-06T11:58:44Z</time>
      </trkpt>
      <trkpt lat="43.71904" lon="6.68207">
        <ele>1026.83</ele>
        <time>2011-07-06T11:58:47Z</time>
      </trkpt>
      <trkpt lat="43.7187" lon="6.68172">
        <ele>1024.42</ele>
        <time>2011-07-06T11:58:52Z</time>
      </trkpt>
      <trkpt lat="43.71806" lon="6.68116">
        <ele>1022.5</ele>
        <time>2011-07-06T11:59:01Z</time>
      </trkpt>
      <trkpt lat="43.71774" lon="6.68088">
        <ele>1021.54</ele>
        <time>2011-07-06T11:59:06Z</time>
      </trkpt>
      <trkpt lat="43.71767" lon="6.68085">
        <ele>1020.1</ele>
        <time>2011-07-06T11:59:07Z</time>
      </trkpt>
      <trkpt lat="43.71759" lon="6.68082">
        <ele>1019.62</ele>
        <time>2011-07-06T11:59:08Z</time>
      </trkpt>
      <trkpt lat="43.71751" lon="6.6808">
        <ele>1019.62</ele>
        <time>2011-07-06T11:59:09Z</time>
      </trkpt>
      <trkpt lat="43.71743" lon="6.68078">
        <ele>1018.65</ele>
        <time>2011-07-06T11:59:10Z</time>
      </trkpt>
      <trkpt lat="43.71737" lon="6.68077">
        <ele>1018.17</ele>
        <time>2011-07-06T11:59:11Z</time>
      </trkpt>
      <trkpt lat="43.71724" lon="6.68074">
        <ele>1017.69</ele>
        <time>2011-07-06T11:59:13Z</time>
      </trkpt>
      <trkpt lat="43.7169" lon="6.68074">
        <ele>1015.29</ele>
        <time>2011-07-06T11:59:22Z</time>
      </trkpt>
      <trkpt lat="43.71689" lon="6.68073">
        <ele>1014.81</ele>
        <time>2011-07-06T11:59:34Z</time>
      </trkpt>
      <trkpt lat="43.71691" lon="6.68075">
        <ele>1015.29</ele>
        <time>2011-07-06T11:59:39Z</time>
      </trkpt>
      <trkpt lat="43.71697" lon="6.68076">
        <ele>1015.29</ele>
        <time>2011-07-06T11:59:48Z</time>
      </trkpt>
      <trkpt lat="43.71698" lon="6.68076">
        <ele>1015.29</ele>
        <time>2011-07-06T11:59:49Z</time>
      </trkpt>
      <trkpt lat="43.717" lon="6.68077">
        <ele>1015.29</ele>
        <time>2011-07-06T11:59:50Z</time>
      </trkpt>
      <trkpt lat="43.71702" lon="6.68077">
        <ele>1015.77</ele>
        <time>2011-07-06T11:59:51Z</time>
      </trkpt>
      <trkpt lat="43.71704" lon="6.68077">
        <ele>1015.29</ele>
        <time>2011-07-06T11:59:52Z</time>
      </trkpt>
      <trkpt lat="43.71707" lon="6.68077">
        <ele>1015.29</ele>
        <time>2011-07-06T11:59:53Z</time>
      </trkpt>
      <trkpt lat="43.7171" lon="6.68077">
        <ele>1015.77</ele>
        <time>2011-07-06T11:59:54Z</time>
      </trkpt>
      <trkpt lat="43.71721" lon="6.68078">
        <ele>1016.25</ele>
        <time>2011-07-06T11:59:58Z</time>
      </trkpt>
      <trkpt lat="43.71724" lon="6.6808">
        <ele>1016.73</ele>
        <time>2011-07-06T11:59:59Z</time>
      </trkpt>
      <trkpt lat="43.71727" lon="6.68081">
        <ele>1016.73</ele>
        <time>2011-07-06T12:00:00Z</time>
      </trkpt>
      <trkpt lat="43.71747" lon="6.68097">
        <ele>1017.69</ele>
        <time>2011-07-06T12:00:10Z</time>
      </trkpt>
      <trkpt lat="43.71748" lon="6.68104">
        <ele>1017.69</ele>
        <time>2011-07-06T12:00:13Z</time>
      </trkpt>
      <trkpt lat="43.71748" lon="6.68106">
        <ele>1018.17</ele>
        <time>2011-07-06T12:00:14Z</time>
      </trkpt>
      <trkpt lat="43.71747" lon="6.68106">
        <ele>1018.17</ele>
        <time>2011-07-06T12:00:26Z</time>
      </trkpt>
      <trkpt lat="43.71747" lon="6.68106">
        <ele>1018.17</ele>
        <time>2011-07-06T12:00:55Z</time>
      </trkpt>
      <trkpt lat="43.7175" lon="6.68106">
        <ele>1017.21</ele>
        <time>2011-07-06T12:01:11Z</time>
      </trkpt>
      <trkpt lat="43.7175" lon="6.68105">
        <ele>1017.21</ele>
        <time>2011-07-06T12:01:33Z</time>
      </trkpt>
      <trkpt lat="43.7175" lon="6.68105">
        <ele>1017.21</ele>
        <time>2011-07-06T12:01:46Z</time>
      </trkpt>
      <trkpt lat="43.71749" lon="6.68104">
        <ele>1017.69</ele>
        <time>2011-07-06T12:01:48Z</time>
      </trkpt>
      <trkpt lat="43.7175" lon="6.68105">
        <ele>1016.73</ele>
        <time>2011-07-06T12:08:36Z</time>
      </trkpt>
      <trkpt lat="43.7175" lon="6.68104">
        <ele>1017.21</ele>
        <time>2011-07-06T12:08:37Z</time>
      </trkpt>
      <trkpt lat="43.71748" lon="6.6811">
        <ele>1014.33</ele>
        <time>2011-07-06T12:09:04Z</time>
      </trkpt>
      <trkpt lat="43.71748" lon="6.68106">
        <ele>1014.81</ele>
        <time>2011-07-06T12:09:39Z</time>
      </trkpt>
      <trkpt lat="43.71756" lon="6.6814">
        <ele>1014.33</ele>
        <time>2011-07-06T12:09:53Z</time>
      </trkpt>
      <trkpt lat="43.71763" lon="6.68196">
        <ele>1013.85</ele>
        <time>2011-07-06T12:10:04Z</time>
      </trkpt>
      <trkpt lat="43.7177" lon="6.68237">
        <ele>1013.37</ele>
        <time>2011-07-06T12:10:11Z</time>
      </trkpt>
      <trkpt lat="43.71777" lon="6.68256">
        <ele>1012.89</ele>
        <time>2011-07-06T12:10:14Z</time>
      </trkpt>
      <trkpt lat="43.71794" lon="6.68283">
        <ele>1011.93</ele>
        <time>2011-07-06T12:10:18Z</time>
      </trkpt>
      <trkpt lat="43.71797" lon="6.68291">
        <ele>1012.41</ele>
        <time>2011-07-06T12:10:19Z</time>
      </trkpt>
      <trkpt lat="43.71799" lon="6.68299">
        <ele>1011.93</ele>
        <time>2011-07-06T12:10:20Z</time>
      </trkpt>
      <trkpt lat="43.718" lon="6.68308">
        <ele>1011.93</ele>
        <time>2011-07-06T12:10:21Z</time>
      </trkpt>
      <trkpt lat="43.71801" lon="6.68316">
        <ele>1011.93</ele>
        <time>2011-07-06T12:10:22Z</time>
      </trkpt>
      <trkpt lat="43.71801" lon="6.68323">
        <ele>1011.93</ele>
        <time>2011-07-06T12:10:23Z</time>
      </trkpt>
      <trkpt lat="43.71801" lon="6.6833">
        <ele>1012.41</ele>
        <time>2011-07-06T12:10:24Z</time>
      </trkpt>
      <trkpt lat="43.718" lon="6.68337">
        <ele>1012.89</ele>
        <time>2011-07-06T12:10:25Z</time>
      </trkpt>
      <trkpt lat="43.71799" lon="6.68342">
        <ele>1012.89</ele>
        <time>2011-07-06T12:10:26Z</time>
      </trkpt>
      <trkpt lat="43.71798" lon="6.68348">
        <ele>1013.37</ele>
        <time>2011-07-06T12:10:27Z</time>
      </trkpt>
      <trkpt lat="43.71798" lon="6.68353">
        <ele>1013.37</ele>
        <time>2011-07-06T12:10:28Z</time>
      </trkpt>
      <trkpt lat="43.71791" lon="6.68399">
        <ele>1014.81</ele>
        <time>2011-07-06T12:10:37Z</time>
      </trkpt>
      <trkpt lat="43.71793" lon="6.68402">
        <ele>1015.29</ele>
        <time>2011-07-06T12:10:38Z</time>
      </trkpt>
      <trkpt lat="43.71796" lon="6.68405">
        <ele>1015.29</ele>
        <time>2011-07-06T12:10:39Z</time>
      </trkpt>
      <trkpt lat="43.71819" lon="6.68447">
        <ele>1016.25</ele>
        <time>2011-07-06T12:10:50Z</time>
      </trkpt>
      <trkpt lat="43.71818" lon="6.68468">
        <ele>1017.21</ele>
        <time>2011-07-06T12:10:54Z</time>
      </trkpt>
      <trkpt lat="43.71819" lon="6.68474">
        <ele>1016.73</ele>
        <time>2011-07-06T12:10:55Z</time>
      </trkpt>
      <trkpt lat="43.7182" lon="6.6848">
        <ele>1017.21</ele>
        <time>2011-07-06T12:10:56Z</time>
      </trkpt>
      <trkpt lat="43.71822" lon="6.68485">
        <ele>1017.21</ele>
        <time>2011-07-06T12:10:57Z</time>
      </trkpt>
      <trkpt lat="43.71824" lon="6.6849">
        <ele>1017.69</ele>
        <time>2011-07-06T12:10:58Z</time>
      </trkpt>
      <trkpt lat="43.71826" lon="6.68495">
        <ele>1017.21</ele>
        <time>2011-07-06T12:10:59Z</time>
      </trkpt>
      <trkpt lat="43.71834" lon="6.68536">
        <ele>1016.73</ele>
        <time>2011-07-06T12:11:06Z</time>
      </trkpt>
      <trkpt lat="43.7184" lon="6.6856">
        <ele>1016.73</ele>
        <time>2011-07-06T12:11:10Z</time>
      </trkpt>
      <trkpt lat="43.71841" lon="6.68565">
        <ele>1016.73</ele>
        <time>2011-07-06T12:11:11Z</time>
      </trkpt>
      <trkpt lat="43.71845" lon="6.686">
        <ele>1016.73</ele>
        <time>2011-07-06T12:11:16Z</time>
      </trkpt>
      <trkpt lat="43.71844" lon="6.68606">
        <ele>1017.69</ele>
        <time>2011-07-06T12:11:17Z</time>
      </trkpt>
      <trkpt lat="43.71844" lon="6.68613">
        <ele>1017.21</ele>
        <time>2011-07-06T12:11:18Z</time>
      </trkpt>
      <trkpt lat="43.71844" lon="6.68619">
        <ele>1017.21</ele>
        <time>2011-07-06T12:11:19Z</time>
      </trkpt>
      <trkpt lat="43.71845" lon="6.68625">
        <ele>1017.69</ele>
        <time>2011-07-06T12:11:20Z</time>
      </trkpt>
      <trkpt lat="43.71846" lon="6.68631">
        <ele>1017.21</ele>
        <time>2011-07-06T12:11:21Z</time>
      </trkpt>
      <trkpt lat="43.71847" lon="6.68637">
        <ele>1017.69</ele>
        <time>2011-07-06T12:11:22Z</time>
      </trkpt>
      <trkpt lat="43.71847" lon="6.68643">
        <ele>1018.17</ele>
        <time>2011-07-06T12:11:23Z</time>
      </trkpt>
      <trkpt lat="43.71846" lon="6.68649">
        <ele>1018.17</ele>
        <time>2011-07-06T12:11:24Z</time>
      </trkpt>
      <trkpt lat="43.71843" lon="6.68683">
        <ele>1018.65</ele>
        <time>2011-07-06T12:11:30Z</time>
      </trkpt>
      <trkpt lat="43.7184" lon="6.68694">
        <ele>1018.65</ele>
        <time>2011-07-06T12:11:32Z</time>
      </trkpt>
      <trkpt lat="43.71838" lon="6.68699">
        <ele>1018.65</ele>
        <time>2011-07-06T12:11:33Z</time>
      </trkpt>
      <trkpt lat="43.71825" lon="6.68731">
        <ele>1019.62</ele>
        <time>2011-07-06T12:11:39Z</time>
      </trkpt>
      <trkpt lat="43.71822" lon="6.68735">
        <ele>1019.13</ele>
        <time>2011-07-06T12:11:40Z</time>
      </trkpt>
      <trkpt lat="43.71819" lon="6.6874">
        <ele>1019.13</ele>
        <time>2011-07-06T12:11:41Z</time>
      </trkpt>
      <trkpt lat="43.71811" lon="6.68749">
        <ele>1018.65</ele>
        <time>2011-07-06T12:11:43Z</time>
      </trkpt>
      <trkpt lat="43.71805" lon="6.68752">
        <ele>1017.69</ele>
        <time>2011-07-06T12:11:44Z</time>
      </trkpt>
      <trkpt lat="43.71799" lon="6.68753">
        <ele>1017.21</ele>
        <time>2011-07-06T12:11:45Z</time>
      </trkpt>
      <trkpt lat="43.71793" lon="6.68752">
        <ele>1017.69</ele>
        <time>2011-07-06T12:11:46Z</time>
      </trkpt>
      <trkpt lat="43.71787" lon="6.6875">
        <ele>1017.69</ele>
        <time>2011-07-06T12:11:47Z</time>
      </trkpt>
      <trkpt lat="43.71781" lon="6.68746">
        <ele>1017.21</ele>
        <time>2011-07-06T12:11:48Z</time>
      </trkpt>
      <trkpt lat="43.71775" lon="6.68744">
        <ele>1017.21</ele>
        <time>2011-07-06T12:11:49Z</time>
      </trkpt>
      <trkpt lat="43.71769" lon="6.68743">
        <ele>1017.21</ele>
        <time>2011-07-06T12:11:50Z</time>
      </trkpt>
      <trkpt lat="43.71763" lon="6.68742">
        <ele>1017.69</ele>
        <time>2011-07-06T12:11:51Z</time>
      </trkpt>
      <trkpt lat="43.7175" lon="6.6874">
        <ele>1017.21</ele>
        <time>2011-07-06T12:11:53Z</time>
      </trkpt>
      <trkpt lat="43.71744" lon="6.68737">
        <ele>1016.25</ele>
        <time>2011-07-06T12:11:54Z</time>
      </trkpt>
      <trkpt lat="43.71738" lon="6.68733">
        <ele>1016.25</ele>
        <time>2011-07-06T12:11:55Z</time>
      </trkpt>
      <trkpt lat="43.71714" lon="6.68719">
        <ele>1016.25</ele>
        <time>2011-07-06T12:11:59Z</time>
      </trkpt>
      <trkpt lat="43.71708" lon="6.68719">
        <ele>1015.77</ele>
        <time>2011-07-06T12:12:00Z</time>
      </trkpt>
      <trkpt lat="43.71701" lon="6.68719">
        <ele>1015.29</ele>
        <time>2011-07-06T12:12:01Z</time>
      </trkpt>
      <trkpt lat="43.71695" lon="6.6872">
        <ele>1015.77</ele>
        <time>2011-07-06T12:12:02Z</time>
      </trkpt>
      <trkpt lat="43.7169" lon="6.68723">
        <ele>1015.77</ele>
        <time>2011-07-06T12:12:03Z</time>
      </trkpt>
      <trkpt lat="43.71685" lon="6.68727">
        <ele>1016.25</ele>
        <time>2011-07-06T12:12:04Z</time>
      </trkpt>
      <trkpt lat="43.71682" lon="6.68733">
        <ele>1016.25</ele>
        <time>2011-07-06T12:12:05Z</time>
      </trkpt>
      <trkpt lat="43.71677" lon="6.68738">
        <ele>1016.73</ele>
        <time>2011-07-06T12:12:06Z</time>
      </trkpt>
      <trkpt lat="43.71667" lon="6.68755">
        <ele>1015.77</ele>
        <time>2011-07-06T12:12:09Z</time>
      </trkpt>
      <trkpt lat="43.71665" lon="6.68762">
        <ele>1016.73</ele>
        <time>2011-07-06T12:12:10Z</time>
      </trkpt>
      <trkpt lat="43.71663" lon="6.68769">
        <ele>1016.73</ele>
        <time>2011-07-06T12:12:11Z</time>
      </trkpt>
      <trkpt lat="43.7166" lon="6.68776">
        <ele>1016.73</ele>
        <time>2011-07-06T12:12:12Z</time>
      </trkpt>
      <trkpt lat="43.71657" lon="6.68783">
        <ele>1016.73</ele>
        <time>2011-07-06T12:12:13Z</time>
      </trkpt>
      <trkpt lat="43.71654" lon="6.68789">
        <ele>1016.25</ele>
        <time>2011-07-06T12:12:14Z</time>
      </trkpt>
      <trkpt lat="43.71646" lon="6.68803">
        <ele>1016.25</ele>
        <time>2011-07-06T12:12:16Z</time>
      </trkpt>
      <trkpt lat="43.71639" lon="6.68816">
        <ele>1017.21</ele>
        <time>2011-07-06T12:12:18Z</time>
      </trkpt>
      <trkpt lat="43.71619" lon="6.68881">
        <ele>1016.73</ele>
        <time>2011-07-06T12:12:26Z</time>
      </trkpt>
      <trkpt lat="43.71619" lon="6.68891">
        <ele>1016.25</ele>
        <time>2011-07-06T12:12:27Z</time>
      </trkpt>
      <trkpt lat="43.71621" lon="6.6891">
        <ele>1016.73</ele>
        <time>2011-07-06T12:12:29Z</time>
      </trkpt>
      <trkpt lat="43.7162" lon="6.6892">
        <ele>1016.25</ele>
        <time>2011-07-06T12:12:30Z</time>
      </trkpt>
      <trkpt lat="43.71618" lon="6.68928">
        <ele>1016.73</ele>
        <time>2011-07-06T12:12:31Z</time>
      </trkpt>
      <trkpt lat="43.71613" lon="6.68946">
        <ele>1016.25</ele>
        <time>2011-07-06T12:12:33Z</time>
      </trkpt>
      <trkpt lat="43.71602" lon="6.68989">
        <ele>1015.77</ele>
        <time>2011-07-06T12:12:38Z</time>
      </trkpt>
      <trkpt lat="43.71595" lon="6.69025">
        <ele>1016.73</ele>
        <time>2011-07-06T12:12:42Z</time>
      </trkpt>
      <trkpt lat="43.71591" lon="6.69041">
        <ele>1016.25</ele>
        <time>2011-07-06T12:12:44Z</time>
      </trkpt>
      <trkpt lat="43.7159" lon="6.69049">
        <ele>1016.73</ele>
        <time>2011-07-06T12:12:45Z</time>
      </trkpt>
      <trkpt lat="43.71586" lon="6.69073">
        <ele>1017.21</ele>
        <time>2011-07-06T12:12:48Z</time>
      </trkpt>
      <trkpt lat="43.71577" lon="6.69098">
        <ele>1017.69</ele>
        <time>2011-07-06T12:12:52Z</time>
      </trkpt>
      <trkpt lat="43.71575" lon="6.69105">
        <ele>1017.69</ele>
        <time>2011-07-06T12:12:53Z</time>
      </trkpt>
      <trkpt lat="43.71573" lon="6.69112">
        <ele>1017.69</ele>
        <time>2011-07-06T12:12:54Z</time>
      </trkpt>
      <trkpt lat="43.71572" lon="6.69119">
        <ele>1018.17</ele>
        <time>2011-07-06T12:12:55Z</time>
      </trkpt>
      <trkpt lat="43.7157" lon="6.69126">
        <ele>1017.69</ele>
        <time>2011-07-06T12:12:56Z</time>
      </trkpt>
      <trkpt lat="43.71568" lon="6.69133">
        <ele>1017.69</ele>
        <time>2011-07-06T12:12:57Z</time>
      </trkpt>
      <trkpt lat="43.71565" lon="6.69146">
        <ele>1017.21</ele>
        <time>2011-07-06T12:12:59Z</time>
      </trkpt>
      <trkpt lat="43.71564" lon="6.69152">
        <ele>1017.21</ele>
        <time>2011-07-06T12:13:00Z</time>
      </trkpt>
      <trkpt lat="43.71561" lon="6.69158">
        <ele>1017.21</ele>
        <time>2011-07-06T12:13:01Z</time>
      </trkpt>
      <trkpt lat="43.71547" lon="6.69181">
        <ele>1016.73</ele>
        <time>2011-07-06T12:13:05Z</time>
      </trkpt>
      <trkpt lat="43.71543" lon="6.69184">
        <ele>1017.21</ele>
        <time>2011-07-06T12:13:06Z</time>
      </trkpt>
      <trkpt lat="43.71535" lon="6.69187">
        <ele>1017.69</ele>
        <time>2011-07-06T12:13:08Z</time>
      </trkpt>
      <trkpt lat="43.71523" lon="6.69198">
        <ele>1017.21</ele>
        <time>2011-07-06T12:13:11Z</time>
      </trkpt>
      <trkpt lat="43.71519" lon="6.69203">
        <ele>1017.69</ele>
        <time>2011-07-06T12:13:12Z</time>
      </trkpt>
      <trkpt lat="43.71516" lon="6.69209">
        <ele>1017.69</ele>
        <time>2011-07-06T12:13:13Z</time>
      </trkpt>
      <trkpt lat="43.71506" lon="6.69227">
        <ele>1017.21</ele>
        <time>2011-07-06T12:13:16Z</time>
      </trkpt>
      <trkpt lat="43.71483" lon="6.69268">
        <ele>1016.73</ele>
        <time>2011-07-06T12:13:23Z</time>
      </trkpt>
      <trkpt lat="43.71479" lon="6.69272">
        <ele>1016.73</ele>
        <time>2011-07-06T12:13:24Z</time>
      </trkpt>
      <trkpt lat="43.71461" lon="6.69287">
        <ele>1016.25</ele>
        <time>2011-07-06T12:13:28Z</time>
      </trkpt>
      <trkpt lat="43.71457" lon="6.69291">
        <ele>1015.29</ele>
        <time>2011-07-06T12:13:29Z</time>
      </trkpt>
      <trkpt lat="43.71452" lon="6.69295">
        <ele>1015.29</ele>
        <time>2011-07-06T12:13:30Z</time>
      </trkpt>
      <trkpt lat="43.71447" lon="6.69299">
        <ele>1015.29</ele>
        <time>2011-07-06T12:13:31Z</time>
      </trkpt>
      <trkpt lat="43.71442" lon="6.69303">
        <ele>1014.81</ele>
        <time>2011-07-06T12:13:32Z</time>
      </trkpt>
      <trkpt lat="43.71414" lon="6.69326">
        <ele>1013.37</ele>
        <time>2011-07-06T12:13:41Z</time>
      </trkpt>
      <trkpt lat="43.71414" lon="6.69326">
        <ele>1012.89</ele>
        <time>2011-07-06T12:14:03Z</time>
      </trkpt>
      <trkpt lat="43.71412" lon="6.69327">
        <ele>1012.41</ele>
        <time>2011-07-06T12:14:13Z</time>
      </trkpt>
      <trkpt lat="43.71412" lon="6.69327">
        <ele>1011.93</ele>
        <time>2011-07-06T12:14:15Z</time>
      </trkpt>
      <trkpt lat="43.714" lon="6.69316">
        <ele>1011.93</ele>
        <time>2011-07-06T12:31:11Z</time>
      </trkpt>
      <trkpt lat="43.71363" lon="6.69319">
        <ele>1008.56</ele>
        <time>2011-07-06T12:31:20Z</time>
      </trkpt>
      <trkpt lat="43.71357" lon="6.69319">
        <ele>1008.08</ele>
        <time>2011-07-06T12:31:21Z</time>
      </trkpt>
      <trkpt lat="43.7135" lon="6.69321">
        <ele>1008.08</ele>
        <time>2011-07-06T12:31:22Z</time>
      </trkpt>
      <trkpt lat="43.71344" lon="6.69325">
        <ele>1007.12</ele>
        <time>2011-07-06T12:31:23Z</time>
      </trkpt>
      <trkpt lat="43.7134" lon="6.69328">
        <ele>1007.6</ele>
        <time>2011-07-06T12:31:24Z</time>
      </trkpt>
      <trkpt lat="43.71336" lon="6.69333">
        <ele>1007.12</ele>
        <time>2011-07-06T12:31:25Z</time>
      </trkpt>
      <trkpt lat="43.71333" lon="6.69339">
        <ele>1006.64</ele>
        <time>2011-07-06T12:31:26Z</time>
      </trkpt>
      <trkpt lat="43.71331" lon="6.69345">
        <ele>1007.6</ele>
        <time>2011-07-06T12:31:27Z</time>
      </trkpt>
      <trkpt lat="43.71328" lon="6.69351">
        <ele>1008.08</ele>
        <time>2011-07-06T12:31:28Z</time>
      </trkpt>
      <trkpt lat="43.71325" lon="6.69357">
        <ele>1008.08</ele>
        <time>2011-07-06T12:31:29Z</time>
      </trkpt>
      <trkpt lat="43.71323" lon="6.69362">
        <ele>1008.56</ele>
        <time>2011-07-06T12:31:30Z</time>
      </trkpt>
      <trkpt lat="43.7132" lon="6.69368">
        <ele>1008.56</ele>
        <time>2011-07-06T12:31:31Z</time>
      </trkpt>
      <trkpt lat="43.71318" lon="6.69373">
        <ele>1008.56</ele>
        <time>2011-07-06T12:31:32Z</time>
      </trkpt>
      <trkpt lat="43.71317" lon="6.69378">
        <ele>1008.08</ele>
        <time>2011-07-06T12:31:33Z</time>
      </trkpt>
      <trkpt lat="43.71315" lon="6.69383">
        <ele>1008.08</ele>
        <time>2011-07-06T12:31:34Z</time>
      </trkpt>
      <trkpt lat="43.71313" lon="6.69388">
        <ele>1008.56</ele>
        <time>2011-07-06T12:31:35Z</time>
      </trkpt>
      <trkpt lat="43.713" lon="6.69439">
        <ele>1009.52</ele>
        <time>2011-07-06T12:31:46Z</time>
      </trkpt>
      <trkpt lat="43.71275" lon="6.69475">
        <ele>1010</ele>
        <time>2011-07-06T12:31:58Z</time>
      </trkpt>
      <trkpt lat="43.71272" lon="6.69478">
        <ele>1009.52</ele>
        <time>2011-07-06T12:31:59Z</time>
      </trkpt>
      <trkpt lat="43.71253" lon="6.69509">
        <ele>1009.52</ele>
        <time>2011-07-06T12:32:06Z</time>
      </trkpt>
      <trkpt lat="43.71235" lon="6.69574">
        <ele>1008.08</ele>
        <time>2011-07-06T12:32:16Z</time>
      </trkpt>
      <trkpt lat="43.71232" lon="6.69579">
        <ele>1008.08</ele>
        <time>2011-07-06T12:32:17Z</time>
      </trkpt>
      <trkpt lat="43.71227" lon="6.69582">
        <ele>1007.6</ele>
        <time>2011-07-06T12:32:18Z</time>
      </trkpt>
      <trkpt lat="43.71221" lon="6.69583">
        <ele>1008.08</ele>
        <time>2011-07-06T12:32:19Z</time>
      </trkpt>
      <trkpt lat="43.71215" lon="6.69581">
        <ele>1008.08</ele>
        <time>2011-07-06T12:32:20Z</time>
      </trkpt>
      <trkpt lat="43.7121" lon="6.69579">
        <ele>1008.08</ele>
        <time>2011-07-06T12:32:21Z</time>
      </trkpt>
      <trkpt lat="43.71204" lon="6.69578">
        <ele>1007.6</ele>
        <time>2011-07-06T12:32:22Z</time>
      </trkpt>
      <trkpt lat="43.71198" lon="6.69577">
        <ele>1007.6</ele>
        <time>2011-07-06T12:32:23Z</time>
      </trkpt>
      <trkpt lat="43.71186" lon="6.69575">
        <ele>1007.12</ele>
        <time>2011-07-06T12:32:25Z</time>
      </trkpt>
      <trkpt lat="43.7118" lon="6.69575">
        <ele>1006.64</ele>
        <time>2011-07-06T12:32:26Z</time>
      </trkpt>
      <trkpt lat="43.71099" lon="6.69575">
        <ele>1004.72</ele>
        <time>2011-07-06T12:32:39Z</time>
      </trkpt>
      <trkpt lat="43.71093" lon="6.69571">
        <ele>1004.72</ele>
        <time>2011-07-06T12:32:40Z</time>
      </trkpt>
      <trkpt lat="43.71037" lon="6.69541">
        <ele>1003.27</ele>
        <time>2011-07-06T12:32:50Z</time>
      </trkpt>
      <trkpt lat="43.71032" lon="6.6954">
        <ele>1002.79</ele>
        <time>2011-07-06T12:32:51Z</time>
      </trkpt>
      <trkpt lat="43.71027" lon="6.6954">
        <ele>1003.27</ele>
        <time>2011-07-06T12:32:52Z</time>
      </trkpt>
      <trkpt lat="43.71021" lon="6.6954">
        <ele>1002.79</ele>
        <time>2011-07-06T12:32:53Z</time>
      </trkpt>
      <trkpt lat="43.71017" lon="6.69541">
        <ele>1002.79</ele>
        <time>2011-07-06T12:32:54Z</time>
      </trkpt>
      <trkpt lat="43.71014" lon="6.69542">
        <ele>1002.31</ele>
        <time>2011-07-06T12:32:55Z</time>
      </trkpt>
      <trkpt lat="43.71011" lon="6.69545">
        <ele>1002.31</ele>
        <time>2011-07-06T12:32:56Z</time>
      </trkpt>
      <trkpt lat="43.71009" lon="6.6955">
        <ele>1001.83</ele>
        <time>2011-07-06T12:32:57Z</time>
      </trkpt>
      <trkpt lat="43.71009" lon="6.69555">
        <ele>1001.83</ele>
        <time>2011-07-06T12:32:58Z</time>
      </trkpt>
      <trkpt lat="43.7101" lon="6.69561">
        <ele>1001.83</ele>
        <time>2011-07-06T12:32:59Z</time>
      </trkpt>
      <trkpt lat="43.7101" lon="6.69565">
        <ele>1001.83</ele>
        <time>2011-07-06T12:33:00Z</time>
      </trkpt>
      <trkpt lat="43.7101" lon="6.6957">
        <ele>1001.35</ele>
        <time>2011-07-06T12:33:01Z</time>
      </trkpt>
      <trkpt lat="43.71009" lon="6.69574">
        <ele>1001.35</ele>
        <time>2011-07-06T12:33:02Z</time>
      </trkpt>
      <trkpt lat="43.70985" lon="6.696">
        <ele>1000.87</ele>
        <time>2011-07-06T12:33:12Z</time>
      </trkpt>
      <trkpt lat="43.70971" lon="6.69632">
        <ele>1000.87</ele>
        <time>2011-07-06T12:33:21Z</time>
      </trkpt>
      <trkpt lat="43.70959" lon="6.69663">
        <ele>999.91</ele>
        <time>2011-07-06T12:33:36Z</time>
      </trkpt>
      <trkpt lat="43.70959" lon="6.69663">
        <ele>999.91</ele>
        <time>2011-07-06T12:33:59Z</time>
      </trkpt>
      <trkpt lat="43.70956" lon="6.69692">
        <ele>999.43</ele>
        <time>2011-07-06T12:34:08Z</time>
      </trkpt>
      <trkpt lat="43.70951" lon="6.69729">
        <ele>999.43</ele>
        <time>2011-07-06T12:34:13Z</time>
      </trkpt>
      <trkpt lat="43.7095" lon="6.69736">
        <ele>999.91</ele>
        <time>2011-07-06T12:34:14Z</time>
      </trkpt>
      <trkpt lat="43.7095" lon="6.69744">
        <ele>998.95</ele>
        <time>2011-07-06T12:34:15Z</time>
      </trkpt>
      <trkpt lat="43.70949" lon="6.69759">
        <ele>999.43</ele>
        <time>2011-07-06T12:34:17Z</time>
      </trkpt>
      <trkpt lat="43.70948" lon="6.69767">
        <ele>999.43</ele>
        <time>2011-07-06T12:34:18Z</time>
      </trkpt>
      <trkpt lat="43.70947" lon="6.69781">
        <ele>998.95</ele>
        <time>2011-07-06T12:34:20Z</time>
      </trkpt>
      <trkpt lat="43.70945" lon="6.69793">
        <ele>999.43</ele>
        <time>2011-07-06T12:34:22Z</time>
      </trkpt>
      <trkpt lat="43.70944" lon="6.69798">
        <ele>999.43</ele>
        <time>2011-07-06T12:34:23Z</time>
      </trkpt>
      <trkpt lat="43.70943" lon="6.69802">
        <ele>999.43</ele>
        <time>2011-07-06T12:34:24Z</time>
      </trkpt>
      <trkpt lat="43.70942" lon="6.69806">
        <ele>999.43</ele>
        <time>2011-07-06T12:34:25Z</time>
      </trkpt>
      <trkpt lat="43.70942" lon="6.69809">
        <ele>999.43</ele>
        <time>2011-07-06T12:34:26Z</time>
      </trkpt>
      <trkpt lat="43.70942" lon="6.69812">
        <ele>999.43</ele>
        <time>2011-07-06T12:34:27Z</time>
      </trkpt>
      <trkpt lat="43.70942" lon="6.69814">
        <ele>999.43</ele>
        <time>2011-07-06T12:34:28Z</time>
      </trkpt>
      <trkpt lat="43.70942" lon="6.69816">
        <ele>999.43</ele>
        <time>2011-07-06T12:34:29Z</time>
      </trkpt>
      <trkpt lat="43.70942" lon="6.69819">
        <ele>999.91</ele>
        <time>2011-07-06T12:34:30Z</time>
      </trkpt>
      <trkpt lat="43.70943" lon="6.69822">
        <ele>999.43</ele>
        <time>2011-07-06T12:34:31Z</time>
      </trkpt>
      <trkpt lat="43.70943" lon="6.69826">
        <ele>999.91</ele>
        <time>2011-07-06T12:34:32Z</time>
      </trkpt>
      <trkpt lat="43.70944" lon="6.69829">
        <ele>999.91</ele>
        <time>2011-07-06T12:34:33Z</time>
      </trkpt>
      <trkpt lat="43.7095" lon="6.6986">
        <ele>1000.39</ele>
        <time>2011-07-06T12:34:43Z</time>
      </trkpt>
      <trkpt lat="43.70952" lon="6.69876">
        <ele>1000.87</ele>
        <time>2011-07-06T12:34:48Z</time>
      </trkpt>
      <trkpt lat="43.70952" lon="6.6988">
        <ele>1000.87</ele>
        <time>2011-07-06T12:34:49Z</time>
      </trkpt>
      <trkpt lat="43.70953" lon="6.69883">
        <ele>1001.83</ele>
        <time>2011-07-06T12:34:50Z</time>
      </trkpt>
      <trkpt lat="43.70953" lon="6.69886">
        <ele>1000.87</ele>
        <time>2011-07-06T12:34:51Z</time>
      </trkpt>
      <trkpt lat="43.70954" lon="6.6989">
        <ele>1001.35</ele>
        <time>2011-07-06T12:34:52Z</time>
      </trkpt>
      <trkpt lat="43.70955" lon="6.69893">
        <ele>1001.35</ele>
        <time>2011-07-06T12:34:53Z</time>
      </trkpt>
      <trkpt lat="43.70959" lon="6.69921">
        <ele>1001.83</ele>
        <time>2011-07-06T12:35:01Z</time>
      </trkpt>
      <trkpt lat="43.70959" lon="6.69924">
        <ele>1001.83</ele>
        <time>2011-07-06T12:35:02Z</time>
      </trkpt>
      <trkpt lat="43.70958" lon="6.69927">
        <ele>1001.83</ele>
        <time>2011-07-06T12:35:03Z</time>
      </trkpt>
      <trkpt lat="43.70958" lon="6.6993">
        <ele>1001.83</ele>
        <time>2011-07-06T12:35:04Z</time>
      </trkpt>
      <trkpt lat="43.70957" lon="6.69934">
        <ele>1001.83</ele>
        <time>2011-07-06T12:35:05Z</time>
      </trkpt>
      <trkpt lat="43.70956" lon="6.69937">
        <ele>1001.35</ele>
        <time>2011-07-06T12:35:06Z</time>
      </trkpt>
      <trkpt lat="43.70956" lon="6.69941">
        <ele>1001.83</ele>
        <time>2011-07-06T12:35:07Z</time>
      </trkpt>
      <trkpt lat="43.70959" lon="6.6997">
        <ele>1001.35</ele>
        <time>2011-07-06T12:35:15Z</time>
      </trkpt>
      <trkpt lat="43.70988" lon="6.70008">
        <ele>999.43</ele>
        <time>2011-07-06T12:35:26Z</time>
      </trkpt>
      <trkpt lat="43.71" lon="6.70038">
        <ele>996.06</ele>
        <time>2011-07-06T12:35:34Z</time>
      </trkpt>
      <trkpt lat="43.71001" lon="6.70045">
        <ele>996.06</ele>
        <time>2011-07-06T12:35:35Z</time>
      </trkpt>
      <trkpt lat="43.71003" lon="6.70051">
        <ele>995.58</ele>
        <time>2011-07-06T12:35:36Z</time>
      </trkpt>
      <trkpt lat="43.71007" lon="6.70063">
        <ele>994.62</ele>
        <time>2011-07-06T12:35:38Z</time>
      </trkpt>
      <trkpt lat="43.71008" lon="6.70068">
        <ele>994.14</ele>
        <time>2011-07-06T12:35:39Z</time>
      </trkpt>
      <trkpt lat="43.71009" lon="6.70074">
        <ele>994.14</ele>
        <time>2011-07-06T12:35:40Z</time>
      </trkpt>
      <trkpt lat="43.71011" lon="6.70099">
        <ele>990.78</ele>
        <time>2011-07-06T12:35:44Z</time>
      </trkpt>
      <trkpt lat="43.71012" lon="6.70115">
        <ele>988.37</ele>
        <time>2011-07-06T12:35:47Z</time>
      </trkpt>
      <trkpt lat="43.71013" lon="6.70121">
        <ele>987.41</ele>
        <time>2011-07-06T12:35:48Z</time>
      </trkpt>
      <trkpt lat="43.71015" lon="6.70127">
        <ele>986.45</ele>
        <time>2011-07-06T12:35:49Z</time>
      </trkpt>
      <trkpt lat="43.71017" lon="6.70131">
        <ele>986.45</ele>
        <time>2011-07-06T12:35:50Z</time>
      </trkpt>
      <trkpt lat="43.71019" lon="6.70135">
        <ele>985.97</ele>
        <time>2011-07-06T12:35:51Z</time>
      </trkpt>
      <trkpt lat="43.71019" lon="6.70138">
        <ele>985.97</ele>
        <time>2011-07-06T12:35:52Z</time>
      </trkpt>
      <trkpt lat="43.71019" lon="6.70142">
        <ele>985.01</ele>
        <time>2011-07-06T12:35:53Z</time>
      </trkpt>
      <trkpt lat="43.7102" lon="6.70146">
        <ele>984.53</ele>
        <time>2011-07-06T12:35:54Z</time>
      </trkpt>
      <trkpt lat="43.71021" lon="6.70151">
        <ele>984.53</ele>
        <time>2011-07-06T12:35:55Z</time>
      </trkpt>
      <trkpt lat="43.71026" lon="6.70162">
        <ele>982.6</ele>
        <time>2011-07-06T12:35:57Z</time>
      </trkpt>
      <trkpt lat="43.71029" lon="6.70167">
        <ele>982.12</ele>
        <time>2011-07-06T12:35:58Z</time>
      </trkpt>
      <trkpt lat="43.71036" lon="6.70178">
        <ele>980.68</ele>
        <time>2011-07-06T12:36:00Z</time>
      </trkpt>
      <trkpt lat="43.71047" lon="6.70192">
        <ele>978.28</ele>
        <time>2011-07-06T12:36:03Z</time>
      </trkpt>
      <trkpt lat="43.7107" lon="6.70211">
        <ele>974.91</ele>
        <time>2011-07-06T12:36:08Z</time>
      </trkpt>
      <trkpt lat="43.71085" lon="6.70224">
        <ele>971.55</ele>
        <time>2011-07-06T12:36:11Z</time>
      </trkpt>
      <trkpt lat="43.71089" lon="6.70228">
        <ele>970.59</ele>
        <time>2011-07-06T12:36:12Z</time>
      </trkpt>
      <trkpt lat="43.71093" lon="6.70233">
        <ele>969.63</ele>
        <time>2011-07-06T12:36:13Z</time>
      </trkpt>
      <trkpt lat="43.711" lon="6.70242">
        <ele>968.18</ele>
        <time>2011-07-06T12:36:15Z</time>
      </trkpt>
      <trkpt lat="43.71105" lon="6.70246">
        <ele>967.7</ele>
        <time>2011-07-06T12:36:16Z</time>
      </trkpt>
      <trkpt lat="43.71124" lon="6.70261">
        <ele>964.34</ele>
        <time>2011-07-06T12:36:20Z</time>
      </trkpt>
      <trkpt lat="43.71129" lon="6.70263">
        <ele>964.34</ele>
        <time>2011-07-06T12:36:21Z</time>
      </trkpt>
      <trkpt lat="43.71159" lon="6.70277">
        <ele>960.49</ele>
        <time>2011-07-06T12:36:28Z</time>
      </trkpt>
      <trkpt lat="43.71167" lon="6.70282">
        <ele>959.53</ele>
        <time>2011-07-06T12:36:30Z</time>
      </trkpt>
      <trkpt lat="43.71186" lon="6.70291">
        <ele>956.17</ele>
        <time>2011-07-06T12:36:35Z</time>
      </trkpt>
      <trkpt lat="43.71207" lon="6.70297">
        <ele>952.8</ele>
        <time>2011-07-06T12:36:42Z</time>
      </trkpt>
      <trkpt lat="43.71229" lon="6.70304">
        <ele>949.44</ele>
        <time>2011-07-06T12:36:47Z</time>
      </trkpt>
      <trkpt lat="43.71234" lon="6.70304">
        <ele>949.44</ele>
        <time>2011-07-06T12:36:48Z</time>
      </trkpt>
      <trkpt lat="43.71238" lon="6.70304">
        <ele>948.48</ele>
        <time>2011-07-06T12:36:49Z</time>
      </trkpt>
      <trkpt lat="43.71242" lon="6.70305">
        <ele>948</ele>
        <time>2011-07-06T12:36:50Z</time>
      </trkpt>
      <trkpt lat="43.71246" lon="6.70306">
        <ele>947.04</ele>
        <time>2011-07-06T12:36:51Z</time>
      </trkpt>
      <trkpt lat="43.71264" lon="6.70311">
        <ele>944.15</ele>
        <time>2011-07-06T12:36:55Z</time>
      </trkpt>
      <trkpt lat="43.71275" lon="6.70312">
        <ele>942.71</ele>
        <time>2011-07-06T12:36:57Z</time>
      </trkpt>
      <trkpt lat="43.71281" lon="6.70311">
        <ele>942.23</ele>
        <time>2011-07-06T12:36:58Z</time>
      </trkpt>
      <trkpt lat="43.71315" lon="6.70304">
        <ele>938.86</ele>
        <time>2011-07-06T12:37:04Z</time>
      </trkpt>
      <trkpt lat="43.71327" lon="6.70299">
        <ele>937.9</ele>
        <time>2011-07-06T12:37:06Z</time>
      </trkpt>
      <trkpt lat="43.71345" lon="6.70292">
        <ele>935.5</ele>
        <time>2011-07-06T12:37:11Z</time>
      </trkpt>
      <trkpt lat="43.71346" lon="6.70292">
        <ele>935.02</ele>
        <time>2011-07-06T12:37:12Z</time>
      </trkpt>
      <trkpt lat="43.71347" lon="6.70293">
        <ele>935.02</ele>
        <time>2011-07-06T12:37:13Z</time>
      </trkpt>
      <trkpt lat="43.71347" lon="6.70294">
        <ele>934.54</ele>
        <time>2011-07-06T12:37:14Z</time>
      </trkpt>
      <trkpt lat="43.71346" lon="6.70296">
        <ele>934.06</ele>
        <time>2011-07-06T12:37:15Z</time>
      </trkpt>
      <trkpt lat="43.71344" lon="6.70298">
        <ele>934.06</ele>
        <time>2011-07-06T12:37:16Z</time>
      </trkpt>
      <trkpt lat="43.71336" lon="6.7031">
        <ele>931.65</ele>
        <time>2011-07-06T12:37:20Z</time>
      </trkpt>
      <trkpt lat="43.71325" lon="6.70322">
        <ele>930.21</ele>
        <time>2011-07-06T12:37:24Z</time>
      </trkpt>
      <trkpt lat="43.71296" lon="6.70341">
        <ele>927.33</ele>
        <time>2011-07-06T12:37:34Z</time>
      </trkpt>
      <trkpt lat="43.71296" lon="6.70345">
        <ele>926.37</ele>
        <time>2011-07-06T12:37:38Z</time>
      </trkpt>
      <trkpt lat="43.71298" lon="6.70345">
        <ele>926.37</ele>
        <time>2011-07-06T12:37:39Z</time>
      </trkpt>
      <trkpt lat="43.71299" lon="6.70345">
        <ele>925.89</ele>
        <time>2011-07-06T12:37:40Z</time>
      </trkpt>
      <trkpt lat="43.71302" lon="6.70344">
        <ele>925.41</ele>
        <time>2011-07-06T12:37:41Z</time>
      </trkpt>
      <trkpt lat="43.71304" lon="6.70345">
        <ele>925.41</ele>
        <time>2011-07-06T12:37:42Z</time>
      </trkpt>
      <trkpt lat="43.71305" lon="6.70346">
        <ele>924.93</ele>
        <time>2011-07-06T12:37:43Z</time>
      </trkpt>
      <trkpt lat="43.71309" lon="6.70349">
        <ele>923.96</ele>
        <time>2011-07-06T12:37:45Z</time>
      </trkpt>
      <trkpt lat="43.71312" lon="6.70349">
        <ele>923.48</ele>
        <time>2011-07-06T12:37:46Z</time>
      </trkpt>
      <trkpt lat="43.71314" lon="6.70348">
        <ele>923.48</ele>
        <time>2011-07-06T12:37:47Z</time>
      </trkpt>
      <trkpt lat="43.71326" lon="6.70343">
        <ele>920.12</ele>
        <time>2011-07-06T12:37:53Z</time>
      </trkpt>
      <trkpt lat="43.71329" lon="6.70345">
        <ele>919.64</ele>
        <time>2011-07-06T12:37:56Z</time>
      </trkpt>
      <trkpt lat="43.7133" lon="6.70345">
        <ele>919.16</ele>
        <time>2011-07-06T12:37:57Z</time>
      </trkpt>
      <trkpt lat="43.71329" lon="6.70346">
        <ele>919.16</ele>
        <time>2011-07-06T12:37:58Z</time>
      </trkpt>
      <trkpt lat="43.71328" lon="6.70347">
        <ele>918.68</ele>
        <time>2011-07-06T12:37:59Z</time>
      </trkpt>
      <trkpt lat="43.71326" lon="6.70349">
        <ele>918.2</ele>
        <time>2011-07-06T12:38:00Z</time>
      </trkpt>
      <trkpt lat="43.71325" lon="6.70351">
        <ele>917.24</ele>
        <time>2011-07-06T12:38:01Z</time>
      </trkpt>
      <trkpt lat="43.71323" lon="6.70357">
        <ele>916.27</ele>
        <time>2011-07-06T12:38:03Z</time>
      </trkpt>
      <trkpt lat="43.71322" lon="6.70359">
        <ele>914.83</ele>
        <time>2011-07-06T12:38:04Z</time>
      </trkpt>
      <trkpt lat="43.71322" lon="6.70361">
        <ele>914.35</ele>
        <time>2011-07-06T12:38:05Z</time>
      </trkpt>
      <trkpt lat="43.7132" lon="6.70363">
        <ele>913.87</ele>
        <time>2011-07-06T12:38:06Z</time>
      </trkpt>
      <trkpt lat="43.7132" lon="6.70366">
        <ele>913.39</ele>
        <time>2011-07-06T12:38:07Z</time>
      </trkpt>
      <trkpt lat="43.71318" lon="6.70369">
        <ele>911.95</ele>
        <time>2011-07-06T12:38:08Z</time>
      </trkpt>
      <trkpt lat="43.71315" lon="6.70372">
        <ele>911.95</ele>
        <time>2011-07-06T12:38:09Z</time>
      </trkpt>
      <trkpt lat="43.71314" lon="6.70375">
        <ele>910.99</ele>
        <time>2011-07-06T12:38:10Z</time>
      </trkpt>
      <trkpt lat="43.71312" lon="6.70377">
        <ele>909.54</ele>
        <time>2011-07-06T12:38:11Z</time>
      </trkpt>
      <trkpt lat="43.71311" lon="6.7038">
        <ele>909.54</ele>
        <time>2011-07-06T12:38:12Z</time>
      </trkpt>
      <trkpt lat="43.71304" lon="6.70391">
        <ele>905.7</ele>
        <time>2011-07-06T12:38:17Z</time>
      </trkpt>
      <trkpt lat="43.71293" lon="6.70401">
        <ele>901.85</ele>
        <time>2011-07-06T12:38:22Z</time>
      </trkpt>
      <trkpt lat="43.71275" lon="6.70402">
        <ele>898.01</ele>
        <time>2011-07-06T12:38:29Z</time>
      </trkpt>
      <trkpt lat="43.71264" lon="6.70411">
        <ele>895.12</ele>
        <time>2011-07-06T12:38:34Z</time>
      </trkpt>
      <trkpt lat="43.71258" lon="6.70416">
        <ele>893.68</ele>
        <time>2011-07-06T12:38:36Z</time>
      </trkpt>
      <trkpt lat="43.71248" lon="6.70427">
        <ele>891.76</ele>
        <time>2011-07-06T12:38:40Z</time>
      </trkpt>
      <trkpt lat="43.71244" lon="6.70432">
        <ele>890.32</ele>
        <time>2011-07-06T12:38:42Z</time>
      </trkpt>
      <trkpt lat="43.71232" lon="6.70448">
        <ele>886.95</ele>
        <time>2011-07-06T12:38:46Z</time>
      </trkpt>
      <trkpt lat="43.71228" lon="6.70451">
        <ele>886.95</ele>
        <time>2011-07-06T12:38:47Z</time>
      </trkpt>
      <trkpt lat="43.71215" lon="6.70463">
        <ele>884.07</ele>
        <time>2011-07-06T12:38:52Z</time>
      </trkpt>
      <trkpt lat="43.712" lon="6.70472">
        <ele>880.71</ele>
        <time>2011-07-06T12:39:00Z</time>
      </trkpt>
      <trkpt lat="43.71187" lon="6.70477">
        <ele>877.34</ele>
        <time>2011-07-06T12:39:05Z</time>
      </trkpt>
      <trkpt lat="43.71175" lon="6.70476">
        <ele>874.46</ele>
        <time>2011-07-06T12:39:10Z</time>
      </trkpt>
      <trkpt lat="43.7117" lon="6.70485">
        <ele>872.53</ele>
        <time>2011-07-06T12:39:16Z</time>
      </trkpt>
      <trkpt lat="43.71159" lon="6.70481">
        <ele>869.17</ele>
        <time>2011-07-06T12:39:24Z</time>
      </trkpt>
      <trkpt lat="43.71143" lon="6.70485">
        <ele>865.8</ele>
        <time>2011-07-06T12:39:30Z</time>
      </trkpt>
      <trkpt lat="43.71132" lon="6.70485">
        <ele>863.4</ele>
        <time>2011-07-06T12:39:35Z</time>
      </trkpt>
      <trkpt lat="43.7112" lon="6.70494">
        <ele>860.04</ele>
        <time>2011-07-06T12:39:41Z</time>
      </trkpt>
      <trkpt lat="43.71132" lon="6.70519">
        <ele>856.67</ele>
        <time>2011-07-06T12:39:49Z</time>
      </trkpt>
      <trkpt lat="43.71138" lon="6.70537">
        <ele>855.71</ele>
        <time>2011-07-06T12:39:59Z</time>
      </trkpt>
      <trkpt lat="43.71138" lon="6.70537">
        <ele>856.19</ele>
        <time>2011-07-06T12:40:25Z</time>
      </trkpt>
      <trkpt lat="43.71138" lon="6.70538">
        <ele>855.71</ele>
        <time>2011-07-06T12:40:53Z</time>
      </trkpt>
      <trkpt lat="43.71137" lon="6.70537">
        <ele>856.19</ele>
        <time>2011-07-06T12:41:20Z</time>
      </trkpt>
      <trkpt lat="43.71111" lon="6.70531">
        <ele>851.38</ele>
        <time>2011-07-06T12:41:26Z</time>
      </trkpt>
      <trkpt lat="43.71087" lon="6.70527">
        <ele>849.46</ele>
        <time>2011-07-06T12:41:29Z</time>
      </trkpt>
      <trkpt lat="43.71069" lon="6.70522">
        <ele>848.02</ele>
        <time>2011-07-06T12:41:31Z</time>
      </trkpt>
      <trkpt lat="43.71062" lon="6.70523">
        <ele>847.54</ele>
        <time>2011-07-06T12:41:32Z</time>
      </trkpt>
      <trkpt lat="43.71056" lon="6.70523">
        <ele>847.06</ele>
        <time>2011-07-06T12:41:33Z</time>
      </trkpt>
      <trkpt lat="43.71051" lon="6.70526">
        <ele>846.58</ele>
        <time>2011-07-06T12:41:34Z</time>
      </trkpt>
      <trkpt lat="43.71047" lon="6.70529">
        <ele>847.06</ele>
        <time>2011-07-06T12:41:35Z</time>
      </trkpt>
      <trkpt lat="43.71021" lon="6.70528">
        <ele>848.02</ele>
        <time>2011-07-06T12:41:42Z</time>
      </trkpt>
      <trkpt lat="43.7095" lon="6.70542">
        <ele>845.62</ele>
        <time>2011-07-06T12:41:55Z</time>
      </trkpt>
      <trkpt lat="43.7092" lon="6.70551">
        <ele>846.1</ele>
        <time>2011-07-06T12:42:01Z</time>
      </trkpt>
      <trkpt lat="43.70855" lon="6.70603">
        <ele>846.58</ele>
        <time>2011-07-06T12:42:16Z</time>
      </trkpt>
      <trkpt lat="43.70796" lon="6.70643">
        <ele>847.06</ele>
        <time>2011-07-06T12:42:29Z</time>
      </trkpt>
      <trkpt lat="43.70776" lon="6.70652">
        <ele>847.06</ele>
        <time>2011-07-06T12:42:33Z</time>
      </trkpt>
      <trkpt lat="43.70689" lon="6.70676">
        <ele>848.02</ele>
        <time>2011-07-06T12:42:50Z</time>
      </trkpt>
      <trkpt lat="43.70673" lon="6.70682">
        <ele>847.54</ele>
        <time>2011-07-06T12:42:53Z</time>
      </trkpt>
      <trkpt lat="43.70667" lon="6.70682">
        <ele>847.54</ele>
        <time>2011-07-06T12:42:54Z</time>
      </trkpt>
      <trkpt lat="43.70661" lon="6.70681">
        <ele>847.54</ele>
        <time>2011-07-06T12:42:55Z</time>
      </trkpt>
      <trkpt lat="43.70655" lon="6.7068">
        <ele>848.02</ele>
        <time>2011-07-06T12:42:56Z</time>
      </trkpt>
      <trkpt lat="43.7065" lon="6.70678">
        <ele>848.02</ele>
        <time>2011-07-06T12:42:57Z</time>
      </trkpt>
      <trkpt lat="43.70554" lon="6.70638">
        <ele>849.46</ele>
        <time>2011-07-06T12:43:16Z</time>
      </trkpt>
      <trkpt lat="43.70546" lon="6.70633">
        <ele>849.94</ele>
        <time>2011-07-06T12:43:18Z</time>
      </trkpt>
      <trkpt lat="43.70534" lon="6.70623">
        <ele>850.9</ele>
        <time>2011-07-06T12:43:21Z</time>
      </trkpt>
      <trkpt lat="43.70518" lon="6.70607">
        <ele>850.42</ele>
        <time>2011-07-06T12:43:25Z</time>
      </trkpt>
      <trkpt lat="43.70454" lon="6.70551">
        <ele>849.46</ele>
        <time>2011-07-06T12:43:39Z</time>
      </trkpt>
      <trkpt lat="43.70407" lon="6.70504">
        <ele>848.98</ele>
        <time>2011-07-06T12:43:47Z</time>
      </trkpt>
      <trkpt lat="43.70403" lon="6.70496">
        <ele>849.46</ele>
        <time>2011-07-06T12:43:48Z</time>
      </trkpt>
      <trkpt lat="43.70399" lon="6.70488">
        <ele>848.98</ele>
        <time>2011-07-06T12:43:49Z</time>
      </trkpt>
      <trkpt lat="43.70393" lon="6.70471">
        <ele>849.46</ele>
        <time>2011-07-06T12:43:51Z</time>
      </trkpt>
      <trkpt lat="43.70392" lon="6.70462">
        <ele>849.46</ele>
        <time>2011-07-06T12:43:52Z</time>
      </trkpt>
      <trkpt lat="43.7039" lon="6.70454">
        <ele>849.46</ele>
        <time>2011-07-06T12:43:53Z</time>
      </trkpt>
      <trkpt lat="43.70387" lon="6.70438">
        <ele>849.94</ele>
        <time>2011-07-06T12:43:55Z</time>
      </trkpt>
      <trkpt lat="43.70384" lon="6.70431">
        <ele>849.94</ele>
        <time>2011-07-06T12:43:56Z</time>
      </trkpt>
      <trkpt lat="43.7038" lon="6.70425">
        <ele>849.94</ele>
        <time>2011-07-06T12:43:57Z</time>
      </trkpt>
      <trkpt lat="43.70375" lon="6.7042">
        <ele>849.94</ele>
        <time>2011-07-06T12:43:58Z</time>
      </trkpt>
      <trkpt lat="43.7037" lon="6.70416">
        <ele>850.42</ele>
        <time>2011-07-06T12:43:59Z</time>
      </trkpt>
      <trkpt lat="43.70365" lon="6.70413">
        <ele>849.94</ele>
        <time>2011-07-06T12:44:00Z</time>
      </trkpt>
      <trkpt lat="43.70359" lon="6.70411">
        <ele>849.94</ele>
        <time>2011-07-06T12:44:01Z</time>
      </trkpt>
      <trkpt lat="43.70353" lon="6.70409">
        <ele>849.94</ele>
        <time>2011-07-06T12:44:02Z</time>
      </trkpt>
      <trkpt lat="43.70313" lon="6.70401">
        <ele>849.94</ele>
        <time>2011-07-06T12:44:08Z</time>
      </trkpt>
      <trkpt lat="43.70306" lon="6.70398">
        <ele>849.46</ele>
        <time>2011-07-06T12:44:09Z</time>
      </trkpt>
      <trkpt lat="43.70299" lon="6.70394">
        <ele>848.98</ele>
        <time>2011-07-06T12:44:10Z</time>
      </trkpt>
      <trkpt lat="43.70292" lon="6.7039">
        <ele>848.5</ele>
        <time>2011-07-06T12:44:11Z</time>
      </trkpt>
      <trkpt lat="43.70285" lon="6.70385">
        <ele>848.5</ele>
        <time>2011-07-06T12:44:12Z</time>
      </trkpt>
      <trkpt lat="43.70252" lon="6.70354">
        <ele>847.54</ele>
        <time>2011-07-06T12:44:17Z</time>
      </trkpt>
      <trkpt lat="43.70168" lon="6.70265">
        <ele>847.06</ele>
        <time>2011-07-06T12:44:30Z</time>
      </trkpt>
      <trkpt lat="43.70161" lon="6.70261">
        <ele>847.54</ele>
        <time>2011-07-06T12:44:31Z</time>
      </trkpt>
      <trkpt lat="43.70154" lon="6.70258">
        <ele>847.06</ele>
        <time>2011-07-06T12:44:32Z</time>
      </trkpt>
      <trkpt lat="43.70147" lon="6.70257">
        <ele>847.54</ele>
        <time>2011-07-06T12:44:33Z</time>
      </trkpt>
      <trkpt lat="43.70141" lon="6.70257">
        <ele>848.02</ele>
        <time>2011-07-06T12:44:34Z</time>
      </trkpt>
      <trkpt lat="43.70135" lon="6.70257">
        <ele>848.02</ele>
        <time>2011-07-06T12:44:35Z</time>
      </trkpt>
      <trkpt lat="43.70129" lon="6.70259">
        <ele>848.5</ele>
        <time>2011-07-06T12:44:36Z</time>
      </trkpt>
      <trkpt lat="43.70123" lon="6.7026">
        <ele>849.46</ele>
        <time>2011-07-06T12:44:37Z</time>
      </trkpt>
      <trkpt lat="43.70117" lon="6.70262">
        <ele>848.98</ele>
        <time>2011-07-06T12:44:38Z</time>
      </trkpt>
      <trkpt lat="43.70112" lon="6.70265">
        <ele>849.46</ele>
        <time>2011-07-06T12:44:39Z</time>
      </trkpt>
      <trkpt lat="43.70107" lon="6.70268">
        <ele>849.46</ele>
        <time>2011-07-06T12:44:40Z</time>
      </trkpt>
      <trkpt lat="43.70069" lon="6.70289">
        <ele>849.94</ele>
        <time>2011-07-06T12:44:47Z</time>
      </trkpt>
      <trkpt lat="43.70064" lon="6.70293">
        <ele>850.42</ele>
        <time>2011-07-06T12:44:48Z</time>
      </trkpt>
      <trkpt lat="43.70005" lon="6.70344">
        <ele>851.87</ele>
        <time>2011-07-06T12:45:00Z</time>
      </trkpt>
      <trkpt lat="43.69987" lon="6.70351">
        <ele>852.83</ele>
        <time>2011-07-06T12:45:04Z</time>
      </trkpt>
      <trkpt lat="43.69982" lon="6.70351">
        <ele>852.83</ele>
        <time>2011-07-06T12:45:05Z</time>
      </trkpt>
      <trkpt lat="43.69944" lon="6.70346">
        <ele>853.79</ele>
        <time>2011-07-06T12:45:13Z</time>
      </trkpt>
      <trkpt lat="43.69939" lon="6.70347">
        <ele>854.27</ele>
        <time>2011-07-06T12:45:14Z</time>
      </trkpt>
      <trkpt lat="43.69935" lon="6.70348">
        <ele>854.75</ele>
        <time>2011-07-06T12:45:15Z</time>
      </trkpt>
      <trkpt lat="43.6993" lon="6.70351">
        <ele>854.75</ele>
        <time>2011-07-06T12:45:16Z</time>
      </trkpt>
      <trkpt lat="43.69926" lon="6.70355">
        <ele>854.75</ele>
        <time>2011-07-06T12:45:17Z</time>
      </trkpt>
      <trkpt lat="43.69922" lon="6.7036">
        <ele>854.75</ele>
        <time>2011-07-06T12:45:18Z</time>
      </trkpt>
      <trkpt lat="43.69919" lon="6.70366">
        <ele>854.75</ele>
        <time>2011-07-06T12:45:19Z</time>
      </trkpt>
      <trkpt lat="43.69916" lon="6.70373">
        <ele>854.75</ele>
        <time>2011-07-06T12:45:20Z</time>
      </trkpt>
      <trkpt lat="43.69881" lon="6.70474">
        <ele>854.27</ele>
        <time>2011-07-06T12:45:34Z</time>
      </trkpt>
      <trkpt lat="43.69869" lon="6.70562">
        <ele>854.27</ele>
        <time>2011-07-06T12:45:45Z</time>
      </trkpt>
      <trkpt lat="43.69866" lon="6.7057">
        <ele>854.27</ele>
        <time>2011-07-06T12:45:46Z</time>
      </trkpt>
      <trkpt lat="43.69862" lon="6.70576">
        <ele>854.27</ele>
        <time>2011-07-06T12:45:47Z</time>
      </trkpt>
      <trkpt lat="43.69858" lon="6.70582">
        <ele>854.27</ele>
        <time>2011-07-06T12:45:48Z</time>
      </trkpt>
      <trkpt lat="43.69853" lon="6.70586">
        <ele>853.79</ele>
        <time>2011-07-06T12:45:49Z</time>
      </trkpt>
      <trkpt lat="43.69847" lon="6.7059">
        <ele>854.27</ele>
        <time>2011-07-06T12:45:50Z</time>
      </trkpt>
      <trkpt lat="43.69841" lon="6.70593">
        <ele>854.27</ele>
        <time>2011-07-06T12:45:51Z</time>
      </trkpt>
      <trkpt lat="43.69835" lon="6.70595">
        <ele>853.79</ele>
        <time>2011-07-06T12:45:52Z</time>
      </trkpt>
      <trkpt lat="43.69735" lon="6.70642">
        <ele>854.27</ele>
        <time>2011-07-06T12:46:07Z</time>
      </trkpt>
      <trkpt lat="43.69729" lon="6.70649">
        <ele>854.75</ele>
        <time>2011-07-06T12:46:08Z</time>
      </trkpt>
      <trkpt lat="43.69724" lon="6.70657">
        <ele>854.75</ele>
        <time>2011-07-06T12:46:09Z</time>
      </trkpt>
      <trkpt lat="43.69713" lon="6.70673">
        <ele>853.79</ele>
        <time>2011-07-06T12:46:11Z</time>
      </trkpt>
      <trkpt lat="43.69706" lon="6.7068">
        <ele>853.79</ele>
        <time>2011-07-06T12:46:12Z</time>
      </trkpt>
      <trkpt lat="43.69699" lon="6.70686">
        <ele>853.79</ele>
        <time>2011-07-06T12:46:13Z</time>
      </trkpt>
      <trkpt lat="43.69692" lon="6.7069">
        <ele>854.27</ele>
        <time>2011-07-06T12:46:14Z</time>
      </trkpt>
      <trkpt lat="43.69684" lon="6.70692">
        <ele>854.27</ele>
        <time>2011-07-06T12:46:15Z</time>
      </trkpt>
      <trkpt lat="43.69677" lon="6.70694">
        <ele>854.27</ele>
        <time>2011-07-06T12:46:16Z</time>
      </trkpt>
      <trkpt lat="43.69669" lon="6.70697">
        <ele>854.75</ele>
        <time>2011-07-06T12:46:17Z</time>
      </trkpt>
      <trkpt lat="43.69637" lon="6.70709">
        <ele>854.27</ele>
        <time>2011-07-06T12:46:21Z</time>
      </trkpt>
      <trkpt lat="43.69628" lon="6.7071">
        <ele>853.79</ele>
        <time>2011-07-06T12:46:22Z</time>
      </trkpt>
      <trkpt lat="43.69619" lon="6.7071">
        <ele>853.79</ele>
        <time>2011-07-06T12:46:23Z</time>
      </trkpt>
      <trkpt lat="43.69498" lon="6.70719">
        <ele>854.27</ele>
        <time>2011-07-06T12:46:38Z</time>
      </trkpt>
      <trkpt lat="43.69476" lon="6.70723">
        <ele>854.27</ele>
        <time>2011-07-06T12:46:41Z</time>
      </trkpt>
      <trkpt lat="43.69387" lon="6.70742">
        <ele>854.75</ele>
        <time>2011-07-06T12:46:53Z</time>
      </trkpt>
      <trkpt lat="43.69381" lon="6.70747">
        <ele>854.75</ele>
        <time>2011-07-06T12:46:54Z</time>
      </trkpt>
      <trkpt lat="43.69376" lon="6.70753">
        <ele>854.27</ele>
        <time>2011-07-06T12:46:55Z</time>
      </trkpt>
      <trkpt lat="43.69351" lon="6.70786">
        <ele>853.79</ele>
        <time>2011-07-06T12:47:00Z</time>
      </trkpt>
      <trkpt lat="43.69346" lon="6.70793">
        <ele>854.75</ele>
        <time>2011-07-06T12:47:01Z</time>
      </trkpt>
      <trkpt lat="43.69337" lon="6.70806">
        <ele>854.75</ele>
        <time>2011-07-06T12:47:03Z</time>
      </trkpt>
      <trkpt lat="43.69311" lon="6.70835">
        <ele>854.75</ele>
        <time>2011-07-06T12:47:08Z</time>
      </trkpt>
      <trkpt lat="43.69255" lon="6.70868">
        <ele>855.71</ele>
        <time>2011-07-06T12:47:17Z</time>
      </trkpt>
      <trkpt lat="43.69235" lon="6.70874">
        <ele>855.71</ele>
        <time>2011-07-06T12:47:20Z</time>
      </trkpt>
      <trkpt lat="43.69227" lon="6.70875">
        <ele>856.19</ele>
        <time>2011-07-06T12:47:21Z</time>
      </trkpt>
      <trkpt lat="43.6922" lon="6.70875">
        <ele>856.19</ele>
        <time>2011-07-06T12:47:22Z</time>
      </trkpt>
      <trkpt lat="43.69213" lon="6.70873">
        <ele>856.19</ele>
        <time>2011-07-06T12:47:23Z</time>
      </trkpt>
      <trkpt lat="43.69206" lon="6.70869">
        <ele>856.19</ele>
        <time>2011-07-06T12:47:24Z</time>
      </trkpt>
      <trkpt lat="43.692" lon="6.70863">
        <ele>856.67</ele>
        <time>2011-07-06T12:47:25Z</time>
      </trkpt>
      <trkpt lat="43.69194" lon="6.70856">
        <ele>855.71</ele>
        <time>2011-07-06T12:47:26Z</time>
      </trkpt>
      <trkpt lat="43.69136" lon="6.70768">
        <ele>855.71</ele>
        <time>2011-07-06T12:47:37Z</time>
      </trkpt>
      <trkpt lat="43.69129" lon="6.70761">
        <ele>856.19</ele>
        <time>2011-07-06T12:47:38Z</time>
      </trkpt>
      <trkpt lat="43.69122" lon="6.70755">
        <ele>855.71</ele>
        <time>2011-07-06T12:47:39Z</time>
      </trkpt>
      <trkpt lat="43.69054" lon="6.70715">
        <ele>856.19</ele>
        <time>2011-07-06T12:47:48Z</time>
      </trkpt>
      <trkpt lat="43.69046" lon="6.70714">
        <ele>855.71</ele>
        <time>2011-07-06T12:47:49Z</time>
      </trkpt>
      <trkpt lat="43.69038" lon="6.70715">
        <ele>855.23</ele>
        <time>2011-07-06T12:47:50Z</time>
      </trkpt>
      <trkpt lat="43.6903" lon="6.70716">
        <ele>855.23</ele>
        <time>2011-07-06T12:47:51Z</time>
      </trkpt>
      <trkpt lat="43.69023" lon="6.70717">
        <ele>855.71</ele>
        <time>2011-07-06T12:47:52Z</time>
      </trkpt>
      <trkpt lat="43.68975" lon="6.70736">
        <ele>855.23</ele>
        <time>2011-07-06T12:47:58Z</time>
      </trkpt>
      <trkpt lat="43.68969" lon="6.70742">
        <ele>854.75</ele>
        <time>2011-07-06T12:47:59Z</time>
      </trkpt>
      <trkpt lat="43.68963" lon="6.70751">
        <ele>854.75</ele>
        <time>2011-07-06T12:48:00Z</time>
      </trkpt>
      <trkpt lat="43.68958" lon="6.7076">
        <ele>853.79</ele>
        <time>2011-07-06T12:48:01Z</time>
      </trkpt>
      <trkpt lat="43.68955" lon="6.70771">
        <ele>853.31</ele>
        <time>2011-07-06T12:48:02Z</time>
      </trkpt>
      <trkpt lat="43.68952" lon="6.70783">
        <ele>853.31</ele>
        <time>2011-07-06T12:48:03Z</time>
      </trkpt>
      <trkpt lat="43.68951" lon="6.70796">
        <ele>852.83</ele>
        <time>2011-07-06T12:48:04Z</time>
      </trkpt>
      <trkpt lat="43.68953" lon="6.70809">
        <ele>852.83</ele>
        <time>2011-07-06T12:48:05Z</time>
      </trkpt>
      <trkpt lat="43.68956" lon="6.70822">
        <ele>852.83</ele>
        <time>2011-07-06T12:48:06Z</time>
      </trkpt>
      <trkpt lat="43.68961" lon="6.70834">
        <ele>852.35</ele>
        <time>2011-07-06T12:48:07Z</time>
      </trkpt>
      <trkpt lat="43.68967" lon="6.70845">
        <ele>852.35</ele>
        <time>2011-07-06T12:48:08Z</time>
      </trkpt>
      <trkpt lat="43.68974" lon="6.70856">
        <ele>852.35</ele>
        <time>2011-07-06T12:48:09Z</time>
      </trkpt>
      <trkpt lat="43.68981" lon="6.70865">
        <ele>852.35</ele>
        <time>2011-07-06T12:48:10Z</time>
      </trkpt>
      <trkpt lat="43.68988" lon="6.70874">
        <ele>852.83</ele>
        <time>2011-07-06T12:48:11Z</time>
      </trkpt>
      <trkpt lat="43.69075" lon="6.70966">
        <ele>849.46</ele>
        <time>2011-07-06T12:48:21Z</time>
      </trkpt>
      <trkpt lat="43.69119" lon="6.71012">
        <ele>847.54</ele>
        <time>2011-07-06T12:48:26Z</time>
      </trkpt>
      <trkpt lat="43.69144" lon="6.71039">
        <ele>845.62</ele>
        <time>2011-07-06T12:48:29Z</time>
      </trkpt>
      <trkpt lat="43.69177" lon="6.71077">
        <ele>843.69</ele>
        <time>2011-07-06T12:48:33Z</time>
      </trkpt>
      <trkpt lat="43.69183" lon="6.71089">
        <ele>843.21</ele>
        <time>2011-07-06T12:48:34Z</time>
      </trkpt>
      <trkpt lat="43.69188" lon="6.71102">
        <ele>842.25</ele>
        <time>2011-07-06T12:48:35Z</time>
      </trkpt>
      <trkpt lat="43.69212" lon="6.71156">
        <ele>838.41</ele>
        <time>2011-07-06T12:48:39Z</time>
      </trkpt>
      <trkpt lat="43.69221" lon="6.71168">
        <ele>838.41</ele>
        <time>2011-07-06T12:48:40Z</time>
      </trkpt>
      <trkpt lat="43.69231" lon="6.71178">
        <ele>837.45</ele>
        <time>2011-07-06T12:48:41Z</time>
      </trkpt>
      <trkpt lat="43.69266" lon="6.71209">
        <ele>836</ele>
        <time>2011-07-06T12:48:44Z</time>
      </trkpt>
      <trkpt lat="43.69312" lon="6.71256">
        <ele>833.6</ele>
        <time>2011-07-06T12:48:48Z</time>
      </trkpt>
      <trkpt lat="43.69322" lon="6.71268">
        <ele>833.12</ele>
        <time>2011-07-06T12:48:49Z</time>
      </trkpt>
      <trkpt lat="43.6933" lon="6.71283">
        <ele>831.68</ele>
        <time>2011-07-06T12:48:50Z</time>
      </trkpt>
      <trkpt lat="43.69336" lon="6.71299">
        <ele>830.72</ele>
        <time>2011-07-06T12:48:51Z</time>
      </trkpt>
      <trkpt lat="43.69341" lon="6.71316">
        <ele>829.76</ele>
        <time>2011-07-06T12:48:52Z</time>
      </trkpt>
      <trkpt lat="43.69344" lon="6.71333">
        <ele>829.27</ele>
        <time>2011-07-06T12:48:53Z</time>
      </trkpt>
      <trkpt lat="43.69347" lon="6.7135">
        <ele>828.31</ele>
        <time>2011-07-06T12:48:54Z</time>
      </trkpt>
      <trkpt lat="43.6935" lon="6.71367">
        <ele>827.35</ele>
        <time>2011-07-06T12:48:55Z</time>
      </trkpt>
      <trkpt lat="43.69355" lon="6.71382">
        <ele>826.39</ele>
        <time>2011-07-06T12:48:56Z</time>
      </trkpt>
      <trkpt lat="43.69361" lon="6.71396">
        <ele>826.39</ele>
        <time>2011-07-06T12:48:57Z</time>
      </trkpt>
      <trkpt lat="43.69369" lon="6.71407">
        <ele>825.91</ele>
        <time>2011-07-06T12:48:58Z</time>
      </trkpt>
      <trkpt lat="43.69377" lon="6.71417">
        <ele>825.43</ele>
        <time>2011-07-06T12:48:59Z</time>
      </trkpt>
      <trkpt lat="43.69387" lon="6.71426">
        <ele>824.47</ele>
        <time>2011-07-06T12:49:00Z</time>
      </trkpt>
      <trkpt lat="43.69396" lon="6.71434">
        <ele>823.51</ele>
        <time>2011-07-06T12:49:01Z</time>
      </trkpt>
      <trkpt lat="43.69404" lon="6.71441">
        <ele>823.51</ele>
        <time>2011-07-06T12:49:02Z</time>
      </trkpt>
      <trkpt lat="43.69411" lon="6.71447">
        <ele>823.03</ele>
        <time>2011-07-06T12:49:03Z</time>
      </trkpt>
      <trkpt lat="43.69416" lon="6.71456">
        <ele>823.03</ele>
        <time>2011-07-06T12:49:04Z</time>
      </trkpt>
      <trkpt lat="43.6942" lon="6.71465">
        <ele>822.06</ele>
        <time>2011-07-06T12:49:05Z</time>
      </trkpt>
      <trkpt lat="43.6942" lon="6.71476">
        <ele>821.1</ele>
        <time>2011-07-06T12:49:06Z</time>
      </trkpt>
      <trkpt lat="43.69417" lon="6.71485">
        <ele>821.1</ele>
        <time>2011-07-06T12:49:07Z</time>
      </trkpt>
      <trkpt lat="43.69412" lon="6.71493">
        <ele>820.62</ele>
        <time>2011-07-06T12:49:08Z</time>
      </trkpt>
      <trkpt lat="43.69405" lon="6.71496">
        <ele>820.14</ele>
        <time>2011-07-06T12:49:09Z</time>
      </trkpt>
      <trkpt lat="43.69393" lon="6.71498">
        <ele>819.66</ele>
        <time>2011-07-06T12:49:10Z</time>
      </trkpt>
      <trkpt lat="43.69382" lon="6.71497">
        <ele>819.18</ele>
        <time>2011-07-06T12:49:11Z</time>
      </trkpt>
      <trkpt lat="43.69371" lon="6.71496">
        <ele>818.7</ele>
        <time>2011-07-06T12:49:12Z</time>
      </trkpt>
      <trkpt lat="43.69351" lon="6.7149">
        <ele>816.78</ele>
        <time>2011-07-06T12:49:14Z</time>
      </trkpt>
      <trkpt lat="43.69341" lon="6.71485">
        <ele>816.78</ele>
        <time>2011-07-06T12:49:15Z</time>
      </trkpt>
      <trkpt lat="43.69302" lon="6.71467">
        <ele>814.85</ele>
        <time>2011-07-06T12:49:19Z</time>
      </trkpt>
      <trkpt lat="43.69246" lon="6.71451">
        <ele>814.85</ele>
        <time>2011-07-06T12:49:26Z</time>
      </trkpt>
      <trkpt lat="43.69243" lon="6.71449">
        <ele>815.34</ele>
        <time>2011-07-06T12:49:27Z</time>
      </trkpt>
      <trkpt lat="43.6924" lon="6.71446">
        <ele>815.82</ele>
        <time>2011-07-06T12:49:28Z</time>
      </trkpt>
      <trkpt lat="43.69238" lon="6.71443">
        <ele>815.82</ele>
        <time>2011-07-06T12:49:29Z</time>
      </trkpt>
      <trkpt lat="43.69236" lon="6.7144">
        <ele>816.3</ele>
        <time>2011-07-06T12:49:30Z</time>
      </trkpt>
      <trkpt lat="43.69234" lon="6.71436">
        <ele>815.82</ele>
        <time>2011-07-06T12:49:31Z</time>
      </trkpt>
      <trkpt lat="43.69231" lon="6.71434">
        <ele>816.3</ele>
        <time>2011-07-06T12:49:32Z</time>
      </trkpt>
      <trkpt lat="43.69228" lon="6.71431">
        <ele>816.3</ele>
        <time>2011-07-06T12:49:33Z</time>
      </trkpt>
      <trkpt lat="43.69224" lon="6.71429">
        <ele>815.82</ele>
        <time>2011-07-06T12:49:34Z</time>
      </trkpt>
      <trkpt lat="43.69199" lon="6.714">
        <ele>816.78</ele>
        <time>2011-07-06T12:49:41Z</time>
      </trkpt>
      <trkpt lat="43.69195" lon="6.71396">
        <ele>816.78</ele>
        <time>2011-07-06T12:49:42Z</time>
      </trkpt>
      <trkpt lat="43.69191" lon="6.71392">
        <ele>817.26</ele>
        <time>2011-07-06T12:49:43Z</time>
      </trkpt>
      <trkpt lat="43.69125" lon="6.71347">
        <ele>817.74</ele>
        <time>2011-07-06T12:49:57Z</time>
      </trkpt>
      <trkpt lat="43.6912" lon="6.71344">
        <ele>817.26</ele>
        <time>2011-07-06T12:49:58Z</time>
      </trkpt>
      <trkpt lat="43.69075" lon="6.71329">
        <ele>818.7</ele>
        <time>2011-07-06T12:50:10Z</time>
      </trkpt>
      <trkpt lat="43.69046" lon="6.71318">
        <ele>819.18</ele>
        <time>2011-07-06T12:50:22Z</time>
      </trkpt>
      <trkpt lat="43.69045" lon="6.71317">
        <ele>818.7</ele>
        <time>2011-07-06T12:50:33Z</time>
      </trkpt>
      <trkpt lat="43.69046" lon="6.71318">
        <ele>819.18</ele>
        <time>2011-07-06T12:50:47Z</time>
      </trkpt>
      <trkpt lat="43.69054" lon="6.71322">
        <ele>818.7</ele>
        <time>2011-07-06T12:50:54Z</time>
      </trkpt>
      <trkpt lat="43.69054" lon="6.71323">
        <ele>818.7</ele>
        <time>2011-07-06T12:50:57Z</time>
      </trkpt>
      <trkpt lat="43.69052" lon="6.71322">
        <ele>818.7</ele>
        <time>2011-07-06T12:50:58Z</time>
      </trkpt>
      <trkpt lat="43.6905" lon="6.71322">
        <ele>818.7</ele>
        <time>2011-07-06T12:50:59Z</time>
      </trkpt>
      <trkpt lat="43.69048" lon="6.71322">
        <ele>819.18</ele>
        <time>2011-07-06T12:51:00Z</time>
      </trkpt>
      <trkpt lat="43.69047" lon="6.71322">
        <ele>819.18</ele>
        <time>2011-07-06T12:51:01Z</time>
      </trkpt>
      <trkpt lat="43.69042" lon="6.71317">
        <ele>818.7</ele>
        <time>2011-07-06T12:51:12Z</time>
      </trkpt>
      <trkpt lat="43.69008" lon="6.71304">
        <ele>817.74</ele>
        <time>2011-07-06T12:51:24Z</time>
      </trkpt>
      <trkpt lat="43.69005" lon="6.71306">
        <ele>817.74</ele>
        <time>2011-07-06T12:51:25Z</time>
      </trkpt>
      <trkpt lat="43.68987" lon="6.71333">
        <ele>817.74</ele>
        <time>2011-07-06T12:51:36Z</time>
      </trkpt>
      <trkpt lat="43.68958" lon="6.71359">
        <ele>818.7</ele>
        <time>2011-07-06T12:51:49Z</time>
      </trkpt>
      <trkpt lat="43.68945" lon="6.71373">
        <ele>817.74</ele>
        <time>2011-07-06T12:52:00Z</time>
      </trkpt>
      <trkpt lat="43.68945" lon="6.71373">
        <ele>817.74</ele>
        <time>2011-07-06T12:52:19Z</time>
      </trkpt>
      <trkpt lat="43.68945" lon="6.71373">
        <ele>818.22</ele>
        <time>2011-07-06T12:52:46Z</time>
      </trkpt>
      <trkpt lat="43.68945" lon="6.71373">
        <ele>817.74</ele>
        <time>2011-07-06T12:53:19Z</time>
      </trkpt>
      <trkpt lat="43.68945" lon="6.71373">
        <ele>817.74</ele>
        <time>2011-07-06T12:53:45Z</time>
      </trkpt>
      <trkpt lat="43.68945" lon="6.71371">
        <ele>817.74</ele>
        <time>2011-07-06T12:53:46Z</time>
      </trkpt>
      <trkpt lat="43.68948" lon="6.71372">
        <ele>817.74</ele>
        <time>2011-07-06T12:53:50Z</time>
      </trkpt>
      <trkpt lat="43.68949" lon="6.71374">
        <ele>817.26</ele>
        <time>2011-07-06T12:53:51Z</time>
      </trkpt>
      <trkpt lat="43.68951" lon="6.71376">
        <ele>817.74</ele>
        <time>2011-07-06T12:53:52Z</time>
      </trkpt>
      <trkpt lat="43.68952" lon="6.71378">
        <ele>817.74</ele>
        <time>2011-07-06T12:53:53Z</time>
      </trkpt>
      <trkpt lat="43.68954" lon="6.71379">
        <ele>817.26</ele>
        <time>2011-07-06T12:53:54Z</time>
      </trkpt>
      <trkpt lat="43.68955" lon="6.71381">
        <ele>817.26</ele>
        <time>2011-07-06T12:53:55Z</time>
      </trkpt>
      <trkpt lat="43.68957" lon="6.71382">
        <ele>817.26</ele>
        <time>2011-07-06T12:53:56Z</time>
      </trkpt>
      <trkpt lat="43.68959" lon="6.71384">
        <ele>817.74</ele>
        <time>2011-07-06T12:53:57Z</time>
      </trkpt>
      <trkpt lat="43.68966" lon="6.71391">
        <ele>816.78</ele>
        <time>2011-07-06T12:54:14Z</time>
      </trkpt>
      <trkpt lat="43.68975" lon="6.71398">
        <ele>816.3</ele>
        <time>2011-07-06T12:54:26Z</time>
      </trkpt>
      <trkpt lat="43.68976" lon="6.71399">
        <ele>815.34</ele>
        <time>2011-07-06T12:54:48Z</time>
      </trkpt>
      <trkpt lat="43.68977" lon="6.71401">
        <ele>815.34</ele>
        <time>2011-07-06T12:54:53Z</time>
      </trkpt>
      <trkpt lat="43.68978" lon="6.71402">
        <ele>815.34</ele>
        <time>2011-07-06T12:54:54Z</time>
      </trkpt>
      <trkpt lat="43.68979" lon="6.71404">
        <ele>814.85</ele>
        <time>2011-07-06T12:54:55Z</time>
      </trkpt>
      <trkpt lat="43.6898" lon="6.71408">
        <ele>813.89</ele>
        <time>2011-07-06T12:55:08Z</time>
      </trkpt>
      <trkpt lat="43.6898" lon="6.71408">
        <ele>810.53</ele>
        <time>2011-07-06T12:55:19Z</time>
      </trkpt>
      <trkpt lat="43.6898" lon="6.71408">
        <ele>816.78</ele>
        <time>2011-07-06T12:55:21Z</time>
      </trkpt>
      <trkpt lat="43.6898" lon="6.71408">
        <ele>812.93</ele>
        <time>2011-07-06T12:55:22Z</time>
      </trkpt>
      <trkpt lat="43.68981" lon="6.71407">
        <ele>811.97</ele>
        <time>2011-07-06T12:55:24Z</time>
      </trkpt>
      <trkpt lat="43.68982" lon="6.71406">
        <ele>819.18</ele>
        <time>2011-07-06T12:55:29Z</time>
      </trkpt>
      <trkpt lat="43.68982" lon="6.71406">
        <ele>813.41</ele>
        <time>2011-07-06T12:55:30Z</time>
      </trkpt>
      <trkpt lat="43.68982" lon="6.71406">
        <ele>810.05</ele>
        <time>2011-07-06T12:55:31Z</time>
      </trkpt>
      <trkpt lat="43.68982" lon="6.71406">
        <ele>813.89</ele>
        <time>2011-07-06T12:55:32Z</time>
      </trkpt>
      <trkpt lat="43.68982" lon="6.71406">
        <ele>813.89</ele>
        <time>2011-07-06T12:55:37Z</time>
      </trkpt>
      <trkpt lat="43.68982" lon="6.71406">
        <ele>808.61</ele>
        <time>2011-07-06T12:55:45Z</time>
      </trkpt>
      <trkpt lat="43.68982" lon="6.71406">
        <ele>813.89</ele>
        <time>2011-07-06T12:55:46Z</time>
      </trkpt>
      <trkpt lat="43.68982" lon="6.71406">
        <ele>813.41</ele>
        <time>2011-07-06T12:56:06Z</time>
      </trkpt>
      <trkpt lat="43.68985" lon="6.71417">
        <ele>814.37</ele>
        <time>2011-07-06T13:44:36Z</time>
      </trkpt>
      <trkpt lat="43.68985" lon="6.71415">
        <ele>815.34</ele>
        <time>2011-07-06T13:44:38Z</time>
      </trkpt>
      <trkpt lat="43.68984" lon="6.71415">
        <ele>816.3</ele>
        <time>2011-07-06T13:44:42Z</time>
      </trkpt>
      <trkpt lat="43.68983" lon="6.7141">
        <ele>818.22</ele>
        <time>2011-07-06T13:45:13Z</time>
      </trkpt>
      <trkpt lat="43.68984" lon="6.71407">
        <ele>818.22</ele>
        <time>2011-07-06T13:45:31Z</time>
      </trkpt>
      <trkpt lat="43.68982" lon="6.71407">
        <ele>817.74</ele>
        <time>2011-07-06T13:45:57Z</time>
      </trkpt>
      <trkpt lat="43.68983" lon="6.71407">
        <ele>817.74</ele>
        <time>2011-07-06T13:46:21Z</time>
      </trkpt>
      <trkpt lat="43.68993" lon="6.7141">
        <ele>815.82</ele>
        <time>2011-07-06T13:46:38Z</time>
      </trkpt>
      <trkpt lat="43.69025" lon="6.71406">
        <ele>817.26</ele>
        <time>2011-07-06T13:46:51Z</time>
      </trkpt>
      <trkpt lat="43.69056" lon="6.71396">
        <ele>818.7</ele>
        <time>2011-07-06T13:47:05Z</time>
      </trkpt>
      <trkpt lat="43.69074" lon="6.71374">
        <ele>819.66</ele>
        <time>2011-07-06T13:47:17Z</time>
      </trkpt>
      <trkpt lat="43.69083" lon="6.71376">
        <ele>819.66</ele>
        <time>2011-07-06T13:47:25Z</time>
      </trkpt>
      <trkpt lat="43.6913" lon="6.71415">
        <ele>820.62</ele>
        <time>2011-07-06T13:47:43Z</time>
      </trkpt>
      <trkpt lat="43.69145" lon="6.71435">
        <ele>817.74</ele>
        <time>2011-07-06T13:47:50Z</time>
      </trkpt>
      <trkpt lat="43.6917" lon="6.7146">
        <ele>818.22</ele>
        <time>2011-07-06T13:47:59Z</time>
      </trkpt>
      <trkpt lat="43.69217" lon="6.71478">
        <ele>817.26</ele>
        <time>2011-07-06T13:48:12Z</time>
      </trkpt>
      <trkpt lat="43.6922" lon="6.7148">
        <ele>816.78</ele>
        <time>2011-07-06T13:48:13Z</time>
      </trkpt>
      <trkpt lat="43.6924" lon="6.71504">
        <ele>815.34</ele>
        <time>2011-07-06T13:48:22Z</time>
      </trkpt>
      <trkpt lat="43.69242" lon="6.71556">
        <ele>814.85</ele>
        <time>2011-07-06T13:48:34Z</time>
      </trkpt>
      <trkpt lat="43.69216" lon="6.71614">
        <ele>815.34</ele>
        <time>2011-07-06T13:48:48Z</time>
      </trkpt>
      <trkpt lat="43.69178" lon="6.71689">
        <ele>817.26</ele>
        <time>2011-07-06T13:49:07Z</time>
      </trkpt>
      <trkpt lat="43.69163" lon="6.71765">
        <ele>817.74</ele>
        <time>2011-07-06T13:49:25Z</time>
      </trkpt>
      <trkpt lat="43.69166" lon="6.71785">
        <ele>816.78</ele>
        <time>2011-07-06T13:49:28Z</time>
      </trkpt>
      <trkpt lat="43.69181" lon="6.71846">
        <ele>814.85</ele>
        <time>2011-07-06T13:49:35Z</time>
      </trkpt>
      <trkpt lat="43.69186" lon="6.71865">
        <ele>813.89</ele>
        <time>2011-07-06T13:49:37Z</time>
      </trkpt>
      <trkpt lat="43.69194" lon="6.71883">
        <ele>812.45</ele>
        <time>2011-07-06T13:49:39Z</time>
      </trkpt>
      <trkpt lat="43.69199" lon="6.7189">
        <ele>812.45</ele>
        <time>2011-07-06T13:49:40Z</time>
      </trkpt>
      <trkpt lat="43.69205" lon="6.71897">
        <ele>811.97</ele>
        <time>2011-07-06T13:49:41Z</time>
      </trkpt>
      <trkpt lat="43.69211" lon="6.71902">
        <ele>811.97</ele>
        <time>2011-07-06T13:49:42Z</time>
      </trkpt>
      <trkpt lat="43.69218" lon="6.71907">
        <ele>811.49</ele>
        <time>2011-07-06T13:49:43Z</time>
      </trkpt>
      <trkpt lat="43.69264" lon="6.71944">
        <ele>813.41</ele>
        <time>2011-07-06T13:49:51Z</time>
      </trkpt>
      <trkpt lat="43.69271" lon="6.71955">
        <ele>813.41</ele>
        <time>2011-07-06T13:49:53Z</time>
      </trkpt>
      <trkpt lat="43.69311" lon="6.72009">
        <ele>815.82</ele>
        <time>2011-07-06T13:50:06Z</time>
      </trkpt>
      <trkpt lat="43.69333" lon="6.72059">
        <ele>818.7</ele>
        <time>2011-07-06T13:50:20Z</time>
      </trkpt>
      <trkpt lat="43.6934" lon="6.72116">
        <ele>820.14</ele>
        <time>2011-07-06T13:50:33Z</time>
      </trkpt>
      <trkpt lat="43.69343" lon="6.72161">
        <ele>822.06</ele>
        <time>2011-07-06T13:50:46Z</time>
      </trkpt>
      <trkpt lat="43.69346" lon="6.72198">
        <ele>823.99</ele>
        <time>2011-07-06T13:50:58Z</time>
      </trkpt>
      <trkpt lat="43.6935" lon="6.72245">
        <ele>826.39</ele>
        <time>2011-07-06T13:51:13Z</time>
      </trkpt>
      <trkpt lat="43.69364" lon="6.72285">
        <ele>828.31</ele>
        <time>2011-07-06T13:51:27Z</time>
      </trkpt>
      <trkpt lat="43.69397" lon="6.72321">
        <ele>830.72</ele>
        <time>2011-07-06T13:51:42Z</time>
      </trkpt>
      <trkpt lat="43.6942" lon="6.72373">
        <ele>832.64</ele>
        <time>2011-07-06T13:51:58Z</time>
      </trkpt>
      <trkpt lat="43.69454" lon="6.72455">
        <ele>834.56</ele>
        <time>2011-07-06T13:52:19Z</time>
      </trkpt>
      <trkpt lat="43.69484" lon="6.72501">
        <ele>835.04</ele>
        <time>2011-07-06T13:52:32Z</time>
      </trkpt>
      <trkpt lat="43.69522" lon="6.72559">
        <ele>836.48</ele>
        <time>2011-07-06T13:52:49Z</time>
      </trkpt>
      <trkpt lat="43.69548" lon="6.72611">
        <ele>836.96</ele>
        <time>2011-07-06T13:53:02Z</time>
      </trkpt>
      <trkpt lat="43.69555" lon="6.72656">
        <ele>838.41</ele>
        <time>2011-07-06T13:53:15Z</time>
      </trkpt>
      <trkpt lat="43.6955" lon="6.72688">
        <ele>837.45</ele>
        <time>2011-07-06T13:53:25Z</time>
      </trkpt>
      <trkpt lat="43.6955" lon="6.72688">
        <ele>836.96</ele>
        <time>2011-07-06T13:53:46Z</time>
      </trkpt>
      <trkpt lat="43.69549" lon="6.72688">
        <ele>837.45</ele>
        <time>2011-07-06T13:53:53Z</time>
      </trkpt>
      <trkpt lat="43.69546" lon="6.72691">
        <ele>836.48</ele>
        <time>2011-07-06T13:54:06Z</time>
      </trkpt>
      <trkpt lat="43.69543" lon="6.72693">
        <ele>836.48</ele>
        <time>2011-07-06T13:54:43Z</time>
      </trkpt>
      <trkpt lat="43.69505" lon="6.72724">
        <ele>834.56</ele>
        <time>2011-07-06T13:54:52Z</time>
      </trkpt>
      <trkpt lat="43.69481" lon="6.72744">
        <ele>832.64</ele>
        <time>2011-07-06T13:54:57Z</time>
      </trkpt>
      <trkpt lat="43.69476" lon="6.72748">
        <ele>832.64</ele>
        <time>2011-07-06T13:54:58Z</time>
      </trkpt>
      <trkpt lat="43.69461" lon="6.72758">
        <ele>830.72</ele>
        <time>2011-07-06T13:55:01Z</time>
      </trkpt>
      <trkpt lat="43.69456" lon="6.72761">
        <ele>830.72</ele>
        <time>2011-07-06T13:55:02Z</time>
      </trkpt>
      <trkpt lat="43.69421" lon="6.72783">
        <ele>830.24</ele>
        <time>2011-07-06T13:55:09Z</time>
      </trkpt>
      <trkpt lat="43.69399" lon="6.72787">
        <ele>828.79</ele>
        <time>2011-07-06T13:55:14Z</time>
      </trkpt>
      <trkpt lat="43.69375" lon="6.72794">
        <ele>827.35</ele>
        <time>2011-07-06T13:55:23Z</time>
      </trkpt>
      <trkpt lat="43.69373" lon="6.72796">
        <ele>827.35</ele>
        <time>2011-07-06T13:55:24Z</time>
      </trkpt>
      <trkpt lat="43.69371" lon="6.72796">
        <ele>826.87</ele>
        <time>2011-07-06T13:55:25Z</time>
      </trkpt>
      <trkpt lat="43.6937" lon="6.72795">
        <ele>826.87</ele>
        <time>2011-07-06T13:55:26Z</time>
      </trkpt>
      <trkpt lat="43.69368" lon="6.72796">
        <ele>826.39</ele>
        <time>2011-07-06T13:55:27Z</time>
      </trkpt>
      <trkpt lat="43.69367" lon="6.72797">
        <ele>826.39</ele>
        <time>2011-07-06T13:55:28Z</time>
      </trkpt>
      <trkpt lat="43.69365" lon="6.72798">
        <ele>826.39</ele>
        <time>2011-07-06T13:55:29Z</time>
      </trkpt>
      <trkpt lat="43.69364" lon="6.72799">
        <ele>826.39</ele>
        <time>2011-07-06T13:55:30Z</time>
      </trkpt>
      <trkpt lat="43.69349" lon="6.72822">
        <ele>825.91</ele>
        <time>2011-07-06T13:55:37Z</time>
      </trkpt>
      <trkpt lat="43.69348" lon="6.72827">
        <ele>825.91</ele>
        <time>2011-07-06T13:55:38Z</time>
      </trkpt>
      <trkpt lat="43.69348" lon="6.72833">
        <ele>825.91</ele>
        <time>2011-07-06T13:55:39Z</time>
      </trkpt>
      <trkpt lat="43.69348" lon="6.72839">
        <ele>825.91</ele>
        <time>2011-07-06T13:55:40Z</time>
      </trkpt>
      <trkpt lat="43.69348" lon="6.72844">
        <ele>825.91</ele>
        <time>2011-07-06T13:55:41Z</time>
      </trkpt>
      <trkpt lat="43.69349" lon="6.72849">
        <ele>825.91</ele>
        <time>2011-07-06T13:55:42Z</time>
      </trkpt>
      <trkpt lat="43.6935" lon="6.72855">
        <ele>825.43</ele>
        <time>2011-07-06T13:55:43Z</time>
      </trkpt>
      <trkpt lat="43.6935" lon="6.72861">
        <ele>825.91</ele>
        <time>2011-07-06T13:55:44Z</time>
      </trkpt>
      <trkpt lat="43.6935" lon="6.72867">
        <ele>825.91</ele>
        <time>2011-07-06T13:55:45Z</time>
      </trkpt>
      <trkpt lat="43.6935" lon="6.72873">
        <ele>825.43</ele>
        <time>2011-07-06T13:55:46Z</time>
      </trkpt>
      <trkpt lat="43.6935" lon="6.72879">
        <ele>825.91</ele>
        <time>2011-07-06T13:55:47Z</time>
      </trkpt>
      <trkpt lat="43.69345" lon="6.7292">
        <ele>824.95</ele>
        <time>2011-07-06T13:55:56Z</time>
      </trkpt>
      <trkpt lat="43.69332" lon="6.72954">
        <ele>823.99</ele>
        <time>2011-07-06T13:56:05Z</time>
      </trkpt>
      <trkpt lat="43.6933" lon="6.72959">
        <ele>823.99</ele>
        <time>2011-07-06T13:56:06Z</time>
      </trkpt>
      <trkpt lat="43.69328" lon="6.72965">
        <ele>823.51</ele>
        <time>2011-07-06T13:56:07Z</time>
      </trkpt>
      <trkpt lat="43.69325" lon="6.72969">
        <ele>823.99</ele>
        <time>2011-07-06T13:56:08Z</time>
      </trkpt>
      <trkpt lat="43.69321" lon="6.72973">
        <ele>823.99</ele>
        <time>2011-07-06T13:56:09Z</time>
      </trkpt>
      <trkpt lat="43.69319" lon="6.72977">
        <ele>823.51</ele>
        <time>2011-07-06T13:56:10Z</time>
      </trkpt>
      <trkpt lat="43.69316" lon="6.72981">
        <ele>823.51</ele>
        <time>2011-07-06T13:56:11Z</time>
      </trkpt>
      <trkpt lat="43.69286" lon="6.73013">
        <ele>822.55</ele>
        <time>2011-07-06T13:56:22Z</time>
      </trkpt>
      <trkpt lat="43.69268" lon="6.73013">
        <ele>821.58</ele>
        <time>2011-07-06T13:56:26Z</time>
      </trkpt>
      <trkpt lat="43.69264" lon="6.73015">
        <ele>821.58</ele>
        <time>2011-07-06T13:56:27Z</time>
      </trkpt>
      <trkpt lat="43.69248" lon="6.7305">
        <ele>819.66</ele>
        <time>2011-07-06T13:56:36Z</time>
      </trkpt>
      <trkpt lat="43.69239" lon="6.73103">
        <ele>816.78</ele>
        <time>2011-07-06T13:56:47Z</time>
      </trkpt>
      <trkpt lat="43.69238" lon="6.73113">
        <ele>815.82</ele>
        <time>2011-07-06T13:56:49Z</time>
      </trkpt>
      <trkpt lat="43.69222" lon="6.73128">
        <ele>813.41</ele>
        <time>2011-07-06T13:56:55Z</time>
      </trkpt>
      <trkpt lat="43.69218" lon="6.73128">
        <ele>812.45</ele>
        <time>2011-07-06T13:56:56Z</time>
      </trkpt>
      <trkpt lat="43.69213" lon="6.73126">
        <ele>811.49</ele>
        <time>2011-07-06T13:56:57Z</time>
      </trkpt>
      <trkpt lat="43.69208" lon="6.73124">
        <ele>811.01</ele>
        <time>2011-07-06T13:56:58Z</time>
      </trkpt>
      <trkpt lat="43.69204" lon="6.73122">
        <ele>811.01</ele>
        <time>2011-07-06T13:56:59Z</time>
      </trkpt>
      <trkpt lat="43.69185" lon="6.73121">
        <ele>809.09</ele>
        <time>2011-07-06T13:57:04Z</time>
      </trkpt>
      <trkpt lat="43.69181" lon="6.73121">
        <ele>808.13</ele>
        <time>2011-07-06T13:57:05Z</time>
      </trkpt>
      <trkpt lat="43.69177" lon="6.73123">
        <ele>807.16</ele>
        <time>2011-07-06T13:57:06Z</time>
      </trkpt>
      <trkpt lat="43.69173" lon="6.73124">
        <ele>807.16</ele>
        <time>2011-07-06T13:57:07Z</time>
      </trkpt>
      <trkpt lat="43.69169" lon="6.73126">
        <ele>806.68</ele>
        <time>2011-07-06T13:57:08Z</time>
      </trkpt>
      <trkpt lat="43.69166" lon="6.73127">
        <ele>806.68</ele>
        <time>2011-07-06T13:57:09Z</time>
      </trkpt>
      <trkpt lat="43.69162" lon="6.73128">
        <ele>805.24</ele>
        <time>2011-07-06T13:57:10Z</time>
      </trkpt>
      <trkpt lat="43.69159" lon="6.73127">
        <ele>804.76</ele>
        <time>2011-07-06T13:57:11Z</time>
      </trkpt>
      <trkpt lat="43.69157" lon="6.73128">
        <ele>804.76</ele>
        <time>2011-07-06T13:57:12Z</time>
      </trkpt>
      <trkpt lat="43.69155" lon="6.73128">
        <ele>804.28</ele>
        <time>2011-07-06T13:57:13Z</time>
      </trkpt>
      <trkpt lat="43.69152" lon="6.73134">
        <ele>803.32</ele>
        <time>2011-07-06T13:57:15Z</time>
      </trkpt>
      <trkpt lat="43.69135" lon="6.73154">
        <ele>800.44</ele>
        <time>2011-07-06T13:57:20Z</time>
      </trkpt>
      <trkpt lat="43.69132" lon="6.73159">
        <ele>799.95</ele>
        <time>2011-07-06T13:57:21Z</time>
      </trkpt>
      <trkpt lat="43.69131" lon="6.73164">
        <ele>799.47</ele>
        <time>2011-07-06T13:57:22Z</time>
      </trkpt>
      <trkpt lat="43.6913" lon="6.73167">
        <ele>799.47</ele>
        <time>2011-07-06T13:57:23Z</time>
      </trkpt>
      <trkpt lat="43.69129" lon="6.73172">
        <ele>798.99</ele>
        <time>2011-07-06T13:57:24Z</time>
      </trkpt>
      <trkpt lat="43.69128" lon="6.73178">
        <ele>799.47</ele>
        <time>2011-07-06T13:57:25Z</time>
      </trkpt>
      <trkpt lat="43.69127" lon="6.73183">
        <ele>798.03</ele>
        <time>2011-07-06T13:57:26Z</time>
      </trkpt>
      <trkpt lat="43.69127" lon="6.73188">
        <ele>797.55</ele>
        <time>2011-07-06T13:57:27Z</time>
      </trkpt>
      <trkpt lat="43.69126" lon="6.73192">
        <ele>797.55</ele>
        <time>2011-07-06T13:57:28Z</time>
      </trkpt>
      <trkpt lat="43.69123" lon="6.73206">
        <ele>796.59</ele>
        <time>2011-07-06T13:57:39Z</time>
      </trkpt>
      <trkpt lat="43.69121" lon="6.73208">
        <ele>796.11</ele>
        <time>2011-07-06T13:57:42Z</time>
      </trkpt>
      <trkpt lat="43.69116" lon="6.73204">
        <ele>794.67</ele>
        <time>2011-07-06T13:57:49Z</time>
      </trkpt>
      <trkpt lat="43.691" lon="6.73246">
        <ele>791.78</ele>
        <time>2011-07-06T13:58:00Z</time>
      </trkpt>
      <trkpt lat="43.69096" lon="6.73277">
        <ele>790.34</ele>
        <time>2011-07-06T13:58:04Z</time>
      </trkpt>
      <trkpt lat="43.69096" lon="6.73285">
        <ele>789.38</ele>
        <time>2011-07-06T13:58:05Z</time>
      </trkpt>
      <trkpt lat="43.69095" lon="6.73292">
        <ele>788.9</ele>
        <time>2011-07-06T13:58:06Z</time>
      </trkpt>
      <trkpt lat="43.69093" lon="6.73321">
        <ele>786.5</ele>
        <time>2011-07-06T13:58:10Z</time>
      </trkpt>
      <trkpt lat="43.69089" lon="6.73343">
        <ele>785.53</ele>
        <time>2011-07-06T13:58:13Z</time>
      </trkpt>
      <trkpt lat="43.69087" lon="6.73351">
        <ele>784.57</ele>
        <time>2011-07-06T13:58:14Z</time>
      </trkpt>
      <trkpt lat="43.69084" lon="6.73378">
        <ele>783.61</ele>
        <time>2011-07-06T13:58:17Z</time>
      </trkpt>
      <trkpt lat="43.69083" lon="6.73385">
        <ele>782.17</ele>
        <time>2011-07-06T13:58:18Z</time>
      </trkpt>
      <trkpt lat="43.6908" lon="6.73397">
        <ele>781.21</ele>
        <time>2011-07-06T13:58:20Z</time>
      </trkpt>
      <trkpt lat="43.69077" lon="6.73405">
        <ele>780.73</ele>
        <time>2011-07-06T13:58:22Z</time>
      </trkpt>
      <trkpt lat="43.69074" lon="6.73407">
        <ele>780.25</ele>
        <time>2011-07-06T13:58:23Z</time>
      </trkpt>
      <trkpt lat="43.6907" lon="6.73408">
        <ele>780.25</ele>
        <time>2011-07-06T13:58:24Z</time>
      </trkpt>
      <trkpt lat="43.69066" lon="6.73408">
        <ele>779.77</ele>
        <time>2011-07-06T13:58:25Z</time>
      </trkpt>
      <trkpt lat="43.69061" lon="6.73408">
        <ele>780.25</ele>
        <time>2011-07-06T13:58:26Z</time>
      </trkpt>
      <trkpt lat="43.69057" lon="6.73409">
        <ele>779.77</ele>
        <time>2011-07-06T13:58:27Z</time>
      </trkpt>
      <trkpt lat="43.69054" lon="6.73411">
        <ele>779.77</ele>
        <time>2011-07-06T13:58:28Z</time>
      </trkpt>
      <trkpt lat="43.69053" lon="6.73415">
        <ele>779.29</ele>
        <time>2011-07-06T13:58:29Z</time>
      </trkpt>
      <trkpt lat="43.69051" lon="6.73419">
        <ele>778.81</ele>
        <time>2011-07-06T13:58:30Z</time>
      </trkpt>
      <trkpt lat="43.69049" lon="6.73424">
        <ele>778.32</ele>
        <time>2011-07-06T13:58:31Z</time>
      </trkpt>
      <trkpt lat="43.69046" lon="6.73427">
        <ele>777.84</ele>
        <time>2011-07-06T13:58:32Z</time>
      </trkpt>
      <trkpt lat="43.69044" lon="6.73429">
        <ele>777.84</ele>
        <time>2011-07-06T13:58:33Z</time>
      </trkpt>
      <trkpt lat="43.69025" lon="6.73411">
        <ele>778.81</ele>
        <time>2011-07-06T13:58:40Z</time>
      </trkpt>
      <trkpt lat="43.69004" lon="6.73387">
        <ele>777.36</ele>
        <time>2011-07-06T13:58:46Z</time>
      </trkpt>
      <trkpt lat="43.68995" lon="6.73352">
        <ele>776.88</ele>
        <time>2011-07-06T13:58:53Z</time>
      </trkpt>
      <trkpt lat="43.68994" lon="6.73345">
        <ele>776.4</ele>
        <time>2011-07-06T13:59:01Z</time>
      </trkpt>
      <trkpt lat="43.68984" lon="6.73329">
        <ele>776.88</ele>
        <time>2011-07-06T13:59:06Z</time>
      </trkpt>
      <trkpt lat="43.68983" lon="6.73299">
        <ele>777.36</ele>
        <time>2011-07-06T13:59:16Z</time>
      </trkpt>
      <trkpt lat="43.68983" lon="6.73299">
        <ele>777.36</ele>
        <time>2011-07-06T13:59:32Z</time>
      </trkpt>
      <trkpt lat="43.68983" lon="6.73297">
        <ele>777.36</ele>
        <time>2011-07-06T14:00:00Z</time>
      </trkpt>
      <trkpt lat="43.6899" lon="6.73255">
        <ele>778.32</ele>
        <time>2011-07-06T14:00:10Z</time>
      </trkpt>
      <trkpt lat="43.6899" lon="6.73251">
        <ele>778.81</ele>
        <time>2011-07-06T14:00:11Z</time>
      </trkpt>
      <trkpt lat="43.68985" lon="6.73235">
        <ele>777.36</ele>
        <time>2011-07-06T14:00:15Z</time>
      </trkpt>
      <trkpt lat="43.68981" lon="6.73231">
        <ele>776.88</ele>
        <time>2011-07-06T14:00:16Z</time>
      </trkpt>
      <trkpt lat="43.68977" lon="6.73226">
        <ele>776.4</ele>
        <time>2011-07-06T14:00:17Z</time>
      </trkpt>
      <trkpt lat="43.68974" lon="6.7322">
        <ele>776.4</ele>
        <time>2011-07-06T14:00:18Z</time>
      </trkpt>
      <trkpt lat="43.68971" lon="6.73214">
        <ele>776.4</ele>
        <time>2011-07-06T14:00:19Z</time>
      </trkpt>
      <trkpt lat="43.68968" lon="6.73207">
        <ele>775.92</ele>
        <time>2011-07-06T14:00:20Z</time>
      </trkpt>
      <trkpt lat="43.68964" lon="6.73202">
        <ele>775.92</ele>
        <time>2011-07-06T14:00:21Z</time>
      </trkpt>
      <trkpt lat="43.6896" lon="6.73198">
        <ele>775.92</ele>
        <time>2011-07-06T14:00:22Z</time>
      </trkpt>
      <trkpt lat="43.68957" lon="6.73195">
        <ele>775.92</ele>
        <time>2011-07-06T14:00:23Z</time>
      </trkpt>
      <trkpt lat="43.68941" lon="6.73176">
        <ele>773.04</ele>
        <time>2011-07-06T14:00:29Z</time>
      </trkpt>
      <trkpt lat="43.68938" lon="6.73176">
        <ele>773.04</ele>
        <time>2011-07-06T14:00:30Z</time>
      </trkpt>
      <trkpt lat="43.68917" lon="6.73175">
        <ele>771.11</ele>
        <time>2011-07-06T14:00:37Z</time>
      </trkpt>
      <trkpt lat="43.68914" lon="6.73176">
        <ele>771.6</ele>
        <time>2011-07-06T14:00:38Z</time>
      </trkpt>
      <trkpt lat="43.68912" lon="6.73176">
        <ele>770.63</ele>
        <time>2011-07-06T14:00:39Z</time>
      </trkpt>
      <trkpt lat="43.6891" lon="6.73177">
        <ele>770.15</ele>
        <time>2011-07-06T14:00:40Z</time>
      </trkpt>
      <trkpt lat="43.68908" lon="6.73177">
        <ele>770.15</ele>
        <time>2011-07-06T14:00:41Z</time>
      </trkpt>
      <trkpt lat="43.68905" lon="6.73178">
        <ele>769.67</ele>
        <time>2011-07-06T14:00:42Z</time>
      </trkpt>
      <trkpt lat="43.68901" lon="6.73182">
        <ele>769.19</ele>
        <time>2011-07-06T14:00:44Z</time>
      </trkpt>
      <trkpt lat="43.68882" lon="6.73196">
        <ele>767.27</ele>
        <time>2011-07-06T14:00:52Z</time>
      </trkpt>
      <trkpt lat="43.68877" lon="6.73196">
        <ele>766.31</ele>
        <time>2011-07-06T14:00:53Z</time>
      </trkpt>
      <trkpt lat="43.68874" lon="6.73197">
        <ele>765.83</ele>
        <time>2011-07-06T14:00:54Z</time>
      </trkpt>
      <trkpt lat="43.68866" lon="6.73202">
        <ele>764.87</ele>
        <time>2011-07-06T14:00:56Z</time>
      </trkpt>
      <trkpt lat="43.68858" lon="6.73208">
        <ele>764.39</ele>
        <time>2011-07-06T14:01:00Z</time>
      </trkpt>
      <trkpt lat="43.68852" lon="6.73215">
        <ele>762.94</ele>
        <time>2011-07-06T14:01:04Z</time>
      </trkpt>
      <trkpt lat="43.6885" lon="6.73216">
        <ele>762.46</ele>
        <time>2011-07-06T14:01:05Z</time>
      </trkpt>
      <trkpt lat="43.68847" lon="6.73217">
        <ele>761.5</ele>
        <time>2011-07-06T14:01:07Z</time>
      </trkpt>
      <trkpt lat="43.68843" lon="6.73223">
        <ele>760.06</ele>
        <time>2011-07-06T14:01:10Z</time>
      </trkpt>
      <trkpt lat="43.68836" lon="6.73233">
        <ele>758.14</ele>
        <time>2011-07-06T14:01:15Z</time>
      </trkpt>
      <trkpt lat="43.68831" lon="6.73237">
        <ele>756.69</ele>
        <time>2011-07-06T14:01:18Z</time>
      </trkpt>
      <trkpt lat="43.68828" lon="6.73237">
        <ele>755.73</ele>
        <time>2011-07-06T14:01:20Z</time>
      </trkpt>
      <trkpt lat="43.68826" lon="6.73238">
        <ele>755.25</ele>
        <time>2011-07-06T14:01:22Z</time>
      </trkpt>
      <trkpt lat="43.68815" lon="6.73247">
        <ele>751.89</ele>
        <time>2011-07-06T14:01:29Z</time>
      </trkpt>
      <trkpt lat="43.68814" lon="6.73249">
        <ele>751.89</ele>
        <time>2011-07-06T14:01:30Z</time>
      </trkpt>
      <trkpt lat="43.68814" lon="6.73251">
        <ele>752.37</ele>
        <time>2011-07-06T14:01:41Z</time>
      </trkpt>
      <trkpt lat="43.68809" lon="6.73249">
        <ele>751.89</ele>
        <time>2011-07-06T14:01:53Z</time>
      </trkpt>
      <trkpt lat="43.68807" lon="6.73249">
        <ele>750.93</ele>
        <time>2011-07-06T14:01:55Z</time>
      </trkpt>
      <trkpt lat="43.68793" lon="6.73259">
        <ele>747.08</ele>
        <time>2011-07-06T14:02:03Z</time>
      </trkpt>
      <trkpt lat="43.68782" lon="6.73269">
        <ele>745.16</ele>
        <time>2011-07-06T14:02:07Z</time>
      </trkpt>
      <trkpt lat="43.68758" lon="6.73285">
        <ele>741.79</ele>
        <time>2011-07-06T14:02:14Z</time>
      </trkpt>
      <trkpt lat="43.68738" lon="6.73307">
        <ele>738.43</ele>
        <time>2011-07-06T14:02:20Z</time>
      </trkpt>
      <trkpt lat="43.68735" lon="6.73316">
        <ele>737.47</ele>
        <time>2011-07-06T14:02:22Z</time>
      </trkpt>
      <trkpt lat="43.68734" lon="6.73322">
        <ele>737.47</ele>
        <time>2011-07-06T14:02:23Z</time>
      </trkpt>
      <trkpt lat="43.68729" lon="6.73364">
        <ele>734.1</ele>
        <time>2011-07-06T14:02:32Z</time>
      </trkpt>
      <trkpt lat="43.68718" lon="6.734">
        <ele>731.22</ele>
        <time>2011-07-06T14:02:41Z</time>
      </trkpt>
      <trkpt lat="43.68705" lon="6.73415">
        <ele>727.86</ele>
        <time>2011-07-06T14:02:48Z</time>
      </trkpt>
      <trkpt lat="43.68699" lon="6.73426">
        <ele>725.93</ele>
        <time>2011-07-06T14:02:52Z</time>
      </trkpt>
      <trkpt lat="43.68686" lon="6.73449">
        <ele>723.05</ele>
        <time>2011-07-06T14:02:58Z</time>
      </trkpt>
      <trkpt lat="43.68684" lon="6.73453">
        <ele>722.57</ele>
        <time>2011-07-06T14:02:59Z</time>
      </trkpt>
      <trkpt lat="43.68672" lon="6.73477">
        <ele>720.65</ele>
        <time>2011-07-06T14:03:04Z</time>
      </trkpt>
      <trkpt lat="43.68662" lon="6.73509">
        <ele>717.28</ele>
        <time>2011-07-06T14:03:13Z</time>
      </trkpt>
      <trkpt lat="43.68655" lon="6.73525">
        <ele>715.36</ele>
        <time>2011-07-06T14:03:19Z</time>
      </trkpt>
      <trkpt lat="43.68644" lon="6.73549">
        <ele>711.99</ele>
        <time>2011-07-06T14:03:26Z</time>
      </trkpt>
      <trkpt lat="43.68638" lon="6.73561">
        <ele>710.07</ele>
        <time>2011-07-06T14:03:36Z</time>
      </trkpt>
      <trkpt lat="43.68638" lon="6.73563">
        <ele>709.59</ele>
        <time>2011-07-06T14:03:43Z</time>
      </trkpt>
      <trkpt lat="43.68638" lon="6.73565">
        <ele>709.59</ele>
        <time>2011-07-06T14:03:44Z</time>
      </trkpt>
      <trkpt lat="43.68638" lon="6.73567">
        <ele>709.59</ele>
        <time>2011-07-06T14:03:45Z</time>
      </trkpt>
      <trkpt lat="43.68638" lon="6.7357">
        <ele>709.11</ele>
        <time>2011-07-06T14:03:46Z</time>
      </trkpt>
      <trkpt lat="43.68638" lon="6.73572">
        <ele>709.11</ele>
        <time>2011-07-06T14:03:47Z</time>
      </trkpt>
      <trkpt lat="43.68638" lon="6.73575">
        <ele>708.15</ele>
        <time>2011-07-06T14:03:48Z</time>
      </trkpt>
      <trkpt lat="43.68637" lon="6.73578">
        <ele>707.67</ele>
        <time>2011-07-06T14:03:49Z</time>
      </trkpt>
      <trkpt lat="43.68636" lon="6.73581">
        <ele>707.67</ele>
        <time>2011-07-06T14:03:50Z</time>
      </trkpt>
      <trkpt lat="43.68636" lon="6.73583">
        <ele>707.19</ele>
        <time>2011-07-06T14:03:51Z</time>
      </trkpt>
      <trkpt lat="43.68634" lon="6.73584">
        <ele>706.71</ele>
        <time>2011-07-06T14:03:52Z</time>
      </trkpt>
      <trkpt lat="43.68633" lon="6.73586">
        <ele>706.23</ele>
        <time>2011-07-06T14:03:53Z</time>
      </trkpt>
      <trkpt lat="43.68631" lon="6.73586">
        <ele>705.75</ele>
        <time>2011-07-06T14:04:06Z</time>
      </trkpt>
      <trkpt lat="43.68631" lon="6.73588">
        <ele>705.75</ele>
        <time>2011-07-06T14:04:18Z</time>
      </trkpt>
      <trkpt lat="43.68631" lon="6.7359">
        <ele>705.75</ele>
        <time>2011-07-06T14:04:19Z</time>
      </trkpt>
      <trkpt lat="43.6863" lon="6.73599">
        <ele>703.82</ele>
        <time>2011-07-06T14:04:25Z</time>
      </trkpt>
      <trkpt lat="43.68628" lon="6.73599">
        <ele>703.34</ele>
        <time>2011-07-06T14:04:26Z</time>
      </trkpt>
      <trkpt lat="43.68627" lon="6.73599">
        <ele>703.34</ele>
        <time>2011-07-06T14:04:27Z</time>
      </trkpt>
      <trkpt lat="43.68625" lon="6.73598">
        <ele>702.86</ele>
        <time>2011-07-06T14:04:41Z</time>
      </trkpt>
      <trkpt lat="43.68625" lon="6.73598">
        <ele>702.86</ele>
        <time>2011-07-06T14:05:01Z</time>
      </trkpt>
      <trkpt lat="43.68625" lon="6.73598">
        <ele>702.38</ele>
        <time>2011-07-06T14:05:41Z</time>
      </trkpt>
      <trkpt lat="43.68625" lon="6.73597">
        <ele>702.38</ele>
        <time>2011-07-06T14:06:29Z</time>
      </trkpt>
      <trkpt lat="43.68623" lon="6.73602">
        <ele>701.42</ele>
        <time>2011-07-06T14:06:47Z</time>
      </trkpt>
      <trkpt lat="43.68623" lon="6.73604">
        <ele>702.38</ele>
        <time>2011-07-06T14:06:55Z</time>
      </trkpt>
      <trkpt lat="43.68626" lon="6.73612">
        <ele>700.46</ele>
        <time>2011-07-06T14:07:02Z</time>
      </trkpt>
      <trkpt lat="43.68625" lon="6.73612">
        <ele>700.46</ele>
        <time>2011-07-06T14:07:03Z</time>
      </trkpt>
      <trkpt lat="43.68624" lon="6.73613">
        <ele>700.46</ele>
        <time>2011-07-06T14:07:04Z</time>
      </trkpt>
      <trkpt lat="43.68617" lon="6.73626">
        <ele>696.61</ele>
        <time>2011-07-06T14:07:16Z</time>
      </trkpt>
      <trkpt lat="43.68616" lon="6.73627">
        <ele>696.61</ele>
        <time>2011-07-06T14:07:17Z</time>
      </trkpt>
      <trkpt lat="43.68614" lon="6.7363">
        <ele>695.17</ele>
        <time>2011-07-06T14:07:22Z</time>
      </trkpt>
      <trkpt lat="43.6861" lon="6.73633">
        <ele>694.69</ele>
        <time>2011-07-06T14:07:25Z</time>
      </trkpt>
      <trkpt lat="43.68605" lon="6.73631">
        <ele>693.25</ele>
        <time>2011-07-06T14:07:31Z</time>
      </trkpt>
      <trkpt lat="43.68603" lon="6.7363">
        <ele>677.39</ele>
        <time>2011-07-06T14:07:34Z</time>
      </trkpt>
      <trkpt lat="43.68603" lon="6.7363">
        <ele>699.02</ele>
        <time>2011-07-06T14:07:35Z</time>
      </trkpt>
      <trkpt lat="43.68603" lon="6.7363">
        <ele>693.25</ele>
        <time>2011-07-06T14:07:36Z</time>
      </trkpt>
      <trkpt lat="43.68599" lon="6.73627">
        <ele>691.33</ele>
        <time>2011-07-06T14:07:46Z</time>
      </trkpt>
      <trkpt lat="43.686" lon="6.7363">
        <ele>690.84</ele>
        <time>2011-07-06T14:07:58Z</time>
      </trkpt>
      <trkpt lat="43.68599" lon="6.7363">
        <ele>690.84</ele>
        <time>2011-07-06T14:08:38Z</time>
      </trkpt>
      <trkpt lat="43.68599" lon="6.7363">
        <ele>690.36</ele>
        <time>2011-07-06T14:09:16Z</time>
      </trkpt>
      <trkpt lat="43.68599" lon="6.7363">
        <ele>690.84</ele>
        <time>2011-07-06T14:09:45Z</time>
      </trkpt>
      <trkpt lat="43.68599" lon="6.7363">
        <ele>690.84</ele>
        <time>2011-07-06T14:10:19Z</time>
      </trkpt>
      <trkpt lat="43.686" lon="6.73631">
        <ele>691.33</ele>
        <time>2011-07-06T14:10:43Z</time>
      </trkpt>
      <trkpt lat="43.68599" lon="6.73635">
        <ele>689.88</ele>
        <time>2011-07-06T14:10:58Z</time>
      </trkpt>
      <trkpt lat="43.68597" lon="6.73635">
        <ele>689.4</ele>
        <time>2011-07-06T14:11:03Z</time>
      </trkpt>
      <trkpt lat="43.68596" lon="6.73637">
        <ele>689.4</ele>
        <time>2011-07-06T14:11:04Z</time>
      </trkpt>
      <trkpt lat="43.68593" lon="6.7364">
        <ele>687.96</ele>
        <time>2011-07-06T14:11:09Z</time>
      </trkpt>
      <trkpt lat="43.68592" lon="6.7364">
        <ele>687.48</ele>
        <time>2011-07-06T14:11:12Z</time>
      </trkpt>
      <trkpt lat="43.68583" lon="6.73651">
        <ele>685.08</ele>
        <time>2011-07-06T14:11:23Z</time>
      </trkpt>
      <trkpt lat="43.68577" lon="6.73654">
        <ele>683.15</ele>
        <time>2011-07-06T14:11:30Z</time>
      </trkpt>
      <trkpt lat="43.68575" lon="6.73653">
        <ele>683.15</ele>
        <time>2011-07-06T14:11:31Z</time>
      </trkpt>
      <trkpt lat="43.68574" lon="6.73653">
        <ele>683.15</ele>
        <time>2011-07-06T14:11:32Z</time>
      </trkpt>
      <trkpt lat="43.68573" lon="6.73653">
        <ele>682.67</ele>
        <time>2011-07-06T14:11:33Z</time>
      </trkpt>
      <trkpt lat="43.68572" lon="6.73655">
        <ele>682.67</ele>
        <time>2011-07-06T14:11:34Z</time>
      </trkpt>
      <trkpt lat="43.68571" lon="6.73656">
        <ele>682.67</ele>
        <time>2011-07-06T14:11:35Z</time>
      </trkpt>
      <trkpt lat="43.68569" lon="6.73661">
        <ele>681.23</ele>
        <time>2011-07-06T14:11:40Z</time>
      </trkpt>
      <trkpt lat="43.68567" lon="6.73666">
        <ele>679.31</ele>
        <time>2011-07-06T14:11:47Z</time>
      </trkpt>
      <trkpt lat="43.68562" lon="6.7367">
        <ele>678.35</ele>
        <time>2011-07-06T14:11:51Z</time>
      </trkpt>
      <trkpt lat="43.68561" lon="6.73669">
        <ele>677.87</ele>
        <time>2011-07-06T14:11:52Z</time>
      </trkpt>
      <trkpt lat="43.68559" lon="6.7367">
        <ele>677.39</ele>
        <time>2011-07-06T14:11:53Z</time>
      </trkpt>
      <trkpt lat="43.68558" lon="6.7367">
        <ele>677.39</ele>
        <time>2011-07-06T14:11:54Z</time>
      </trkpt>
      <trkpt lat="43.68557" lon="6.7367">
        <ele>677.39</ele>
        <time>2011-07-06T14:11:55Z</time>
      </trkpt>
      <trkpt lat="43.68556" lon="6.73672">
        <ele>676.42</ele>
        <time>2011-07-06T14:11:58Z</time>
      </trkpt>
      <trkpt lat="43.68555" lon="6.73673">
        <ele>676.42</ele>
        <time>2011-07-06T14:11:59Z</time>
      </trkpt>
      <trkpt lat="43.68554" lon="6.73675">
        <ele>675.94</ele>
        <time>2011-07-06T14:12:00Z</time>
      </trkpt>
      <trkpt lat="43.68552" lon="6.73675">
        <ele>675.46</ele>
        <time>2011-07-06T14:12:03Z</time>
      </trkpt>
      <trkpt lat="43.68551" lon="6.73675">
        <ele>675.46</ele>
        <time>2011-07-06T14:12:05Z</time>
      </trkpt>
      <trkpt lat="43.68549" lon="6.73676">
        <ele>674.98</ele>
        <time>2011-07-06T14:12:06Z</time>
      </trkpt>
      <trkpt lat="43.68542" lon="6.73682">
        <ele>671.62</ele>
        <time>2011-07-06T14:12:15Z</time>
      </trkpt>
      <trkpt lat="43.68542" lon="6.73682">
        <ele>672.58</ele>
        <time>2011-07-06T14:12:18Z</time>
      </trkpt>
      <trkpt lat="43.68541" lon="6.73684">
        <ele>673.06</ele>
        <time>2011-07-06T14:12:19Z</time>
      </trkpt>
      <trkpt lat="43.6854" lon="6.73686">
        <ele>672.58</ele>
        <time>2011-07-06T14:12:20Z</time>
      </trkpt>
      <trkpt lat="43.68539" lon="6.73688">
        <ele>672.1</ele>
        <time>2011-07-06T14:12:21Z</time>
      </trkpt>
      <trkpt lat="43.68538" lon="6.73692">
        <ele>671.62</ele>
        <time>2011-07-06T14:12:24Z</time>
      </trkpt>
      <trkpt lat="43.68534" lon="6.73693">
        <ele>670.66</ele>
        <time>2011-07-06T14:12:27Z</time>
      </trkpt>
      <trkpt lat="43.68528" lon="6.73697">
        <ele>668.25</ele>
        <time>2011-07-06T14:12:33Z</time>
      </trkpt>
      <trkpt lat="43.68525" lon="6.73697">
        <ele>667.77</ele>
        <time>2011-07-06T14:12:36Z</time>
      </trkpt>
      <trkpt lat="43.68524" lon="6.73697">
        <ele>667.29</ele>
        <time>2011-07-06T14:12:37Z</time>
      </trkpt>
      <trkpt lat="43.68523" lon="6.73697">
        <ele>666.81</ele>
        <time>2011-07-06T14:12:38Z</time>
      </trkpt>
      <trkpt lat="43.68522" lon="6.73699">
        <ele>666.81</ele>
        <time>2011-07-06T14:12:40Z</time>
      </trkpt>
      <trkpt lat="43.68523" lon="6.73704">
        <ele>665.85</ele>
        <time>2011-07-06T14:12:43Z</time>
      </trkpt>
      <trkpt lat="43.68523" lon="6.73707">
        <ele>665.85</ele>
        <time>2011-07-06T14:12:44Z</time>
      </trkpt>
      <trkpt lat="43.68523" lon="6.73709">
        <ele>665.37</ele>
        <time>2011-07-06T14:12:45Z</time>
      </trkpt>
      <trkpt lat="43.68523" lon="6.73712">
        <ele>664.89</ele>
        <time>2011-07-06T14:12:47Z</time>
      </trkpt>
      <trkpt lat="43.68523" lon="6.73713">
        <ele>664.41</ele>
        <time>2011-07-06T14:12:48Z</time>
      </trkpt>
      <trkpt lat="43.68521" lon="6.73714">
        <ele>663.93</ele>
        <time>2011-07-06T14:12:49Z</time>
      </trkpt>
      <trkpt lat="43.68516" lon="6.73713">
        <ele>662.97</ele>
        <time>2011-07-06T14:12:53Z</time>
      </trkpt>
      <trkpt lat="43.68515" lon="6.73712">
        <ele>662.97</ele>
        <time>2011-07-06T14:12:54Z</time>
      </trkpt>
      <trkpt lat="43.68514" lon="6.73711">
        <ele>662.49</ele>
        <time>2011-07-06T14:12:55Z</time>
      </trkpt>
      <trkpt lat="43.68512" lon="6.73711">
        <ele>662.49</ele>
        <time>2011-07-06T14:12:56Z</time>
      </trkpt>
      <trkpt lat="43.68511" lon="6.73712">
        <ele>662.01</ele>
        <time>2011-07-06T14:12:57Z</time>
      </trkpt>
      <trkpt lat="43.68509" lon="6.73718">
        <ele>661.04</ele>
        <time>2011-07-06T14:13:10Z</time>
      </trkpt>
      <trkpt lat="43.68507" lon="6.73719">
        <ele>660.56</ele>
        <time>2011-07-06T14:13:11Z</time>
      </trkpt>
      <trkpt lat="43.68506" lon="6.7372">
        <ele>661.04</ele>
        <time>2011-07-06T14:13:12Z</time>
      </trkpt>
      <trkpt lat="43.68504" lon="6.73721">
        <ele>660.56</ele>
        <time>2011-07-06T14:13:13Z</time>
      </trkpt>
      <trkpt lat="43.68504" lon="6.73723">
        <ele>660.56</ele>
        <time>2011-07-06T14:13:14Z</time>
      </trkpt>
      <trkpt lat="43.68503" lon="6.73725">
        <ele>660.08</ele>
        <time>2011-07-06T14:13:15Z</time>
      </trkpt>
      <trkpt lat="43.68503" lon="6.73727">
        <ele>660.08</ele>
        <time>2011-07-06T14:13:16Z</time>
      </trkpt>
      <trkpt lat="43.68498" lon="6.73731">
        <ele>657.2</ele>
        <time>2011-07-06T14:13:26Z</time>
      </trkpt>
      <trkpt lat="43.68498" lon="6.73731">
        <ele>656.72</ele>
        <time>2011-07-06T14:13:30Z</time>
      </trkpt>
      <trkpt lat="43.68494" lon="6.73722">
        <ele>658.16</ele>
        <time>2011-07-06T14:24:05Z</time>
      </trkpt>
      <trkpt lat="43.68494" lon="6.73722">
        <ele>657.2</ele>
        <time>2011-07-06T14:24:06Z</time>
      </trkpt>
      <trkpt lat="43.68499" lon="6.73724">
        <ele>654.31</ele>
        <time>2011-07-06T14:24:12Z</time>
      </trkpt>
      <trkpt lat="43.68499" lon="6.73724">
        <ele>650.95</ele>
        <time>2011-07-06T14:24:18Z</time>
      </trkpt>
      <trkpt lat="43.68501" lon="6.73726">
        <ele>649.51</ele>
        <time>2011-07-06T14:24:23Z</time>
      </trkpt>
      <trkpt lat="43.685" lon="6.73728">
        <ele>646.14</ele>
        <time>2011-07-06T14:24:34Z</time>
      </trkpt>
      <trkpt lat="43.68499" lon="6.73731">
        <ele>643.74</ele>
        <time>2011-07-06T14:24:53Z</time>
      </trkpt>
      <trkpt lat="43.68497" lon="6.73729">
        <ele>643.74</ele>
        <time>2011-07-06T14:25:28Z</time>
      </trkpt>
      <trkpt lat="43.68496" lon="6.73728">
        <ele>643.26</ele>
        <time>2011-07-06T14:25:45Z</time>
      </trkpt>
      <trkpt lat="43.68496" lon="6.73729">
        <ele>643.74</ele>
        <time>2011-07-06T14:25:59Z</time>
      </trkpt>
      <trkpt lat="43.68496" lon="6.73729">
        <ele>643.74</ele>
        <time>2011-07-06T14:26:21Z</time>
      </trkpt>
      <trkpt lat="43.68496" lon="6.73731">
        <ele>643.74</ele>
        <time>2011-07-06T14:26:47Z</time>
      </trkpt>
      <trkpt lat="43.68496" lon="6.73731">
        <ele>643.26</ele>
        <time>2011-07-06T14:27:07Z</time>
      </trkpt>
      <trkpt lat="43.68496" lon="6.73731">
        <ele>643.74</ele>
        <time>2011-07-06T14:27:45Z</time>
      </trkpt>
      <trkpt lat="43.68496" lon="6.73731">
        <ele>643.74</ele>
        <time>2011-07-06T14:27:55Z</time>
      </trkpt>
      <trkpt lat="43.68485" lon="6.73742">
        <ele>640.38</ele>
        <time>2011-07-06T14:28:01Z</time>
      </trkpt>
      <trkpt lat="43.68473" lon="6.73751">
        <ele>636.53</ele>
        <time>2011-07-06T14:28:05Z</time>
      </trkpt>
      <trkpt lat="43.6846" lon="6.73758">
        <ele>632.2</ele>
        <time>2011-07-06T14:28:09Z</time>
      </trkpt>
      <trkpt lat="43.68451" lon="6.7377">
        <ele>628.84</ele>
        <time>2011-07-06T14:28:12Z</time>
      </trkpt>
      <trkpt lat="43.6844" lon="6.73786">
        <ele>625.47</ele>
        <time>2011-07-06T14:28:15Z</time>
      </trkpt>
      <trkpt lat="43.6843" lon="6.73799">
        <ele>624.51</ele>
        <time>2011-07-06T14:28:17Z</time>
      </trkpt>
      <trkpt lat="43.68398" lon="6.73836">
        <ele>622.59</ele>
        <time>2011-07-06T14:28:22Z</time>
      </trkpt>
      <trkpt lat="43.68393" lon="6.73845">
        <ele>622.11</ele>
        <time>2011-07-06T14:28:23Z</time>
      </trkpt>
      <trkpt lat="43.68389" lon="6.73853">
        <ele>621.63</ele>
        <time>2011-07-06T14:28:24Z</time>
      </trkpt>
      <trkpt lat="43.68386" lon="6.73861">
        <ele>621.63</ele>
        <time>2011-07-06T14:28:25Z</time>
      </trkpt>
      <trkpt lat="43.68382" lon="6.73868">
        <ele>621.15</ele>
        <time>2011-07-06T14:28:26Z</time>
      </trkpt>
      <trkpt lat="43.68379" lon="6.73876">
        <ele>620.67</ele>
        <time>2011-07-06T14:28:27Z</time>
      </trkpt>
      <trkpt lat="43.68377" lon="6.73885">
        <ele>619.71</ele>
        <time>2011-07-06T14:28:28Z</time>
      </trkpt>
      <trkpt lat="43.68375" lon="6.73894">
        <ele>619.23</ele>
        <time>2011-07-06T14:28:29Z</time>
      </trkpt>
      <trkpt lat="43.68372" lon="6.73903">
        <ele>618.75</ele>
        <time>2011-07-06T14:28:30Z</time>
      </trkpt>
      <trkpt lat="43.68367" lon="6.73911">
        <ele>617.78</ele>
        <time>2011-07-06T14:28:31Z</time>
      </trkpt>
      <trkpt lat="43.68362" lon="6.73918">
        <ele>617.3</ele>
        <time>2011-07-06T14:28:32Z</time>
      </trkpt>
      <trkpt lat="43.68346" lon="6.73937">
        <ele>613.46</ele>
        <time>2011-07-06T14:28:35Z</time>
      </trkpt>
      <trkpt lat="43.6834" lon="6.73943">
        <ele>612.5</ele>
        <time>2011-07-06T14:28:36Z</time>
      </trkpt>
      <trkpt lat="43.68335" lon="6.73949">
        <ele>611.06</ele>
        <time>2011-07-06T14:28:37Z</time>
      </trkpt>
      <trkpt lat="43.68332" lon="6.73956">
        <ele>610.09</ele>
        <time>2011-07-06T14:28:38Z</time>
      </trkpt>
      <trkpt lat="43.6833" lon="6.73964">
        <ele>609.13</ele>
        <time>2011-07-06T14:28:39Z</time>
      </trkpt>
      <trkpt lat="43.68329" lon="6.73973">
        <ele>607.69</ele>
        <time>2011-07-06T14:28:40Z</time>
      </trkpt>
      <trkpt lat="43.68326" lon="6.73988">
        <ele>605.29</ele>
        <time>2011-07-06T14:28:42Z</time>
      </trkpt>
      <trkpt lat="43.68324" lon="6.73995">
        <ele>604.33</ele>
        <time>2011-07-06T14:28:43Z</time>
      </trkpt>
      <trkpt lat="43.68319" lon="6.74002">
        <ele>602.88</ele>
        <time>2011-07-06T14:28:44Z</time>
      </trkpt>
      <trkpt lat="43.68304" lon="6.74024">
        <ele>599.04</ele>
        <time>2011-07-06T14:28:47Z</time>
      </trkpt>
      <trkpt lat="43.68298" lon="6.7404">
        <ele>597.6</ele>
        <time>2011-07-06T14:28:49Z</time>
      </trkpt>
      <trkpt lat="43.68293" lon="6.74047">
        <ele>596.15</ele>
        <time>2011-07-06T14:28:50Z</time>
      </trkpt>
      <trkpt lat="43.68288" lon="6.74054">
        <ele>594.23</ele>
        <time>2011-07-06T14:28:51Z</time>
      </trkpt>
      <trkpt lat="43.68271" lon="6.74075">
        <ele>590.39</ele>
        <time>2011-07-06T14:28:55Z</time>
      </trkpt>
      <trkpt lat="43.68268" lon="6.74079">
        <ele>590.39</ele>
        <time>2011-07-06T14:28:56Z</time>
      </trkpt>
      <trkpt lat="43.68262" lon="6.74083">
        <ele>588.95</ele>
        <time>2011-07-06T14:28:58Z</time>
      </trkpt>
      <trkpt lat="43.68249" lon="6.7408">
        <ele>587.98</ele>
        <time>2011-07-06T14:29:02Z</time>
      </trkpt>
      <trkpt lat="43.68247" lon="6.74076">
        <ele>587.98</ele>
        <time>2011-07-06T14:29:03Z</time>
      </trkpt>
      <trkpt lat="43.68244" lon="6.74071">
        <ele>587.5</ele>
        <time>2011-07-06T14:29:04Z</time>
      </trkpt>
      <trkpt lat="43.68238" lon="6.74057">
        <ele>587.02</ele>
        <time>2011-07-06T14:29:07Z</time>
      </trkpt>
      <trkpt lat="43.68231" lon="6.74034">
        <ele>587.02</ele>
        <time>2011-07-06T14:29:11Z</time>
      </trkpt>
      <trkpt lat="43.68229" lon="6.74029">
        <ele>587.02</ele>
        <time>2011-07-06T14:29:12Z</time>
      </trkpt>
      <trkpt lat="43.68214" lon="6.74">
        <ele>586.54</ele>
        <time>2011-07-06T14:29:17Z</time>
      </trkpt>
      <trkpt lat="43.68211" lon="6.73987">
        <ele>586.54</ele>
        <time>2011-07-06T14:29:19Z</time>
      </trkpt>
      <trkpt lat="43.68205" lon="6.73961">
        <ele>586.06</ele>
        <time>2011-07-06T14:29:23Z</time>
      </trkpt>
      <trkpt lat="43.68206" lon="6.73915">
        <ele>588.46</ele>
        <time>2011-07-06T14:29:34Z</time>
      </trkpt>
      <trkpt lat="43.68205" lon="6.73901">
        <ele>588.46</ele>
        <time>2011-07-06T14:29:47Z</time>
      </trkpt>
      <trkpt lat="43.68207" lon="6.7385">
        <ele>589.91</ele>
        <time>2011-07-06T14:29:58Z</time>
      </trkpt>
      <trkpt lat="43.68206" lon="6.73832">
        <ele>589.43</ele>
        <time>2011-07-06T14:30:01Z</time>
      </trkpt>
      <trkpt lat="43.68206" lon="6.73826">
        <ele>589.91</ele>
        <time>2011-07-06T14:30:02Z</time>
      </trkpt>
      <trkpt lat="43.68205" lon="6.73821">
        <ele>589.91</ele>
        <time>2011-07-06T14:30:03Z</time>
      </trkpt>
      <trkpt lat="43.68203" lon="6.73816">
        <ele>589.43</ele>
        <time>2011-07-06T14:30:04Z</time>
      </trkpt>
      <trkpt lat="43.68201" lon="6.73812">
        <ele>589.91</ele>
        <time>2011-07-06T14:30:05Z</time>
      </trkpt>
      <trkpt lat="43.68198" lon="6.73809">
        <ele>589.91</ele>
        <time>2011-07-06T14:30:06Z</time>
      </trkpt>
      <trkpt lat="43.68195" lon="6.73806">
        <ele>589.91</ele>
        <time>2011-07-06T14:30:07Z</time>
      </trkpt>
      <trkpt lat="43.68192" lon="6.73804">
        <ele>589.91</ele>
        <time>2011-07-06T14:30:08Z</time>
      </trkpt>
      <trkpt lat="43.68189" lon="6.73802">
        <ele>590.39</ele>
        <time>2011-07-06T14:30:09Z</time>
      </trkpt>
      <trkpt lat="43.68187" lon="6.73799">
        <ele>590.87</ele>
        <time>2011-07-06T14:30:10Z</time>
      </trkpt>
      <trkpt lat="43.68185" lon="6.73797">
        <ele>590.87</ele>
        <time>2011-07-06T14:30:11Z</time>
      </trkpt>
      <trkpt lat="43.68184" lon="6.73794">
        <ele>591.83</ele>
        <time>2011-07-06T14:30:12Z</time>
      </trkpt>
      <trkpt lat="43.68182" lon="6.73793">
        <ele>591.35</ele>
        <time>2011-07-06T14:30:13Z</time>
      </trkpt>
      <trkpt lat="43.68163" lon="6.73758">
        <ele>593.75</ele>
        <time>2011-07-06T14:30:27Z</time>
      </trkpt>
      <trkpt lat="43.68142" lon="6.73709">
        <ele>595.19</ele>
        <time>2011-07-06T14:30:43Z</time>
      </trkpt>
      <trkpt lat="43.68142" lon="6.73676">
        <ele>598.08</ele>
        <time>2011-07-06T14:30:55Z</time>
      </trkpt>
      <trkpt lat="43.68146" lon="6.7365">
        <ele>600.96</ele>
        <time>2011-07-06T14:31:08Z</time>
      </trkpt>
      <trkpt lat="43.6815" lon="6.73634">
        <ele>602.88</ele>
        <time>2011-07-06T14:31:17Z</time>
      </trkpt>
      <trkpt lat="43.6815" lon="6.73632">
        <ele>602.88</ele>
        <time>2011-07-06T14:31:18Z</time>
      </trkpt>
      <trkpt lat="43.68149" lon="6.7363">
        <ele>603.36</ele>
        <time>2011-07-06T14:31:19Z</time>
      </trkpt>
      <trkpt lat="43.68142" lon="6.736">
        <ele>606.25</ele>
        <time>2011-07-06T14:31:33Z</time>
      </trkpt>
      <trkpt lat="43.68131" lon="6.73567">
        <ele>608.65</ele>
        <time>2011-07-06T14:31:48Z</time>
      </trkpt>
      <trkpt lat="43.68126" lon="6.73528">
        <ele>611.06</ele>
        <time>2011-07-06T14:32:04Z</time>
      </trkpt>
      <trkpt lat="43.68115" lon="6.73485">
        <ele>613.46</ele>
        <time>2011-07-06T14:32:22Z</time>
      </trkpt>
      <trkpt lat="43.68099" lon="6.73451">
        <ele>616.34</ele>
        <time>2011-07-06T14:32:39Z</time>
      </trkpt>
      <trkpt lat="43.68077" lon="6.73419">
        <ele>619.23</ele>
        <time>2011-07-06T14:32:56Z</time>
      </trkpt>
      <trkpt lat="43.68075" lon="6.73417">
        <ele>619.23</ele>
        <time>2011-07-06T14:32:58Z</time>
      </trkpt>
      <trkpt lat="43.68073" lon="6.73416">
        <ele>619.71</ele>
        <time>2011-07-06T14:33:12Z</time>
      </trkpt>
      <trkpt lat="43.68072" lon="6.73415">
        <ele>618.75</ele>
        <time>2011-07-06T14:33:14Z</time>
      </trkpt>
      <trkpt lat="43.68071" lon="6.73413">
        <ele>618.75</ele>
        <time>2011-07-06T14:33:15Z</time>
      </trkpt>
      <trkpt lat="43.68071" lon="6.73411">
        <ele>619.71</ele>
        <time>2011-07-06T14:33:16Z</time>
      </trkpt>
      <trkpt lat="43.68073" lon="6.73378">
        <ele>622.11</ele>
        <time>2011-07-06T14:33:31Z</time>
      </trkpt>
      <trkpt lat="43.68078" lon="6.73345">
        <ele>624.03</ele>
        <time>2011-07-06T14:33:45Z</time>
      </trkpt>
      <trkpt lat="43.6808" lon="6.73308">
        <ele>626.44</ele>
        <time>2011-07-06T14:33:59Z</time>
      </trkpt>
      <trkpt lat="43.68091" lon="6.73271">
        <ele>628.84</ele>
        <time>2011-07-06T14:34:15Z</time>
      </trkpt>
      <trkpt lat="43.68101" lon="6.73241">
        <ele>631.24</ele>
        <time>2011-07-06T14:34:29Z</time>
      </trkpt>
      <trkpt lat="43.681" lon="6.73239">
        <ele>631.24</ele>
        <time>2011-07-06T14:34:30Z</time>
      </trkpt>
      <trkpt lat="43.681" lon="6.73237">
        <ele>631.24</ele>
        <time>2011-07-06T14:34:44Z</time>
      </trkpt>
      <trkpt lat="43.681" lon="6.73234">
        <ele>631.24</ele>
        <time>2011-07-06T14:34:54Z</time>
      </trkpt>
      <trkpt lat="43.681" lon="6.73232">
        <ele>631.72</ele>
        <time>2011-07-06T14:34:55Z</time>
      </trkpt>
      <trkpt lat="43.68101" lon="6.73231">
        <ele>631.72</ele>
        <time>2011-07-06T14:34:56Z</time>
      </trkpt>
      <trkpt lat="43.68102" lon="6.73229">
        <ele>632.2</ele>
        <time>2011-07-06T14:34:57Z</time>
      </trkpt>
      <trkpt lat="43.68102" lon="6.73227">
        <ele>632.2</ele>
        <time>2011-07-06T14:34:58Z</time>
      </trkpt>
      <trkpt lat="43.68103" lon="6.73224">
        <ele>632.2</ele>
        <time>2011-07-06T14:34:59Z</time>
      </trkpt>
      <trkpt lat="43.68117" lon="6.73196">
        <ele>633.17</ele>
        <time>2011-07-06T14:35:13Z</time>
      </trkpt>
      <trkpt lat="43.68123" lon="6.73191">
        <ele>636.05</ele>
        <time>2011-07-06T14:35:17Z</time>
      </trkpt>
      <trkpt lat="43.68141" lon="6.73166">
        <ele>638.93</ele>
        <time>2011-07-06T14:35:32Z</time>
      </trkpt>
      <trkpt lat="43.68131" lon="6.73126">
        <ele>637.97</ele>
        <time>2011-07-06T14:35:44Z</time>
      </trkpt>
      <trkpt lat="43.68108" lon="6.73053">
        <ele>638.45</ele>
        <time>2011-07-06T14:35:59Z</time>
      </trkpt>
      <trkpt lat="43.68107" lon="6.73048">
        <ele>638.45</ele>
        <time>2011-07-06T14:36:00Z</time>
      </trkpt>
      <trkpt lat="43.68105" lon="6.73042">
        <ele>638.45</ele>
        <time>2011-07-06T14:36:01Z</time>
      </trkpt>
      <trkpt lat="43.68084" lon="6.72982">
        <ele>637.97</ele>
        <time>2011-07-06T14:36:12Z</time>
      </trkpt>
      <trkpt lat="43.68081" lon="6.72964">
        <ele>637.97</ele>
        <time>2011-07-06T14:36:15Z</time>
      </trkpt>
      <trkpt lat="43.68081" lon="6.72959">
        <ele>638.45</ele>
        <time>2011-07-06T14:36:16Z</time>
      </trkpt>
      <trkpt lat="43.68076" lon="6.72885">
        <ele>638.45</ele>
        <time>2011-07-06T14:36:28Z</time>
      </trkpt>
      <trkpt lat="43.68076" lon="6.72879">
        <ele>638.45</ele>
        <time>2011-07-06T14:36:29Z</time>
      </trkpt>
      <trkpt lat="43.68077" lon="6.72873">
        <ele>638.45</ele>
        <time>2011-07-06T14:36:30Z</time>
      </trkpt>
      <trkpt lat="43.68078" lon="6.72867">
        <ele>638.45</ele>
        <time>2011-07-06T14:36:31Z</time>
      </trkpt>
      <trkpt lat="43.6808" lon="6.72861">
        <ele>638.93</ele>
        <time>2011-07-06T14:36:32Z</time>
      </trkpt>
      <trkpt lat="43.68085" lon="6.72789">
        <ele>639.89</ele>
        <time>2011-07-06T14:36:47Z</time>
      </trkpt>
      <trkpt lat="43.68041" lon="6.72816">
        <ele>637.49</ele>
        <time>2011-07-06T14:36:57Z</time>
      </trkpt>
      <trkpt lat="43.67979" lon="6.7286">
        <ele>636.05</ele>
        <time>2011-07-06T14:37:07Z</time>
      </trkpt>
      <trkpt lat="43.6793" lon="6.7288">
        <ele>633.17</ele>
        <time>2011-07-06T14:37:13Z</time>
      </trkpt>
      <trkpt lat="43.67912" lon="6.72889">
        <ele>631.72</ele>
        <time>2011-07-06T14:37:15Z</time>
      </trkpt>
      <trkpt lat="43.67903" lon="6.72896">
        <ele>630.76</ele>
        <time>2011-07-06T14:37:16Z</time>
      </trkpt>
      <trkpt lat="43.67895" lon="6.72904">
        <ele>630.28</ele>
        <time>2011-07-06T14:37:17Z</time>
      </trkpt>
      <trkpt lat="43.67887" lon="6.72914">
        <ele>629.32</ele>
        <time>2011-07-06T14:37:18Z</time>
      </trkpt>
      <trkpt lat="43.6788" lon="6.72925">
        <ele>628.36</ele>
        <time>2011-07-06T14:37:19Z</time>
      </trkpt>
      <trkpt lat="43.67873" lon="6.72938">
        <ele>627.88</ele>
        <time>2011-07-06T14:37:20Z</time>
      </trkpt>
      <trkpt lat="43.67868" lon="6.7295">
        <ele>627.4</ele>
        <time>2011-07-06T14:37:21Z</time>
      </trkpt>
      <trkpt lat="43.67862" lon="6.72962">
        <ele>626.44</ele>
        <time>2011-07-06T14:37:22Z</time>
      </trkpt>
      <trkpt lat="43.67854" lon="6.72974">
        <ele>624.99</ele>
        <time>2011-07-06T14:37:23Z</time>
      </trkpt>
      <trkpt lat="43.67829" lon="6.73007">
        <ele>621.63</ele>
        <time>2011-07-06T14:37:26Z</time>
      </trkpt>
      <trkpt lat="43.6781" lon="6.73028">
        <ele>619.71</ele>
        <time>2011-07-06T14:37:28Z</time>
      </trkpt>
      <trkpt lat="43.67799" lon="6.73038">
        <ele>617.78</ele>
        <time>2011-07-06T14:37:29Z</time>
      </trkpt>
      <trkpt lat="43.67755" lon="6.7307">
        <ele>613.94</ele>
        <time>2011-07-06T14:37:33Z</time>
      </trkpt>
      <trkpt lat="43.67713" lon="6.73101">
        <ele>610.57</ele>
        <time>2011-07-06T14:37:37Z</time>
      </trkpt>
      <trkpt lat="43.67682" lon="6.73127">
        <ele>606.73</ele>
        <time>2011-07-06T14:37:40Z</time>
      </trkpt>
      <trkpt lat="43.67648" lon="6.73154">
        <ele>602.88</ele>
        <time>2011-07-06T14:37:43Z</time>
      </trkpt>
      <trkpt lat="43.67625" lon="6.73174">
        <ele>599.52</ele>
        <time>2011-07-06T14:37:45Z</time>
      </trkpt>
      <trkpt lat="43.67592" lon="6.7321">
        <ele>593.75</ele>
        <time>2011-07-06T14:37:48Z</time>
      </trkpt>
      <trkpt lat="43.67583" lon="6.73225">
        <ele>592.79</ele>
        <time>2011-07-06T14:37:49Z</time>
      </trkpt>
      <trkpt lat="43.67573" lon="6.73238">
        <ele>591.83</ele>
        <time>2011-07-06T14:37:50Z</time>
      </trkpt>
      <trkpt lat="43.67547" lon="6.73259">
        <ele>588.95</ele>
        <time>2011-07-06T14:37:52Z</time>
      </trkpt>
      <trkpt lat="43.67511" lon="6.73286">
        <ele>585.1</ele>
        <time>2011-07-06T14:37:55Z</time>
      </trkpt>
      <trkpt lat="43.67465" lon="6.73324">
        <ele>581.73</ele>
        <time>2011-07-06T14:37:59Z</time>
      </trkpt>
      <trkpt lat="43.67434" lon="6.73351">
        <ele>577.89</ele>
        <time>2011-07-06T14:38:02Z</time>
      </trkpt>
      <trkpt lat="43.67419" lon="6.73364">
        <ele>575.49</ele>
        <time>2011-07-06T14:38:04Z</time>
      </trkpt>
      <trkpt lat="43.67411" lon="6.73367">
        <ele>574.53</ele>
        <time>2011-07-06T14:38:05Z</time>
      </trkpt>
      <trkpt lat="43.67403" lon="6.73366">
        <ele>573.56</ele>
        <time>2011-07-06T14:38:06Z</time>
      </trkpt>
      <trkpt lat="43.67396" lon="6.7336">
        <ele>573.08</ele>
        <time>2011-07-06T14:38:07Z</time>
      </trkpt>
      <trkpt lat="43.67389" lon="6.73352">
        <ele>573.08</ele>
        <time>2011-07-06T14:38:08Z</time>
      </trkpt>
      <trkpt lat="43.67383" lon="6.73342">
        <ele>572.12</ele>
        <time>2011-07-06T14:38:09Z</time>
      </trkpt>
      <trkpt lat="43.67377" lon="6.73331">
        <ele>572.12</ele>
        <time>2011-07-06T14:38:10Z</time>
      </trkpt>
      <trkpt lat="43.67372" lon="6.73319">
        <ele>571.16</ele>
        <time>2011-07-06T14:38:11Z</time>
      </trkpt>
      <trkpt lat="43.67368" lon="6.73307">
        <ele>571.16</ele>
        <time>2011-07-06T14:38:12Z</time>
      </trkpt>
      <trkpt lat="43.67363" lon="6.73294">
        <ele>570.68</ele>
        <time>2011-07-06T14:38:13Z</time>
      </trkpt>
      <trkpt lat="43.67362" lon="6.7328">
        <ele>570.2</ele>
        <time>2011-07-06T14:38:14Z</time>
      </trkpt>
      <trkpt lat="43.67362" lon="6.73266">
        <ele>569.72</ele>
        <time>2011-07-06T14:38:15Z</time>
      </trkpt>
      <trkpt lat="43.67363" lon="6.73252">
        <ele>570.2</ele>
        <time>2011-07-06T14:38:16Z</time>
      </trkpt>
      <trkpt lat="43.67365" lon="6.73238">
        <ele>569.24</ele>
        <time>2011-07-06T14:38:17Z</time>
      </trkpt>
      <trkpt lat="43.67368" lon="6.73225">
        <ele>568.76</ele>
        <time>2011-07-06T14:38:18Z</time>
      </trkpt>
      <trkpt lat="43.67371" lon="6.73212">
        <ele>568.76</ele>
        <time>2011-07-06T14:38:19Z</time>
      </trkpt>
      <trkpt lat="43.67407" lon="6.73081">
        <ele>565.39</ele>
        <time>2011-07-06T14:38:29Z</time>
      </trkpt>
      <trkpt lat="43.67443" lon="6.72948">
        <ele>562.99</ele>
        <time>2011-07-06T14:38:39Z</time>
      </trkpt>
      <trkpt lat="43.67493" lon="6.72847">
        <ele>561.07</ele>
        <time>2011-07-06T14:38:50Z</time>
      </trkpt>
      <trkpt lat="43.67501" lon="6.72828">
        <ele>560.59</ele>
        <time>2011-07-06T14:38:52Z</time>
      </trkpt>
      <trkpt lat="43.67503" lon="6.72818">
        <ele>560.59</ele>
        <time>2011-07-06T14:38:53Z</time>
      </trkpt>
      <trkpt lat="43.6754" lon="6.72672">
        <ele>558.18</ele>
        <time>2011-07-06T14:39:07Z</time>
      </trkpt>
      <trkpt lat="43.67541" lon="6.72662">
        <ele>558.18</ele>
        <time>2011-07-06T14:39:08Z</time>
      </trkpt>
      <trkpt lat="43.67542" lon="6.72651">
        <ele>558.18</ele>
        <time>2011-07-06T14:39:09Z</time>
      </trkpt>
      <trkpt lat="43.67541" lon="6.7264">
        <ele>558.18</ele>
        <time>2011-07-06T14:39:10Z</time>
      </trkpt>
      <trkpt lat="43.67521" lon="6.72505">
        <ele>557.22</ele>
        <time>2011-07-06T14:39:22Z</time>
      </trkpt>
      <trkpt lat="43.67504" lon="6.72405">
        <ele>556.26</ele>
        <time>2011-07-06T14:39:32Z</time>
      </trkpt>
      <trkpt lat="43.67504" lon="6.72395">
        <ele>555.78</ele>
        <time>2011-07-06T14:39:33Z</time>
      </trkpt>
      <trkpt lat="43.67505" lon="6.72386">
        <ele>555.78</ele>
        <time>2011-07-06T14:39:34Z</time>
      </trkpt>
      <trkpt lat="43.67507" lon="6.72376">
        <ele>555.3</ele>
        <time>2011-07-06T14:39:35Z</time>
      </trkpt>
      <trkpt lat="43.6751" lon="6.72365">
        <ele>555.3</ele>
        <time>2011-07-06T14:39:36Z</time>
      </trkpt>
      <trkpt lat="43.67512" lon="6.72355">
        <ele>554.82</ele>
        <time>2011-07-06T14:39:37Z</time>
      </trkpt>
      <trkpt lat="43.6754" lon="6.72278">
        <ele>554.82</ele>
        <time>2011-07-06T14:39:45Z</time>
      </trkpt>
      <trkpt lat="43.6754" lon="6.72267">
        <ele>554.82</ele>
        <time>2011-07-06T14:39:46Z</time>
      </trkpt>
      <trkpt lat="43.67538" lon="6.72257">
        <ele>555.3</ele>
        <time>2011-07-06T14:39:47Z</time>
      </trkpt>
      <trkpt lat="43.67534" lon="6.72248">
        <ele>555.3</ele>
        <time>2011-07-06T14:39:48Z</time>
      </trkpt>
      <trkpt lat="43.67529" lon="6.72239">
        <ele>554.34</ele>
        <time>2011-07-06T14:39:49Z</time>
      </trkpt>
      <trkpt lat="43.67526" lon="6.72229">
        <ele>553.86</ele>
        <time>2011-07-06T14:39:50Z</time>
      </trkpt>
      <trkpt lat="43.67522" lon="6.72218">
        <ele>553.38</ele>
        <time>2011-07-06T14:39:51Z</time>
      </trkpt>
      <trkpt lat="43.6752" lon="6.72205">
        <ele>551.93</ele>
        <time>2011-07-06T14:39:52Z</time>
      </trkpt>
      <trkpt lat="43.67519" lon="6.72192">
        <ele>550.97</ele>
        <time>2011-07-06T14:39:53Z</time>
      </trkpt>
      <trkpt lat="43.67521" lon="6.72178">
        <ele>550.49</ele>
        <time>2011-07-06T14:39:54Z</time>
      </trkpt>
      <trkpt lat="43.67525" lon="6.72164">
        <ele>549.05</ele>
        <time>2011-07-06T14:39:55Z</time>
      </trkpt>
      <trkpt lat="43.6753" lon="6.7215">
        <ele>548.09</ele>
        <time>2011-07-06T14:39:56Z</time>
      </trkpt>
      <trkpt lat="43.67535" lon="6.72137">
        <ele>547.61</ele>
        <time>2011-07-06T14:39:57Z</time>
      </trkpt>
      <trkpt lat="43.67564" lon="6.72065">
        <ele>543.28</ele>
        <time>2011-07-06T14:40:02Z</time>
      </trkpt>
      <trkpt lat="43.67577" lon="6.72021">
        <ele>541.36</ele>
        <time>2011-07-06T14:40:05Z</time>
      </trkpt>
      <trkpt lat="43.67583" lon="6.72008">
        <ele>540.88</ele>
        <time>2011-07-06T14:40:06Z</time>
      </trkpt>
      <trkpt lat="43.67589" lon="6.71997">
        <ele>539.92</ele>
        <time>2011-07-06T14:40:07Z</time>
      </trkpt>
      <trkpt lat="43.67596" lon="6.71988">
        <ele>538.48</ele>
        <time>2011-07-06T14:40:08Z</time>
      </trkpt>
      <trkpt lat="43.67606" lon="6.71981">
        <ele>538.48</ele>
        <time>2011-07-06T14:40:09Z</time>
      </trkpt>
      <trkpt lat="43.67616" lon="6.71976">
        <ele>538.48</ele>
        <time>2011-07-06T14:40:10Z</time>
      </trkpt>
      <trkpt lat="43.67626" lon="6.71971">
        <ele>537.51</ele>
        <time>2011-07-06T14:40:11Z</time>
      </trkpt>
      <trkpt lat="43.67668" lon="6.71943">
        <ele>534.15</ele>
        <time>2011-07-06T14:40:15Z</time>
      </trkpt>
      <trkpt lat="43.67698" lon="6.7191">
        <ele>531.75</ele>
        <time>2011-07-06T14:40:18Z</time>
      </trkpt>
      <trkpt lat="43.67708" lon="6.71899">
        <ele>530.3</ele>
        <time>2011-07-06T14:40:19Z</time>
      </trkpt>
      <trkpt lat="43.67718" lon="6.7189">
        <ele>529.34</ele>
        <time>2011-07-06T14:40:20Z</time>
      </trkpt>
      <trkpt lat="43.67741" lon="6.71874">
        <ele>528.86</ele>
        <time>2011-07-06T14:40:22Z</time>
      </trkpt>
      <trkpt lat="43.67751" lon="6.71863">
        <ele>527.42</ele>
        <time>2011-07-06T14:40:23Z</time>
      </trkpt>
      <trkpt lat="43.6776" lon="6.71852">
        <ele>526.46</ele>
        <time>2011-07-06T14:40:24Z</time>
      </trkpt>
      <trkpt lat="43.67768" lon="6.7184">
        <ele>526.46</ele>
        <time>2011-07-06T14:40:25Z</time>
      </trkpt>
      <trkpt lat="43.67794" lon="6.718">
        <ele>522.61</ele>
        <time>2011-07-06T14:40:29Z</time>
      </trkpt>
      <trkpt lat="43.67802" lon="6.71786">
        <ele>521.17</ele>
        <time>2011-07-06T14:40:31Z</time>
      </trkpt>
      <trkpt lat="43.67807" lon="6.71783">
        <ele>521.17</ele>
        <time>2011-07-06T14:40:32Z</time>
      </trkpt>
      <trkpt lat="43.67813" lon="6.71784">
        <ele>520.69</ele>
        <time>2011-07-06T14:40:33Z</time>
      </trkpt>
      <trkpt lat="43.67818" lon="6.71791">
        <ele>520.21</ele>
        <time>2011-07-06T14:40:34Z</time>
      </trkpt>
      <trkpt lat="43.67822" lon="6.71797">
        <ele>519.73</ele>
        <time>2011-07-06T14:40:35Z</time>
      </trkpt>
      <trkpt lat="43.67826" lon="6.71801">
        <ele>519.25</ele>
        <time>2011-07-06T14:40:36Z</time>
      </trkpt>
      <trkpt lat="43.67831" lon="6.7179">
        <ele>518.77</ele>
        <time>2011-07-06T14:40:39Z</time>
      </trkpt>
      <trkpt lat="43.6783" lon="6.71783">
        <ele>517.81</ele>
        <time>2011-07-06T14:40:40Z</time>
      </trkpt>
      <trkpt lat="43.67827" lon="6.71774">
        <ele>517.33</ele>
        <time>2011-07-06T14:40:41Z</time>
      </trkpt>
      <trkpt lat="43.67823" lon="6.71766">
        <ele>516.85</ele>
        <time>2011-07-06T14:40:42Z</time>
      </trkpt>
      <trkpt lat="43.67819" lon="6.71759">
        <ele>516.85</ele>
        <time>2011-07-06T14:40:43Z</time>
      </trkpt>
      <trkpt lat="43.67812" lon="6.71756">
        <ele>516.37</ele>
        <time>2011-07-06T14:40:44Z</time>
      </trkpt>
      <trkpt lat="43.67805" lon="6.71759">
        <ele>515.88</ele>
        <time>2011-07-06T14:40:45Z</time>
      </trkpt>
      <trkpt lat="43.67798" lon="6.71765">
        <ele>514.92</ele>
        <time>2011-07-06T14:40:46Z</time>
      </trkpt>
      <trkpt lat="43.67791" lon="6.71774">
        <ele>514.44</ele>
        <time>2011-07-06T14:40:47Z</time>
      </trkpt>
      <trkpt lat="43.67785" lon="6.71784">
        <ele>513.96</ele>
        <time>2011-07-06T14:40:48Z</time>
      </trkpt>
      <trkpt lat="43.6777" lon="6.71805">
        <ele>513.48</ele>
        <time>2011-07-06T14:40:50Z</time>
      </trkpt>
      <trkpt lat="43.67761" lon="6.71815">
        <ele>512.04</ele>
        <time>2011-07-06T14:40:51Z</time>
      </trkpt>
      <trkpt lat="43.67751" lon="6.71824">
        <ele>511.56</ele>
        <time>2011-07-06T14:40:52Z</time>
      </trkpt>
      <trkpt lat="43.67741" lon="6.71833">
        <ele>510.6</ele>
        <time>2011-07-06T14:40:53Z</time>
      </trkpt>
      <trkpt lat="43.6773" lon="6.7184">
        <ele>509.16</ele>
        <time>2011-07-06T14:40:54Z</time>
      </trkpt>
      <trkpt lat="43.67706" lon="6.71855">
        <ele>507.71</ele>
        <time>2011-07-06T14:40:56Z</time>
      </trkpt>
      <trkpt lat="43.67682" lon="6.71869">
        <ele>506.27</ele>
        <time>2011-07-06T14:40:58Z</time>
      </trkpt>
      <trkpt lat="43.67645" lon="6.71885">
        <ele>502.43</ele>
        <time>2011-07-06T14:41:01Z</time>
      </trkpt>
      <trkpt lat="43.67632" lon="6.71891">
        <ele>502.91</ele>
        <time>2011-07-06T14:41:02Z</time>
      </trkpt>
      <trkpt lat="43.67586" lon="6.71902">
        <ele>499.54</ele>
        <time>2011-07-06T14:41:06Z</time>
      </trkpt>
      <trkpt lat="43.67563" lon="6.71903">
        <ele>498.1</ele>
        <time>2011-07-06T14:41:09Z</time>
      </trkpt>
      <trkpt lat="43.67557" lon="6.71904">
        <ele>498.1</ele>
        <time>2011-07-06T14:41:10Z</time>
      </trkpt>
      <trkpt lat="43.67554" lon="6.71901">
        <ele>497.62</ele>
        <time>2011-07-06T14:41:11Z</time>
      </trkpt>
      <trkpt lat="43.67554" lon="6.71896">
        <ele>496.18</ele>
        <time>2011-07-06T14:41:12Z</time>
      </trkpt>
      <trkpt lat="43.67563" lon="6.71891">
        <ele>495.7</ele>
        <time>2011-07-06T14:41:14Z</time>
      </trkpt>
      <trkpt lat="43.67569" lon="6.71893">
        <ele>494.74</ele>
        <time>2011-07-06T14:41:15Z</time>
      </trkpt>
      <trkpt lat="43.67577" lon="6.71894">
        <ele>494.26</ele>
        <time>2011-07-06T14:41:16Z</time>
      </trkpt>
      <trkpt lat="43.67585" lon="6.71893">
        <ele>493.29</ele>
        <time>2011-07-06T14:41:17Z</time>
      </trkpt>
      <trkpt lat="43.67594" lon="6.7189">
        <ele>493.77</ele>
        <time>2011-07-06T14:41:18Z</time>
      </trkpt>
      <trkpt lat="43.67603" lon="6.71885">
        <ele>492.81</ele>
        <time>2011-07-06T14:41:19Z</time>
      </trkpt>
      <trkpt lat="43.67612" lon="6.71878">
        <ele>492.33</ele>
        <time>2011-07-06T14:41:20Z</time>
      </trkpt>
      <trkpt lat="43.67621" lon="6.71871">
        <ele>491.85</ele>
        <time>2011-07-06T14:41:21Z</time>
      </trkpt>
      <trkpt lat="43.6764" lon="6.71855">
        <ele>490.89</ele>
        <time>2011-07-06T14:41:23Z</time>
      </trkpt>
      <trkpt lat="43.6765" lon="6.71847">
        <ele>489.93</ele>
        <time>2011-07-06T14:41:24Z</time>
      </trkpt>
      <trkpt lat="43.67661" lon="6.71842">
        <ele>489.93</ele>
        <time>2011-07-06T14:41:25Z</time>
      </trkpt>
      <trkpt lat="43.67684" lon="6.71827">
        <ele>488.01</ele>
        <time>2011-07-06T14:41:28Z</time>
      </trkpt>
      <trkpt lat="43.67689" lon="6.71821">
        <ele>488.01</ele>
        <time>2011-07-06T14:41:29Z</time>
      </trkpt>
      <trkpt lat="43.67692" lon="6.71814">
        <ele>488.01</ele>
        <time>2011-07-06T14:41:30Z</time>
      </trkpt>
      <trkpt lat="43.67693" lon="6.71805">
        <ele>487.53</ele>
        <time>2011-07-06T14:41:31Z</time>
      </trkpt>
      <trkpt lat="43.67691" lon="6.71798">
        <ele>488.01</ele>
        <time>2011-07-06T14:41:32Z</time>
      </trkpt>
      <trkpt lat="43.67686" lon="6.71793">
        <ele>488.01</ele>
        <time>2011-07-06T14:41:33Z</time>
      </trkpt>
      <trkpt lat="43.67681" lon="6.7179">
        <ele>487.53</ele>
        <time>2011-07-06T14:41:34Z</time>
      </trkpt>
      <trkpt lat="43.67675" lon="6.71789">
        <ele>488.01</ele>
        <time>2011-07-06T14:41:35Z</time>
      </trkpt>
      <trkpt lat="43.6767" lon="6.7179">
        <ele>488.01</ele>
        <time>2011-07-06T14:41:36Z</time>
      </trkpt>
      <trkpt lat="43.67665" lon="6.71791">
        <ele>488.01</ele>
        <time>2011-07-06T14:41:37Z</time>
      </trkpt>
      <trkpt lat="43.6766" lon="6.71792">
        <ele>488.49</ele>
        <time>2011-07-06T14:41:38Z</time>
      </trkpt>
      <trkpt lat="43.67616" lon="6.71809">
        <ele>491.85</ele>
        <time>2011-07-06T14:41:51Z</time>
      </trkpt>
      <trkpt lat="43.67577" lon="6.71805">
        <ele>494.26</ele>
        <time>2011-07-06T14:42:05Z</time>
      </trkpt>
      <trkpt lat="43.67533" lon="6.71787">
        <ele>497.62</ele>
        <time>2011-07-06T14:42:21Z</time>
      </trkpt>
      <trkpt lat="43.67498" lon="6.71831">
        <ele>500.02</ele>
        <time>2011-07-06T14:42:37Z</time>
      </trkpt>
      <trkpt lat="43.67475" lon="6.71883">
        <ele>502.91</ele>
        <time>2011-07-06T14:42:53Z</time>
      </trkpt>
      <trkpt lat="43.67458" lon="6.71936">
        <ele>505.79</ele>
        <time>2011-07-06T14:43:08Z</time>
      </trkpt>
      <trkpt lat="43.67457" lon="6.7194">
        <ele>506.27</ele>
        <time>2011-07-06T14:43:09Z</time>
      </trkpt>
      <trkpt lat="43.6742" lon="6.71981">
        <ele>509.16</ele>
        <time>2011-07-06T14:43:26Z</time>
      </trkpt>
      <trkpt lat="43.67386" lon="6.72019">
        <ele>512.52</ele>
        <time>2011-07-06T14:43:42Z</time>
      </trkpt>
      <trkpt lat="43.67348" lon="6.72046">
        <ele>514.92</ele>
        <time>2011-07-06T14:43:58Z</time>
      </trkpt>
      <trkpt lat="43.67309" lon="6.72068">
        <ele>517.81</ele>
        <time>2011-07-06T14:44:13Z</time>
      </trkpt>
      <trkpt lat="43.67275" lon="6.7208">
        <ele>519.73</ele>
        <time>2011-07-06T14:44:26Z</time>
      </trkpt>
      <trkpt lat="43.67234" lon="6.72063">
        <ele>522.13</ele>
        <time>2011-07-06T14:44:41Z</time>
      </trkpt>
      <trkpt lat="43.6719" lon="6.72042">
        <ele>525.02</ele>
        <time>2011-07-06T14:44:57Z</time>
      </trkpt>
      <trkpt lat="43.67148" lon="6.72059">
        <ele>526.94</ele>
        <time>2011-07-06T14:45:11Z</time>
      </trkpt>
      <trkpt lat="43.671" lon="6.72075">
        <ele>530.3</ele>
        <time>2011-07-06T14:45:27Z</time>
      </trkpt>
      <trkpt lat="43.6709" lon="6.7208">
        <ele>530.79</ele>
        <time>2011-07-06T14:45:36Z</time>
      </trkpt>
      <trkpt lat="43.67091" lon="6.72082">
        <ele>530.79</ele>
        <time>2011-07-06T14:45:37Z</time>
      </trkpt>
      <trkpt lat="43.67091" lon="6.72084">
        <ele>530.3</ele>
        <time>2011-07-06T14:45:38Z</time>
      </trkpt>
      <trkpt lat="43.67092" lon="6.72087">
        <ele>530.3</ele>
        <time>2011-07-06T14:45:39Z</time>
      </trkpt>
      <trkpt lat="43.6709" lon="6.72093">
        <ele>530.3</ele>
        <time>2011-07-06T14:45:47Z</time>
      </trkpt>
      <trkpt lat="43.67089" lon="6.72093">
        <ele>529.82</ele>
        <time>2011-07-06T14:45:57Z</time>
      </trkpt>
      <trkpt lat="43.67088" lon="6.72093">
        <ele>530.3</ele>
        <time>2011-07-06T14:46:39Z</time>
      </trkpt>
      <trkpt lat="43.67088" lon="6.72093">
        <ele>530.3</ele>
        <time>2011-07-06T14:47:18Z</time>
      </trkpt>
      <trkpt lat="43.67088" lon="6.72093">
        <ele>530.79</ele>
        <time>2011-07-06T14:48:02Z</time>
      </trkpt>
      <trkpt lat="43.6709" lon="6.72092">
        <ele>530.79</ele>
        <time>2011-07-06T14:48:33Z</time>
      </trkpt>
      <trkpt lat="43.6709" lon="6.72092">
        <ele>525.5</ele>
        <time>2011-07-06T14:48:44Z</time>
      </trkpt>
      <trkpt lat="43.67091" lon="6.72091">
        <ele>531.27</ele>
        <time>2011-07-06T14:48:45Z</time>
      </trkpt>
      <trkpt lat="43.67098" lon="6.72092">
        <ele>528.86</ele>
        <time>2011-07-06T14:48:57Z</time>
      </trkpt>
      <trkpt lat="43.67102" lon="6.7209">
        <ele>527.9</ele>
        <time>2011-07-06T14:49:01Z</time>
      </trkpt>
      <trkpt lat="43.67104" lon="6.72085">
        <ele>527.9</ele>
        <time>2011-07-06T14:49:15Z</time>
      </trkpt>
      <trkpt lat="43.67104" lon="6.72085">
        <ele>527.42</ele>
        <time>2011-07-06T14:49:40Z</time>
      </trkpt>
      <trkpt lat="43.67104" lon="6.72085">
        <ele>527.9</ele>
        <time>2011-07-06T14:50:09Z</time>
      </trkpt>
      <trkpt lat="43.67102" lon="6.72083">
        <ele>527.42</ele>
        <time>2011-07-06T14:50:33Z</time>
      </trkpt>
      <trkpt lat="43.6709" lon="6.72084">
        <ele>525.02</ele>
        <time>2011-07-06T14:50:43Z</time>
      </trkpt>
      <trkpt lat="43.67086" lon="6.72081">
        <ele>523.58</ele>
        <time>2011-07-06T14:51:01Z</time>
      </trkpt>
      <trkpt lat="43.67081" lon="6.72079">
        <ele>522.61</ele>
        <time>2011-07-06T14:51:04Z</time>
      </trkpt>
      <trkpt lat="43.67061" lon="6.72072">
        <ele>520.21</ele>
        <time>2011-07-06T14:51:20Z</time>
      </trkpt>
      <trkpt lat="43.67049" lon="6.72066">
        <ele>518.77</ele>
        <time>2011-07-06T14:51:48Z</time>
      </trkpt>
      <trkpt lat="43.67046" lon="6.72064">
        <ele>518.77</ele>
        <time>2011-07-06T14:51:49Z</time>
      </trkpt>
      <trkpt lat="43.67042" lon="6.72061">
        <ele>518.77</ele>
        <time>2011-07-06T14:51:50Z</time>
      </trkpt>
      <trkpt lat="43.67038" lon="6.72058">
        <ele>518.77</ele>
        <time>2011-07-06T14:51:51Z</time>
      </trkpt>
      <trkpt lat="43.67035" lon="6.72055">
        <ele>518.77</ele>
        <time>2011-07-06T14:51:52Z</time>
      </trkpt>
      <trkpt lat="43.67001" lon="6.72031">
        <ele>518.29</ele>
        <time>2011-07-06T14:52:00Z</time>
      </trkpt>
      <trkpt lat="43.66977" lon="6.72003">
        <ele>518.29</ele>
        <time>2011-07-06T14:52:12Z</time>
      </trkpt>
      <trkpt lat="43.66976" lon="6.72003">
        <ele>518.29</ele>
        <time>2011-07-06T14:52:14Z</time>
      </trkpt>
      <trkpt lat="43.66974" lon="6.72005">
        <ele>518.29</ele>
        <time>2011-07-06T14:52:16Z</time>
      </trkpt>
      <trkpt lat="43.66974" lon="6.72007">
        <ele>518.29</ele>
        <time>2011-07-06T14:52:17Z</time>
      </trkpt>
      <trkpt lat="43.6697" lon="6.72008">
        <ele>518.77</ele>
        <time>2011-07-06T14:52:20Z</time>
      </trkpt>
      <trkpt lat="43.66969" lon="6.7201">
        <ele>518.77</ele>
        <time>2011-07-06T14:52:21Z</time>
      </trkpt>
      <trkpt lat="43.66968" lon="6.72011">
        <ele>518.77</ele>
        <time>2011-07-06T14:52:22Z</time>
      </trkpt>
      <trkpt lat="43.66966" lon="6.7202">
        <ele>518.29</ele>
        <time>2011-07-06T14:52:27Z</time>
      </trkpt>
      <trkpt lat="43.66965" lon="6.72025">
        <ele>518.29</ele>
        <time>2011-07-06T14:52:34Z</time>
      </trkpt>
      <trkpt lat="43.66965" lon="6.72027">
        <ele>518.29</ele>
        <time>2011-07-06T14:52:35Z</time>
      </trkpt>
      <trkpt lat="43.66965" lon="6.72029">
        <ele>518.77</ele>
        <time>2011-07-06T14:52:36Z</time>
      </trkpt>
      <trkpt lat="43.66966" lon="6.72059">
        <ele>519.25</ele>
        <time>2011-07-06T14:52:47Z</time>
      </trkpt>
      <trkpt lat="43.66968" lon="6.72091">
        <ele>519.25</ele>
        <time>2011-07-06T14:52:53Z</time>
      </trkpt>
      <trkpt lat="43.66968" lon="6.72156">
        <ele>519.73</ele>
        <time>2011-07-06T14:53:05Z</time>
      </trkpt>
      <trkpt lat="43.66959" lon="6.72212">
        <ele>518.77</ele>
        <time>2011-07-06T14:53:17Z</time>
      </trkpt>
      <trkpt lat="43.66917" lon="6.72231">
        <ele>518.77</ele>
        <time>2011-07-06T14:53:28Z</time>
      </trkpt>
      <trkpt lat="43.66902" lon="6.72229">
        <ele>519.25</ele>
        <time>2011-07-06T14:53:31Z</time>
      </trkpt>
      <trkpt lat="43.66898" lon="6.7223">
        <ele>518.77</ele>
        <time>2011-07-06T14:53:32Z</time>
      </trkpt>
      <trkpt lat="43.66877" lon="6.7224">
        <ele>518.77</ele>
        <time>2011-07-06T14:53:37Z</time>
      </trkpt>
      <trkpt lat="43.6687" lon="6.72249">
        <ele>518.77</ele>
        <time>2011-07-06T14:53:39Z</time>
      </trkpt>
      <trkpt lat="43.66867" lon="6.72254">
        <ele>519.25</ele>
        <time>2011-07-06T14:53:40Z</time>
      </trkpt>
      <trkpt lat="43.66848" lon="6.72286">
        <ele>518.77</ele>
        <time>2011-07-06T14:53:46Z</time>
      </trkpt>
      <trkpt lat="43.66845" lon="6.72291">
        <ele>518.77</ele>
        <time>2011-07-06T14:53:47Z</time>
      </trkpt>
      <trkpt lat="43.66841" lon="6.72296">
        <ele>518.77</ele>
        <time>2011-07-06T14:53:48Z</time>
      </trkpt>
      <trkpt lat="43.66837" lon="6.723">
        <ele>519.25</ele>
        <time>2011-07-06T14:53:49Z</time>
      </trkpt>
      <trkpt lat="43.66834" lon="6.72306">
        <ele>519.25</ele>
        <time>2011-07-06T14:53:50Z</time>
      </trkpt>
      <trkpt lat="43.66832" lon="6.72311">
        <ele>518.77</ele>
        <time>2011-07-06T14:53:51Z</time>
      </trkpt>
      <trkpt lat="43.6683" lon="6.72318">
        <ele>518.77</ele>
        <time>2011-07-06T14:53:52Z</time>
      </trkpt>
      <trkpt lat="43.6683" lon="6.72325">
        <ele>518.77</ele>
        <time>2011-07-06T14:53:53Z</time>
      </trkpt>
      <trkpt lat="43.6683" lon="6.72369">
        <ele>518.29</ele>
        <time>2011-07-06T14:54:02Z</time>
      </trkpt>
      <trkpt lat="43.66825" lon="6.7239">
        <ele>518.29</ele>
        <time>2011-07-06T14:54:06Z</time>
      </trkpt>
      <trkpt lat="43.66824" lon="6.72396">
        <ele>518.29</ele>
        <time>2011-07-06T14:54:07Z</time>
      </trkpt>
      <trkpt lat="43.66825" lon="6.72402">
        <ele>519.25</ele>
        <time>2011-07-06T14:54:08Z</time>
      </trkpt>
      <trkpt lat="43.66827" lon="6.72407">
        <ele>518.77</ele>
        <time>2011-07-06T14:54:09Z</time>
      </trkpt>
      <trkpt lat="43.66829" lon="6.72413">
        <ele>518.77</ele>
        <time>2011-07-06T14:54:10Z</time>
      </trkpt>
      <trkpt lat="43.66831" lon="6.72418">
        <ele>518.77</ele>
        <time>2011-07-06T14:54:11Z</time>
      </trkpt>
      <trkpt lat="43.66837" lon="6.72427">
        <ele>519.25</ele>
        <time>2011-07-06T14:54:13Z</time>
      </trkpt>
      <trkpt lat="43.66839" lon="6.72433">
        <ele>518.77</ele>
        <time>2011-07-06T14:54:14Z</time>
      </trkpt>
      <trkpt lat="43.66841" lon="6.72438">
        <ele>519.25</ele>
        <time>2011-07-06T14:54:15Z</time>
      </trkpt>
      <trkpt lat="43.66845" lon="6.7245">
        <ele>518.77</ele>
        <time>2011-07-06T14:54:17Z</time>
      </trkpt>
      <trkpt lat="43.66854" lon="6.72489">
        <ele>518.77</ele>
        <time>2011-07-06T14:54:23Z</time>
      </trkpt>
      <trkpt lat="43.66853" lon="6.72516">
        <ele>518.77</ele>
        <time>2011-07-06T14:54:27Z</time>
      </trkpt>
      <trkpt lat="43.66853" lon="6.72523">
        <ele>518.29</ele>
        <time>2011-07-06T14:54:28Z</time>
      </trkpt>
      <trkpt lat="43.66852" lon="6.7253">
        <ele>518.77</ele>
        <time>2011-07-06T14:54:29Z</time>
      </trkpt>
      <trkpt lat="43.66848" lon="6.72551">
        <ele>517.81</ele>
        <time>2011-07-06T14:54:32Z</time>
      </trkpt>
      <trkpt lat="43.66847" lon="6.72557">
        <ele>518.77</ele>
        <time>2011-07-06T14:54:33Z</time>
      </trkpt>
      <trkpt lat="43.66839" lon="6.72581">
        <ele>518.77</ele>
        <time>2011-07-06T14:54:37Z</time>
      </trkpt>
      <trkpt lat="43.66837" lon="6.72587">
        <ele>518.29</ele>
        <time>2011-07-06T14:54:38Z</time>
      </trkpt>
      <trkpt lat="43.66836" lon="6.72593">
        <ele>518.29</ele>
        <time>2011-07-06T14:54:39Z</time>
      </trkpt>
      <trkpt lat="43.66835" lon="6.72599">
        <ele>518.29</ele>
        <time>2011-07-06T14:54:40Z</time>
      </trkpt>
      <trkpt lat="43.66834" lon="6.72606">
        <ele>518.29</ele>
        <time>2011-07-06T14:54:41Z</time>
      </trkpt>
      <trkpt lat="43.66832" lon="6.72612">
        <ele>518.29</ele>
        <time>2011-07-06T14:54:42Z</time>
      </trkpt>
      <trkpt lat="43.6683" lon="6.72618">
        <ele>517.81</ele>
        <time>2011-07-06T14:54:43Z</time>
      </trkpt>
      <trkpt lat="43.66825" lon="6.7263">
        <ele>517.81</ele>
        <time>2011-07-06T14:54:45Z</time>
      </trkpt>
      <trkpt lat="43.66822" lon="6.72636">
        <ele>517.81</ele>
        <time>2011-07-06T14:54:46Z</time>
      </trkpt>
      <trkpt lat="43.66817" lon="6.72649">
        <ele>517.81</ele>
        <time>2011-07-06T14:54:48Z</time>
      </trkpt>
      <trkpt lat="43.66815" lon="6.72655">
        <ele>517.81</ele>
        <time>2011-07-06T14:54:49Z</time>
      </trkpt>
      <trkpt lat="43.66812" lon="6.72675">
        <ele>518.29</ele>
        <time>2011-07-06T14:54:52Z</time>
      </trkpt>
      <trkpt lat="43.6681" lon="6.727">
        <ele>517.81</ele>
        <time>2011-07-06T14:54:56Z</time>
      </trkpt>
      <trkpt lat="43.66809" lon="6.72703">
        <ele>518.29</ele>
        <time>2011-07-06T14:54:57Z</time>
      </trkpt>
      <trkpt lat="43.66807" lon="6.72706">
        <ele>517.81</ele>
        <time>2011-07-06T14:54:58Z</time>
      </trkpt>
      <trkpt lat="43.66805" lon="6.72708">
        <ele>517.81</ele>
        <time>2011-07-06T14:54:59Z</time>
      </trkpt>
      <trkpt lat="43.66802" lon="6.72711">
        <ele>517.33</ele>
        <time>2011-07-06T14:55:00Z</time>
      </trkpt>
      <trkpt lat="43.66795" lon="6.72725">
        <ele>518.77</ele>
        <time>2011-07-06T14:55:04Z</time>
      </trkpt>
      <trkpt lat="43.66789" lon="6.72749">
        <ele>518.29</ele>
        <time>2011-07-06T14:55:08Z</time>
      </trkpt>
      <trkpt lat="43.66788" lon="6.72756">
        <ele>518.29</ele>
        <time>2011-07-06T14:55:09Z</time>
      </trkpt>
      <trkpt lat="43.66788" lon="6.72764">
        <ele>517.33</ele>
        <time>2011-07-06T14:55:10Z</time>
      </trkpt>
      <trkpt lat="43.66788" lon="6.72772">
        <ele>517.81</ele>
        <time>2011-07-06T14:55:11Z</time>
      </trkpt>
      <trkpt lat="43.66788" lon="6.72779">
        <ele>517.33</ele>
        <time>2011-07-06T14:55:12Z</time>
      </trkpt>
      <trkpt lat="43.66789" lon="6.72787">
        <ele>517.33</ele>
        <time>2011-07-06T14:55:13Z</time>
      </trkpt>
      <trkpt lat="43.6679" lon="6.72794">
        <ele>517.81</ele>
        <time>2011-07-06T14:55:14Z</time>
      </trkpt>
      <trkpt lat="43.6679" lon="6.72801">
        <ele>517.81</ele>
        <time>2011-07-06T14:55:15Z</time>
      </trkpt>
      <trkpt lat="43.66792" lon="6.72814">
        <ele>518.29</ele>
        <time>2011-07-06T14:55:17Z</time>
      </trkpt>
      <trkpt lat="43.66793" lon="6.7282">
        <ele>518.29</ele>
        <time>2011-07-06T14:55:18Z</time>
      </trkpt>
      <trkpt lat="43.66794" lon="6.72825">
        <ele>518.29</ele>
        <time>2011-07-06T14:55:19Z</time>
      </trkpt>
      <trkpt lat="43.66795" lon="6.72831">
        <ele>518.29</ele>
        <time>2011-07-06T14:55:20Z</time>
      </trkpt>
      <trkpt lat="43.66795" lon="6.72836">
        <ele>518.77</ele>
        <time>2011-07-06T14:55:21Z</time>
      </trkpt>
      <trkpt lat="43.66797" lon="6.72842">
        <ele>518.29</ele>
        <time>2011-07-06T14:55:22Z</time>
      </trkpt>
      <trkpt lat="43.66798" lon="6.72847">
        <ele>518.29</ele>
        <time>2011-07-06T14:55:23Z</time>
      </trkpt>
      <trkpt lat="43.66798" lon="6.72853">
        <ele>518.29</ele>
        <time>2011-07-06T14:55:24Z</time>
      </trkpt>
      <trkpt lat="43.66796" lon="6.72857">
        <ele>518.29</ele>
        <time>2011-07-06T14:55:25Z</time>
      </trkpt>
      <trkpt lat="43.66794" lon="6.7286">
        <ele>517.81</ele>
        <time>2011-07-06T14:55:26Z</time>
      </trkpt>
      <trkpt lat="43.66791" lon="6.72863">
        <ele>518.29</ele>
        <time>2011-07-06T14:55:27Z</time>
      </trkpt>
      <trkpt lat="43.66788" lon="6.72865">
        <ele>518.29</ele>
        <time>2011-07-06T14:55:28Z</time>
      </trkpt>
      <trkpt lat="43.66776" lon="6.72877">
        <ele>517.81</ele>
        <time>2011-07-06T14:55:32Z</time>
      </trkpt>
      <trkpt lat="43.66773" lon="6.7288">
        <ele>517.81</ele>
        <time>2011-07-06T14:55:33Z</time>
      </trkpt>
      <trkpt lat="43.66769" lon="6.72882">
        <ele>517.81</ele>
        <time>2011-07-06T14:55:34Z</time>
      </trkpt>
      <trkpt lat="43.66766" lon="6.72882">
        <ele>518.29</ele>
        <time>2011-07-06T14:55:35Z</time>
      </trkpt>
      <trkpt lat="43.66763" lon="6.72881">
        <ele>517.81</ele>
        <time>2011-07-06T14:55:36Z</time>
      </trkpt>
      <trkpt lat="43.6676" lon="6.72879">
        <ele>518.29</ele>
        <time>2011-07-06T14:55:37Z</time>
      </trkpt>
      <trkpt lat="43.66758" lon="6.72878">
        <ele>517.81</ele>
        <time>2011-07-06T14:55:45Z</time>
      </trkpt>
      <trkpt lat="43.66755" lon="6.72879">
        <ele>517.33</ele>
        <time>2011-07-06T14:55:56Z</time>
      </trkpt>
      <trkpt lat="43.66754" lon="6.72879">
        <ele>517.33</ele>
        <time>2011-07-06T14:55:57Z</time>
      </trkpt>
      <trkpt lat="43.66752" lon="6.72879">
        <ele>517.33</ele>
        <time>2011-07-06T14:55:58Z</time>
      </trkpt>
      <trkpt lat="43.66738" lon="6.72874">
        <ele>518.29</ele>
        <time>2011-07-06T14:56:04Z</time>
      </trkpt>
      <trkpt lat="43.66736" lon="6.72873">
        <ele>518.29</ele>
        <time>2011-07-06T14:56:05Z</time>
      </trkpt>
      <trkpt lat="43.66734" lon="6.72871">
        <ele>518.29</ele>
        <time>2011-07-06T14:56:06Z</time>
      </trkpt>
      <trkpt lat="43.66731" lon="6.72871">
        <ele>518.29</ele>
        <time>2011-07-06T14:56:07Z</time>
      </trkpt>
      <trkpt lat="43.66728" lon="6.72871">
        <ele>518.29</ele>
        <time>2011-07-06T14:56:08Z</time>
      </trkpt>
      <trkpt lat="43.66725" lon="6.72871">
        <ele>518.77</ele>
        <time>2011-07-06T14:56:09Z</time>
      </trkpt>
      <trkpt lat="43.66722" lon="6.72872">
        <ele>518.29</ele>
        <time>2011-07-06T14:56:10Z</time>
      </trkpt>
      <trkpt lat="43.66718" lon="6.72873">
        <ele>518.29</ele>
        <time>2011-07-06T14:56:11Z</time>
      </trkpt>
      <trkpt lat="43.66715" lon="6.72875">
        <ele>518.29</ele>
        <time>2011-07-06T14:56:12Z</time>
      </trkpt>
      <trkpt lat="43.66713" lon="6.72876">
        <ele>518.77</ele>
        <time>2011-07-06T14:56:13Z</time>
      </trkpt>
      <trkpt lat="43.6671" lon="6.72877">
        <ele>518.29</ele>
        <time>2011-07-06T14:56:14Z</time>
      </trkpt>
      <trkpt lat="43.66697" lon="6.72883">
        <ele>516.85</ele>
        <time>2011-07-06T14:56:19Z</time>
      </trkpt>
      <trkpt lat="43.66695" lon="6.72885">
        <ele>517.33</ele>
        <time>2011-07-06T14:56:20Z</time>
      </trkpt>
      <trkpt lat="43.66694" lon="6.72887">
        <ele>517.33</ele>
        <time>2011-07-06T14:56:21Z</time>
      </trkpt>
      <trkpt lat="43.66691" lon="6.72889">
        <ele>517.81</ele>
        <time>2011-07-06T14:56:22Z</time>
      </trkpt>
      <trkpt lat="43.6669" lon="6.72892">
        <ele>517.81</ele>
        <time>2011-07-06T14:56:23Z</time>
      </trkpt>
      <trkpt lat="43.66688" lon="6.72896">
        <ele>517.81</ele>
        <time>2011-07-06T14:56:24Z</time>
      </trkpt>
      <trkpt lat="43.66687" lon="6.72899">
        <ele>517.81</ele>
        <time>2011-07-06T14:56:25Z</time>
      </trkpt>
      <trkpt lat="43.66662" lon="6.7294">
        <ele>516.37</ele>
        <time>2011-07-06T14:56:38Z</time>
      </trkpt>
      <trkpt lat="43.66658" lon="6.72945">
        <ele>516.85</ele>
        <time>2011-07-06T14:56:49Z</time>
      </trkpt>
      <trkpt lat="43.66657" lon="6.72948">
        <ele>516.85</ele>
        <time>2011-07-06T14:56:57Z</time>
      </trkpt>
      <trkpt lat="43.66656" lon="6.7295">
        <ele>516.85</ele>
        <time>2011-07-06T14:56:58Z</time>
      </trkpt>
      <trkpt lat="43.66654" lon="6.72951">
        <ele>516.37</ele>
        <time>2011-07-06T14:56:59Z</time>
      </trkpt>
      <trkpt lat="43.66652" lon="6.72953">
        <ele>516.37</ele>
        <time>2011-07-06T14:57:00Z</time>
      </trkpt>
      <trkpt lat="43.6665" lon="6.72954">
        <ele>516.85</ele>
        <time>2011-07-06T14:57:01Z</time>
      </trkpt>
      <trkpt lat="43.66623" lon="6.72995">
        <ele>516.85</ele>
        <time>2011-07-06T14:57:13Z</time>
      </trkpt>
      <trkpt lat="43.6662" lon="6.72996">
        <ele>517.33</ele>
        <time>2011-07-06T14:57:24Z</time>
      </trkpt>
      <trkpt lat="43.6662" lon="6.72997">
        <ele>517.33</ele>
        <time>2011-07-06T14:57:39Z</time>
      </trkpt>
      <trkpt lat="43.66618" lon="6.7301">
        <ele>516.85</ele>
        <time>2011-07-06T14:57:54Z</time>
      </trkpt>
      <trkpt lat="43.66599" lon="6.73062">
        <ele>516.85</ele>
        <time>2011-07-06T14:58:03Z</time>
      </trkpt>
      <trkpt lat="43.66596" lon="6.73067">
        <ele>517.33</ele>
        <time>2011-07-06T14:58:04Z</time>
      </trkpt>
      <trkpt lat="43.66592" lon="6.7307">
        <ele>517.33</ele>
        <time>2011-07-06T14:58:05Z</time>
      </trkpt>
      <trkpt lat="43.66588" lon="6.73072">
        <ele>517.33</ele>
        <time>2011-07-06T14:58:06Z</time>
      </trkpt>
      <trkpt lat="43.66584" lon="6.73072">
        <ele>517.81</ele>
        <time>2011-07-06T14:58:07Z</time>
      </trkpt>
      <trkpt lat="43.66576" lon="6.73067">
        <ele>518.77</ele>
        <time>2011-07-06T14:58:10Z</time>
      </trkpt>
      <trkpt lat="43.66547" lon="6.73057">
        <ele>519.25</ele>
        <time>2011-07-06T14:58:19Z</time>
      </trkpt>
      <trkpt lat="43.66543" lon="6.73057">
        <ele>518.77</ele>
        <time>2011-07-06T14:58:20Z</time>
      </trkpt>
      <trkpt lat="43.66539" lon="6.7306">
        <ele>518.29</ele>
        <time>2011-07-06T14:58:21Z</time>
      </trkpt>
      <trkpt lat="43.66535" lon="6.73064">
        <ele>518.29</ele>
        <time>2011-07-06T14:58:22Z</time>
      </trkpt>
      <trkpt lat="43.66531" lon="6.73069">
        <ele>518.77</ele>
        <time>2011-07-06T14:58:23Z</time>
      </trkpt>
      <trkpt lat="43.66528" lon="6.73075">
        <ele>518.29</ele>
        <time>2011-07-06T14:58:24Z</time>
      </trkpt>
      <trkpt lat="43.66524" lon="6.7308">
        <ele>518.77</ele>
        <time>2011-07-06T14:58:25Z</time>
      </trkpt>
      <trkpt lat="43.6652" lon="6.73085">
        <ele>517.81</ele>
        <time>2011-07-06T14:58:26Z</time>
      </trkpt>
      <trkpt lat="43.66515" lon="6.7309">
        <ele>517.33</ele>
        <time>2011-07-06T14:58:27Z</time>
      </trkpt>
      <trkpt lat="43.6651" lon="6.73094">
        <ele>516.85</ele>
        <time>2011-07-06T14:58:28Z</time>
      </trkpt>
      <trkpt lat="43.66505" lon="6.73098">
        <ele>516.85</ele>
        <time>2011-07-06T14:58:29Z</time>
      </trkpt>
      <trkpt lat="43.66499" lon="6.731">
        <ele>516.37</ele>
        <time>2011-07-06T14:58:30Z</time>
      </trkpt>
      <trkpt lat="43.66493" lon="6.73102">
        <ele>515.4</ele>
        <time>2011-07-06T14:58:31Z</time>
      </trkpt>
      <trkpt lat="43.66487" lon="6.73103">
        <ele>514.92</ele>
        <time>2011-07-06T14:58:32Z</time>
      </trkpt>
      <trkpt lat="43.66481" lon="6.73102">
        <ele>515.4</ele>
        <time>2011-07-06T14:58:33Z</time>
      </trkpt>
      <trkpt lat="43.66477" lon="6.73099">
        <ele>515.4</ele>
        <time>2011-07-06T14:58:34Z</time>
      </trkpt>
      <trkpt lat="43.66437" lon="6.73038">
        <ele>516.37</ele>
        <time>2011-07-06T14:58:47Z</time>
      </trkpt>
      <trkpt lat="43.66431" lon="6.73018">
        <ele>516.37</ele>
        <time>2011-07-06T14:58:54Z</time>
      </trkpt>
      <trkpt lat="43.6643" lon="6.73015">
        <ele>515.88</ele>
        <time>2011-07-06T14:58:55Z</time>
      </trkpt>
      <trkpt lat="43.66428" lon="6.73011">
        <ele>516.37</ele>
        <time>2011-07-06T14:58:56Z</time>
      </trkpt>
      <trkpt lat="43.66415" lon="6.72956">
        <ele>516.37</ele>
        <time>2011-07-06T14:59:08Z</time>
      </trkpt>
      <trkpt lat="43.66411" lon="6.72934">
        <ele>516.37</ele>
        <time>2011-07-06T14:59:12Z</time>
      </trkpt>
      <trkpt lat="43.66411" lon="6.72929">
        <ele>516.85</ele>
        <time>2011-07-06T14:59:13Z</time>
      </trkpt>
      <trkpt lat="43.66411" lon="6.72923">
        <ele>516.37</ele>
        <time>2011-07-06T14:59:14Z</time>
      </trkpt>
      <trkpt lat="43.66411" lon="6.72918">
        <ele>516.37</ele>
        <time>2011-07-06T14:59:15Z</time>
      </trkpt>
      <trkpt lat="43.66411" lon="6.72912">
        <ele>516.85</ele>
        <time>2011-07-06T14:59:16Z</time>
      </trkpt>
      <trkpt lat="43.66411" lon="6.72907">
        <ele>516.37</ele>
        <time>2011-07-06T14:59:17Z</time>
      </trkpt>
      <trkpt lat="43.66411" lon="6.72902">
        <ele>516.85</ele>
        <time>2011-07-06T14:59:18Z</time>
      </trkpt>
      <trkpt lat="43.6641" lon="6.72897">
        <ele>516.85</ele>
        <time>2011-07-06T14:59:19Z</time>
      </trkpt>
      <trkpt lat="43.66414" lon="6.72868">
        <ele>516.37</ele>
        <time>2011-07-06T14:59:30Z</time>
      </trkpt>
      <trkpt lat="43.66414" lon="6.72868">
        <ele>515.88</ele>
        <time>2011-07-06T14:59:51Z</time>
      </trkpt>
      <trkpt lat="43.66414" lon="6.72867">
        <ele>515.88</ele>
        <time>2011-07-06T15:00:28Z</time>
      </trkpt>
      <trkpt lat="43.66413" lon="6.72868">
        <ele>515.4</ele>
        <time>2011-07-06T15:00:57Z</time>
      </trkpt>
      <trkpt lat="43.66413" lon="6.72868">
        <ele>515.88</ele>
        <time>2011-07-06T15:01:01Z</time>
      </trkpt>
      <trkpt lat="43.6641" lon="6.72873">
        <ele>515.4</ele>
        <time>2011-07-06T15:01:04Z</time>
      </trkpt>
      <trkpt lat="43.66404" lon="6.72874">
        <ele>515.88</ele>
        <time>2011-07-06T15:01:07Z</time>
      </trkpt>
      <trkpt lat="43.66396" lon="6.7284">
        <ele>515.88</ele>
        <time>2011-07-06T15:01:19Z</time>
      </trkpt>
      <trkpt lat="43.66402" lon="6.72801">
        <ele>515.4</ele>
        <time>2011-07-06T15:01:29Z</time>
      </trkpt>
      <trkpt lat="43.66402" lon="6.72798">
        <ele>514.92</ele>
        <time>2011-07-06T15:01:49Z</time>
      </trkpt>
      <trkpt lat="43.664" lon="6.72793">
        <ele>514.92</ele>
        <time>2011-07-06T15:01:51Z</time>
      </trkpt>
      <trkpt lat="43.66372" lon="6.72755">
        <ele>514.44</ele>
        <time>2011-07-06T15:01:59Z</time>
      </trkpt>
      <trkpt lat="43.66359" lon="6.72732">
        <ele>513.96</ele>
        <time>2011-07-06T15:02:03Z</time>
      </trkpt>
      <trkpt lat="43.66355" lon="6.72729">
        <ele>513.96</ele>
        <time>2011-07-06T15:02:04Z</time>
      </trkpt>
      <trkpt lat="43.66345" lon="6.72724">
        <ele>513.48</ele>
        <time>2011-07-06T15:02:06Z</time>
      </trkpt>
      <trkpt lat="43.6634" lon="6.72721">
        <ele>513</ele>
        <time>2011-07-06T15:02:07Z</time>
      </trkpt>
      <trkpt lat="43.66335" lon="6.7272">
        <ele>513.96</ele>
        <time>2011-07-06T15:02:08Z</time>
      </trkpt>
      <trkpt lat="43.6633" lon="6.7272">
        <ele>513.96</ele>
        <time>2011-07-06T15:02:09Z</time>
      </trkpt>
      <trkpt lat="43.66327" lon="6.72722">
        <ele>513.96</ele>
        <time>2011-07-06T15:02:10Z</time>
      </trkpt>
      <trkpt lat="43.66323" lon="6.72724">
        <ele>514.44</ele>
        <time>2011-07-06T15:02:11Z</time>
      </trkpt>
      <trkpt lat="43.6632" lon="6.72726">
        <ele>514.44</ele>
        <time>2011-07-06T15:02:12Z</time>
      </trkpt>
      <trkpt lat="43.66317" lon="6.72729">
        <ele>514.44</ele>
        <time>2011-07-06T15:02:13Z</time>
      </trkpt>
      <trkpt lat="43.66315" lon="6.72733">
        <ele>514.44</ele>
        <time>2011-07-06T15:02:14Z</time>
      </trkpt>
      <trkpt lat="43.66297" lon="6.7277">
        <ele>514.44</ele>
        <time>2011-07-06T15:02:22Z</time>
      </trkpt>
      <trkpt lat="43.66292" lon="6.72782">
        <ele>514.44</ele>
        <time>2011-07-06T15:02:24Z</time>
      </trkpt>
      <trkpt lat="43.66246" lon="6.72852">
        <ele>513.48</ele>
        <time>2011-07-06T15:02:37Z</time>
      </trkpt>
      <trkpt lat="43.66218" lon="6.72908">
        <ele>513.48</ele>
        <time>2011-07-06T15:02:47Z</time>
      </trkpt>
      <trkpt lat="43.66212" lon="6.72919">
        <ele>513.48</ele>
        <time>2011-07-06T15:02:49Z</time>
      </trkpt>
      <trkpt lat="43.66209" lon="6.72924">
        <ele>514.44</ele>
        <time>2011-07-06T15:02:50Z</time>
      </trkpt>
      <trkpt lat="43.66208" lon="6.7293">
        <ele>513.48</ele>
        <time>2011-07-06T15:02:51Z</time>
      </trkpt>
      <trkpt lat="43.66202" lon="6.7295">
        <ele>513.48</ele>
        <time>2011-07-06T15:02:54Z</time>
      </trkpt>
      <trkpt lat="43.662" lon="6.72956">
        <ele>513</ele>
        <time>2011-07-06T15:02:55Z</time>
      </trkpt>
      <trkpt lat="43.66195" lon="6.72966">
        <ele>512.52</ele>
        <time>2011-07-06T15:02:57Z</time>
      </trkpt>
      <trkpt lat="43.66192" lon="6.7297">
        <ele>513.48</ele>
        <time>2011-07-06T15:02:58Z</time>
      </trkpt>
      <trkpt lat="43.66164" lon="6.72986">
        <ele>513</ele>
        <time>2011-07-06T15:03:05Z</time>
      </trkpt>
      <trkpt lat="43.66119" lon="6.72979">
        <ele>513</ele>
        <time>2011-07-06T15:03:15Z</time>
      </trkpt>
      <trkpt lat="43.66096" lon="6.72977">
        <ele>513</ele>
        <time>2011-07-06T15:03:24Z</time>
      </trkpt>
      <trkpt lat="43.66094" lon="6.72977">
        <ele>512.52</ele>
        <time>2011-07-06T15:03:39Z</time>
      </trkpt>
      <trkpt lat="43.66093" lon="6.72977">
        <ele>512.52</ele>
        <time>2011-07-06T15:03:40Z</time>
      </trkpt>
      <trkpt lat="43.66091" lon="6.72976">
        <ele>513</ele>
        <time>2011-07-06T15:03:41Z</time>
      </trkpt>
      <trkpt lat="43.66083" lon="6.72975">
        <ele>513</ele>
        <time>2011-07-06T15:03:52Z</time>
      </trkpt>
      <trkpt lat="43.66076" lon="6.72972">
        <ele>512.52</ele>
        <time>2011-07-06T15:04:05Z</time>
      </trkpt>
      <trkpt lat="43.66074" lon="6.72973">
        <ele>512.04</ele>
        <time>2011-07-06T15:04:10Z</time>
      </trkpt>
      <trkpt lat="43.66069" lon="6.72986">
        <ele>509.64</ele>
        <time>2011-07-06T15:04:16Z</time>
      </trkpt>
      <trkpt lat="43.66068" lon="6.72987">
        <ele>508.67</ele>
        <time>2011-07-06T15:04:17Z</time>
      </trkpt>
      <trkpt lat="43.66066" lon="6.72988">
        <ele>508.19</ele>
        <time>2011-07-06T15:04:18Z</time>
      </trkpt>
      <trkpt lat="43.66064" lon="6.72992">
        <ele>514.92</ele>
        <time>2011-07-06T15:04:20Z</time>
      </trkpt>
      <trkpt lat="43.66063" lon="6.72994">
        <ele>509.64</ele>
        <time>2011-07-06T15:04:21Z</time>
      </trkpt>
      <trkpt lat="43.66061" lon="6.72997">
        <ele>509.16</ele>
        <time>2011-07-06T15:04:24Z</time>
      </trkpt>
      <trkpt lat="43.66062" lon="6.72999">
        <ele>509.64</ele>
        <time>2011-07-06T15:04:45Z</time>
      </trkpt>
      <trkpt lat="43.66066" lon="6.73008">
        <ele>511.08</ele>
        <time>2011-07-06T15:04:55Z</time>
      </trkpt>
      <trkpt lat="43.66066" lon="6.73015">
        <ele>512.04</ele>
        <time>2011-07-06T15:05:08Z</time>
      </trkpt>
      <trkpt lat="43.66066" lon="6.73015">
        <ele>512.04</ele>
        <time>2011-07-06T15:05:41Z</time>
      </trkpt>
      <trkpt lat="43.66066" lon="6.73019">
        <ele>511.56</ele>
        <time>2011-07-06T15:06:03Z</time>
      </trkpt>
      <trkpt lat="43.66066" lon="6.73019">
        <ele>512.04</ele>
        <time>2011-07-06T15:06:25Z</time>
      </trkpt>
      <trkpt lat="43.66066" lon="6.73021">
        <ele>512.52</ele>
        <time>2011-07-06T15:06:28Z</time>
      </trkpt>
      <trkpt lat="43.66067" lon="6.73023">
        <ele>512.52</ele>
        <time>2011-07-06T15:06:29Z</time>
      </trkpt>
      <trkpt lat="43.66067" lon="6.73026">
        <ele>512.04</ele>
        <time>2011-07-06T15:06:30Z</time>
      </trkpt>
      <trkpt lat="43.66067" lon="6.7303">
        <ele>512.04</ele>
        <time>2011-07-06T15:06:31Z</time>
      </trkpt>
      <trkpt lat="43.66066" lon="6.73033">
        <ele>512.52</ele>
        <time>2011-07-06T15:06:32Z</time>
      </trkpt>
      <trkpt lat="43.66066" lon="6.73037">
        <ele>512.04</ele>
        <time>2011-07-06T15:06:33Z</time>
      </trkpt>
      <trkpt lat="43.66048" lon="6.73092">
        <ele>513</ele>
        <time>2011-07-06T15:06:47Z</time>
      </trkpt>
      <trkpt lat="43.66045" lon="6.73091">
        <ele>513</ele>
        <time>2011-07-06T15:06:49Z</time>
      </trkpt>
      <trkpt lat="43.66021" lon="6.731">
        <ele>515.4</ele>
        <time>2011-07-06T15:07:02Z</time>
      </trkpt>
      <trkpt lat="43.65989" lon="6.73125">
        <ele>515.88</ele>
        <time>2011-07-06T15:07:15Z</time>
      </trkpt>
      <trkpt lat="43.65953" lon="6.73138">
        <ele>517.33</ele>
        <time>2011-07-06T15:07:26Z</time>
      </trkpt>
      <trkpt lat="43.6593" lon="6.73177">
        <ele>516.85</ele>
        <time>2011-07-06T15:07:38Z</time>
      </trkpt>
      <trkpt lat="43.65907" lon="6.73214">
        <ele>515.4</ele>
        <time>2011-07-06T15:07:47Z</time>
      </trkpt>
      <trkpt lat="43.65902" lon="6.73218">
        <ele>515.4</ele>
        <time>2011-07-06T15:07:48Z</time>
      </trkpt>
      <trkpt lat="43.65897" lon="6.73221">
        <ele>514.92</ele>
        <time>2011-07-06T15:07:49Z</time>
      </trkpt>
      <trkpt lat="43.65883" lon="6.73232">
        <ele>511.56</ele>
        <time>2011-07-06T15:07:52Z</time>
      </trkpt>
      <trkpt lat="43.65878" lon="6.73236">
        <ele>511.08</ele>
        <time>2011-07-06T15:07:53Z</time>
      </trkpt>
      <trkpt lat="43.65872" lon="6.73238">
        <ele>510.12</ele>
        <time>2011-07-06T15:07:54Z</time>
      </trkpt>
      <trkpt lat="43.65867" lon="6.73239">
        <ele>509.16</ele>
        <time>2011-07-06T15:07:55Z</time>
      </trkpt>
      <trkpt lat="43.65862" lon="6.73241">
        <ele>508.19</ele>
        <time>2011-07-06T15:07:56Z</time>
      </trkpt>
      <trkpt lat="43.65857" lon="6.73242">
        <ele>507.71</ele>
        <time>2011-07-06T15:07:57Z</time>
      </trkpt>
      <trkpt lat="43.65853" lon="6.73245">
        <ele>507.23</ele>
        <time>2011-07-06T15:07:58Z</time>
      </trkpt>
      <trkpt lat="43.65849" lon="6.73247">
        <ele>505.79</ele>
        <time>2011-07-06T15:07:59Z</time>
      </trkpt>
      <trkpt lat="43.65844" lon="6.73248">
        <ele>504.35</ele>
        <time>2011-07-06T15:08:00Z</time>
      </trkpt>
      <trkpt lat="43.65839" lon="6.73249">
        <ele>503.87</ele>
        <time>2011-07-06T15:08:01Z</time>
      </trkpt>
      <trkpt lat="43.65834" lon="6.73248">
        <ele>503.87</ele>
        <time>2011-07-06T15:08:02Z</time>
      </trkpt>
      <trkpt lat="43.65829" lon="6.73248">
        <ele>503.39</ele>
        <time>2011-07-06T15:08:03Z</time>
      </trkpt>
      <trkpt lat="43.65825" lon="6.7325">
        <ele>503.39</ele>
        <time>2011-07-06T15:08:04Z</time>
      </trkpt>
      <trkpt lat="43.6582" lon="6.73252">
        <ele>501.95</ele>
        <time>2011-07-06T15:08:05Z</time>
      </trkpt>
      <trkpt lat="43.65815" lon="6.73253">
        <ele>501.95</ele>
        <time>2011-07-06T15:08:06Z</time>
      </trkpt>
      <trkpt lat="43.6581" lon="6.73252">
        <ele>501.46</ele>
        <time>2011-07-06T15:08:07Z</time>
      </trkpt>
      <trkpt lat="43.65805" lon="6.7325">
        <ele>501.46</ele>
        <time>2011-07-06T15:08:08Z</time>
      </trkpt>
      <trkpt lat="43.65801" lon="6.73247">
        <ele>501.46</ele>
        <time>2011-07-06T15:08:09Z</time>
      </trkpt>
      <trkpt lat="43.65797" lon="6.73245">
        <ele>501.95</ele>
        <time>2011-07-06T15:08:10Z</time>
      </trkpt>
      <trkpt lat="43.65792" lon="6.73243">
        <ele>501.95</ele>
        <time>2011-07-06T15:08:11Z</time>
      </trkpt>
      <trkpt lat="43.65787" lon="6.73243">
        <ele>501.46</ele>
        <time>2011-07-06T15:08:12Z</time>
      </trkpt>
      <trkpt lat="43.65783" lon="6.73243">
        <ele>501.95</ele>
        <time>2011-07-06T15:08:13Z</time>
      </trkpt>
      <trkpt lat="43.65765" lon="6.73245">
        <ele>500.98</ele>
        <time>2011-07-06T15:08:20Z</time>
      </trkpt>
      <trkpt lat="43.65761" lon="6.73245">
        <ele>501.46</ele>
        <time>2011-07-06T15:08:24Z</time>
      </trkpt>
      <trkpt lat="43.6576" lon="6.73245">
        <ele>501.46</ele>
        <time>2011-07-06T15:08:25Z</time>
      </trkpt>
      <trkpt lat="43.65758" lon="6.73245">
        <ele>501.46</ele>
        <time>2011-07-06T15:08:26Z</time>
      </trkpt>
      <trkpt lat="43.65729" lon="6.73248">
        <ele>501.46</ele>
        <time>2011-07-06T15:08:34Z</time>
      </trkpt>
      <trkpt lat="43.65725" lon="6.73249">
        <ele>501.46</ele>
        <time>2011-07-06T15:08:35Z</time>
      </trkpt>
      <trkpt lat="43.6572" lon="6.7325">
        <ele>500.98</ele>
        <time>2011-07-06T15:08:36Z</time>
      </trkpt>
      <trkpt lat="43.65716" lon="6.73251">
        <ele>501.46</ele>
        <time>2011-07-06T15:08:37Z</time>
      </trkpt>
      <trkpt lat="43.65711" lon="6.73253">
        <ele>501.46</ele>
        <time>2011-07-06T15:08:38Z</time>
      </trkpt>
      <trkpt lat="43.65707" lon="6.73255">
        <ele>500.98</ele>
        <time>2011-07-06T15:08:39Z</time>
      </trkpt>
      <trkpt lat="43.65702" lon="6.73257">
        <ele>500.98</ele>
        <time>2011-07-06T15:08:40Z</time>
      </trkpt>
      <trkpt lat="43.65698" lon="6.73258">
        <ele>500.98</ele>
        <time>2011-07-06T15:08:41Z</time>
      </trkpt>
      <trkpt lat="43.65694" lon="6.7326">
        <ele>500.98</ele>
        <time>2011-07-06T15:08:42Z</time>
      </trkpt>
      <trkpt lat="43.6569" lon="6.73263">
        <ele>501.46</ele>
        <time>2011-07-06T15:08:43Z</time>
      </trkpt>
      <trkpt lat="43.65686" lon="6.73265">
        <ele>501.46</ele>
        <time>2011-07-06T15:08:44Z</time>
      </trkpt>
      <trkpt lat="43.65682" lon="6.73267">
        <ele>500.98</ele>
        <time>2011-07-06T15:08:45Z</time>
      </trkpt>
      <trkpt lat="43.65659" lon="6.73283">
        <ele>500.98</ele>
        <time>2011-07-06T15:08:51Z</time>
      </trkpt>
      <trkpt lat="43.65655" lon="6.73284">
        <ele>500.98</ele>
        <time>2011-07-06T15:08:52Z</time>
      </trkpt>
      <trkpt lat="43.65651" lon="6.73284">
        <ele>500.98</ele>
        <time>2011-07-06T15:08:53Z</time>
      </trkpt>
      <trkpt lat="43.65646" lon="6.73285">
        <ele>500.5</ele>
        <time>2011-07-06T15:08:54Z</time>
      </trkpt>
      <trkpt lat="43.65643" lon="6.73287">
        <ele>500.98</ele>
        <time>2011-07-06T15:08:55Z</time>
      </trkpt>
      <trkpt lat="43.6564" lon="6.73289">
        <ele>500.98</ele>
        <time>2011-07-06T15:08:56Z</time>
      </trkpt>
      <trkpt lat="43.65636" lon="6.7329">
        <ele>500.98</ele>
        <time>2011-07-06T15:08:57Z</time>
      </trkpt>
      <trkpt lat="43.65625" lon="6.73293">
        <ele>501.46</ele>
        <time>2011-07-06T15:09:01Z</time>
      </trkpt>
      <trkpt lat="43.65622" lon="6.73295">
        <ele>501.46</ele>
        <time>2011-07-06T15:09:02Z</time>
      </trkpt>
      <trkpt lat="43.65615" lon="6.73301">
        <ele>500.98</ele>
        <time>2011-07-06T15:09:04Z</time>
      </trkpt>
      <trkpt lat="43.65611" lon="6.73305">
        <ele>500.5</ele>
        <time>2011-07-06T15:09:05Z</time>
      </trkpt>
      <trkpt lat="43.65603" lon="6.73311">
        <ele>500.98</ele>
        <time>2011-07-06T15:09:07Z</time>
      </trkpt>
      <trkpt lat="43.65557" lon="6.73335">
        <ele>500.98</ele>
        <time>2011-07-06T15:09:20Z</time>
      </trkpt>
      <trkpt lat="43.65549" lon="6.73339">
        <ele>500.98</ele>
        <time>2011-07-06T15:09:22Z</time>
      </trkpt>
      <trkpt lat="43.65544" lon="6.7334">
        <ele>500.5</ele>
        <time>2011-07-06T15:09:23Z</time>
      </trkpt>
      <trkpt lat="43.65525" lon="6.7334">
        <ele>501.46</ele>
        <time>2011-07-06T15:09:27Z</time>
      </trkpt>
      <trkpt lat="43.65516" lon="6.73339">
        <ele>501.95</ele>
        <time>2011-07-06T15:09:29Z</time>
      </trkpt>
      <trkpt lat="43.65482" lon="6.73324">
        <ele>502.43</ele>
        <time>2011-07-06T15:09:37Z</time>
      </trkpt>
      <trkpt lat="43.65478" lon="6.73322">
        <ele>501.95</ele>
        <time>2011-07-06T15:09:38Z</time>
      </trkpt>
      <trkpt lat="43.65473" lon="6.73321">
        <ele>501.46</ele>
        <time>2011-07-06T15:09:39Z</time>
      </trkpt>
      <trkpt lat="43.65469" lon="6.73319">
        <ele>501.95</ele>
        <time>2011-07-06T15:09:40Z</time>
      </trkpt>
      <trkpt lat="43.65464" lon="6.73316">
        <ele>500.98</ele>
        <time>2011-07-06T15:09:41Z</time>
      </trkpt>
      <trkpt lat="43.65437" lon="6.73299">
        <ele>499.06</ele>
        <time>2011-07-06T15:09:48Z</time>
      </trkpt>
      <trkpt lat="43.65431" lon="6.73299">
        <ele>498.1</ele>
        <time>2011-07-06T15:09:49Z</time>
      </trkpt>
      <trkpt lat="43.65414" lon="6.733">
        <ele>497.14</ele>
        <time>2011-07-06T15:09:52Z</time>
      </trkpt>
      <trkpt lat="43.65396" lon="6.73305">
        <ele>495.7</ele>
        <time>2011-07-06T15:09:58Z</time>
      </trkpt>
      <trkpt lat="43.65396" lon="6.73305">
        <ele>495.22</ele>
        <time>2011-07-06T15:10:27Z</time>
      </trkpt>
      <trkpt lat="43.65395" lon="6.73306">
        <ele>495.22</ele>
        <time>2011-07-06T15:10:59Z</time>
      </trkpt>
      <trkpt lat="43.65395" lon="6.73306">
        <ele>495.22</ele>
        <time>2011-07-06T15:11:34Z</time>
      </trkpt>
      <trkpt lat="43.65394" lon="6.73306">
        <ele>495.22</ele>
        <time>2011-07-06T15:11:54Z</time>
      </trkpt>
      <trkpt lat="43.65389" lon="6.73306">
        <ele>495.22</ele>
        <time>2011-07-06T15:11:57Z</time>
      </trkpt>
      <trkpt lat="43.65386" lon="6.73307">
        <ele>494.74</ele>
        <time>2011-07-06T15:11:58Z</time>
      </trkpt>
      <trkpt lat="43.65384" lon="6.73309">
        <ele>494.26</ele>
        <time>2011-07-06T15:11:59Z</time>
      </trkpt>
      <trkpt lat="43.65381" lon="6.73311">
        <ele>494.26</ele>
        <time>2011-07-06T15:12:00Z</time>
      </trkpt>
      <trkpt lat="43.65378" lon="6.73315">
        <ele>494.26</ele>
        <time>2011-07-06T15:12:01Z</time>
      </trkpt>
      <trkpt lat="43.65376" lon="6.7332">
        <ele>493.29</ele>
        <time>2011-07-06T15:12:02Z</time>
      </trkpt>
      <trkpt lat="43.65369" lon="6.73328">
        <ele>493.29</ele>
        <time>2011-07-06T15:12:04Z</time>
      </trkpt>
      <trkpt lat="43.65365" lon="6.7333">
        <ele>492.81</ele>
        <time>2011-07-06T15:12:05Z</time>
      </trkpt>
      <trkpt lat="43.65361" lon="6.73329">
        <ele>492.33</ele>
        <time>2011-07-06T15:12:06Z</time>
      </trkpt>
      <trkpt lat="43.65357" lon="6.73328">
        <ele>492.81</ele>
        <time>2011-07-06T15:12:07Z</time>
      </trkpt>
      <trkpt lat="43.65352" lon="6.73325">
        <ele>492.33</ele>
        <time>2011-07-06T15:12:08Z</time>
      </trkpt>
      <trkpt lat="43.65347" lon="6.73324">
        <ele>491.85</ele>
        <time>2011-07-06T15:12:09Z</time>
      </trkpt>
      <trkpt lat="43.65341" lon="6.73323">
        <ele>491.85</ele>
        <time>2011-07-06T15:12:10Z</time>
      </trkpt>
      <trkpt lat="43.65335" lon="6.73321">
        <ele>491.37</ele>
        <time>2011-07-06T15:12:11Z</time>
      </trkpt>
      <trkpt lat="43.65329" lon="6.73318">
        <ele>490.41</ele>
        <time>2011-07-06T15:12:12Z</time>
      </trkpt>
      <trkpt lat="43.65324" lon="6.73314">
        <ele>490.41</ele>
        <time>2011-07-06T15:12:13Z</time>
      </trkpt>
      <trkpt lat="43.65285" lon="6.73286">
        <ele>487.53</ele>
        <time>2011-07-06T15:12:20Z</time>
      </trkpt>
      <trkpt lat="43.65281" lon="6.73283">
        <ele>486.56</ele>
        <time>2011-07-06T15:12:21Z</time>
      </trkpt>
      <trkpt lat="43.65276" lon="6.73281">
        <ele>486.08</ele>
        <time>2011-07-06T15:12:22Z</time>
      </trkpt>
      <trkpt lat="43.65266" lon="6.73275">
        <ele>485.12</ele>
        <time>2011-07-06T15:12:24Z</time>
      </trkpt>
      <trkpt lat="43.6526" lon="6.73271">
        <ele>484.64</ele>
        <time>2011-07-06T15:12:25Z</time>
      </trkpt>
      <trkpt lat="43.65249" lon="6.73265">
        <ele>483.68</ele>
        <time>2011-07-06T15:12:27Z</time>
      </trkpt>
      <trkpt lat="43.65236" lon="6.73259">
        <ele>482.24</ele>
        <time>2011-07-06T15:12:29Z</time>
      </trkpt>
      <trkpt lat="43.65218" lon="6.73248">
        <ele>480.8</ele>
        <time>2011-07-06T15:12:32Z</time>
      </trkpt>
      <trkpt lat="43.65214" lon="6.73245">
        <ele>480.32</ele>
        <time>2011-07-06T15:12:33Z</time>
      </trkpt>
      <trkpt lat="43.6521" lon="6.73242">
        <ele>479.35</ele>
        <time>2011-07-06T15:12:34Z</time>
      </trkpt>
      <trkpt lat="43.65202" lon="6.73237">
        <ele>478.87</ele>
        <time>2011-07-06T15:12:36Z</time>
      </trkpt>
      <trkpt lat="43.65194" lon="6.73234">
        <ele>476.95</ele>
        <time>2011-07-06T15:12:38Z</time>
      </trkpt>
      <trkpt lat="43.65183" lon="6.73234">
        <ele>475.99</ele>
        <time>2011-07-06T15:12:40Z</time>
      </trkpt>
      <trkpt lat="43.65171" lon="6.73231">
        <ele>475.03</ele>
        <time>2011-07-06T15:12:42Z</time>
      </trkpt>
      <trkpt lat="43.65165" lon="6.73229">
        <ele>474.07</ele>
        <time>2011-07-06T15:12:43Z</time>
      </trkpt>
      <trkpt lat="43.65137" lon="6.73227">
        <ele>471.18</ele>
        <time>2011-07-06T15:12:47Z</time>
      </trkpt>
      <trkpt lat="43.65117" lon="6.73226">
        <ele>469.26</ele>
        <time>2011-07-06T15:12:50Z</time>
      </trkpt>
      <trkpt lat="43.65107" lon="6.73226">
        <ele>467.34</ele>
        <time>2011-07-06T15:12:52Z</time>
      </trkpt>
      <trkpt lat="43.65102" lon="6.73226">
        <ele>466.38</ele>
        <time>2011-07-06T15:12:53Z</time>
      </trkpt>
      <trkpt lat="43.65096" lon="6.73226">
        <ele>465.42</ele>
        <time>2011-07-06T15:12:54Z</time>
      </trkpt>
      <trkpt lat="43.65091" lon="6.73226">
        <ele>465.42</ele>
        <time>2011-07-06T15:12:55Z</time>
      </trkpt>
      <trkpt lat="43.65086" lon="6.73226">
        <ele>464.45</ele>
        <time>2011-07-06T15:12:56Z</time>
      </trkpt>
      <trkpt lat="43.6508" lon="6.73226">
        <ele>463.49</ele>
        <time>2011-07-06T15:12:57Z</time>
      </trkpt>
      <trkpt lat="43.65074" lon="6.73226">
        <ele>463.01</ele>
        <time>2011-07-06T15:12:58Z</time>
      </trkpt>
      <trkpt lat="43.65068" lon="6.73224">
        <ele>462.05</ele>
        <time>2011-07-06T15:12:59Z</time>
      </trkpt>
      <trkpt lat="43.65056" lon="6.73223">
        <ele>459.65</ele>
        <time>2011-07-06T15:13:01Z</time>
      </trkpt>
      <trkpt lat="43.65051" lon="6.73223">
        <ele>459.65</ele>
        <time>2011-07-06T15:13:02Z</time>
      </trkpt>
      <trkpt lat="43.65039" lon="6.73224">
        <ele>458.21</ele>
        <time>2011-07-06T15:13:04Z</time>
      </trkpt>
      <trkpt lat="43.65027" lon="6.73226">
        <ele>456.76</ele>
        <time>2011-07-06T15:13:06Z</time>
      </trkpt>
      <trkpt lat="43.65021" lon="6.73225">
        <ele>456.28</ele>
        <time>2011-07-06T15:13:07Z</time>
      </trkpt>
      <trkpt lat="43.65006" lon="6.73221">
        <ele>453.4</ele>
        <time>2011-07-06T15:13:10Z</time>
      </trkpt>
      <trkpt lat="43.65002" lon="6.73221">
        <ele>453.4</ele>
        <time>2011-07-06T15:13:11Z</time>
      </trkpt>
      <trkpt lat="43.64997" lon="6.73221">
        <ele>452.44</ele>
        <time>2011-07-06T15:13:12Z</time>
      </trkpt>
      <trkpt lat="43.64992" lon="6.73221">
        <ele>451.96</ele>
        <time>2011-07-06T15:13:13Z</time>
      </trkpt>
      <trkpt lat="43.64986" lon="6.73221">
        <ele>450.03</ele>
        <time>2011-07-06T15:13:14Z</time>
      </trkpt>
      <trkpt lat="43.6498" lon="6.73221">
        <ele>449.55</ele>
        <time>2011-07-06T15:13:15Z</time>
      </trkpt>
      <trkpt lat="43.64972" lon="6.73221">
        <ele>448.11</ele>
        <time>2011-07-06T15:13:16Z</time>
      </trkpt>
      <trkpt lat="43.64965" lon="6.73222">
        <ele>447.63</ele>
        <time>2011-07-06T15:13:17Z</time>
      </trkpt>
      <trkpt lat="43.6494" lon="6.73227">
        <ele>445.71</ele>
        <time>2011-07-06T15:13:20Z</time>
      </trkpt>
      <trkpt lat="43.64898" lon="6.73237">
        <ele>441.86</ele>
        <time>2011-07-06T15:13:25Z</time>
      </trkpt>
      <trkpt lat="43.64883" lon="6.73244">
        <ele>440.9</ele>
        <time>2011-07-06T15:13:27Z</time>
      </trkpt>
      <trkpt lat="43.64866" lon="6.7326">
        <ele>439.46</ele>
        <time>2011-07-06T15:13:31Z</time>
      </trkpt>
      <trkpt lat="43.64861" lon="6.73263">
        <ele>438.98</ele>
        <time>2011-07-06T15:13:32Z</time>
      </trkpt>
      <trkpt lat="43.64857" lon="6.73266">
        <ele>438.5</ele>
        <time>2011-07-06T15:13:33Z</time>
      </trkpt>
      <trkpt lat="43.64854" lon="6.73269">
        <ele>438.02</ele>
        <time>2011-07-06T15:13:34Z</time>
      </trkpt>
      <trkpt lat="43.6485" lon="6.7327">
        <ele>437.54</ele>
        <time>2011-07-06T15:13:35Z</time>
      </trkpt>
      <trkpt lat="43.64845" lon="6.73271">
        <ele>437.06</ele>
        <time>2011-07-06T15:13:36Z</time>
      </trkpt>
      <trkpt lat="43.64841" lon="6.73272">
        <ele>436.58</ele>
        <time>2011-07-06T15:13:37Z</time>
      </trkpt>
      <trkpt lat="43.64836" lon="6.73273">
        <ele>435.61</ele>
        <time>2011-07-06T15:13:38Z</time>
      </trkpt>
      <trkpt lat="43.64831" lon="6.73275">
        <ele>435.61</ele>
        <time>2011-07-06T15:13:39Z</time>
      </trkpt>
      <trkpt lat="43.64826" lon="6.73277">
        <ele>435.13</ele>
        <time>2011-07-06T15:13:40Z</time>
      </trkpt>
      <trkpt lat="43.64822" lon="6.73279">
        <ele>434.65</ele>
        <time>2011-07-06T15:13:41Z</time>
      </trkpt>
      <trkpt lat="43.64818" lon="6.7328">
        <ele>434.65</ele>
        <time>2011-07-06T15:13:42Z</time>
      </trkpt>
      <trkpt lat="43.64788" lon="6.73288">
        <ele>434.17</ele>
        <time>2011-07-06T15:13:50Z</time>
      </trkpt>
      <trkpt lat="43.64784" lon="6.73289">
        <ele>434.17</ele>
        <time>2011-07-06T15:13:51Z</time>
      </trkpt>
      <trkpt lat="43.6478" lon="6.7329">
        <ele>434.17</ele>
        <time>2011-07-06T15:13:52Z</time>
      </trkpt>
      <trkpt lat="43.64733" lon="6.73298">
        <ele>432.73</ele>
        <time>2011-07-06T15:14:00Z</time>
      </trkpt>
      <trkpt lat="43.64696" lon="6.73304">
        <ele>430.33</ele>
        <time>2011-07-06T15:14:05Z</time>
      </trkpt>
      <trkpt lat="43.64608" lon="6.73325">
        <ele>427.92</ele>
        <time>2011-07-06T15:14:17Z</time>
      </trkpt>
      <trkpt lat="43.64545" lon="6.73331">
        <ele>424.56</ele>
        <time>2011-07-06T15:14:25Z</time>
      </trkpt>
      <trkpt lat="43.6452" lon="6.73332">
        <ele>424.08</ele>
        <time>2011-07-06T15:14:28Z</time>
      </trkpt>
      <trkpt lat="43.64476" lon="6.73327">
        <ele>420.71</ele>
        <time>2011-07-06T15:14:34Z</time>
      </trkpt>
      <trkpt lat="43.6447" lon="6.73327">
        <ele>420.71</ele>
        <time>2011-07-06T15:14:35Z</time>
      </trkpt>
      <trkpt lat="43.64463" lon="6.73328">
        <ele>420.71</ele>
        <time>2011-07-06T15:14:36Z</time>
      </trkpt>
      <trkpt lat="43.64432" lon="6.73344">
        <ele>420.71</ele>
        <time>2011-07-06T15:14:45Z</time>
      </trkpt>
      <trkpt lat="43.64403" lon="6.73364">
        <ele>420.71</ele>
        <time>2011-07-06T15:14:53Z</time>
      </trkpt>
      <trkpt lat="43.64374" lon="6.73382">
        <ele>419.27</ele>
        <time>2011-07-06T15:15:01Z</time>
      </trkpt>
      <trkpt lat="43.64369" lon="6.73384">
        <ele>419.75</ele>
        <time>2011-07-06T15:15:02Z</time>
      </trkpt>
      <trkpt lat="43.64365" lon="6.73385">
        <ele>419.75</ele>
        <time>2011-07-06T15:15:03Z</time>
      </trkpt>
      <trkpt lat="43.6436" lon="6.73386">
        <ele>419.27</ele>
        <time>2011-07-06T15:15:04Z</time>
      </trkpt>
      <trkpt lat="43.64356" lon="6.73386">
        <ele>419.27</ele>
        <time>2011-07-06T15:15:05Z</time>
      </trkpt>
      <trkpt lat="43.64352" lon="6.73387">
        <ele>419.27</ele>
        <time>2011-07-06T15:15:06Z</time>
      </trkpt>
      <trkpt lat="43.6428" lon="6.734">
        <ele>418.31</ele>
        <time>2011-07-06T15:15:19Z</time>
      </trkpt>
      <trkpt lat="43.64243" lon="6.73394">
        <ele>416.87</ele>
        <time>2011-07-06T15:15:29Z</time>
      </trkpt>
      <trkpt lat="43.64241" lon="6.73394">
        <ele>416.39</ele>
        <time>2011-07-06T15:15:39Z</time>
      </trkpt>
      <trkpt lat="43.64241" lon="6.73394">
        <ele>416.87</ele>
        <time>2011-07-06T15:16:04Z</time>
      </trkpt>
      <trkpt lat="43.64241" lon="6.73394">
        <ele>415.91</ele>
        <time>2011-07-06T15:16:09Z</time>
      </trkpt>
      <trkpt lat="43.64241" lon="6.73394">
        <ele>416.87</ele>
        <time>2011-07-06T15:16:38Z</time>
      </trkpt>
      <trkpt lat="43.64241" lon="6.73394">
        <ele>416.87</ele>
        <time>2011-07-06T15:17:07Z</time>
      </trkpt>
      <trkpt lat="43.64243" lon="6.73395">
        <ele>416.39</ele>
        <time>2011-07-06T15:17:30Z</time>
      </trkpt>
      <trkpt lat="43.64246" lon="6.73397">
        <ele>416.39</ele>
        <time>2011-07-06T15:17:33Z</time>
      </trkpt>
      <trkpt lat="43.64247" lon="6.73397">
        <ele>416.39</ele>
        <time>2011-07-06T15:17:34Z</time>
      </trkpt>
      <trkpt lat="43.64266" lon="6.73401">
        <ele>416.87</ele>
        <time>2011-07-06T15:17:48Z</time>
      </trkpt>
      <trkpt lat="43.64271" lon="6.73402">
        <ele>417.83</ele>
        <time>2011-07-06T15:17:52Z</time>
      </trkpt>
      <trkpt lat="43.64273" lon="6.73402">
        <ele>417.35</ele>
        <time>2011-07-06T15:17:53Z</time>
      </trkpt>
      <trkpt lat="43.64274" lon="6.73402">
        <ele>417.35</ele>
        <time>2011-07-06T15:17:54Z</time>
      </trkpt>
      <trkpt lat="43.64276" lon="6.73402">
        <ele>418.31</ele>
        <time>2011-07-06T15:17:55Z</time>
      </trkpt>
      <trkpt lat="43.64277" lon="6.73403">
        <ele>417.83</ele>
        <time>2011-07-06T15:17:56Z</time>
      </trkpt>
      <trkpt lat="43.64287" lon="6.73403">
        <ele>418.31</ele>
        <time>2011-07-06T15:18:06Z</time>
      </trkpt>
      <trkpt lat="43.64344" lon="6.73391">
        <ele>418.79</ele>
        <time>2011-07-06T15:18:23Z</time>
      </trkpt>
      <trkpt lat="43.6438" lon="6.73384">
        <ele>419.27</ele>
        <time>2011-07-06T15:18:35Z</time>
      </trkpt>
      <trkpt lat="43.6441" lon="6.73365">
        <ele>420.71</ele>
        <time>2011-07-06T15:18:49Z</time>
      </trkpt>
      <trkpt lat="43.64439" lon="6.73344">
        <ele>420.71</ele>
        <time>2011-07-06T15:19:03Z</time>
      </trkpt>
      <trkpt lat="43.64442" lon="6.73345">
        <ele>420.71</ele>
        <time>2011-07-06T15:19:16Z</time>
      </trkpt>
      <trkpt lat="43.64442" lon="6.73344">
        <ele>421.19</ele>
        <time>2011-07-06T15:19:51Z</time>
      </trkpt>
      <trkpt lat="43.64442" lon="6.73344">
        <ele>420.71</ele>
        <time>2011-07-06T15:20:27Z</time>
      </trkpt>
      <trkpt lat="43.64444" lon="6.73344">
        <ele>420.71</ele>
        <time>2011-07-06T15:20:55Z</time>
      </trkpt>
      <trkpt lat="43.64446" lon="6.73344">
        <ele>420.71</ele>
        <time>2011-07-06T15:20:57Z</time>
      </trkpt>
      <trkpt lat="43.64451" lon="6.73341">
        <ele>420.23</ele>
        <time>2011-07-06T15:21:13Z</time>
      </trkpt>
      <trkpt lat="43.64451" lon="6.73341">
        <ele>420.23</ele>
        <time>2011-07-06T15:21:43Z</time>
      </trkpt>
      <trkpt lat="43.64451" lon="6.73341">
        <ele>420.71</ele>
        <time>2011-07-06T15:22:18Z</time>
      </trkpt>
      <trkpt lat="43.64452" lon="6.73342">
        <ele>420.71</ele>
        <time>2011-07-06T15:22:59Z</time>
      </trkpt>
      <trkpt lat="43.64451" lon="6.73341">
        <ele>419.75</ele>
        <time>2011-07-06T15:23:27Z</time>
      </trkpt>
      <trkpt lat="43.64451" lon="6.73341">
        <ele>419.75</ele>
        <time>2011-07-06T15:23:44Z</time>
      </trkpt>
      <trkpt lat="43.64451" lon="6.73341">
        <ele>422.64</ele>
        <time>2011-07-06T15:23:45Z</time>
      </trkpt>
      <trkpt lat="43.64451" lon="6.73341">
        <ele>420.23</ele>
        <time>2011-07-06T15:23:50Z</time>
      </trkpt>
      <trkpt lat="43.64451" lon="6.73341">
        <ele>423.6</ele>
        <time>2011-07-06T15:23:57Z</time>
      </trkpt>
      <trkpt lat="43.64451" lon="6.73341">
        <ele>421.68</ele>
        <time>2011-07-06T15:24:31Z</time>
      </trkpt>
      <trkpt lat="43.64461" lon="6.73334">
        <ele>421.19</ele>
        <time>2011-07-06T15:24:55Z</time>
      </trkpt>
      <trkpt lat="43.64475" lon="6.73332">
        <ele>421.68</ele>
        <time>2011-07-06T15:25:07Z</time>
      </trkpt>
      <trkpt lat="43.64507" lon="6.73337">
        <ele>423.12</ele>
        <time>2011-07-06T15:25:19Z</time>
      </trkpt>
      <trkpt lat="43.64513" lon="6.73338">
        <ele>423.12</ele>
        <time>2011-07-06T15:25:32Z</time>
      </trkpt>
      <trkpt lat="43.64525" lon="6.7334">
        <ele>424.08</ele>
        <time>2011-07-06T15:26:00Z</time>
      </trkpt>
      <trkpt lat="43.64566" lon="6.73338">
        <ele>426.48</ele>
        <time>2011-07-06T15:26:13Z</time>
      </trkpt>
      <trkpt lat="43.64602" lon="6.73334">
        <ele>428.4</ele>
        <time>2011-07-06T15:26:26Z</time>
      </trkpt>
      <trkpt lat="43.6463" lon="6.73327">
        <ele>429.37</ele>
        <time>2011-07-06T15:26:39Z</time>
      </trkpt>
      <trkpt lat="43.64632" lon="6.73325">
        <ele>429.85</ele>
        <time>2011-07-06T15:26:51Z</time>
      </trkpt>
      <trkpt lat="43.64633" lon="6.73325">
        <ele>429.37</ele>
        <time>2011-07-06T15:27:25Z</time>
      </trkpt>
      <trkpt lat="43.64633" lon="6.73325">
        <ele>429.37</ele>
        <time>2011-07-06T15:27:52Z</time>
      </trkpt>
      <trkpt lat="43.64633" lon="6.73326">
        <ele>429.85</ele>
        <time>2011-07-06T15:28:14Z</time>
      </trkpt>
      <trkpt lat="43.64633" lon="6.73326">
        <ele>430.33</ele>
        <time>2011-07-06T15:28:33Z</time>
      </trkpt>
      <trkpt lat="43.64633" lon="6.73326">
        <ele>429.85</ele>
        <time>2011-07-06T15:28:58Z</time>
      </trkpt>
      <trkpt lat="43.64632" lon="6.73327">
        <ele>430.33</ele>
        <time>2011-07-06T15:29:05Z</time>
      </trkpt>
      <trkpt lat="43.64621" lon="6.73331">
        <ele>429.85</ele>
        <time>2011-07-06T15:29:10Z</time>
      </trkpt>
      <trkpt lat="43.64586" lon="6.73337">
        <ele>427.92</ele>
        <time>2011-07-06T15:29:20Z</time>
      </trkpt>
      <trkpt lat="43.64578" lon="6.73338">
        <ele>427.92</ele>
        <time>2011-07-06T15:29:22Z</time>
      </trkpt>
      <trkpt lat="43.64542" lon="6.73342">
        <ele>426</ele>
        <time>2011-07-06T15:29:29Z</time>
      </trkpt>
      <trkpt lat="43.64536" lon="6.73342">
        <ele>426.48</ele>
        <time>2011-07-06T15:29:30Z</time>
      </trkpt>
      <trkpt lat="43.6453" lon="6.73342">
        <ele>425.52</ele>
        <time>2011-07-06T15:29:31Z</time>
      </trkpt>
      <trkpt lat="43.64518" lon="6.73343">
        <ele>425.04</ele>
        <time>2011-07-06T15:29:33Z</time>
      </trkpt>
      <trkpt lat="43.64512" lon="6.73342">
        <ele>425.04</ele>
        <time>2011-07-06T15:29:34Z</time>
      </trkpt>
      <trkpt lat="43.64472" lon="6.73335">
        <ele>422.64</ele>
        <time>2011-07-06T15:29:41Z</time>
      </trkpt>
      <trkpt lat="43.64466" lon="6.73335">
        <ele>422.64</ele>
        <time>2011-07-06T15:29:42Z</time>
      </trkpt>
      <trkpt lat="43.64461" lon="6.73336">
        <ele>422.64</ele>
        <time>2011-07-06T15:29:43Z</time>
      </trkpt>
      <trkpt lat="43.64457" lon="6.73338">
        <ele>422.64</ele>
        <time>2011-07-06T15:29:44Z</time>
      </trkpt>
      <trkpt lat="43.64453" lon="6.73339">
        <ele>422.16</ele>
        <time>2011-07-06T15:29:45Z</time>
      </trkpt>
      <trkpt lat="43.64449" lon="6.7334">
        <ele>422.64</ele>
        <time>2011-07-06T15:29:46Z</time>
      </trkpt>
      <trkpt lat="43.64446" lon="6.73342">
        <ele>422.64</ele>
        <time>2011-07-06T15:29:47Z</time>
      </trkpt>
      <trkpt lat="43.6441" lon="6.73363">
        <ele>422.64</ele>
        <time>2011-07-06T15:29:58Z</time>
      </trkpt>
      <trkpt lat="43.64381" lon="6.73381">
        <ele>421.68</ele>
        <time>2011-07-06T15:30:06Z</time>
      </trkpt>
      <trkpt lat="43.64376" lon="6.73383">
        <ele>421.68</ele>
        <time>2011-07-06T15:30:07Z</time>
      </trkpt>
      <trkpt lat="43.64368" lon="6.73385">
        <ele>421.19</ele>
        <time>2011-07-06T15:30:09Z</time>
      </trkpt>
      <trkpt lat="43.64364" lon="6.73386">
        <ele>421.68</ele>
        <time>2011-07-06T15:30:10Z</time>
      </trkpt>
      <trkpt lat="43.6436" lon="6.73386">
        <ele>421.19</ele>
        <time>2011-07-06T15:30:11Z</time>
      </trkpt>
      <trkpt lat="43.64336" lon="6.73389">
        <ele>421.68</ele>
        <time>2011-07-06T15:30:16Z</time>
      </trkpt>
      <trkpt lat="43.64332" lon="6.7339">
        <ele>421.68</ele>
        <time>2011-07-06T15:30:17Z</time>
      </trkpt>
      <trkpt lat="43.64303" lon="6.73398">
        <ele>420.23</ele>
        <time>2011-07-06T15:30:23Z</time>
      </trkpt>
      <trkpt lat="43.64288" lon="6.734">
        <ele>420.71</ele>
        <time>2011-07-06T15:30:26Z</time>
      </trkpt>
      <trkpt lat="43.64264" lon="6.73398">
        <ele>419.27</ele>
        <time>2011-07-06T15:30:32Z</time>
      </trkpt>
      <trkpt lat="43.6426" lon="6.73397">
        <ele>418.79</ele>
        <time>2011-07-06T15:30:33Z</time>
      </trkpt>
      <trkpt lat="43.64239" lon="6.73392">
        <ele>418.79</ele>
        <time>2011-07-06T15:30:43Z</time>
      </trkpt>
      <trkpt lat="43.64238" lon="6.73393">
        <ele>418.31</ele>
        <time>2011-07-06T15:30:45Z</time>
      </trkpt>
      <trkpt lat="43.64237" lon="6.73394">
        <ele>418.79</ele>
        <time>2011-07-06T15:30:46Z</time>
      </trkpt>
      <trkpt lat="43.64235" lon="6.73394">
        <ele>418.31</ele>
        <time>2011-07-06T15:30:47Z</time>
      </trkpt>
      <trkpt lat="43.64232" lon="6.73395">
        <ele>417.35</ele>
        <time>2011-07-06T15:30:48Z</time>
      </trkpt>
      <trkpt lat="43.6423" lon="6.73396">
        <ele>417.35</ele>
        <time>2011-07-06T15:30:49Z</time>
      </trkpt>
      <trkpt lat="43.64227" lon="6.73397">
        <ele>416.39</ele>
        <time>2011-07-06T15:30:50Z</time>
      </trkpt>
      <trkpt lat="43.64201" lon="6.73414">
        <ele>412.06</ele>
        <time>2011-07-06T15:30:56Z</time>
      </trkpt>
      <trkpt lat="43.64194" lon="6.73419">
        <ele>412.06</ele>
        <time>2011-07-06T15:30:57Z</time>
      </trkpt>
      <trkpt lat="43.64182" lon="6.73427">
        <ele>411.1</ele>
        <time>2011-07-06T15:30:59Z</time>
      </trkpt>
      <trkpt lat="43.64173" lon="6.73431">
        <ele>409.66</ele>
        <time>2011-07-06T15:31:00Z</time>
      </trkpt>
      <trkpt lat="43.64158" lon="6.73438">
        <ele>408.22</ele>
        <time>2011-07-06T15:31:02Z</time>
      </trkpt>
      <trkpt lat="43.6414" lon="6.73445">
        <ele>405.81</ele>
        <time>2011-07-06T15:31:05Z</time>
      </trkpt>
      <trkpt lat="43.64131" lon="6.73449">
        <ele>404.37</ele>
        <time>2011-07-06T15:31:07Z</time>
      </trkpt>
      <trkpt lat="43.64119" lon="6.73454">
        <ele>401.97</ele>
        <time>2011-07-06T15:31:10Z</time>
      </trkpt>
      <trkpt lat="43.64105" lon="6.73459">
        <ele>399.08</ele>
        <time>2011-07-06T15:31:13Z</time>
      </trkpt>
      <trkpt lat="43.6409" lon="6.73463">
        <ele>395.72</ele>
        <time>2011-07-06T15:31:16Z</time>
      </trkpt>
      <trkpt lat="43.64085" lon="6.73466">
        <ele>394.28</ele>
        <time>2011-07-06T15:31:17Z</time>
      </trkpt>
      <trkpt lat="43.64073" lon="6.73469">
        <ele>393.32</ele>
        <time>2011-07-06T15:31:19Z</time>
      </trkpt>
      <trkpt lat="43.64066" lon="6.73471">
        <ele>391.87</ele>
        <time>2011-07-06T15:31:20Z</time>
      </trkpt>
      <trkpt lat="43.6406" lon="6.73473">
        <ele>391.87</ele>
        <time>2011-07-06T15:31:21Z</time>
      </trkpt>
      <trkpt lat="43.64054" lon="6.73477">
        <ele>390.43</ele>
        <time>2011-07-06T15:31:22Z</time>
      </trkpt>
      <trkpt lat="43.64047" lon="6.73481">
        <ele>389.95</ele>
        <time>2011-07-06T15:31:23Z</time>
      </trkpt>
      <trkpt lat="43.6404" lon="6.73484">
        <ele>389.47</ele>
        <time>2011-07-06T15:31:24Z</time>
      </trkpt>
      <trkpt lat="43.64032" lon="6.73486">
        <ele>389.47</ele>
        <time>2011-07-06T15:31:25Z</time>
      </trkpt>
      <trkpt lat="43.64026" lon="6.73487">
        <ele>388.51</ele>
        <time>2011-07-06T15:31:26Z</time>
      </trkpt>
      <trkpt lat="43.64018" lon="6.7349">
        <ele>387.55</ele>
        <time>2011-07-06T15:31:27Z</time>
      </trkpt>
      <trkpt lat="43.63964" lon="6.73507">
        <ele>384.18</ele>
        <time>2011-07-06T15:31:34Z</time>
      </trkpt>
      <trkpt lat="43.63957" lon="6.7351">
        <ele>383.7</ele>
        <time>2011-07-06T15:31:35Z</time>
      </trkpt>
      <trkpt lat="43.63926" lon="6.73521">
        <ele>382.26</ele>
        <time>2011-07-06T15:31:39Z</time>
      </trkpt>
      <trkpt lat="43.63919" lon="6.73525">
        <ele>382.26</ele>
        <time>2011-07-06T15:31:40Z</time>
      </trkpt>
      <trkpt lat="43.6389" lon="6.73549">
        <ele>381.3</ele>
        <time>2011-07-06T15:31:45Z</time>
      </trkpt>
      <trkpt lat="43.63885" lon="6.73553">
        <ele>381.3</ele>
        <time>2011-07-06T15:31:46Z</time>
      </trkpt>
      <trkpt lat="43.63879" lon="6.73558">
        <ele>380.34</ele>
        <time>2011-07-06T15:31:47Z</time>
      </trkpt>
      <trkpt lat="43.63843" lon="6.73589">
        <ele>379.86</ele>
        <time>2011-07-06T15:31:54Z</time>
      </trkpt>
      <trkpt lat="43.63841" lon="6.73594">
        <ele>379.86</ele>
        <time>2011-07-06T15:31:55Z</time>
      </trkpt>
      <trkpt lat="43.6384" lon="6.73599">
        <ele>379.38</ele>
        <time>2011-07-06T15:31:56Z</time>
      </trkpt>
      <trkpt lat="43.6384" lon="6.73603">
        <ele>379.38</ele>
        <time>2011-07-06T15:31:57Z</time>
      </trkpt>
      <trkpt lat="43.6384" lon="6.73607">
        <ele>379.38</ele>
        <time>2011-07-06T15:31:58Z</time>
      </trkpt>
      <trkpt lat="43.6384" lon="6.73608">
        <ele>378.9</ele>
        <time>2011-07-06T15:32:08Z</time>
      </trkpt>
      <trkpt lat="43.63838" lon="6.73608">
        <ele>378.9</ele>
        <time>2011-07-06T15:32:18Z</time>
      </trkpt>
      <trkpt lat="43.63836" lon="6.73606">
        <ele>378.9</ele>
        <time>2011-07-06T15:32:19Z</time>
      </trkpt>
      <trkpt lat="43.63834" lon="6.73605">
        <ele>378.9</ele>
        <time>2011-07-06T15:32:20Z</time>
      </trkpt>
      <trkpt lat="43.63833" lon="6.73603">
        <ele>378.9</ele>
        <time>2011-07-06T15:32:21Z</time>
      </trkpt>
      <trkpt lat="43.63829" lon="6.73604">
        <ele>379.38</ele>
        <time>2011-07-06T15:32:29Z</time>
      </trkpt>
      <trkpt lat="43.63828" lon="6.73606">
        <ele>379.38</ele>
        <time>2011-07-06T15:32:30Z</time>
      </trkpt>
      <trkpt lat="43.63825" lon="6.73607">
        <ele>378.9</ele>
        <time>2011-07-06T15:32:31Z</time>
      </trkpt>
      <trkpt lat="43.63823" lon="6.73608">
        <ele>379.38</ele>
        <time>2011-07-06T15:32:32Z</time>
      </trkpt>
      <trkpt lat="43.6382" lon="6.73608">
        <ele>378.9</ele>
        <time>2011-07-06T15:32:33Z</time>
      </trkpt>
      <trkpt lat="43.63818" lon="6.7361">
        <ele>379.38</ele>
        <time>2011-07-06T15:32:34Z</time>
      </trkpt>
      <trkpt lat="43.63816" lon="6.73612">
        <ele>379.38</ele>
        <time>2011-07-06T15:32:35Z</time>
      </trkpt>
      <trkpt lat="43.63814" lon="6.73615">
        <ele>379.38</ele>
        <time>2011-07-06T15:32:36Z</time>
      </trkpt>
      <trkpt lat="43.63811" lon="6.73617">
        <ele>378.42</ele>
        <time>2011-07-06T15:32:37Z</time>
      </trkpt>
      <trkpt lat="43.63809" lon="6.73621">
        <ele>378.42</ele>
        <time>2011-07-06T15:32:38Z</time>
      </trkpt>
      <trkpt lat="43.63808" lon="6.73626">
        <ele>377.94</ele>
        <time>2011-07-06T15:32:39Z</time>
      </trkpt>
      <trkpt lat="43.63809" lon="6.73633">
        <ele>377.94</ele>
        <time>2011-07-06T15:32:40Z</time>
      </trkpt>
      <trkpt lat="43.63807" lon="6.73689">
        <ele>376.97</ele>
        <time>2011-07-06T15:32:47Z</time>
      </trkpt>
      <trkpt lat="43.63806" lon="6.73696">
        <ele>376.97</ele>
        <time>2011-07-06T15:32:48Z</time>
      </trkpt>
      <trkpt lat="43.63804" lon="6.73703">
        <ele>376.97</ele>
        <time>2011-07-06T15:32:49Z</time>
      </trkpt>
      <trkpt lat="43.63801" lon="6.73709">
        <ele>376.97</ele>
        <time>2011-07-06T15:32:50Z</time>
      </trkpt>
      <trkpt lat="43.63798" lon="6.73715">
        <ele>376.97</ele>
        <time>2011-07-06T15:32:51Z</time>
      </trkpt>
      <trkpt lat="43.63786" lon="6.73738">
        <ele>378.42</ele>
        <time>2011-07-06T15:32:59Z</time>
      </trkpt>
      <trkpt lat="43.63785" lon="6.73743">
        <ele>378.42</ele>
        <time>2011-07-06T15:33:02Z</time>
      </trkpt>
      <trkpt lat="43.63783" lon="6.73749">
        <ele>378.9</ele>
        <time>2011-07-06T15:33:10Z</time>
      </trkpt>
      <trkpt lat="43.63781" lon="6.73752">
        <ele>379.38</ele>
        <time>2011-07-06T15:33:12Z</time>
      </trkpt>
      <trkpt lat="43.6378" lon="6.73765">
        <ele>379.86</ele>
        <time>2011-07-06T15:33:19Z</time>
      </trkpt>
      <trkpt lat="43.6377" lon="6.73796">
        <ele>378.9</ele>
        <time>2011-07-06T15:33:27Z</time>
      </trkpt>
      <trkpt lat="43.6377" lon="6.7382">
        <ele>379.38</ele>
        <time>2011-07-06T15:33:31Z</time>
      </trkpt>
      <trkpt lat="43.6377" lon="6.73826">
        <ele>378.9</ele>
        <time>2011-07-06T15:33:32Z</time>
      </trkpt>
      <trkpt lat="43.63771" lon="6.73833">
        <ele>379.38</ele>
        <time>2011-07-06T15:33:33Z</time>
      </trkpt>
      <trkpt lat="43.63773" lon="6.73847">
        <ele>378.9</ele>
        <time>2011-07-06T15:33:35Z</time>
      </trkpt>
      <trkpt lat="43.63774" lon="6.73853">
        <ele>379.86</ele>
        <time>2011-07-06T15:33:36Z</time>
      </trkpt>
      <trkpt lat="43.63775" lon="6.7386">
        <ele>379.38</ele>
        <time>2011-07-06T15:33:37Z</time>
      </trkpt>
      <trkpt lat="43.63776" lon="6.73865">
        <ele>379.86</ele>
        <time>2011-07-06T15:33:38Z</time>
      </trkpt>
      <trkpt lat="43.63776" lon="6.73871">
        <ele>380.34</ele>
        <time>2011-07-06T15:33:39Z</time>
      </trkpt>
      <trkpt lat="43.63777" lon="6.73877">
        <ele>380.34</ele>
        <time>2011-07-06T15:33:40Z</time>
      </trkpt>
      <trkpt lat="43.63778" lon="6.7388">
        <ele>380.82</ele>
        <time>2011-07-06T15:33:41Z</time>
      </trkpt>
      <trkpt lat="43.63778" lon="6.73884">
        <ele>380.82</ele>
        <time>2011-07-06T15:33:42Z</time>
      </trkpt>
      <trkpt lat="43.63778" lon="6.7389">
        <ele>380.82</ele>
        <time>2011-07-06T15:33:43Z</time>
      </trkpt>
      <trkpt lat="43.63772" lon="6.73935">
        <ele>380.34</ele>
        <time>2011-07-06T15:33:51Z</time>
      </trkpt>
      <trkpt lat="43.63772" lon="6.73942">
        <ele>380.34</ele>
        <time>2011-07-06T15:33:52Z</time>
      </trkpt>
      <trkpt lat="43.63772" lon="6.73949">
        <ele>380.34</ele>
        <time>2011-07-06T15:33:53Z</time>
      </trkpt>
      <trkpt lat="43.63773" lon="6.73955">
        <ele>380.82</ele>
        <time>2011-07-06T15:33:54Z</time>
      </trkpt>
      <trkpt lat="43.63775" lon="6.73961">
        <ele>380.34</ele>
        <time>2011-07-06T15:33:55Z</time>
      </trkpt>
      <trkpt lat="43.63775" lon="6.73967">
        <ele>380.82</ele>
        <time>2011-07-06T15:33:56Z</time>
      </trkpt>
      <trkpt lat="43.63774" lon="6.73973">
        <ele>380.82</ele>
        <time>2011-07-06T15:33:57Z</time>
      </trkpt>
      <trkpt lat="43.63772" lon="6.73977">
        <ele>380.82</ele>
        <time>2011-07-06T15:33:58Z</time>
      </trkpt>
      <trkpt lat="43.63766" lon="6.7399">
        <ele>380.82</ele>
        <time>2011-07-06T15:34:01Z</time>
      </trkpt>
      <trkpt lat="43.63752" lon="6.74028">
        <ele>381.3</ele>
        <time>2011-07-06T15:34:09Z</time>
      </trkpt>
      <trkpt lat="43.6375" lon="6.74033">
        <ele>382.26</ele>
        <time>2011-07-06T15:34:10Z</time>
      </trkpt>
      <trkpt lat="43.63748" lon="6.74038">
        <ele>381.78</ele>
        <time>2011-07-06T15:34:11Z</time>
      </trkpt>
      <trkpt lat="43.63747" lon="6.74043">
        <ele>381.78</ele>
        <time>2011-07-06T15:34:12Z</time>
      </trkpt>
      <trkpt lat="43.63746" lon="6.74048">
        <ele>381.78</ele>
        <time>2011-07-06T15:34:13Z</time>
      </trkpt>
      <trkpt lat="43.63744" lon="6.74052">
        <ele>381.78</ele>
        <time>2011-07-06T15:34:14Z</time>
      </trkpt>
      <trkpt lat="43.63743" lon="6.74055">
        <ele>381.3</ele>
        <time>2011-07-06T15:34:15Z</time>
      </trkpt>
      <trkpt lat="43.63736" lon="6.74072">
        <ele>380.34</ele>
        <time>2011-07-06T15:34:19Z</time>
      </trkpt>
      <trkpt lat="43.63731" lon="6.74082">
        <ele>379.86</ele>
        <time>2011-07-06T15:34:21Z</time>
      </trkpt>
      <trkpt lat="43.63722" lon="6.74098">
        <ele>377.45</ele>
        <time>2011-07-06T15:34:24Z</time>
      </trkpt>
      <trkpt lat="43.63718" lon="6.74102">
        <ele>377.45</ele>
        <time>2011-07-06T15:34:25Z</time>
      </trkpt>
      <trkpt lat="43.63715" lon="6.74107">
        <ele>376.49</ele>
        <time>2011-07-06T15:34:26Z</time>
      </trkpt>
      <trkpt lat="43.63714" lon="6.74129">
        <ele>374.57</ele>
        <time>2011-07-06T15:34:30Z</time>
      </trkpt>
      <trkpt lat="43.6371" lon="6.74138">
        <ele>373.13</ele>
        <time>2011-07-06T15:34:32Z</time>
      </trkpt>
      <trkpt lat="43.63708" lon="6.74144">
        <ele>372.17</ele>
        <time>2011-07-06T15:34:33Z</time>
      </trkpt>
      <trkpt lat="43.63706" lon="6.74151">
        <ele>371.69</ele>
        <time>2011-07-06T15:34:34Z</time>
      </trkpt>
      <trkpt lat="43.63696" lon="6.74199">
        <ele>372.17</ele>
        <time>2011-07-06T15:34:43Z</time>
      </trkpt>
      <trkpt lat="43.6369" lon="6.74232">
        <ele>372.17</ele>
        <time>2011-07-06T15:34:51Z</time>
      </trkpt>
      <trkpt lat="43.63688" lon="6.74251">
        <ele>373.13</ele>
        <time>2011-07-06T15:34:56Z</time>
      </trkpt>
      <trkpt lat="43.63686" lon="6.74256">
        <ele>373.61</ele>
        <time>2011-07-06T15:34:59Z</time>
      </trkpt>
      <trkpt lat="43.63683" lon="6.74265">
        <ele>373.61</ele>
        <time>2011-07-06T15:35:02Z</time>
      </trkpt>
      <trkpt lat="43.63675" lon="6.74273">
        <ele>372.65</ele>
        <time>2011-07-06T15:35:07Z</time>
      </trkpt>
      <trkpt lat="43.63666" lon="6.74295">
        <ele>373.13</ele>
        <time>2011-07-06T15:35:13Z</time>
      </trkpt>
      <trkpt lat="43.63664" lon="6.74297">
        <ele>373.13</ele>
        <time>2011-07-06T15:35:15Z</time>
      </trkpt>
      <trkpt lat="43.63655" lon="6.74338">
        <ele>374.57</ele>
        <time>2011-07-06T15:35:26Z</time>
      </trkpt>
      <trkpt lat="43.63653" lon="6.74375">
        <ele>374.57</ele>
        <time>2011-07-06T15:35:34Z</time>
      </trkpt>
      <trkpt lat="43.63663" lon="6.7443">
        <ele>376.49</ele>
        <time>2011-07-06T15:35:46Z</time>
      </trkpt>
      <trkpt lat="43.6366" lon="6.74462">
        <ele>377.94</ele>
        <time>2011-07-06T15:36:00Z</time>
      </trkpt>
      <trkpt lat="43.63657" lon="6.74464">
        <ele>377.94</ele>
        <time>2011-07-06T15:36:09Z</time>
      </trkpt>
      <trkpt lat="43.63662" lon="6.74475">
        <ele>378.42</ele>
        <time>2011-07-06T15:36:14Z</time>
      </trkpt>
      <trkpt lat="43.63659" lon="6.74527">
        <ele>377.45</ele>
        <time>2011-07-06T15:36:25Z</time>
      </trkpt>
      <trkpt lat="43.63657" lon="6.74525">
        <ele>377.45</ele>
        <time>2011-07-06T15:36:39Z</time>
      </trkpt>
      <trkpt lat="43.63657" lon="6.74525">
        <ele>377.45</ele>
        <time>2011-07-06T15:36:48Z</time>
      </trkpt>
      <trkpt lat="43.63654" lon="6.74545">
        <ele>377.94</ele>
        <time>2011-07-06T15:36:55Z</time>
      </trkpt>
      <trkpt lat="43.63659" lon="6.74582">
        <ele>377.45</ele>
        <time>2011-07-06T15:37:03Z</time>
      </trkpt>
      <trkpt lat="43.63657" lon="6.74656">
        <ele>379.38</ele>
        <time>2011-07-06T15:37:16Z</time>
      </trkpt>
      <trkpt lat="43.63637" lon="6.74709">
        <ele>380.82</ele>
        <time>2011-07-06T15:37:29Z</time>
      </trkpt>
      <trkpt lat="43.63612" lon="6.74751">
        <ele>382.26</ele>
        <time>2011-07-06T15:37:41Z</time>
      </trkpt>
      <trkpt lat="43.63581" lon="6.748">
        <ele>384.66</ele>
        <time>2011-07-06T15:37:54Z</time>
      </trkpt>
      <trkpt lat="43.63594" lon="6.74803">
        <ele>385.63</ele>
        <time>2011-07-06T15:38:02Z</time>
      </trkpt>
      <trkpt lat="43.63607" lon="6.74811">
        <ele>387.55</ele>
        <time>2011-07-06T15:38:08Z</time>
      </trkpt>
      <trkpt lat="43.63612" lon="6.74813">
        <ele>387.07</ele>
        <time>2011-07-06T15:38:11Z</time>
      </trkpt>
      <trkpt lat="43.63622" lon="6.74811">
        <ele>387.07</ele>
        <time>2011-07-06T15:38:16Z</time>
      </trkpt>
      <trkpt lat="43.63626" lon="6.74809">
        <ele>387.55</ele>
        <time>2011-07-06T15:38:32Z</time>
      </trkpt>
      <trkpt lat="43.63629" lon="6.74809">
        <ele>387.55</ele>
        <time>2011-07-06T15:38:37Z</time>
      </trkpt>
      <trkpt lat="43.63675" lon="6.74799">
        <ele>388.51</ele>
        <time>2011-07-06T15:38:50Z</time>
      </trkpt>
      <trkpt lat="43.63696" lon="6.74794">
        <ele>388.99</ele>
        <time>2011-07-06T15:38:54Z</time>
      </trkpt>
      <trkpt lat="43.63701" lon="6.74794">
        <ele>388.51</ele>
        <time>2011-07-06T15:38:55Z</time>
      </trkpt>
      <trkpt lat="43.63776" lon="6.74784">
        <ele>391.87</ele>
        <time>2011-07-06T15:39:09Z</time>
      </trkpt>
      <trkpt lat="43.63781" lon="6.74782">
        <ele>391.87</ele>
        <time>2011-07-06T15:39:10Z</time>
      </trkpt>
      <trkpt lat="43.63809" lon="6.7478">
        <ele>392.84</ele>
        <time>2011-07-06T15:39:18Z</time>
      </trkpt>
      <trkpt lat="43.6382" lon="6.74798">
        <ele>393.8</ele>
        <time>2011-07-06T15:39:25Z</time>
      </trkpt>
      <trkpt lat="43.63826" lon="6.74804">
        <ele>393.32</ele>
        <time>2011-07-06T15:39:27Z</time>
      </trkpt>
      <trkpt lat="43.63843" lon="6.74815">
        <ele>393.32</ele>
        <time>2011-07-06T15:39:32Z</time>
      </trkpt>
      <trkpt lat="43.6385" lon="6.74814">
        <ele>392.84</ele>
        <time>2011-07-06T15:39:34Z</time>
      </trkpt>
      <trkpt lat="43.63853" lon="6.74815">
        <ele>392.36</ele>
        <time>2011-07-06T15:39:35Z</time>
      </trkpt>
      <trkpt lat="43.63857" lon="6.74817">
        <ele>392.36</ele>
        <time>2011-07-06T15:39:41Z</time>
      </trkpt>
      <trkpt lat="43.63858" lon="6.74825">
        <ele>392.36</ele>
        <time>2011-07-06T15:39:45Z</time>
      </trkpt>
      <trkpt lat="43.63882" lon="6.74854">
        <ele>391.39</ele>
        <time>2011-07-06T15:39:54Z</time>
      </trkpt>
      <trkpt lat="43.63879" lon="6.7489">
        <ele>391.39</ele>
        <time>2011-07-06T15:40:02Z</time>
      </trkpt>
      <trkpt lat="43.63873" lon="6.74914">
        <ele>389.95</ele>
        <time>2011-07-06T15:40:06Z</time>
      </trkpt>
      <trkpt lat="43.63889" lon="6.74961">
        <ele>389.95</ele>
        <time>2011-07-06T15:40:13Z</time>
      </trkpt>
      <trkpt lat="43.63912" lon="6.74988">
        <ele>388.03</ele>
        <time>2011-07-06T15:40:19Z</time>
      </trkpt>
      <trkpt lat="43.6392" lon="6.74994">
        <ele>388.03</ele>
        <time>2011-07-06T15:40:21Z</time>
      </trkpt>
      <trkpt lat="43.63928" lon="6.75">
        <ele>388.03</ele>
        <time>2011-07-06T15:40:23Z</time>
      </trkpt>
      <trkpt lat="43.63943" lon="6.75008">
        <ele>388.99</ele>
        <time>2011-07-06T15:40:27Z</time>
      </trkpt>
      <trkpt lat="43.63958" lon="6.75012">
        <ele>389.95</ele>
        <time>2011-07-06T15:40:32Z</time>
      </trkpt>
      <trkpt lat="43.6397" lon="6.75018">
        <ele>390.43</ele>
        <time>2011-07-06T15:40:39Z</time>
      </trkpt>
      <trkpt lat="43.63977" lon="6.75019">
        <ele>390.91</ele>
        <time>2011-07-06T15:40:47Z</time>
      </trkpt>
      <trkpt lat="43.63982" lon="6.75014">
        <ele>394.76</ele>
        <time>2011-07-06T15:40:54Z</time>
      </trkpt>
      <trkpt lat="43.63983" lon="6.75015">
        <ele>388.99</ele>
        <time>2011-07-06T15:40:55Z</time>
      </trkpt>
      <trkpt lat="43.63982" lon="6.75018">
        <ele>390.91</ele>
        <time>2011-07-06T15:40:58Z</time>
      </trkpt>
      <trkpt lat="43.6398" lon="6.7502">
        <ele>391.39</ele>
        <time>2011-07-06T15:41:01Z</time>
      </trkpt>
      <trkpt lat="43.63978" lon="6.75027">
        <ele>391.39</ele>
        <time>2011-07-06T15:41:05Z</time>
      </trkpt>
      <trkpt lat="43.63982" lon="6.75036">
        <ele>391.39</ele>
        <time>2011-07-06T15:41:09Z</time>
      </trkpt>
      <trkpt lat="43.64002" lon="6.7507">
        <ele>392.84</ele>
        <time>2011-07-06T15:41:21Z</time>
      </trkpt>
      <trkpt lat="43.6403" lon="6.75077">
        <ele>392.36</ele>
        <time>2011-07-06T15:41:29Z</time>
      </trkpt>
      <trkpt lat="43.64055" lon="6.75088">
        <ele>393.32</ele>
        <time>2011-07-06T15:41:38Z</time>
      </trkpt>
      <trkpt lat="43.64068" lon="6.75095">
        <ele>393.8</ele>
        <time>2011-07-06T15:41:41Z</time>
      </trkpt>
      <trkpt lat="43.64095" lon="6.75119">
        <ele>393.32</ele>
        <time>2011-07-06T15:41:49Z</time>
      </trkpt>
      <trkpt lat="43.64105" lon="6.75135">
        <ele>393.8</ele>
        <time>2011-07-06T15:41:52Z</time>
      </trkpt>
      <trkpt lat="43.64113" lon="6.75152">
        <ele>393.32</ele>
        <time>2011-07-06T15:41:55Z</time>
      </trkpt>
      <trkpt lat="43.64116" lon="6.75157">
        <ele>393.32</ele>
        <time>2011-07-06T15:41:56Z</time>
      </trkpt>
      <trkpt lat="43.64123" lon="6.75165">
        <ele>392.84</ele>
        <time>2011-07-06T15:41:58Z</time>
      </trkpt>
      <trkpt lat="43.64167" lon="6.75203">
        <ele>395.24</ele>
        <time>2011-07-06T15:42:12Z</time>
      </trkpt>
      <trkpt lat="43.64187" lon="6.75221">
        <ele>396.2</ele>
        <time>2011-07-06T15:42:20Z</time>
      </trkpt>
      <trkpt lat="43.64189" lon="6.75222">
        <ele>397.16</ele>
        <time>2011-07-06T15:42:21Z</time>
      </trkpt>
      <trkpt lat="43.64191" lon="6.75223">
        <ele>396.68</ele>
        <time>2011-07-06T15:42:22Z</time>
      </trkpt>
      <trkpt lat="43.64193" lon="6.75225">
        <ele>396.68</ele>
        <time>2011-07-06T15:42:23Z</time>
      </trkpt>
      <trkpt lat="43.64194" lon="6.75228">
        <ele>397.16</ele>
        <time>2011-07-06T15:42:24Z</time>
      </trkpt>
      <trkpt lat="43.64195" lon="6.75232">
        <ele>397.64</ele>
        <time>2011-07-06T15:42:25Z</time>
      </trkpt>
      <trkpt lat="43.64196" lon="6.75235">
        <ele>397.64</ele>
        <time>2011-07-06T15:42:26Z</time>
      </trkpt>
      <trkpt lat="43.64197" lon="6.75239">
        <ele>398.12</ele>
        <time>2011-07-06T15:42:27Z</time>
      </trkpt>
      <trkpt lat="43.64199" lon="6.75242">
        <ele>398.12</ele>
        <time>2011-07-06T15:42:28Z</time>
      </trkpt>
      <trkpt lat="43.64215" lon="6.7529">
        <ele>399.57</ele>
        <time>2011-07-06T15:42:40Z</time>
      </trkpt>
      <trkpt lat="43.64243" lon="6.75359">
        <ele>397.64</ele>
        <time>2011-07-06T15:42:52Z</time>
      </trkpt>
      <trkpt lat="43.64272" lon="6.75425">
        <ele>395.24</ele>
        <time>2011-07-06T15:43:01Z</time>
      </trkpt>
      <trkpt lat="43.64277" lon="6.75429">
        <ele>395.24</ele>
        <time>2011-07-06T15:43:02Z</time>
      </trkpt>
      <trkpt lat="43.64281" lon="6.75431">
        <ele>394.76</ele>
        <time>2011-07-06T15:43:03Z</time>
      </trkpt>
      <trkpt lat="43.64286" lon="6.75432">
        <ele>394.76</ele>
        <time>2011-07-06T15:43:04Z</time>
      </trkpt>
      <trkpt lat="43.64291" lon="6.75432">
        <ele>394.76</ele>
        <time>2011-07-06T15:43:05Z</time>
      </trkpt>
      <trkpt lat="43.64296" lon="6.75432">
        <ele>395.24</ele>
        <time>2011-07-06T15:43:06Z</time>
      </trkpt>
      <trkpt lat="43.64302" lon="6.75432">
        <ele>394.76</ele>
        <time>2011-07-06T15:43:07Z</time>
      </trkpt>
      <trkpt lat="43.64319" lon="6.75434">
        <ele>394.76</ele>
        <time>2011-07-06T15:43:10Z</time>
      </trkpt>
      <trkpt lat="43.64325" lon="6.75437">
        <ele>394.76</ele>
        <time>2011-07-06T15:43:11Z</time>
      </trkpt>
      <trkpt lat="43.64331" lon="6.75441">
        <ele>394.76</ele>
        <time>2011-07-06T15:43:12Z</time>
      </trkpt>
      <trkpt lat="43.64335" lon="6.75446">
        <ele>394.76</ele>
        <time>2011-07-06T15:43:13Z</time>
      </trkpt>
      <trkpt lat="43.6434" lon="6.75452">
        <ele>394.76</ele>
        <time>2011-07-06T15:43:14Z</time>
      </trkpt>
      <trkpt lat="43.64379" lon="6.75511">
        <ele>395.24</ele>
        <time>2011-07-06T15:43:23Z</time>
      </trkpt>
      <trkpt lat="43.64382" lon="6.75517">
        <ele>394.76</ele>
        <time>2011-07-06T15:43:24Z</time>
      </trkpt>
      <trkpt lat="43.64384" lon="6.75524">
        <ele>396.2</ele>
        <time>2011-07-06T15:43:25Z</time>
      </trkpt>
      <trkpt lat="43.64386" lon="6.75531">
        <ele>396.2</ele>
        <time>2011-07-06T15:43:26Z</time>
      </trkpt>
      <trkpt lat="43.64387" lon="6.75538">
        <ele>396.68</ele>
        <time>2011-07-06T15:43:27Z</time>
      </trkpt>
      <trkpt lat="43.64389" lon="6.75545">
        <ele>397.16</ele>
        <time>2011-07-06T15:43:28Z</time>
      </trkpt>
      <trkpt lat="43.64404" lon="6.75602">
        <ele>396.2</ele>
        <time>2011-07-06T15:43:36Z</time>
      </trkpt>
      <trkpt lat="43.64418" lon="6.75642">
        <ele>395.72</ele>
        <time>2011-07-06T15:43:41Z</time>
      </trkpt>
      <trkpt lat="43.64424" lon="6.75656">
        <ele>396.68</ele>
        <time>2011-07-06T15:43:43Z</time>
      </trkpt>
      <trkpt lat="43.64428" lon="6.75662">
        <ele>397.64</ele>
        <time>2011-07-06T15:43:44Z</time>
      </trkpt>
      <trkpt lat="43.64431" lon="6.75667">
        <ele>397.64</ele>
        <time>2011-07-06T15:43:45Z</time>
      </trkpt>
      <trkpt lat="43.64434" lon="6.75672">
        <ele>397.64</ele>
        <time>2011-07-06T15:43:46Z</time>
      </trkpt>
      <trkpt lat="43.64436" lon="6.75677">
        <ele>398.12</ele>
        <time>2011-07-06T15:43:47Z</time>
      </trkpt>
      <trkpt lat="43.64437" lon="6.75683">
        <ele>398.12</ele>
        <time>2011-07-06T15:43:48Z</time>
      </trkpt>
      <trkpt lat="43.64438" lon="6.75693">
        <ele>398.12</ele>
        <time>2011-07-06T15:43:50Z</time>
      </trkpt>
      <trkpt lat="43.64438" lon="6.75699">
        <ele>398.12</ele>
        <time>2011-07-06T15:43:51Z</time>
      </trkpt>
      <trkpt lat="43.64438" lon="6.75704">
        <ele>398.12</ele>
        <time>2011-07-06T15:43:52Z</time>
      </trkpt>
      <trkpt lat="43.64438" lon="6.7571">
        <ele>398.12</ele>
        <time>2011-07-06T15:43:53Z</time>
      </trkpt>
      <trkpt lat="43.64437" lon="6.75715">
        <ele>398.12</ele>
        <time>2011-07-06T15:43:54Z</time>
      </trkpt>
      <trkpt lat="43.64436" lon="6.75721">
        <ele>398.12</ele>
        <time>2011-07-06T15:43:55Z</time>
      </trkpt>
      <trkpt lat="43.64435" lon="6.75726">
        <ele>398.12</ele>
        <time>2011-07-06T15:43:56Z</time>
      </trkpt>
      <trkpt lat="43.64429" lon="6.75762">
        <ele>396.68</ele>
        <time>2011-07-06T15:44:03Z</time>
      </trkpt>
      <trkpt lat="43.64425" lon="6.75786">
        <ele>395.72</ele>
        <time>2011-07-06T15:44:07Z</time>
      </trkpt>
      <trkpt lat="43.6441" lon="6.75796">
        <ele>394.76</ele>
        <time>2011-07-06T15:44:12Z</time>
      </trkpt>
      <trkpt lat="43.64404" lon="6.75806">
        <ele>395.24</ele>
        <time>2011-07-06T15:44:19Z</time>
      </trkpt>
      <trkpt lat="43.64406" lon="6.75812">
        <ele>395.72</ele>
        <time>2011-07-06T15:44:23Z</time>
      </trkpt>
      <trkpt lat="43.64408" lon="6.75818">
        <ele>397.16</ele>
        <time>2011-07-06T15:44:26Z</time>
      </trkpt>
      <trkpt lat="43.64405" lon="6.75826">
        <ele>397.16</ele>
        <time>2011-07-06T15:44:32Z</time>
      </trkpt>
      <trkpt lat="43.64404" lon="6.75842">
        <ele>397.64</ele>
        <time>2011-07-06T15:44:41Z</time>
      </trkpt>
      <trkpt lat="43.64406" lon="6.75857">
        <ele>398.12</ele>
        <time>2011-07-06T15:44:45Z</time>
      </trkpt>
      <trkpt lat="43.64415" lon="6.75878">
        <ele>399.08</ele>
        <time>2011-07-06T15:44:50Z</time>
      </trkpt>
      <trkpt lat="43.64451" lon="6.75903">
        <ele>400.53</ele>
        <time>2011-07-06T15:45:01Z</time>
      </trkpt>
      <trkpt lat="43.64492" lon="6.75907">
        <ele>401.49</ele>
        <time>2011-07-06T15:45:11Z</time>
      </trkpt>
      <trkpt lat="43.64507" lon="6.75937">
        <ele>401.49</ele>
        <time>2011-07-06T15:45:21Z</time>
      </trkpt>
      <trkpt lat="43.64508" lon="6.75939">
        <ele>402.45</ele>
        <time>2011-07-06T15:45:25Z</time>
      </trkpt>
      <trkpt lat="43.64512" lon="6.75934">
        <ele>403.41</ele>
        <time>2011-07-06T15:45:30Z</time>
      </trkpt>
      <trkpt lat="43.64519" lon="6.75943">
        <ele>403.41</ele>
        <time>2011-07-06T15:45:38Z</time>
      </trkpt>
      <trkpt lat="43.64536" lon="6.75974">
        <ele>403.41</ele>
        <time>2011-07-06T15:45:48Z</time>
      </trkpt>
      <trkpt lat="43.64542" lon="6.76009">
        <ele>404.85</ele>
        <time>2011-07-06T15:45:58Z</time>
      </trkpt>
      <trkpt lat="43.64579" lon="6.76023">
        <ele>406.77</ele>
        <time>2011-07-06T15:46:10Z</time>
      </trkpt>
      <trkpt lat="43.64599" lon="6.76037">
        <ele>408.7</ele>
        <time>2011-07-06T15:46:19Z</time>
      </trkpt>
      <trkpt lat="43.646" lon="6.76039">
        <ele>408.7</ele>
        <time>2011-07-06T15:46:20Z</time>
      </trkpt>
      <trkpt lat="43.64608" lon="6.76036">
        <ele>409.66</ele>
        <time>2011-07-06T15:46:31Z</time>
      </trkpt>
      <trkpt lat="43.64608" lon="6.76036">
        <ele>409.18</ele>
        <time>2011-07-06T15:46:55Z</time>
      </trkpt>
      <trkpt lat="43.64608" lon="6.76036">
        <ele>409.66</ele>
        <time>2011-07-06T15:47:12Z</time>
      </trkpt>
      <trkpt lat="43.64608" lon="6.76036">
        <ele>410.14</ele>
        <time>2011-07-06T15:47:44Z</time>
      </trkpt>
      <trkpt lat="43.64608" lon="6.76036">
        <ele>409.66</ele>
        <time>2011-07-06T15:48:20Z</time>
      </trkpt>
      <trkpt lat="43.64608" lon="6.76035">
        <ele>409.18</ele>
        <time>2011-07-06T15:48:37Z</time>
      </trkpt>
      <trkpt lat="43.64604" lon="6.76037">
        <ele>408.7</ele>
        <time>2011-07-06T15:48:41Z</time>
      </trkpt>
      <trkpt lat="43.64599" lon="6.76055">
        <ele>408.22</ele>
        <time>2011-07-06T15:48:46Z</time>
      </trkpt>
      <trkpt lat="43.64582" lon="6.76089">
        <ele>406.77</ele>
        <time>2011-07-06T15:48:52Z</time>
      </trkpt>
      <trkpt lat="43.64576" lon="6.76103">
        <ele>406.77</ele>
        <time>2011-07-06T15:48:54Z</time>
      </trkpt>
      <trkpt lat="43.64574" lon="6.76109">
        <ele>406.29</ele>
        <time>2011-07-06T15:48:55Z</time>
      </trkpt>
      <trkpt lat="43.64567" lon="6.76132">
        <ele>405.81</ele>
        <time>2011-07-06T15:48:59Z</time>
      </trkpt>
      <trkpt lat="43.6456" lon="6.76148">
        <ele>405.33</ele>
        <time>2011-07-06T15:49:02Z</time>
      </trkpt>
      <trkpt lat="43.64539" lon="6.76194">
        <ele>404.37</ele>
        <time>2011-07-06T15:49:09Z</time>
      </trkpt>
      <trkpt lat="43.64522" lon="6.76224">
        <ele>403.41</ele>
        <time>2011-07-06T15:49:13Z</time>
      </trkpt>
      <trkpt lat="43.64502" lon="6.7626">
        <ele>402.45</ele>
        <time>2011-07-06T15:49:17Z</time>
      </trkpt>
      <trkpt lat="43.64455" lon="6.76346">
        <ele>400.05</ele>
        <time>2011-07-06T15:49:27Z</time>
      </trkpt>
      <trkpt lat="43.64452" lon="6.76355">
        <ele>399.57</ele>
        <time>2011-07-06T15:49:28Z</time>
      </trkpt>
      <trkpt lat="43.64447" lon="6.76384">
        <ele>398.12</ele>
        <time>2011-07-06T15:49:31Z</time>
      </trkpt>
      <trkpt lat="43.64446" lon="6.76393">
        <ele>397.64</ele>
        <time>2011-07-06T15:49:32Z</time>
      </trkpt>
      <trkpt lat="43.64437" lon="6.76478">
        <ele>396.68</ele>
        <time>2011-07-06T15:49:42Z</time>
      </trkpt>
      <trkpt lat="43.64436" lon="6.76486">
        <ele>396.68</ele>
        <time>2011-07-06T15:49:43Z</time>
      </trkpt>
      <trkpt lat="43.64433" lon="6.76494">
        <ele>396.68</ele>
        <time>2011-07-06T15:49:44Z</time>
      </trkpt>
      <trkpt lat="43.64431" lon="6.76502">
        <ele>396.68</ele>
        <time>2011-07-06T15:49:45Z</time>
      </trkpt>
      <trkpt lat="43.64427" lon="6.76509">
        <ele>396.2</ele>
        <time>2011-07-06T15:49:46Z</time>
      </trkpt>
      <trkpt lat="43.64423" lon="6.76517">
        <ele>395.72</ele>
        <time>2011-07-06T15:49:47Z</time>
      </trkpt>
      <trkpt lat="43.64418" lon="6.76525">
        <ele>395.72</ele>
        <time>2011-07-06T15:49:48Z</time>
      </trkpt>
      <trkpt lat="43.64397" lon="6.76566">
        <ele>394.76</ele>
        <time>2011-07-06T15:49:53Z</time>
      </trkpt>
      <trkpt lat="43.64388" lon="6.7659">
        <ele>394.76</ele>
        <time>2011-07-06T15:49:56Z</time>
      </trkpt>
      <trkpt lat="43.64385" lon="6.76598">
        <ele>395.24</ele>
        <time>2011-07-06T15:49:57Z</time>
      </trkpt>
      <trkpt lat="43.6438" lon="6.76614">
        <ele>395.72</ele>
        <time>2011-07-06T15:49:59Z</time>
      </trkpt>
      <trkpt lat="43.64379" lon="6.76622">
        <ele>395.24</ele>
        <time>2011-07-06T15:50:00Z</time>
      </trkpt>
      <trkpt lat="43.64378" lon="6.7663">
        <ele>395.72</ele>
        <time>2011-07-06T15:50:01Z</time>
      </trkpt>
      <trkpt lat="43.64378" lon="6.7667">
        <ele>397.16</ele>
        <time>2011-07-06T15:50:07Z</time>
      </trkpt>
      <trkpt lat="43.64378" lon="6.76676">
        <ele>397.64</ele>
        <time>2011-07-06T15:50:08Z</time>
      </trkpt>
      <trkpt lat="43.64378" lon="6.76682">
        <ele>397.16</ele>
        <time>2011-07-06T15:50:09Z</time>
      </trkpt>
      <trkpt lat="43.64377" lon="6.76688">
        <ele>397.16</ele>
        <time>2011-07-06T15:50:10Z</time>
      </trkpt>
      <trkpt lat="43.64376" lon="6.76693">
        <ele>397.64</ele>
        <time>2011-07-06T15:50:11Z</time>
      </trkpt>
      <trkpt lat="43.64374" lon="6.76699">
        <ele>397.64</ele>
        <time>2011-07-06T15:50:12Z</time>
      </trkpt>
      <trkpt lat="43.64368" lon="6.76722">
        <ele>398.12</ele>
        <time>2011-07-06T15:50:16Z</time>
      </trkpt>
      <trkpt lat="43.64366" lon="6.76738">
        <ele>399.57</ele>
        <time>2011-07-06T15:50:19Z</time>
      </trkpt>
      <trkpt lat="43.64361" lon="6.76768">
        <ele>400.05</ele>
        <time>2011-07-06T15:50:24Z</time>
      </trkpt>
      <trkpt lat="43.64361" lon="6.76774">
        <ele>399.57</ele>
        <time>2011-07-06T15:50:25Z</time>
      </trkpt>
      <trkpt lat="43.64362" lon="6.76779">
        <ele>400.05</ele>
        <time>2011-07-06T15:50:26Z</time>
      </trkpt>
      <trkpt lat="43.64363" lon="6.76801">
        <ele>400.05</ele>
        <time>2011-07-06T15:50:30Z</time>
      </trkpt>
      <trkpt lat="43.6436" lon="6.76835">
        <ele>399.57</ele>
        <time>2011-07-06T15:50:35Z</time>
      </trkpt>
      <trkpt lat="43.64361" lon="6.76842">
        <ele>399.08</ele>
        <time>2011-07-06T15:50:36Z</time>
      </trkpt>
      <trkpt lat="43.64363" lon="6.76849">
        <ele>399.08</ele>
        <time>2011-07-06T15:50:37Z</time>
      </trkpt>
      <trkpt lat="43.64368" lon="6.76862">
        <ele>399.08</ele>
        <time>2011-07-06T15:50:39Z</time>
      </trkpt>
      <trkpt lat="43.64372" lon="6.76868">
        <ele>399.57</ele>
        <time>2011-07-06T15:50:40Z</time>
      </trkpt>
      <trkpt lat="43.64382" lon="6.76885">
        <ele>399.57</ele>
        <time>2011-07-06T15:50:43Z</time>
      </trkpt>
      <trkpt lat="43.64385" lon="6.76891">
        <ele>399.57</ele>
        <time>2011-07-06T15:50:44Z</time>
      </trkpt>
      <trkpt lat="43.64388" lon="6.76898">
        <ele>399.57</ele>
        <time>2011-07-06T15:50:45Z</time>
      </trkpt>
      <trkpt lat="43.64389" lon="6.76906">
        <ele>399.08</ele>
        <time>2011-07-06T15:50:46Z</time>
      </trkpt>
      <trkpt lat="43.6439" lon="6.76914">
        <ele>399.08</ele>
        <time>2011-07-06T15:50:47Z</time>
      </trkpt>
      <trkpt lat="43.6439" lon="6.76923">
        <ele>398.6</ele>
        <time>2011-07-06T15:50:48Z</time>
      </trkpt>
      <trkpt lat="43.64391" lon="6.76932">
        <ele>398.6</ele>
        <time>2011-07-06T15:50:49Z</time>
      </trkpt>
      <trkpt lat="43.64393" lon="6.77009">
        <ele>396.68</ele>
        <time>2011-07-06T15:50:57Z</time>
      </trkpt>
      <trkpt lat="43.64395" lon="6.77018">
        <ele>397.64</ele>
        <time>2011-07-06T15:50:58Z</time>
      </trkpt>
      <trkpt lat="43.644" lon="6.77035">
        <ele>396.68</ele>
        <time>2011-07-06T15:51:00Z</time>
      </trkpt>
      <trkpt lat="43.644" lon="6.77043">
        <ele>396.68</ele>
        <time>2011-07-06T15:51:01Z</time>
      </trkpt>
      <trkpt lat="43.64399" lon="6.7705">
        <ele>396.2</ele>
        <time>2011-07-06T15:51:02Z</time>
      </trkpt>
      <trkpt lat="43.64395" lon="6.77055">
        <ele>396.2</ele>
        <time>2011-07-06T15:51:03Z</time>
      </trkpt>
      <trkpt lat="43.6439" lon="6.77057">
        <ele>396.2</ele>
        <time>2011-07-06T15:51:04Z</time>
      </trkpt>
      <trkpt lat="43.64383" lon="6.77057">
        <ele>395.72</ele>
        <time>2011-07-06T15:51:05Z</time>
      </trkpt>
      <trkpt lat="43.64377" lon="6.77056">
        <ele>395.72</ele>
        <time>2011-07-06T15:51:06Z</time>
      </trkpt>
      <trkpt lat="43.6437" lon="6.77055">
        <ele>394.76</ele>
        <time>2011-07-06T15:51:07Z</time>
      </trkpt>
      <trkpt lat="43.64363" lon="6.77053">
        <ele>393.8</ele>
        <time>2011-07-06T15:51:08Z</time>
      </trkpt>
      <trkpt lat="43.64357" lon="6.77051">
        <ele>393.8</ele>
        <time>2011-07-06T15:51:09Z</time>
      </trkpt>
      <trkpt lat="43.64333" lon="6.7704">
        <ele>392.84</ele>
        <time>2011-07-06T15:51:17Z</time>
      </trkpt>
      <trkpt lat="43.64313" lon="6.77016">
        <ele>392.36</ele>
        <time>2011-07-06T15:51:23Z</time>
      </trkpt>
      <trkpt lat="43.64304" lon="6.77005">
        <ele>391.87</ele>
        <time>2011-07-06T15:51:25Z</time>
      </trkpt>
      <trkpt lat="43.64299" lon="6.76999">
        <ele>390.91</ele>
        <time>2011-07-06T15:51:26Z</time>
      </trkpt>
      <trkpt lat="43.64291" lon="6.76984">
        <ele>390.91</ele>
        <time>2011-07-06T15:51:28Z</time>
      </trkpt>
      <trkpt lat="43.64283" lon="6.76966">
        <ele>390.43</ele>
        <time>2011-07-06T15:51:30Z</time>
      </trkpt>
      <trkpt lat="43.64278" lon="6.76958">
        <ele>389.95</ele>
        <time>2011-07-06T15:51:31Z</time>
      </trkpt>
      <trkpt lat="43.64263" lon="6.76937">
        <ele>388.99</ele>
        <time>2011-07-06T15:51:34Z</time>
      </trkpt>
      <trkpt lat="43.64245" lon="6.76923">
        <ele>388.51</ele>
        <time>2011-07-06T15:51:37Z</time>
      </trkpt>
      <trkpt lat="43.64239" lon="6.76919">
        <ele>388.99</ele>
        <time>2011-07-06T15:51:38Z</time>
      </trkpt>
      <trkpt lat="43.64233" lon="6.76917">
        <ele>388.51</ele>
        <time>2011-07-06T15:51:39Z</time>
      </trkpt>
      <trkpt lat="43.64227" lon="6.76916">
        <ele>388.99</ele>
        <time>2011-07-06T15:51:40Z</time>
      </trkpt>
      <trkpt lat="43.64222" lon="6.76916">
        <ele>388.99</ele>
        <time>2011-07-06T15:51:41Z</time>
      </trkpt>
      <trkpt lat="43.64216" lon="6.76916">
        <ele>388.51</ele>
        <time>2011-07-06T15:51:42Z</time>
      </trkpt>
      <trkpt lat="43.64211" lon="6.76916">
        <ele>388.99</ele>
        <time>2011-07-06T15:51:43Z</time>
      </trkpt>
      <trkpt lat="43.64206" lon="6.76916">
        <ele>389.47</ele>
        <time>2011-07-06T15:51:44Z</time>
      </trkpt>
      <trkpt lat="43.64196" lon="6.76913">
        <ele>389.47</ele>
        <time>2011-07-06T15:51:46Z</time>
      </trkpt>
      <trkpt lat="43.64191" lon="6.7691">
        <ele>389.47</ele>
        <time>2011-07-06T15:51:47Z</time>
      </trkpt>
      <trkpt lat="43.64187" lon="6.76907">
        <ele>389.47</ele>
        <time>2011-07-06T15:51:48Z</time>
      </trkpt>
      <trkpt lat="43.64178" lon="6.769">
        <ele>389.95</ele>
        <time>2011-07-06T15:51:50Z</time>
      </trkpt>
      <trkpt lat="43.64174" lon="6.76896">
        <ele>389.95</ele>
        <time>2011-07-06T15:51:51Z</time>
      </trkpt>
      <trkpt lat="43.64156" lon="6.76876">
        <ele>389.47</ele>
        <time>2011-07-06T15:52:00Z</time>
      </trkpt>
      <trkpt lat="43.64156" lon="6.76876">
        <ele>389.95</ele>
        <time>2011-07-06T15:52:01Z</time>
      </trkpt>
      <trkpt lat="43.64153" lon="6.76882">
        <ele>389.47</ele>
        <time>2011-07-06T15:52:05Z</time>
      </trkpt>
      <trkpt lat="43.64154" lon="6.76901">
        <ele>389.47</ele>
        <time>2011-07-06T15:52:15Z</time>
      </trkpt>
      <trkpt lat="43.64156" lon="6.76903">
        <ele>389.95</ele>
        <time>2011-07-06T15:52:16Z</time>
      </trkpt>
      <trkpt lat="43.64166" lon="6.76949">
        <ele>389.95</ele>
        <time>2011-07-06T15:52:29Z</time>
      </trkpt>
      <trkpt lat="43.64167" lon="6.76966">
        <ele>389.95</ele>
        <time>2011-07-06T15:52:34Z</time>
      </trkpt>
      <trkpt lat="43.64183" lon="6.76997">
        <ele>388.51</ele>
        <time>2011-07-06T15:52:44Z</time>
      </trkpt>
      <trkpt lat="43.64193" lon="6.7701">
        <ele>388.03</ele>
        <time>2011-07-06T15:52:47Z</time>
      </trkpt>
      <trkpt lat="43.64196" lon="6.77015">
        <ele>387.55</ele>
        <time>2011-07-06T15:52:48Z</time>
      </trkpt>
      <trkpt lat="43.64205" lon="6.77034">
        <ele>388.03</ele>
        <time>2011-07-06T15:52:51Z</time>
      </trkpt>
      <trkpt lat="43.64207" lon="6.77041">
        <ele>388.03</ele>
        <time>2011-07-06T15:52:52Z</time>
      </trkpt>
      <trkpt lat="43.64208" lon="6.77048">
        <ele>388.03</ele>
        <time>2011-07-06T15:52:53Z</time>
      </trkpt>
      <trkpt lat="43.64215" lon="6.77113">
        <ele>388.51</ele>
        <time>2011-07-06T15:53:01Z</time>
      </trkpt>
      <trkpt lat="43.64217" lon="6.7712">
        <ele>388.03</ele>
        <time>2011-07-06T15:53:02Z</time>
      </trkpt>
      <trkpt lat="43.6422" lon="6.77127">
        <ele>388.03</ele>
        <time>2011-07-06T15:53:03Z</time>
      </trkpt>
      <trkpt lat="43.64223" lon="6.77132">
        <ele>388.03</ele>
        <time>2011-07-06T15:53:04Z</time>
      </trkpt>
      <trkpt lat="43.64227" lon="6.77137">
        <ele>388.03</ele>
        <time>2011-07-06T15:53:05Z</time>
      </trkpt>
      <trkpt lat="43.6423" lon="6.77142">
        <ele>388.51</ele>
        <time>2011-07-06T15:53:06Z</time>
      </trkpt>
      <trkpt lat="43.64233" lon="6.77147">
        <ele>388.03</ele>
        <time>2011-07-06T15:53:07Z</time>
      </trkpt>
      <trkpt lat="43.64236" lon="6.77153">
        <ele>388.03</ele>
        <time>2011-07-06T15:53:08Z</time>
      </trkpt>
      <trkpt lat="43.64239" lon="6.77158">
        <ele>388.03</ele>
        <time>2011-07-06T15:53:09Z</time>
      </trkpt>
      <trkpt lat="43.64246" lon="6.77174">
        <ele>388.03</ele>
        <time>2011-07-06T15:53:12Z</time>
      </trkpt>
      <trkpt lat="43.64248" lon="6.77179">
        <ele>388.51</ele>
        <time>2011-07-06T15:53:13Z</time>
      </trkpt>
      <trkpt lat="43.64252" lon="6.77189">
        <ele>387.55</ele>
        <time>2011-07-06T15:53:15Z</time>
      </trkpt>
      <trkpt lat="43.64255" lon="6.77194">
        <ele>388.51</ele>
        <time>2011-07-06T15:53:16Z</time>
      </trkpt>
      <trkpt lat="43.64273" lon="6.77216">
        <ele>388.03</ele>
        <time>2011-07-06T15:53:21Z</time>
      </trkpt>
      <trkpt lat="43.64276" lon="6.77221">
        <ele>388.03</ele>
        <time>2011-07-06T15:53:22Z</time>
      </trkpt>
      <trkpt lat="43.64278" lon="6.77226">
        <ele>388.03</ele>
        <time>2011-07-06T15:53:23Z</time>
      </trkpt>
      <trkpt lat="43.64288" lon="6.77254">
        <ele>388.03</ele>
        <time>2011-07-06T15:53:28Z</time>
      </trkpt>
      <trkpt lat="43.64289" lon="6.7726">
        <ele>388.51</ele>
        <time>2011-07-06T15:53:29Z</time>
      </trkpt>
      <trkpt lat="43.6429" lon="6.77274">
        <ele>388.03</ele>
        <time>2011-07-06T15:53:31Z</time>
      </trkpt>
      <trkpt lat="43.64293" lon="6.77288">
        <ele>387.55</ele>
        <time>2011-07-06T15:53:33Z</time>
      </trkpt>
      <trkpt lat="43.64298" lon="6.77311">
        <ele>388.03</ele>
        <time>2011-07-06T15:53:36Z</time>
      </trkpt>
      <trkpt lat="43.6431" lon="6.77335">
        <ele>387.55</ele>
        <time>2011-07-06T15:53:44Z</time>
      </trkpt>
      <trkpt lat="43.64319" lon="6.77349">
        <ele>387.55</ele>
        <time>2011-07-06T15:53:48Z</time>
      </trkpt>
      <trkpt lat="43.64324" lon="6.77359">
        <ele>387.55</ele>
        <time>2011-07-06T15:53:50Z</time>
      </trkpt>
      <trkpt lat="43.64327" lon="6.77363">
        <ele>387.07</ele>
        <time>2011-07-06T15:53:51Z</time>
      </trkpt>
      <trkpt lat="43.6433" lon="6.77368">
        <ele>387.07</ele>
        <time>2011-07-06T15:53:52Z</time>
      </trkpt>
      <trkpt lat="43.64333" lon="6.77371">
        <ele>388.03</ele>
        <time>2011-07-06T15:53:53Z</time>
      </trkpt>
      <trkpt lat="43.64335" lon="6.77375">
        <ele>387.55</ele>
        <time>2011-07-06T15:53:54Z</time>
      </trkpt>
      <trkpt lat="43.64338" lon="6.77379">
        <ele>387.55</ele>
        <time>2011-07-06T15:53:55Z</time>
      </trkpt>
      <trkpt lat="43.64341" lon="6.77383">
        <ele>387.55</ele>
        <time>2011-07-06T15:53:56Z</time>
      </trkpt>
      <trkpt lat="43.64345" lon="6.77386">
        <ele>387.55</ele>
        <time>2011-07-06T15:53:57Z</time>
      </trkpt>
      <trkpt lat="43.64349" lon="6.77389">
        <ele>387.55</ele>
        <time>2011-07-06T15:53:58Z</time>
      </trkpt>
      <trkpt lat="43.64352" lon="6.77393">
        <ele>388.03</ele>
        <time>2011-07-06T15:53:59Z</time>
      </trkpt>
      <trkpt lat="43.64354" lon="6.77398">
        <ele>387.55</ele>
        <time>2011-07-06T15:54:00Z</time>
      </trkpt>
      <trkpt lat="43.64355" lon="6.77404">
        <ele>387.55</ele>
        <time>2011-07-06T15:54:01Z</time>
      </trkpt>
      <trkpt lat="43.64355" lon="6.77411">
        <ele>387.07</ele>
        <time>2011-07-06T15:54:02Z</time>
      </trkpt>
      <trkpt lat="43.64357" lon="6.77417">
        <ele>387.07</ele>
        <time>2011-07-06T15:54:03Z</time>
      </trkpt>
      <trkpt lat="43.64359" lon="6.77424">
        <ele>387.55</ele>
        <time>2011-07-06T15:54:04Z</time>
      </trkpt>
      <trkpt lat="43.64361" lon="6.7743">
        <ele>387.55</ele>
        <time>2011-07-06T15:54:05Z</time>
      </trkpt>
      <trkpt lat="43.64369" lon="6.77449">
        <ele>387.55</ele>
        <time>2011-07-06T15:54:08Z</time>
      </trkpt>
      <trkpt lat="43.64372" lon="6.77455">
        <ele>388.03</ele>
        <time>2011-07-06T15:54:09Z</time>
      </trkpt>
      <trkpt lat="43.64375" lon="6.77461">
        <ele>388.03</ele>
        <time>2011-07-06T15:54:10Z</time>
      </trkpt>
      <trkpt lat="43.64376" lon="6.77467">
        <ele>388.03</ele>
        <time>2011-07-06T15:54:11Z</time>
      </trkpt>
      <trkpt lat="43.64377" lon="6.77474">
        <ele>388.03</ele>
        <time>2011-07-06T15:54:12Z</time>
      </trkpt>
      <trkpt lat="43.64378" lon="6.77481">
        <ele>387.55</ele>
        <time>2011-07-06T15:54:13Z</time>
      </trkpt>
      <trkpt lat="43.64377" lon="6.77488">
        <ele>387.55</ele>
        <time>2011-07-06T15:54:14Z</time>
      </trkpt>
      <trkpt lat="43.64375" lon="6.77493">
        <ele>387.55</ele>
        <time>2011-07-06T15:54:15Z</time>
      </trkpt>
      <trkpt lat="43.64371" lon="6.77497">
        <ele>387.55</ele>
        <time>2011-07-06T15:54:16Z</time>
      </trkpt>
      <trkpt lat="43.64367" lon="6.775">
        <ele>387.07</ele>
        <time>2011-07-06T15:54:17Z</time>
      </trkpt>
      <trkpt lat="43.64364" lon="6.77505">
        <ele>386.59</ele>
        <time>2011-07-06T15:54:18Z</time>
      </trkpt>
      <trkpt lat="43.64362" lon="6.77511">
        <ele>386.59</ele>
        <time>2011-07-06T15:54:19Z</time>
      </trkpt>
      <trkpt lat="43.64361" lon="6.77518">
        <ele>386.11</ele>
        <time>2011-07-06T15:54:20Z</time>
      </trkpt>
      <trkpt lat="43.64359" lon="6.77526">
        <ele>386.11</ele>
        <time>2011-07-06T15:54:21Z</time>
      </trkpt>
      <trkpt lat="43.64359" lon="6.77535">
        <ele>386.11</ele>
        <time>2011-07-06T15:54:22Z</time>
      </trkpt>
      <trkpt lat="43.64357" lon="6.7757">
        <ele>385.63</ele>
        <time>2011-07-06T15:54:26Z</time>
      </trkpt>
      <trkpt lat="43.64356" lon="6.77577">
        <ele>385.63</ele>
        <time>2011-07-06T15:54:27Z</time>
      </trkpt>
      <trkpt lat="43.64354" lon="6.77585">
        <ele>385.63</ele>
        <time>2011-07-06T15:54:28Z</time>
      </trkpt>
      <trkpt lat="43.64353" lon="6.77591">
        <ele>385.15</ele>
        <time>2011-07-06T15:54:29Z</time>
      </trkpt>
      <trkpt lat="43.64351" lon="6.77598">
        <ele>384.66</ele>
        <time>2011-07-06T15:54:30Z</time>
      </trkpt>
      <trkpt lat="43.6435" lon="6.77604">
        <ele>384.66</ele>
        <time>2011-07-06T15:54:31Z</time>
      </trkpt>
      <trkpt lat="43.64349" lon="6.77612">
        <ele>384.18</ele>
        <time>2011-07-06T15:54:32Z</time>
      </trkpt>
      <trkpt lat="43.64345" lon="6.77627">
        <ele>384.18</ele>
        <time>2011-07-06T15:54:34Z</time>
      </trkpt>
      <trkpt lat="43.6434" lon="6.77642">
        <ele>384.18</ele>
        <time>2011-07-06T15:54:36Z</time>
      </trkpt>
      <trkpt lat="43.64335" lon="6.77665">
        <ele>383.7</ele>
        <time>2011-07-06T15:54:39Z</time>
      </trkpt>
      <trkpt lat="43.64333" lon="6.77671">
        <ele>383.7</ele>
        <time>2011-07-06T15:54:40Z</time>
      </trkpt>
      <trkpt lat="43.64331" lon="6.77677">
        <ele>383.22</ele>
        <time>2011-07-06T15:54:41Z</time>
      </trkpt>
      <trkpt lat="43.64328" lon="6.77682">
        <ele>382.74</ele>
        <time>2011-07-06T15:54:42Z</time>
      </trkpt>
      <trkpt lat="43.64325" lon="6.77687">
        <ele>382.74</ele>
        <time>2011-07-06T15:54:43Z</time>
      </trkpt>
      <trkpt lat="43.64321" lon="6.77693">
        <ele>382.74</ele>
        <time>2011-07-06T15:54:44Z</time>
      </trkpt>
      <trkpt lat="43.64319" lon="6.777">
        <ele>382.74</ele>
        <time>2011-07-06T15:54:45Z</time>
      </trkpt>
      <trkpt lat="43.64318" lon="6.77708">
        <ele>382.26</ele>
        <time>2011-07-06T15:54:46Z</time>
      </trkpt>
      <trkpt lat="43.64318" lon="6.77716">
        <ele>381.78</ele>
        <time>2011-07-06T15:54:47Z</time>
      </trkpt>
      <trkpt lat="43.64318" lon="6.77723">
        <ele>381.78</ele>
        <time>2011-07-06T15:54:48Z</time>
      </trkpt>
      <trkpt lat="43.64317" lon="6.77729">
        <ele>381.78</ele>
        <time>2011-07-06T15:54:49Z</time>
      </trkpt>
      <trkpt lat="43.64314" lon="6.77733">
        <ele>381.78</ele>
        <time>2011-07-06T15:54:50Z</time>
      </trkpt>
      <trkpt lat="43.64312" lon="6.77737">
        <ele>381.78</ele>
        <time>2011-07-06T15:54:51Z</time>
      </trkpt>
      <trkpt lat="43.64309" lon="6.77741">
        <ele>381.3</ele>
        <time>2011-07-06T15:54:52Z</time>
      </trkpt>
      <trkpt lat="43.64306" lon="6.77746">
        <ele>381.3</ele>
        <time>2011-07-06T15:54:53Z</time>
      </trkpt>
      <trkpt lat="43.64303" lon="6.7775">
        <ele>380.82</ele>
        <time>2011-07-06T15:54:54Z</time>
      </trkpt>
      <trkpt lat="43.643" lon="6.77752">
        <ele>380.34</ele>
        <time>2011-07-06T15:54:55Z</time>
      </trkpt>
      <trkpt lat="43.64296" lon="6.77758">
        <ele>379.86</ele>
        <time>2011-07-06T15:54:57Z</time>
      </trkpt>
      <trkpt lat="43.64296" lon="6.77762">
        <ele>379.86</ele>
        <time>2011-07-06T15:54:58Z</time>
      </trkpt>
      <trkpt lat="43.64297" lon="6.77766">
        <ele>380.34</ele>
        <time>2011-07-06T15:54:59Z</time>
      </trkpt>
      <trkpt lat="43.64298" lon="6.7777">
        <ele>379.86</ele>
        <time>2011-07-06T15:55:00Z</time>
      </trkpt>
      <trkpt lat="43.64298" lon="6.77773">
        <ele>379.86</ele>
        <time>2011-07-06T15:55:01Z</time>
      </trkpt>
      <trkpt lat="43.64298" lon="6.77777">
        <ele>379.38</ele>
        <time>2011-07-06T15:55:02Z</time>
      </trkpt>
      <trkpt lat="43.64297" lon="6.77779">
        <ele>379.38</ele>
        <time>2011-07-06T15:55:03Z</time>
      </trkpt>
      <trkpt lat="43.64295" lon="6.77782">
        <ele>379.38</ele>
        <time>2011-07-06T15:55:04Z</time>
      </trkpt>
      <trkpt lat="43.64293" lon="6.77785">
        <ele>378.9</ele>
        <time>2011-07-06T15:55:05Z</time>
      </trkpt>
      <trkpt lat="43.64291" lon="6.77787">
        <ele>378.42</ele>
        <time>2011-07-06T15:55:06Z</time>
      </trkpt>
      <trkpt lat="43.64271" lon="6.77814">
        <ele>376.97</ele>
        <time>2011-07-06T15:55:15Z</time>
      </trkpt>
      <trkpt lat="43.64268" lon="6.7782">
        <ele>376.97</ele>
        <time>2011-07-06T15:55:16Z</time>
      </trkpt>
      <trkpt lat="43.64263" lon="6.77832">
        <ele>376.01</ele>
        <time>2011-07-06T15:55:18Z</time>
      </trkpt>
      <trkpt lat="43.64261" lon="6.77837">
        <ele>376.49</ele>
        <time>2011-07-06T15:55:19Z</time>
      </trkpt>
      <trkpt lat="43.64257" lon="6.7784">
        <ele>376.49</ele>
        <time>2011-07-06T15:55:20Z</time>
      </trkpt>
      <trkpt lat="43.64253" lon="6.77843">
        <ele>376.01</ele>
        <time>2011-07-06T15:55:21Z</time>
      </trkpt>
      <trkpt lat="43.64249" lon="6.77847">
        <ele>376.01</ele>
        <time>2011-07-06T15:55:22Z</time>
      </trkpt>
      <trkpt lat="43.64245" lon="6.77852">
        <ele>376.49</ele>
        <time>2011-07-06T15:55:23Z</time>
      </trkpt>
      <trkpt lat="43.64241" lon="6.77857">
        <ele>376.01</ele>
        <time>2011-07-06T15:55:24Z</time>
      </trkpt>
      <trkpt lat="43.64237" lon="6.77862">
        <ele>376.49</ele>
        <time>2011-07-06T15:55:25Z</time>
      </trkpt>
      <trkpt lat="43.64232" lon="6.77866">
        <ele>376.01</ele>
        <time>2011-07-06T15:55:26Z</time>
      </trkpt>
      <trkpt lat="43.64228" lon="6.77871">
        <ele>376.01</ele>
        <time>2011-07-06T15:55:27Z</time>
      </trkpt>
      <trkpt lat="43.64224" lon="6.77879">
        <ele>376.01</ele>
        <time>2011-07-06T15:55:28Z</time>
      </trkpt>
      <trkpt lat="43.6422" lon="6.77886">
        <ele>375.53</ele>
        <time>2011-07-06T15:55:29Z</time>
      </trkpt>
      <trkpt lat="43.64217" lon="6.77894">
        <ele>376.01</ele>
        <time>2011-07-06T15:55:30Z</time>
      </trkpt>
      <trkpt lat="43.6421" lon="6.77909">
        <ele>376.01</ele>
        <time>2011-07-06T15:55:32Z</time>
      </trkpt>
      <trkpt lat="43.64204" lon="6.77923">
        <ele>376.01</ele>
        <time>2011-07-06T15:55:34Z</time>
      </trkpt>
      <trkpt lat="43.64201" lon="6.77929">
        <ele>375.53</ele>
        <time>2011-07-06T15:55:35Z</time>
      </trkpt>
      <trkpt lat="43.64197" lon="6.77936">
        <ele>375.53</ele>
        <time>2011-07-06T15:55:36Z</time>
      </trkpt>
      <trkpt lat="43.6419" lon="6.77948">
        <ele>375.53</ele>
        <time>2011-07-06T15:55:38Z</time>
      </trkpt>
      <trkpt lat="43.64182" lon="6.77958">
        <ele>376.01</ele>
        <time>2011-07-06T15:55:40Z</time>
      </trkpt>
      <trkpt lat="43.64177" lon="6.77964">
        <ele>375.53</ele>
        <time>2011-07-06T15:55:43Z</time>
      </trkpt>
      <trkpt lat="43.64174" lon="6.77967">
        <ele>375.53</ele>
        <time>2011-07-06T15:56:00Z</time>
      </trkpt>
      <trkpt lat="43.64174" lon="6.77969">
        <ele>375.05</ele>
        <time>2011-07-06T15:56:23Z</time>
      </trkpt>
      <trkpt lat="43.64173" lon="6.7797">
        <ele>375.05</ele>
        <time>2011-07-06T15:56:24Z</time>
      </trkpt>
      <trkpt lat="43.64172" lon="6.77971">
        <ele>375.05</ele>
        <time>2011-07-06T15:56:25Z</time>
      </trkpt>
      <trkpt lat="43.6417" lon="6.77973">
        <ele>375.05</ele>
        <time>2011-07-06T15:56:26Z</time>
      </trkpt>
      <trkpt lat="43.64167" lon="6.77975">
        <ele>375.05</ele>
        <time>2011-07-06T15:56:27Z</time>
      </trkpt>
      <trkpt lat="43.64154" lon="6.77979">
        <ele>375.53</ele>
        <time>2011-07-06T15:56:31Z</time>
      </trkpt>
      <trkpt lat="43.64132" lon="6.77996">
        <ele>375.53</ele>
        <time>2011-07-06T15:56:37Z</time>
      </trkpt>
      <trkpt lat="43.64124" lon="6.78003">
        <ele>375.05</ele>
        <time>2011-07-06T15:56:39Z</time>
      </trkpt>
      <trkpt lat="43.6412" lon="6.78007">
        <ele>375.53</ele>
        <time>2011-07-06T15:56:40Z</time>
      </trkpt>
      <trkpt lat="43.64103" lon="6.78033">
        <ele>376.01</ele>
        <time>2011-07-06T15:56:46Z</time>
      </trkpt>
      <trkpt lat="43.64099" lon="6.78036">
        <ele>376.49</ele>
        <time>2011-07-06T15:56:47Z</time>
      </trkpt>
      <trkpt lat="43.64096" lon="6.7804">
        <ele>376.49</ele>
        <time>2011-07-06T15:56:48Z</time>
      </trkpt>
      <trkpt lat="43.64093" lon="6.78043">
        <ele>376.49</ele>
        <time>2011-07-06T15:56:49Z</time>
      </trkpt>
      <trkpt lat="43.6409" lon="6.78047">
        <ele>376.97</ele>
        <time>2011-07-06T15:56:50Z</time>
      </trkpt>
      <trkpt lat="43.64086" lon="6.78051">
        <ele>376.97</ele>
        <time>2011-07-06T15:56:51Z</time>
      </trkpt>
      <trkpt lat="43.64083" lon="6.78056">
        <ele>376.97</ele>
        <time>2011-07-06T15:56:52Z</time>
      </trkpt>
      <trkpt lat="43.64054" lon="6.78094">
        <ele>377.94</ele>
        <time>2011-07-06T15:57:02Z</time>
      </trkpt>
      <trkpt lat="43.64018" lon="6.78141">
        <ele>379.86</ele>
        <time>2011-07-06T15:57:15Z</time>
      </trkpt>
      <trkpt lat="43.64014" lon="6.78144">
        <ele>379.38</ele>
        <time>2011-07-06T15:57:16Z</time>
      </trkpt>
      <trkpt lat="43.64011" lon="6.78147">
        <ele>379.38</ele>
        <time>2011-07-06T15:57:17Z</time>
      </trkpt>
      <trkpt lat="43.63998" lon="6.78162">
        <ele>379.38</ele>
        <time>2011-07-06T15:57:21Z</time>
      </trkpt>
      <trkpt lat="43.63995" lon="6.78165">
        <ele>379.86</ele>
        <time>2011-07-06T15:57:22Z</time>
      </trkpt>
      <trkpt lat="43.63991" lon="6.78167">
        <ele>379.86</ele>
        <time>2011-07-06T15:57:23Z</time>
      </trkpt>
      <trkpt lat="43.63988" lon="6.78168">
        <ele>379.86</ele>
        <time>2011-07-06T15:57:24Z</time>
      </trkpt>
      <trkpt lat="43.63984" lon="6.78169">
        <ele>379.86</ele>
        <time>2011-07-06T15:57:25Z</time>
      </trkpt>
      <trkpt lat="43.6398" lon="6.78168">
        <ele>379.86</ele>
        <time>2011-07-06T15:57:26Z</time>
      </trkpt>
      <trkpt lat="43.63976" lon="6.78167">
        <ele>379.38</ele>
        <time>2011-07-06T15:57:27Z</time>
      </trkpt>
      <trkpt lat="43.63972" lon="6.78166">
        <ele>379.86</ele>
        <time>2011-07-06T15:57:28Z</time>
      </trkpt>
      <trkpt lat="43.63968" lon="6.78165">
        <ele>379.86</ele>
        <time>2011-07-06T15:57:29Z</time>
      </trkpt>
      <trkpt lat="43.63964" lon="6.78164">
        <ele>379.38</ele>
        <time>2011-07-06T15:57:30Z</time>
      </trkpt>
      <trkpt lat="43.6396" lon="6.78165">
        <ele>379.86</ele>
        <time>2011-07-06T15:57:31Z</time>
      </trkpt>
      <trkpt lat="43.63956" lon="6.78166">
        <ele>379.38</ele>
        <time>2011-07-06T15:57:32Z</time>
      </trkpt>
      <trkpt lat="43.63921" lon="6.78181">
        <ele>380.34</ele>
        <time>2011-07-06T15:57:45Z</time>
      </trkpt>
      <trkpt lat="43.63919" lon="6.78191">
        <ele>379.86</ele>
        <time>2011-07-06T15:57:49Z</time>
      </trkpt>
      <trkpt lat="43.63916" lon="6.78197">
        <ele>379.86</ele>
        <time>2011-07-06T15:58:06Z</time>
      </trkpt>
      <trkpt lat="43.63915" lon="6.78267">
        <ele>376.97</ele>
        <time>2011-07-06T15:58:18Z</time>
      </trkpt>
      <trkpt lat="43.63915" lon="6.78274">
        <ele>376.97</ele>
        <time>2011-07-06T15:58:19Z</time>
      </trkpt>
      <trkpt lat="43.63917" lon="6.78282">
        <ele>376.49</ele>
        <time>2011-07-06T15:58:20Z</time>
      </trkpt>
      <trkpt lat="43.63921" lon="6.78302">
        <ele>376.01</ele>
        <time>2011-07-06T15:58:23Z</time>
      </trkpt>
      <trkpt lat="43.63921" lon="6.78308">
        <ele>376.01</ele>
        <time>2011-07-06T15:58:24Z</time>
      </trkpt>
      <trkpt lat="43.63919" lon="6.78314">
        <ele>376.01</ele>
        <time>2011-07-06T15:58:25Z</time>
      </trkpt>
      <trkpt lat="43.63916" lon="6.78318">
        <ele>376.01</ele>
        <time>2011-07-06T15:58:26Z</time>
      </trkpt>
      <trkpt lat="43.63913" lon="6.78321">
        <ele>375.53</ele>
        <time>2011-07-06T15:58:27Z</time>
      </trkpt>
      <trkpt lat="43.63909" lon="6.78324">
        <ele>375.53</ele>
        <time>2011-07-06T15:58:28Z</time>
      </trkpt>
      <trkpt lat="43.63905" lon="6.78327">
        <ele>376.01</ele>
        <time>2011-07-06T15:58:29Z</time>
      </trkpt>
      <trkpt lat="43.639" lon="6.7833">
        <ele>375.53</ele>
        <time>2011-07-06T15:58:30Z</time>
      </trkpt>
      <trkpt lat="43.63895" lon="6.78332">
        <ele>374.57</ele>
        <time>2011-07-06T15:58:31Z</time>
      </trkpt>
      <trkpt lat="43.63879" lon="6.78336">
        <ele>374.57</ele>
        <time>2011-07-06T15:58:34Z</time>
      </trkpt>
      <trkpt lat="43.63873" lon="6.78336">
        <ele>374.57</ele>
        <time>2011-07-06T15:58:35Z</time>
      </trkpt>
      <trkpt lat="43.63857" lon="6.7834">
        <ele>374.57</ele>
        <time>2011-07-06T15:58:38Z</time>
      </trkpt>
      <trkpt lat="43.63852" lon="6.78344">
        <ele>374.09</ele>
        <time>2011-07-06T15:58:39Z</time>
      </trkpt>
      <trkpt lat="43.63846" lon="6.78349">
        <ele>374.09</ele>
        <time>2011-07-06T15:58:40Z</time>
      </trkpt>
      <trkpt lat="43.6384" lon="6.78351">
        <ele>373.61</ele>
        <time>2011-07-06T15:58:41Z</time>
      </trkpt>
      <trkpt lat="43.63835" lon="6.78351">
        <ele>373.61</ele>
        <time>2011-07-06T15:58:42Z</time>
      </trkpt>
      <trkpt lat="43.6383" lon="6.7835">
        <ele>374.09</ele>
        <time>2011-07-06T15:58:43Z</time>
      </trkpt>
      <trkpt lat="43.6382" lon="6.78349">
        <ele>374.09</ele>
        <time>2011-07-06T15:58:45Z</time>
      </trkpt>
      <trkpt lat="43.63815" lon="6.78351">
        <ele>374.57</ele>
        <time>2011-07-06T15:58:46Z</time>
      </trkpt>
      <trkpt lat="43.6381" lon="6.78353">
        <ele>375.05</ele>
        <time>2011-07-06T15:58:47Z</time>
      </trkpt>
      <trkpt lat="43.63806" lon="6.78356">
        <ele>375.05</ele>
        <time>2011-07-06T15:58:48Z</time>
      </trkpt>
      <trkpt lat="43.63801" lon="6.78357">
        <ele>375.53</ele>
        <time>2011-07-06T15:58:49Z</time>
      </trkpt>
      <trkpt lat="43.63796" lon="6.78357">
        <ele>375.53</ele>
        <time>2011-07-06T15:58:50Z</time>
      </trkpt>
      <trkpt lat="43.63791" lon="6.78357">
        <ele>376.01</ele>
        <time>2011-07-06T15:58:51Z</time>
      </trkpt>
      <trkpt lat="43.63787" lon="6.78356">
        <ele>376.01</ele>
        <time>2011-07-06T15:58:52Z</time>
      </trkpt>
      <trkpt lat="43.63763" lon="6.78352">
        <ele>376.97</ele>
        <time>2011-07-06T15:58:57Z</time>
      </trkpt>
      <trkpt lat="43.63759" lon="6.78348">
        <ele>377.94</ele>
        <time>2011-07-06T15:58:58Z</time>
      </trkpt>
      <trkpt lat="43.63755" lon="6.78345">
        <ele>376.97</ele>
        <time>2011-07-06T15:58:59Z</time>
      </trkpt>
      <trkpt lat="43.63752" lon="6.78343">
        <ele>377.45</ele>
        <time>2011-07-06T15:59:00Z</time>
      </trkpt>
      <trkpt lat="43.63748" lon="6.78341">
        <ele>377.94</ele>
        <time>2011-07-06T15:59:01Z</time>
      </trkpt>
      <trkpt lat="43.63739" lon="6.78339">
        <ele>377.94</ele>
        <time>2011-07-06T15:59:03Z</time>
      </trkpt>
      <trkpt lat="43.63734" lon="6.78337">
        <ele>377.94</ele>
        <time>2011-07-06T15:59:04Z</time>
      </trkpt>
      <trkpt lat="43.6373" lon="6.78332">
        <ele>377.94</ele>
        <time>2011-07-06T15:59:05Z</time>
      </trkpt>
      <trkpt lat="43.63722" lon="6.78324">
        <ele>378.42</ele>
        <time>2011-07-06T15:59:07Z</time>
      </trkpt>
      <trkpt lat="43.63717" lon="6.78321">
        <ele>379.38</ele>
        <time>2011-07-06T15:59:08Z</time>
      </trkpt>
      <trkpt lat="43.63697" lon="6.78311">
        <ele>379.38</ele>
        <time>2011-07-06T15:59:12Z</time>
      </trkpt>
      <trkpt lat="43.63692" lon="6.78308">
        <ele>379.86</ele>
        <time>2011-07-06T15:59:13Z</time>
      </trkpt>
      <trkpt lat="43.63687" lon="6.78304">
        <ele>379.86</ele>
        <time>2011-07-06T15:59:14Z</time>
      </trkpt>
      <trkpt lat="43.63636" lon="6.78268">
        <ele>380.82</ele>
        <time>2011-07-06T15:59:23Z</time>
      </trkpt>
      <trkpt lat="43.63626" lon="6.78263">
        <ele>380.34</ele>
        <time>2011-07-06T15:59:25Z</time>
      </trkpt>
      <trkpt lat="43.63621" lon="6.78261">
        <ele>379.86</ele>
        <time>2011-07-06T15:59:26Z</time>
      </trkpt>
      <trkpt lat="43.63615" lon="6.78259">
        <ele>379.86</ele>
        <time>2011-07-06T15:59:27Z</time>
      </trkpt>
      <trkpt lat="43.63609" lon="6.78256">
        <ele>378.9</ele>
        <time>2011-07-06T15:59:28Z</time>
      </trkpt>
      <trkpt lat="43.63604" lon="6.78253">
        <ele>378.9</ele>
        <time>2011-07-06T15:59:29Z</time>
      </trkpt>
      <trkpt lat="43.63588" lon="6.78243">
        <ele>378.9</ele>
        <time>2011-07-06T15:59:32Z</time>
      </trkpt>
      <trkpt lat="43.63529" lon="6.78226">
        <ele>379.86</ele>
        <time>2011-07-06T15:59:45Z</time>
      </trkpt>
      <trkpt lat="43.63525" lon="6.78224">
        <ele>380.34</ele>
        <time>2011-07-06T15:59:46Z</time>
      </trkpt>
      <trkpt lat="43.63521" lon="6.78223">
        <ele>379.86</ele>
        <time>2011-07-06T15:59:47Z</time>
      </trkpt>
      <trkpt lat="43.63517" lon="6.7822">
        <ele>379.86</ele>
        <time>2011-07-06T15:59:48Z</time>
      </trkpt>
      <trkpt lat="43.63514" lon="6.78218">
        <ele>380.34</ele>
        <time>2011-07-06T15:59:49Z</time>
      </trkpt>
      <trkpt lat="43.63511" lon="6.78216">
        <ele>380.82</ele>
        <time>2011-07-06T15:59:50Z</time>
      </trkpt>
      <trkpt lat="43.63477" lon="6.78214">
        <ele>382.26</ele>
        <time>2011-07-06T16:00:00Z</time>
      </trkpt>
      <trkpt lat="43.6344" lon="6.78212">
        <ele>383.7</ele>
        <time>2011-07-06T16:00:07Z</time>
      </trkpt>
      <trkpt lat="43.6342" lon="6.78217">
        <ele>384.66</ele>
        <time>2011-07-06T16:00:15Z</time>
      </trkpt>
      <trkpt lat="43.6342" lon="6.78217">
        <ele>384.66</ele>
        <time>2011-07-06T16:00:16Z</time>
      </trkpt>
      <trkpt lat="43.63418" lon="6.78214">
        <ele>385.63</ele>
        <time>2011-07-06T16:00:18Z</time>
      </trkpt>
      <trkpt lat="43.63417" lon="6.78213">
        <ele>385.63</ele>
        <time>2011-07-06T16:00:19Z</time>
      </trkpt>
      <trkpt lat="43.63389" lon="6.78209">
        <ele>386.11</ele>
        <time>2011-07-06T16:00:31Z</time>
      </trkpt>
      <trkpt lat="43.63354" lon="6.78211">
        <ele>386.11</ele>
        <time>2011-07-06T16:00:43Z</time>
      </trkpt>
      <trkpt lat="43.63334" lon="6.78212">
        <ele>384.66</ele>
        <time>2011-07-06T16:00:49Z</time>
      </trkpt>
      <trkpt lat="43.63311" lon="6.78221">
        <ele>383.7</ele>
        <time>2011-07-06T16:00:54Z</time>
      </trkpt>
      <trkpt lat="43.63302" lon="6.78225">
        <ele>383.22</ele>
        <time>2011-07-06T16:00:57Z</time>
      </trkpt>
      <trkpt lat="43.63297" lon="6.78224">
        <ele>382.74</ele>
        <time>2011-07-06T16:00:59Z</time>
      </trkpt>
      <trkpt lat="43.63295" lon="6.78223">
        <ele>382.74</ele>
        <time>2011-07-06T16:01:12Z</time>
      </trkpt>
      <trkpt lat="43.63295" lon="6.78223">
        <ele>382.74</ele>
        <time>2011-07-06T16:01:44Z</time>
      </trkpt>
      <trkpt lat="43.63294" lon="6.7822">
        <ele>382.74</ele>
        <time>2011-07-06T16:01:57Z</time>
      </trkpt>
      <trkpt lat="43.63294" lon="6.7822">
        <ele>382.74</ele>
        <time>2011-07-06T16:02:33Z</time>
      </trkpt>
      <trkpt lat="43.63294" lon="6.78218">
        <ele>382.74</ele>
        <time>2011-07-06T16:02:35Z</time>
      </trkpt>
      <trkpt lat="43.63294" lon="6.78218">
        <ele>382.74</ele>
        <time>2011-07-06T16:03:18Z</time>
      </trkpt>
      <trkpt lat="43.63294" lon="6.78218">
        <ele>382.26</ele>
        <time>2011-07-06T16:04:01Z</time>
      </trkpt>
      <trkpt lat="43.63293" lon="6.78218">
        <ele>382.74</ele>
        <time>2011-07-06T16:04:45Z</time>
      </trkpt>
      <trkpt lat="43.63293" lon="6.78218">
        <ele>382.26</ele>
        <time>2011-07-06T16:05:20Z</time>
      </trkpt>
      <trkpt lat="43.63293" lon="6.78217">
        <ele>382.26</ele>
        <time>2011-07-06T16:06:05Z</time>
      </trkpt>
      <trkpt lat="43.63292" lon="6.78217">
        <ele>382.26</ele>
        <time>2011-07-06T16:06:39Z</time>
      </trkpt>
      <trkpt lat="43.63292" lon="6.78218">
        <ele>382.26</ele>
        <time>2011-07-06T16:06:48Z</time>
      </trkpt>
      <trkpt lat="43.63291" lon="6.78218">
        <ele>382.74</ele>
        <time>2011-07-06T16:07:16Z</time>
      </trkpt>
      <trkpt lat="43.63291" lon="6.78218">
        <ele>382.26</ele>
        <time>2011-07-06T16:07:54Z</time>
      </trkpt>
      <trkpt lat="43.6329" lon="6.78218">
        <ele>382.74</ele>
        <time>2011-07-06T16:08:34Z</time>
      </trkpt>
      <trkpt lat="43.6329" lon="6.78215">
        <ele>382.74</ele>
        <time>2011-07-06T16:08:54Z</time>
      </trkpt>
      <trkpt lat="43.63289" lon="6.78213">
        <ele>382.26</ele>
        <time>2011-07-06T16:08:55Z</time>
      </trkpt>
      <trkpt lat="43.63289" lon="6.7821">
        <ele>382.26</ele>
        <time>2011-07-06T16:08:56Z</time>
      </trkpt>
      <trkpt lat="43.63288" lon="6.78208">
        <ele>382.26</ele>
        <time>2011-07-06T16:08:57Z</time>
      </trkpt>
      <trkpt lat="43.63287" lon="6.78207">
        <ele>382.74</ele>
        <time>2011-07-06T16:08:58Z</time>
      </trkpt>
      <trkpt lat="43.63285" lon="6.78205">
        <ele>382.26</ele>
        <time>2011-07-06T16:08:59Z</time>
      </trkpt>
      <trkpt lat="43.63283" lon="6.78203">
        <ele>382.74</ele>
        <time>2011-07-06T16:09:00Z</time>
      </trkpt>
      <trkpt lat="43.6328" lon="6.78201">
        <ele>382.26</ele>
        <time>2011-07-06T16:09:01Z</time>
      </trkpt>
      <trkpt lat="43.63278" lon="6.78198">
        <ele>382.74</ele>
        <time>2011-07-06T16:09:02Z</time>
      </trkpt>
      <trkpt lat="43.63276" lon="6.78195">
        <ele>382.74</ele>
        <time>2011-07-06T16:09:03Z</time>
      </trkpt>
      <trkpt lat="43.63274" lon="6.78192">
        <ele>382.26</ele>
        <time>2011-07-06T16:09:04Z</time>
      </trkpt>
      <trkpt lat="43.63273" lon="6.78188">
        <ele>381.78</ele>
        <time>2011-07-06T16:09:05Z</time>
      </trkpt>
      <trkpt lat="43.63243" lon="6.78144">
        <ele>381.78</ele>
        <time>2011-07-06T16:09:17Z</time>
      </trkpt>
      <trkpt lat="43.63208" lon="6.7811">
        <ele>378.42</ele>
        <time>2011-07-06T16:09:25Z</time>
      </trkpt>
      <trkpt lat="43.63204" lon="6.78106">
        <ele>377.45</ele>
        <time>2011-07-06T16:09:26Z</time>
      </trkpt>
      <trkpt lat="43.63201" lon="6.78101">
        <ele>377.45</ele>
        <time>2011-07-06T16:09:27Z</time>
      </trkpt>
      <trkpt lat="43.63198" lon="6.78099">
        <ele>376.97</ele>
        <time>2011-07-06T16:09:28Z</time>
      </trkpt>
      <trkpt lat="43.63195" lon="6.78099">
        <ele>376.97</ele>
        <time>2011-07-06T16:09:29Z</time>
      </trkpt>
      <trkpt lat="43.63191" lon="6.781">
        <ele>376.49</ele>
        <time>2011-07-06T16:09:30Z</time>
      </trkpt>
      <trkpt lat="43.63187" lon="6.78104">
        <ele>376.49</ele>
        <time>2011-07-06T16:09:31Z</time>
      </trkpt>
      <trkpt lat="43.63184" lon="6.78108">
        <ele>376.01</ele>
        <time>2011-07-06T16:09:32Z</time>
      </trkpt>
      <trkpt lat="43.63177" lon="6.78114">
        <ele>376.97</ele>
        <time>2011-07-06T16:09:34Z</time>
      </trkpt>
      <trkpt lat="43.63172" lon="6.78115">
        <ele>377.94</ele>
        <time>2011-07-06T16:09:36Z</time>
      </trkpt>
      <trkpt lat="43.63171" lon="6.78116">
        <ele>377.94</ele>
        <time>2011-07-06T16:09:37Z</time>
      </trkpt>
      <trkpt lat="43.63166" lon="6.78118">
        <ele>377.45</ele>
        <time>2011-07-06T16:09:40Z</time>
      </trkpt>
      <trkpt lat="43.6315" lon="6.78115">
        <ele>376.97</ele>
        <time>2011-07-06T16:09:45Z</time>
      </trkpt>
      <trkpt lat="43.63125" lon="6.78118">
        <ele>376.01</ele>
        <time>2011-07-06T16:09:52Z</time>
      </trkpt>
      <trkpt lat="43.63121" lon="6.78118">
        <ele>376.01</ele>
        <time>2011-07-06T16:09:53Z</time>
      </trkpt>
      <trkpt lat="43.63117" lon="6.78119">
        <ele>376.01</ele>
        <time>2011-07-06T16:09:54Z</time>
      </trkpt>
      <trkpt lat="43.63113" lon="6.78119">
        <ele>376.01</ele>
        <time>2011-07-06T16:09:55Z</time>
      </trkpt>
      <trkpt lat="43.63108" lon="6.78119">
        <ele>376.01</ele>
        <time>2011-07-06T16:09:56Z</time>
      </trkpt>
      <trkpt lat="43.63099" lon="6.78118">
        <ele>376.01</ele>
        <time>2011-07-06T16:09:58Z</time>
      </trkpt>
      <trkpt lat="43.63081" lon="6.78118">
        <ele>376.01</ele>
        <time>2011-07-06T16:10:02Z</time>
      </trkpt>
      <trkpt lat="43.63076" lon="6.78118">
        <ele>375.53</ele>
        <time>2011-07-06T16:10:03Z</time>
      </trkpt>
      <trkpt lat="43.63073" lon="6.78119">
        <ele>375.05</ele>
        <time>2011-07-06T16:10:04Z</time>
      </trkpt>
      <trkpt lat="43.6307" lon="6.78119">
        <ele>374.57</ele>
        <time>2011-07-06T16:10:05Z</time>
      </trkpt>
      <trkpt lat="43.63068" lon="6.78119">
        <ele>374.57</ele>
        <time>2011-07-06T16:10:06Z</time>
      </trkpt>
      <trkpt lat="43.63065" lon="6.78119">
        <ele>374.57</ele>
        <time>2011-07-06T16:10:07Z</time>
      </trkpt>
      <trkpt lat="43.63065" lon="6.78117">
        <ele>374.09</ele>
        <time>2011-07-06T16:10:08Z</time>
      </trkpt>
      <trkpt lat="43.63066" lon="6.78115">
        <ele>374.09</ele>
        <time>2011-07-06T16:10:09Z</time>
      </trkpt>
      <trkpt lat="43.63067" lon="6.78112">
        <ele>374.09</ele>
        <time>2011-07-06T16:10:10Z</time>
      </trkpt>
      <trkpt lat="43.63068" lon="6.78108">
        <ele>374.57</ele>
        <time>2011-07-06T16:10:11Z</time>
      </trkpt>
      <trkpt lat="43.6307" lon="6.78104">
        <ele>374.09</ele>
        <time>2011-07-06T16:10:12Z</time>
      </trkpt>
      <trkpt lat="43.63078" lon="6.78089">
        <ele>373.13</ele>
        <time>2011-07-06T16:10:15Z</time>
      </trkpt>
      <trkpt lat="43.63079" lon="6.78084">
        <ele>373.13</ele>
        <time>2011-07-06T16:10:16Z</time>
      </trkpt>
      <trkpt lat="43.63079" lon="6.7808">
        <ele>372.65</ele>
        <time>2011-07-06T16:10:17Z</time>
      </trkpt>
      <trkpt lat="43.63078" lon="6.78075">
        <ele>372.65</ele>
        <time>2011-07-06T16:10:18Z</time>
      </trkpt>
      <trkpt lat="43.63076" lon="6.78069">
        <ele>371.69</ele>
        <time>2011-07-06T16:10:19Z</time>
      </trkpt>
      <trkpt lat="43.63075" lon="6.78065">
        <ele>371.21</ele>
        <time>2011-07-06T16:10:20Z</time>
      </trkpt>
      <trkpt lat="43.63074" lon="6.78061">
        <ele>371.21</ele>
        <time>2011-07-06T16:10:21Z</time>
      </trkpt>
      <trkpt lat="43.63073" lon="6.78056">
        <ele>371.21</ele>
        <time>2011-07-06T16:10:22Z</time>
      </trkpt>
      <trkpt lat="43.63072" lon="6.78049">
        <ele>370.24</ele>
        <time>2011-07-06T16:10:23Z</time>
      </trkpt>
      <trkpt lat="43.63072" lon="6.78042">
        <ele>369.76</ele>
        <time>2011-07-06T16:10:24Z</time>
      </trkpt>
      <trkpt lat="43.63074" lon="6.78008">
        <ele>369.28</ele>
        <time>2011-07-06T16:10:28Z</time>
      </trkpt>
      <trkpt lat="43.63076" lon="6.77992">
        <ele>369.28</ele>
        <time>2011-07-06T16:10:30Z</time>
      </trkpt>
      <trkpt lat="43.63076" lon="6.77986">
        <ele>369.28</ele>
        <time>2011-07-06T16:10:31Z</time>
      </trkpt>
      <trkpt lat="43.63075" lon="6.7798">
        <ele>369.76</ele>
        <time>2011-07-06T16:10:32Z</time>
      </trkpt>
      <trkpt lat="43.63073" lon="6.77975">
        <ele>369.28</ele>
        <time>2011-07-06T16:10:33Z</time>
      </trkpt>
      <trkpt lat="43.6307" lon="6.7797">
        <ele>369.28</ele>
        <time>2011-07-06T16:10:34Z</time>
      </trkpt>
      <trkpt lat="43.63065" lon="6.77965">
        <ele>369.76</ele>
        <time>2011-07-06T16:10:35Z</time>
      </trkpt>
      <trkpt lat="43.63061" lon="6.7796">
        <ele>369.76</ele>
        <time>2011-07-06T16:10:36Z</time>
      </trkpt>
      <trkpt lat="43.63056" lon="6.77955">
        <ele>369.76</ele>
        <time>2011-07-06T16:10:37Z</time>
      </trkpt>
      <trkpt lat="43.63051" lon="6.7795">
        <ele>369.76</ele>
        <time>2011-07-06T16:10:38Z</time>
      </trkpt>
      <trkpt lat="43.63047" lon="6.77944">
        <ele>369.76</ele>
        <time>2011-07-06T16:10:39Z</time>
      </trkpt>
      <trkpt lat="43.63028" lon="6.77922">
        <ele>369.76</ele>
        <time>2011-07-06T16:10:43Z</time>
      </trkpt>
      <trkpt lat="43.62981" lon="6.77868">
        <ele>371.21</ele>
        <time>2011-07-06T16:10:54Z</time>
      </trkpt>
      <trkpt lat="43.62911" lon="6.77841">
        <ele>371.21</ele>
        <time>2011-07-06T16:11:07Z</time>
      </trkpt>
      <trkpt lat="43.62905" lon="6.7784">
        <ele>371.21</ele>
        <time>2011-07-06T16:11:08Z</time>
      </trkpt>
      <trkpt lat="43.62899" lon="6.7784">
        <ele>371.69</ele>
        <time>2011-07-06T16:11:09Z</time>
      </trkpt>
      <trkpt lat="43.62874" lon="6.77839">
        <ele>370.73</ele>
        <time>2011-07-06T16:11:13Z</time>
      </trkpt>
      <trkpt lat="43.62867" lon="6.77837">
        <ele>370.73</ele>
        <time>2011-07-06T16:11:14Z</time>
      </trkpt>
      <trkpt lat="43.62844" lon="6.77827">
        <ele>370.73</ele>
        <time>2011-07-06T16:11:18Z</time>
      </trkpt>
      <trkpt lat="43.62824" lon="6.77814">
        <ele>371.69</ele>
        <time>2011-07-06T16:11:22Z</time>
      </trkpt>
      <trkpt lat="43.62771" lon="6.778">
        <ele>372.17</ele>
        <time>2011-07-06T16:11:33Z</time>
      </trkpt>
      <trkpt lat="43.62717" lon="6.77783">
        <ele>373.13</ele>
        <time>2011-07-06T16:11:44Z</time>
      </trkpt>
      <trkpt lat="43.62713" lon="6.77782">
        <ele>373.13</ele>
        <time>2011-07-06T16:11:45Z</time>
      </trkpt>
      <trkpt lat="43.6271" lon="6.7778">
        <ele>373.61</ele>
        <time>2011-07-06T16:11:46Z</time>
      </trkpt>
      <trkpt lat="43.62707" lon="6.77779">
        <ele>373.61</ele>
        <time>2011-07-06T16:11:47Z</time>
      </trkpt>
      <trkpt lat="43.62704" lon="6.77779">
        <ele>373.61</ele>
        <time>2011-07-06T16:11:48Z</time>
      </trkpt>
      <trkpt lat="43.62702" lon="6.77778">
        <ele>374.09</ele>
        <time>2011-07-06T16:11:49Z</time>
      </trkpt>
      <trkpt lat="43.627" lon="6.77777">
        <ele>374.57</ele>
        <time>2011-07-06T16:11:50Z</time>
      </trkpt>
      <trkpt lat="43.6268" lon="6.77764">
        <ele>376.97</ele>
        <time>2011-07-06T16:11:58Z</time>
      </trkpt>
      <trkpt lat="43.62632" lon="6.77738">
        <ele>377.45</ele>
        <time>2011-07-06T16:12:11Z</time>
      </trkpt>
      <trkpt lat="43.62624" lon="6.77732">
        <ele>376.97</ele>
        <time>2011-07-06T16:12:13Z</time>
      </trkpt>
      <trkpt lat="43.62583" lon="6.77706">
        <ele>376.49</ele>
        <time>2011-07-06T16:12:23Z</time>
      </trkpt>
      <trkpt lat="43.62573" lon="6.77698">
        <ele>375.53</ele>
        <time>2011-07-06T16:12:25Z</time>
      </trkpt>
      <trkpt lat="43.62556" lon="6.77684">
        <ele>374.09</ele>
        <time>2011-07-06T16:12:28Z</time>
      </trkpt>
      <trkpt lat="43.62536" lon="6.77667">
        <ele>373.13</ele>
        <time>2011-07-06T16:12:31Z</time>
      </trkpt>
      <trkpt lat="43.62492" lon="6.77607">
        <ele>373.61</ele>
        <time>2011-07-06T16:12:39Z</time>
      </trkpt>
      <trkpt lat="43.62417" lon="6.77531">
        <ele>374.09</ele>
        <time>2011-07-06T16:12:52Z</time>
      </trkpt>
      <trkpt lat="43.62404" lon="6.77513">
        <ele>374.09</ele>
        <time>2011-07-06T16:12:57Z</time>
      </trkpt>
      <trkpt lat="43.62402" lon="6.77514">
        <ele>374.09</ele>
        <time>2011-07-06T16:12:58Z</time>
      </trkpt>
      <trkpt lat="43.624" lon="6.77516">
        <ele>374.09</ele>
        <time>2011-07-06T16:12:59Z</time>
      </trkpt>
      <trkpt lat="43.624" lon="6.77519">
        <ele>374.09</ele>
        <time>2011-07-06T16:13:00Z</time>
      </trkpt>
      <trkpt lat="43.62399" lon="6.77523">
        <ele>374.09</ele>
        <time>2011-07-06T16:13:01Z</time>
      </trkpt>
      <trkpt lat="43.62399" lon="6.77528">
        <ele>374.09</ele>
        <time>2011-07-06T16:13:02Z</time>
      </trkpt>
      <trkpt lat="43.62398" lon="6.77533">
        <ele>374.09</ele>
        <time>2011-07-06T16:13:03Z</time>
      </trkpt>
      <trkpt lat="43.62398" lon="6.77539">
        <ele>374.09</ele>
        <time>2011-07-06T16:13:04Z</time>
      </trkpt>
      <trkpt lat="43.62398" lon="6.77546">
        <ele>374.57</ele>
        <time>2011-07-06T16:13:05Z</time>
      </trkpt>
      <trkpt lat="43.62398" lon="6.77572">
        <ele>375.05</ele>
        <time>2011-07-06T16:13:09Z</time>
      </trkpt>
      <trkpt lat="43.62398" lon="6.77579">
        <ele>375.53</ele>
        <time>2011-07-06T16:13:10Z</time>
      </trkpt>
      <trkpt lat="43.62397" lon="6.77585">
        <ele>375.53</ele>
        <time>2011-07-06T16:13:11Z</time>
      </trkpt>
      <trkpt lat="43.62397" lon="6.77597">
        <ele>376.49</ele>
        <time>2011-07-06T16:13:13Z</time>
      </trkpt>
      <trkpt lat="43.62396" lon="6.77603">
        <ele>376.49</ele>
        <time>2011-07-06T16:13:14Z</time>
      </trkpt>
      <trkpt lat="43.62394" lon="6.77614">
        <ele>376.49</ele>
        <time>2011-07-06T16:13:16Z</time>
      </trkpt>
      <trkpt lat="43.62391" lon="6.7762">
        <ele>376.01</ele>
        <time>2011-07-06T16:13:17Z</time>
      </trkpt>
      <trkpt lat="43.62386" lon="6.77637">
        <ele>376.97</ele>
        <time>2011-07-06T16:13:20Z</time>
      </trkpt>
      <trkpt lat="43.62384" lon="6.77643">
        <ele>376.97</ele>
        <time>2011-07-06T16:13:21Z</time>
      </trkpt>
      <trkpt lat="43.62343" lon="6.7771">
        <ele>377.45</ele>
        <time>2011-07-06T16:13:35Z</time>
      </trkpt>
      <trkpt lat="43.62336" lon="6.77719">
        <ele>377.94</ele>
        <time>2011-07-06T16:13:37Z</time>
      </trkpt>
      <trkpt lat="43.62304" lon="6.77792">
        <ele>378.42</ele>
        <time>2011-07-06T16:13:50Z</time>
      </trkpt>
      <trkpt lat="43.62302" lon="6.77798">
        <ele>378.42</ele>
        <time>2011-07-06T16:13:51Z</time>
      </trkpt>
      <trkpt lat="43.62291" lon="6.77831">
        <ele>377.94</ele>
        <time>2011-07-06T16:13:56Z</time>
      </trkpt>
      <trkpt lat="43.62289" lon="6.77838">
        <ele>377.45</ele>
        <time>2011-07-06T16:13:57Z</time>
      </trkpt>
      <trkpt lat="43.62282" lon="6.77859">
        <ele>376.49</ele>
        <time>2011-07-06T16:14:00Z</time>
      </trkpt>
      <trkpt lat="43.62279" lon="6.77865">
        <ele>376.01</ele>
        <time>2011-07-06T16:14:01Z</time>
      </trkpt>
      <trkpt lat="43.62274" lon="6.77867">
        <ele>376.01</ele>
        <time>2011-07-06T16:14:02Z</time>
      </trkpt>
      <trkpt lat="43.6227" lon="6.77867">
        <ele>376.01</ele>
        <time>2011-07-06T16:14:03Z</time>
      </trkpt>
      <trkpt lat="43.62267" lon="6.77866">
        <ele>376.01</ele>
        <time>2011-07-06T16:14:04Z</time>
      </trkpt>
      <trkpt lat="43.62265" lon="6.77863">
        <ele>376.97</ele>
        <time>2011-07-06T16:14:05Z</time>
      </trkpt>
      <trkpt lat="43.62264" lon="6.77861">
        <ele>376.49</ele>
        <time>2011-07-06T16:14:06Z</time>
      </trkpt>
      <trkpt lat="43.62262" lon="6.77859">
        <ele>376.49</ele>
        <time>2011-07-06T16:14:07Z</time>
      </trkpt>
      <trkpt lat="43.6226" lon="6.77854">
        <ele>377.45</ele>
        <time>2011-07-06T16:14:15Z</time>
      </trkpt>
      <trkpt lat="43.62259" lon="6.7785">
        <ele>377.45</ele>
        <time>2011-07-06T16:14:17Z</time>
      </trkpt>
      <trkpt lat="43.62259" lon="6.77848">
        <ele>377.94</ele>
        <time>2011-07-06T16:14:18Z</time>
      </trkpt>
      <trkpt lat="43.62257" lon="6.77846">
        <ele>377.94</ele>
        <time>2011-07-06T16:14:19Z</time>
      </trkpt>
      <trkpt lat="43.62241" lon="6.77819">
        <ele>379.86</ele>
        <time>2011-07-06T16:14:31Z</time>
      </trkpt>
      <trkpt lat="43.62233" lon="6.77801">
        <ele>381.3</ele>
        <time>2011-07-06T16:14:43Z</time>
      </trkpt>
      <trkpt lat="43.62232" lon="6.778">
        <ele>381.3</ele>
        <time>2011-07-06T16:14:46Z</time>
      </trkpt>
      <trkpt lat="43.62231" lon="6.77798">
        <ele>381.3</ele>
        <time>2011-07-06T16:14:47Z</time>
      </trkpt>
      <trkpt lat="43.6223" lon="6.77797">
        <ele>381.78</ele>
        <time>2011-07-06T16:14:48Z</time>
      </trkpt>
      <trkpt lat="43.62229" lon="6.77796">
        <ele>381.78</ele>
        <time>2011-07-06T16:14:49Z</time>
      </trkpt>
      <trkpt lat="43.62226" lon="6.77793">
        <ele>381.78</ele>
        <time>2011-07-06T16:14:52Z</time>
      </trkpt>
      <trkpt lat="43.62223" lon="6.77788">
        <ele>382.26</ele>
        <time>2011-07-06T16:14:56Z</time>
      </trkpt>
      <trkpt lat="43.62223" lon="6.77786">
        <ele>383.22</ele>
        <time>2011-07-06T16:14:57Z</time>
      </trkpt>
      <trkpt lat="43.6222" lon="6.7778">
        <ele>383.22</ele>
        <time>2011-07-06T16:15:05Z</time>
      </trkpt>
      <trkpt lat="43.6222" lon="6.77778">
        <ele>383.7</ele>
        <time>2011-07-06T16:15:06Z</time>
      </trkpt>
      <trkpt lat="43.6222" lon="6.77776">
        <ele>383.7</ele>
        <time>2011-07-06T16:15:07Z</time>
      </trkpt>
      <trkpt lat="43.6222" lon="6.77774">
        <ele>383.7</ele>
        <time>2011-07-06T16:15:08Z</time>
      </trkpt>
      <trkpt lat="43.62219" lon="6.77773">
        <ele>383.7</ele>
        <time>2011-07-06T16:15:09Z</time>
      </trkpt>
      <trkpt lat="43.62218" lon="6.77771">
        <ele>383.7</ele>
        <time>2011-07-06T16:15:14Z</time>
      </trkpt>
      <trkpt lat="43.62216" lon="6.77771">
        <ele>384.18</ele>
        <time>2011-07-06T16:15:15Z</time>
      </trkpt>
      <trkpt lat="43.62215" lon="6.7777">
        <ele>384.18</ele>
        <time>2011-07-06T16:15:16Z</time>
      </trkpt>
      <trkpt lat="43.62214" lon="6.77768">
        <ele>384.66</ele>
        <time>2011-07-06T16:15:17Z</time>
      </trkpt>
      <trkpt lat="43.62214" lon="6.77767">
        <ele>384.66</ele>
        <time>2011-07-06T16:15:18Z</time>
      </trkpt>
      <trkpt lat="43.62213" lon="6.77766">
        <ele>384.66</ele>
        <time>2011-07-06T16:15:19Z</time>
      </trkpt>
      <trkpt lat="43.62199" lon="6.77735">
        <ele>387.55</ele>
        <time>2011-07-06T16:15:39Z</time>
      </trkpt>
      <trkpt lat="43.62185" lon="6.77705">
        <ele>390.43</ele>
        <time>2011-07-06T16:15:59Z</time>
      </trkpt>
      <trkpt lat="43.62169" lon="6.77684">
        <ele>392.36</ele>
        <time>2011-07-06T16:16:18Z</time>
      </trkpt>
      <trkpt lat="43.62154" lon="6.77669">
        <ele>393.32</ele>
        <time>2011-07-06T16:16:33Z</time>
      </trkpt>
      <trkpt lat="43.62132" lon="6.77646">
        <ele>394.28</ele>
        <time>2011-07-06T16:16:53Z</time>
      </trkpt>
      <trkpt lat="43.62106" lon="6.7762">
        <ele>394.76</ele>
        <time>2011-07-06T16:17:18Z</time>
      </trkpt>
      <trkpt lat="43.62096" lon="6.77606">
        <ele>394.76</ele>
        <time>2011-07-06T16:17:33Z</time>
      </trkpt>
      <trkpt lat="43.62093" lon="6.77602">
        <ele>394.76</ele>
        <time>2011-07-06T16:17:37Z</time>
      </trkpt>
      <trkpt lat="43.62093" lon="6.77599">
        <ele>394.76</ele>
        <time>2011-07-06T16:17:38Z</time>
      </trkpt>
      <trkpt lat="43.62093" lon="6.77597">
        <ele>394.76</ele>
        <time>2011-07-06T16:17:39Z</time>
      </trkpt>
      <trkpt lat="43.62093" lon="6.77595">
        <ele>394.76</ele>
        <time>2011-07-06T16:17:40Z</time>
      </trkpt>
      <trkpt lat="43.62092" lon="6.77593">
        <ele>394.28</ele>
        <time>2011-07-06T16:17:41Z</time>
      </trkpt>
      <trkpt lat="43.62091" lon="6.7759">
        <ele>394.28</ele>
        <time>2011-07-06T16:17:42Z</time>
      </trkpt>
      <trkpt lat="43.6209" lon="6.77587">
        <ele>394.76</ele>
        <time>2011-07-06T16:17:43Z</time>
      </trkpt>
      <trkpt lat="43.62082" lon="6.77566">
        <ele>394.28</ele>
        <time>2011-07-06T16:17:54Z</time>
      </trkpt>
      <trkpt lat="43.62075" lon="6.77551">
        <ele>393.8</ele>
        <time>2011-07-06T16:18:08Z</time>
      </trkpt>
      <trkpt lat="43.62075" lon="6.77551">
        <ele>393.8</ele>
        <time>2011-07-06T16:18:24Z</time>
      </trkpt>
      <trkpt lat="43.62076" lon="6.7755">
        <ele>393.8</ele>
        <time>2011-07-06T16:18:34Z</time>
      </trkpt>
      <trkpt lat="43.62077" lon="6.77549">
        <ele>394.28</ele>
        <time>2011-07-06T16:18:35Z</time>
      </trkpt>
      <trkpt lat="43.62077" lon="6.77548">
        <ele>394.76</ele>
        <time>2011-07-06T16:18:50Z</time>
      </trkpt>
      <trkpt lat="43.62077" lon="6.77548">
        <ele>385.63</ele>
        <time>2011-07-06T16:18:54Z</time>
      </trkpt>
      <trkpt lat="43.62078" lon="6.77549">
        <ele>395.72</ele>
        <time>2011-07-06T16:18:55Z</time>
      </trkpt>
      <trkpt lat="43.62078" lon="6.77549">
        <ele>393.8</ele>
        <time>2011-07-06T16:19:23Z</time>
      </trkpt>
      <trkpt lat="43.62078" lon="6.77549">
        <ele>395.24</ele>
        <time>2011-07-06T16:19:51Z</time>
      </trkpt>
      <trkpt lat="43.62078" lon="6.77549">
        <ele>394.28</ele>
        <time>2011-07-06T16:19:54Z</time>
      </trkpt>
      <trkpt lat="43.62078" lon="6.77549">
        <ele>394.28</ele>
        <time>2011-07-06T16:20:15Z</time>
      </trkpt>
      <trkpt lat="43.62078" lon="6.77549">
        <ele>395.24</ele>
        <time>2011-07-06T16:20:53Z</time>
      </trkpt>
      <trkpt lat="43.62078" lon="6.77549">
        <ele>388.99</ele>
        <time>2011-07-06T16:21:14Z</time>
      </trkpt>
      <trkpt lat="43.62078" lon="6.77549">
        <ele>395.72</ele>
        <time>2011-07-06T16:21:15Z</time>
      </trkpt>
      <trkpt lat="43.62078" lon="6.77549">
        <ele>394.76</ele>
        <time>2011-07-06T16:21:43Z</time>
      </trkpt>
      <trkpt lat="43.62078" lon="6.7755">
        <ele>401.01</ele>
        <time>2011-07-06T16:22:04Z</time>
      </trkpt>
      <trkpt lat="43.62078" lon="6.7755">
        <ele>392.36</ele>
        <time>2011-07-06T16:22:05Z</time>
      </trkpt>
      <trkpt lat="43.62078" lon="6.7755">
        <ele>395.72</ele>
        <time>2011-07-06T16:22:15Z</time>
      </trkpt>
      <trkpt lat="43.62078" lon="6.7755">
        <ele>394.76</ele>
        <time>2011-07-06T16:22:54Z</time>
      </trkpt>
      <trkpt lat="43.62078" lon="6.7755">
        <ele>394.76</ele>
        <time>2011-07-06T16:23:31Z</time>
      </trkpt>
      <trkpt lat="43.62078" lon="6.7755">
        <ele>394.76</ele>
        <time>2011-07-06T16:24:04Z</time>
      </trkpt>
      <trkpt lat="43.62077" lon="6.77548">
        <ele>396.2</ele>
        <time>2011-07-06T16:24:32Z</time>
      </trkpt>
      <trkpt lat="43.62077" lon="6.77548">
        <ele>396.2</ele>
        <time>2011-07-06T16:25:05Z</time>
      </trkpt>
      <trkpt lat="43.62078" lon="6.77548">
        <ele>396.2</ele>
        <time>2011-07-06T16:25:28Z</time>
      </trkpt>
      <trkpt lat="43.62078" lon="6.77548">
        <ele>396.2</ele>
        <time>2011-07-06T16:25:56Z</time>
      </trkpt>
      <trkpt lat="43.62078" lon="6.77548">
        <ele>396.2</ele>
        <time>2011-07-06T16:26:22Z</time>
      </trkpt>
      <trkpt lat="43.62078" lon="6.77548">
        <ele>396.2</ele>
        <time>2011-07-06T16:26:45Z</time>
      </trkpt>
      <trkpt lat="43.62078" lon="6.77549">
        <ele>396.2</ele>
        <time>2011-07-06T16:27:08Z</time>
      </trkpt>
      <trkpt lat="43.62078" lon="6.77549">
        <ele>396.2</ele>
        <time>2011-07-06T16:27:35Z</time>
      </trkpt>
      <trkpt lat="43.62078" lon="6.77549">
        <ele>396.68</ele>
        <time>2011-07-06T16:27:55Z</time>
      </trkpt>
      <trkpt lat="43.62078" lon="6.77548">
        <ele>392.84</ele>
        <time>2011-07-06T16:28:01Z</time>
      </trkpt>
      <trkpt lat="43.62078" lon="6.77548">
        <ele>395.24</ele>
        <time>2011-07-06T16:28:02Z</time>
      </trkpt>
      <trkpt lat="43.62078" lon="6.77548">
        <ele>396.68</ele>
        <time>2011-07-06T16:28:04Z</time>
      </trkpt>
      <trkpt lat="43.62078" lon="6.77548">
        <ele>396.68</ele>
        <time>2011-07-06T16:28:30Z</time>
      </trkpt>
      <trkpt lat="43.62078" lon="6.7755">
        <ele>396.68</ele>
        <time>2011-07-06T16:28:52Z</time>
      </trkpt>
      <trkpt lat="43.62078" lon="6.7755">
        <ele>398.12</ele>
        <time>2011-07-06T16:28:56Z</time>
      </trkpt>
      <trkpt lat="43.62079" lon="6.7755">
        <ele>394.76</ele>
        <time>2011-07-06T16:29:05Z</time>
      </trkpt>
      <trkpt lat="43.62079" lon="6.7755">
        <ele>404.85</ele>
        <time>2011-07-06T16:29:06Z</time>
      </trkpt>
      <trkpt lat="43.62078" lon="6.77551">
        <ele>397.16</ele>
        <time>2011-07-06T16:29:07Z</time>
      </trkpt>
      <trkpt lat="43.62077" lon="6.77552">
        <ele>397.16</ele>
        <time>2011-07-06T16:29:10Z</time>
      </trkpt>
      <trkpt lat="43.62073" lon="6.77552">
        <ele>396.68</ele>
        <time>2011-07-06T16:29:13Z</time>
      </trkpt>
      <trkpt lat="43.62072" lon="6.7755">
        <ele>396.68</ele>
        <time>2011-07-06T16:29:14Z</time>
      </trkpt>
      <trkpt lat="43.62072" lon="6.77548">
        <ele>396.68</ele>
        <time>2011-07-06T16:29:15Z</time>
      </trkpt>
      <trkpt lat="43.62071" lon="6.77546">
        <ele>396.2</ele>
        <time>2011-07-06T16:29:16Z</time>
      </trkpt>
      <trkpt lat="43.6207" lon="6.77544">
        <ele>396.68</ele>
        <time>2011-07-06T16:29:17Z</time>
      </trkpt>
      <trkpt lat="43.62069" lon="6.77543">
        <ele>396.2</ele>
        <time>2011-07-06T16:29:18Z</time>
      </trkpt>
      <trkpt lat="43.62068" lon="6.77543">
        <ele>396.2</ele>
        <time>2011-07-06T16:29:19Z</time>
      </trkpt>
      <trkpt lat="43.6204" lon="6.77523">
        <ele>395.72</ele>
        <time>2011-07-06T16:29:33Z</time>
      </trkpt>
      <trkpt lat="43.62036" lon="6.7752">
        <ele>395.72</ele>
        <time>2011-07-06T16:29:34Z</time>
      </trkpt>
      <trkpt lat="43.62032" lon="6.77516">
        <ele>395.72</ele>
        <time>2011-07-06T16:29:35Z</time>
      </trkpt>
      <trkpt lat="43.62029" lon="6.77512">
        <ele>395.24</ele>
        <time>2011-07-06T16:29:36Z</time>
      </trkpt>
      <trkpt lat="43.62025" lon="6.77508">
        <ele>395.72</ele>
        <time>2011-07-06T16:29:37Z</time>
      </trkpt>
      <trkpt lat="43.62022" lon="6.77504">
        <ele>395.24</ele>
        <time>2011-07-06T16:29:38Z</time>
      </trkpt>
      <trkpt lat="43.61979" lon="6.77456">
        <ele>391.87</ele>
        <time>2011-07-06T16:29:48Z</time>
      </trkpt>
      <trkpt lat="43.61947" lon="6.77418">
        <ele>388.99</ele>
        <time>2011-07-06T16:29:54Z</time>
      </trkpt>
      <trkpt lat="43.6194" lon="6.77408">
        <ele>387.55</ele>
        <time>2011-07-06T16:29:56Z</time>
      </trkpt>
      <trkpt lat="43.61937" lon="6.77403">
        <ele>387.55</ele>
        <time>2011-07-06T16:29:57Z</time>
      </trkpt>
      <trkpt lat="43.61919" lon="6.77381">
        <ele>385.15</ele>
        <time>2011-07-06T16:30:01Z</time>
      </trkpt>
      <trkpt lat="43.61909" lon="6.77362">
        <ele>383.7</ele>
        <time>2011-07-06T16:30:05Z</time>
      </trkpt>
      <trkpt lat="43.61907" lon="6.7736">
        <ele>382.74</ele>
        <time>2011-07-06T16:30:06Z</time>
      </trkpt>
      <trkpt lat="43.61905" lon="6.7736">
        <ele>382.74</ele>
        <time>2011-07-06T16:30:07Z</time>
      </trkpt>
      <trkpt lat="43.61903" lon="6.77361">
        <ele>382.74</ele>
        <time>2011-07-06T16:30:08Z</time>
      </trkpt>
      <trkpt lat="43.61901" lon="6.77362">
        <ele>383.22</ele>
        <time>2011-07-06T16:30:09Z</time>
      </trkpt>
      <trkpt lat="43.61861" lon="6.77371">
        <ele>383.22</ele>
        <time>2011-07-06T16:30:21Z</time>
      </trkpt>
      <trkpt lat="43.61842" lon="6.77375">
        <ele>383.7</ele>
        <time>2011-07-06T16:30:28Z</time>
      </trkpt>
      <trkpt lat="43.6184" lon="6.77377">
        <ele>383.7</ele>
        <time>2011-07-06T16:30:29Z</time>
      </trkpt>
      <trkpt lat="43.61839" lon="6.77381">
        <ele>383.7</ele>
        <time>2011-07-06T16:30:30Z</time>
      </trkpt>
      <trkpt lat="43.61838" lon="6.77385">
        <ele>384.18</ele>
        <time>2011-07-06T16:30:31Z</time>
      </trkpt>
      <trkpt lat="43.61838" lon="6.7739">
        <ele>384.18</ele>
        <time>2011-07-06T16:30:32Z</time>
      </trkpt>
      <trkpt lat="43.61838" lon="6.77396">
        <ele>383.7</ele>
        <time>2011-07-06T16:30:33Z</time>
      </trkpt>
      <trkpt lat="43.61838" lon="6.77401">
        <ele>384.18</ele>
        <time>2011-07-06T16:30:34Z</time>
      </trkpt>
      <trkpt lat="43.61838" lon="6.77406">
        <ele>383.7</ele>
        <time>2011-07-06T16:30:35Z</time>
      </trkpt>
      <trkpt lat="43.61839" lon="6.77412">
        <ele>383.22</ele>
        <time>2011-07-06T16:30:36Z</time>
      </trkpt>
      <trkpt lat="43.61851" lon="6.77462">
        <ele>383.22</ele>
        <time>2011-07-06T16:30:45Z</time>
      </trkpt>
      <trkpt lat="43.61852" lon="6.77468">
        <ele>384.18</ele>
        <time>2011-07-06T16:30:46Z</time>
      </trkpt>
      <trkpt lat="43.61865" lon="6.77549">
        <ele>385.63</ele>
        <time>2011-07-06T16:31:03Z</time>
      </trkpt>
      <trkpt lat="43.61868" lon="6.77634">
        <ele>387.55</ele>
        <time>2011-07-06T16:31:20Z</time>
      </trkpt>
      <trkpt lat="43.61871" lon="6.77719">
        <ele>390.43</ele>
        <time>2011-07-06T16:31:37Z</time>
      </trkpt>
      <trkpt lat="43.61862" lon="6.77787">
        <ele>391.87</ele>
        <time>2011-07-06T16:31:51Z</time>
      </trkpt>
      <trkpt lat="43.6185" lon="6.77858">
        <ele>391.39</ele>
        <time>2011-07-06T16:32:05Z</time>
      </trkpt>
      <trkpt lat="43.61831" lon="6.77971">
        <ele>392.84</ele>
        <time>2011-07-06T16:32:23Z</time>
      </trkpt>
      <trkpt lat="43.61821" lon="6.78017">
        <ele>395.24</ele>
        <time>2011-07-06T16:32:35Z</time>
      </trkpt>
      <trkpt lat="43.61799" lon="6.78089">
        <ele>397.64</ele>
        <time>2011-07-06T16:32:51Z</time>
      </trkpt>
      <trkpt lat="43.61766" lon="6.78195">
        <ele>394.76</ele>
        <time>2011-07-06T16:33:08Z</time>
      </trkpt>
      <trkpt lat="43.61764" lon="6.78204">
        <ele>394.28</ele>
        <time>2011-07-06T16:33:09Z</time>
      </trkpt>
      <trkpt lat="43.61761" lon="6.78224">
        <ele>393.32</ele>
        <time>2011-07-06T16:33:11Z</time>
      </trkpt>
      <trkpt lat="43.61753" lon="6.78281">
        <ele>389.95</ele>
        <time>2011-07-06T16:33:16Z</time>
      </trkpt>
      <trkpt lat="43.61746" lon="6.78323">
        <ele>386.59</ele>
        <time>2011-07-06T16:33:19Z</time>
      </trkpt>
      <trkpt lat="43.61734" lon="6.78382">
        <ele>382.74</ele>
        <time>2011-07-06T16:33:23Z</time>
      </trkpt>
      <trkpt lat="43.61715" lon="6.78442">
        <ele>379.38</ele>
        <time>2011-07-06T16:33:28Z</time>
      </trkpt>
      <trkpt lat="43.61703" lon="6.78476">
        <ele>376.01</ele>
        <time>2011-07-06T16:33:32Z</time>
      </trkpt>
      <trkpt lat="43.61699" lon="6.78487">
        <ele>375.05</ele>
        <time>2011-07-06T16:33:34Z</time>
      </trkpt>
      <trkpt lat="43.61696" lon="6.78492">
        <ele>374.09</ele>
        <time>2011-07-06T16:33:35Z</time>
      </trkpt>
      <trkpt lat="43.61693" lon="6.78494">
        <ele>373.61</ele>
        <time>2011-07-06T16:33:36Z</time>
      </trkpt>
      <trkpt lat="43.61678" lon="6.78497">
        <ele>373.61</ele>
        <time>2011-07-06T16:33:39Z</time>
      </trkpt>
      <trkpt lat="43.61599" lon="6.78499">
        <ele>374.57</ele>
        <time>2011-07-06T16:33:52Z</time>
      </trkpt>
      <trkpt lat="43.61582" lon="6.78495">
        <ele>374.09</ele>
        <time>2011-07-06T16:33:55Z</time>
      </trkpt>
      <trkpt lat="43.61567" lon="6.78489">
        <ele>372.65</ele>
        <time>2011-07-06T16:33:58Z</time>
      </trkpt>
      <trkpt lat="43.61561" lon="6.78489">
        <ele>372.65</ele>
        <time>2011-07-06T16:33:59Z</time>
      </trkpt>
      <trkpt lat="43.61556" lon="6.78492">
        <ele>372.17</ele>
        <time>2011-07-06T16:34:00Z</time>
      </trkpt>
      <trkpt lat="43.61552" lon="6.78497">
        <ele>371.69</ele>
        <time>2011-07-06T16:34:01Z</time>
      </trkpt>
      <trkpt lat="43.61548" lon="6.78504">
        <ele>371.69</ele>
        <time>2011-07-06T16:34:02Z</time>
      </trkpt>
      <trkpt lat="43.61544" lon="6.78512">
        <ele>370.73</ele>
        <time>2011-07-06T16:34:03Z</time>
      </trkpt>
      <trkpt lat="43.61541" lon="6.7852">
        <ele>370.24</ele>
        <time>2011-07-06T16:34:04Z</time>
      </trkpt>
      <trkpt lat="43.61525" lon="6.78552">
        <ele>368.8</ele>
        <time>2011-07-06T16:34:08Z</time>
      </trkpt>
      <trkpt lat="43.61522" lon="6.78561">
        <ele>368.8</ele>
        <time>2011-07-06T16:34:09Z</time>
      </trkpt>
      <trkpt lat="43.6152" lon="6.7857">
        <ele>368.8</ele>
        <time>2011-07-06T16:34:10Z</time>
      </trkpt>
      <trkpt lat="43.61515" lon="6.78606">
        <ele>368.8</ele>
        <time>2011-07-06T16:34:14Z</time>
      </trkpt>
      <trkpt lat="43.61512" lon="6.78614">
        <ele>368.8</ele>
        <time>2011-07-06T16:34:15Z</time>
      </trkpt>
      <trkpt lat="43.61501" lon="6.78646">
        <ele>367.84</ele>
        <time>2011-07-06T16:34:19Z</time>
      </trkpt>
      <trkpt lat="43.61496" lon="6.78664">
        <ele>366.88</ele>
        <time>2011-07-06T16:34:21Z</time>
      </trkpt>
      <trkpt lat="43.61489" lon="6.78701">
        <ele>365.44</ele>
        <time>2011-07-06T16:34:25Z</time>
      </trkpt>
      <trkpt lat="43.61485" lon="6.78734">
        <ele>364.48</ele>
        <time>2011-07-06T16:34:29Z</time>
      </trkpt>
      <trkpt lat="43.61485" lon="6.78741">
        <ele>364.48</ele>
        <time>2011-07-06T16:34:30Z</time>
      </trkpt>
      <trkpt lat="43.61483" lon="6.78746">
        <ele>364.48</ele>
        <time>2011-07-06T16:34:31Z</time>
      </trkpt>
      <trkpt lat="43.61479" lon="6.7875">
        <ele>364.48</ele>
        <time>2011-07-06T16:34:32Z</time>
      </trkpt>
      <trkpt lat="43.61474" lon="6.78752">
        <ele>364</ele>
        <time>2011-07-06T16:34:33Z</time>
      </trkpt>
      <trkpt lat="43.61469" lon="6.78755">
        <ele>364</ele>
        <time>2011-07-06T16:34:34Z</time>
      </trkpt>
      <trkpt lat="43.61464" lon="6.78758">
        <ele>364</ele>
        <time>2011-07-06T16:34:35Z</time>
      </trkpt>
      <trkpt lat="43.61453" lon="6.78764">
        <ele>363.04</ele>
        <time>2011-07-06T16:34:37Z</time>
      </trkpt>
      <trkpt lat="43.61437" lon="6.78772">
        <ele>363.52</ele>
        <time>2011-07-06T16:34:40Z</time>
      </trkpt>
      <trkpt lat="43.61374" lon="6.78808">
        <ele>360.15</ele>
        <time>2011-07-06T16:34:50Z</time>
      </trkpt>
      <trkpt lat="43.6135" lon="6.78825">
        <ele>356.31</ele>
        <time>2011-07-06T16:34:54Z</time>
      </trkpt>
      <trkpt lat="43.61344" lon="6.78827">
        <ele>355.83</ele>
        <time>2011-07-06T16:34:55Z</time>
      </trkpt>
      <trkpt lat="43.61338" lon="6.78826">
        <ele>355.34</ele>
        <time>2011-07-06T16:34:56Z</time>
      </trkpt>
      <trkpt lat="43.61332" lon="6.78822">
        <ele>354.38</ele>
        <time>2011-07-06T16:34:57Z</time>
      </trkpt>
      <trkpt lat="43.61326" lon="6.78818">
        <ele>353.9</ele>
        <time>2011-07-06T16:34:58Z</time>
      </trkpt>
      <trkpt lat="43.6132" lon="6.78814">
        <ele>353.9</ele>
        <time>2011-07-06T16:34:59Z</time>
      </trkpt>
      <trkpt lat="43.61266" lon="6.78786">
        <ele>352.46</ele>
        <time>2011-07-06T16:35:08Z</time>
      </trkpt>
      <trkpt lat="43.61261" lon="6.78784">
        <ele>351.98</ele>
        <time>2011-07-06T16:35:09Z</time>
      </trkpt>
      <trkpt lat="43.61255" lon="6.78784">
        <ele>351.98</ele>
        <time>2011-07-06T16:35:10Z</time>
      </trkpt>
      <trkpt lat="43.61249" lon="6.78785">
        <ele>351.02</ele>
        <time>2011-07-06T16:35:11Z</time>
      </trkpt>
      <trkpt lat="43.61242" lon="6.78788">
        <ele>349.58</ele>
        <time>2011-07-06T16:35:12Z</time>
      </trkpt>
      <trkpt lat="43.61235" lon="6.78792">
        <ele>349.1</ele>
        <time>2011-07-06T16:35:13Z</time>
      </trkpt>
      <trkpt lat="43.61228" lon="6.78797">
        <ele>347.65</ele>
        <time>2011-07-06T16:35:14Z</time>
      </trkpt>
      <trkpt lat="43.61221" lon="6.78801">
        <ele>347.65</ele>
        <time>2011-07-06T16:35:15Z</time>
      </trkpt>
      <trkpt lat="43.61207" lon="6.78811">
        <ele>346.21</ele>
        <time>2011-07-06T16:35:17Z</time>
      </trkpt>
      <trkpt lat="43.61201" lon="6.78816">
        <ele>346.21</ele>
        <time>2011-07-06T16:35:18Z</time>
      </trkpt>
      <trkpt lat="43.61189" lon="6.78826">
        <ele>344.77</ele>
        <time>2011-07-06T16:35:21Z</time>
      </trkpt>
      <trkpt lat="43.61185" lon="6.78831">
        <ele>344.29</ele>
        <time>2011-07-06T16:35:22Z</time>
      </trkpt>
      <trkpt lat="43.61177" lon="6.78842">
        <ele>342.37</ele>
        <time>2011-07-06T16:35:24Z</time>
      </trkpt>
      <trkpt lat="43.61173" lon="6.78846">
        <ele>342.37</ele>
        <time>2011-07-06T16:35:25Z</time>
      </trkpt>
      <trkpt lat="43.61169" lon="6.7885">
        <ele>341.89</ele>
        <time>2011-07-06T16:35:26Z</time>
      </trkpt>
      <trkpt lat="43.61163" lon="6.78854">
        <ele>340.92</ele>
        <time>2011-07-06T16:35:27Z</time>
      </trkpt>
      <trkpt lat="43.61158" lon="6.78857">
        <ele>339.96</ele>
        <time>2011-07-06T16:35:28Z</time>
      </trkpt>
      <trkpt lat="43.61154" lon="6.78861">
        <ele>339</ele>
        <time>2011-07-06T16:35:29Z</time>
      </trkpt>
      <trkpt lat="43.6115" lon="6.78864">
        <ele>338.04</ele>
        <time>2011-07-06T16:35:30Z</time>
      </trkpt>
      <trkpt lat="43.61146" lon="6.78868">
        <ele>337.56</ele>
        <time>2011-07-06T16:35:31Z</time>
      </trkpt>
      <trkpt lat="43.61141" lon="6.78871">
        <ele>336.6</ele>
        <time>2011-07-06T16:35:32Z</time>
      </trkpt>
      <trkpt lat="43.61121" lon="6.78881">
        <ele>332.27</ele>
        <time>2011-07-06T16:35:36Z</time>
      </trkpt>
      <trkpt lat="43.61112" lon="6.78885">
        <ele>330.35</ele>
        <time>2011-07-06T16:35:38Z</time>
      </trkpt>
      <trkpt lat="43.61106" lon="6.78886">
        <ele>330.35</ele>
        <time>2011-07-06T16:35:39Z</time>
      </trkpt>
      <trkpt lat="43.61097" lon="6.78888">
        <ele>328.91</ele>
        <time>2011-07-06T16:35:41Z</time>
      </trkpt>
      <trkpt lat="43.61085" lon="6.78882">
        <ele>326.02</ele>
        <time>2011-07-06T16:35:46Z</time>
      </trkpt>
      <trkpt lat="43.61083" lon="6.78879">
        <ele>325.06</ele>
        <time>2011-07-06T16:35:56Z</time>
      </trkpt>
      <trkpt lat="43.6108" lon="6.78882">
        <ele>323.14</ele>
        <time>2011-07-06T16:36:01Z</time>
      </trkpt>
      <trkpt lat="43.61079" lon="6.78884">
        <ele>322.66</ele>
        <time>2011-07-06T16:36:02Z</time>
      </trkpt>
      <trkpt lat="43.61078" lon="6.78888">
        <ele>321.22</ele>
        <time>2011-07-06T16:36:04Z</time>
      </trkpt>
      <trkpt lat="43.6107" lon="6.78899">
        <ele>318.33</ele>
        <time>2011-07-06T16:36:09Z</time>
      </trkpt>
      <trkpt lat="43.61065" lon="6.78906">
        <ele>315.93</ele>
        <time>2011-07-06T16:36:13Z</time>
      </trkpt>
      <trkpt lat="43.6106" lon="6.78918">
        <ele>312.57</ele>
        <time>2011-07-06T16:36:19Z</time>
      </trkpt>
      <trkpt lat="43.61054" lon="6.78931">
        <ele>309.68</ele>
        <time>2011-07-06T16:36:24Z</time>
      </trkpt>
      <trkpt lat="43.61054" lon="6.78933">
        <ele>309.2</ele>
        <time>2011-07-06T16:36:25Z</time>
      </trkpt>
      <trkpt lat="43.6105" lon="6.78939">
        <ele>308.24</ele>
        <time>2011-07-06T16:36:27Z</time>
      </trkpt>
      <trkpt lat="43.61041" lon="6.7895">
        <ele>304.88</ele>
        <time>2011-07-06T16:36:30Z</time>
      </trkpt>
      <trkpt lat="43.61029" lon="6.78966">
        <ele>302.47</ele>
        <time>2011-07-06T16:36:35Z</time>
      </trkpt>
      <trkpt lat="43.61026" lon="6.78967">
        <ele>302.47</ele>
        <time>2011-07-06T16:36:46Z</time>
      </trkpt>
      <trkpt lat="43.61021" lon="6.78968">
        <ele>301.99</ele>
        <time>2011-07-06T16:36:54Z</time>
      </trkpt>
      <trkpt lat="43.61018" lon="6.78969">
        <ele>301.99</ele>
        <time>2011-07-06T16:36:55Z</time>
      </trkpt>
      <trkpt lat="43.61015" lon="6.78971">
        <ele>301.03</ele>
        <time>2011-07-06T16:36:56Z</time>
      </trkpt>
      <trkpt lat="43.60994" lon="6.78967">
        <ele>297.67</ele>
        <time>2011-07-06T16:37:01Z</time>
      </trkpt>
      <trkpt lat="43.60966" lon="6.78914">
        <ele>294.78</ele>
        <time>2011-07-06T16:37:10Z</time>
      </trkpt>
      <trkpt lat="43.60952" lon="6.789">
        <ele>293.82</ele>
        <time>2011-07-06T16:37:11Z</time>
      </trkpt>
      <trkpt lat="43.60915" lon="6.78862">
        <ele>289.49</ele>
        <time>2011-07-06T16:37:15Z</time>
      </trkpt>
      <trkpt lat="43.60908" lon="6.78849">
        <ele>287.57</ele>
        <time>2011-07-06T16:37:17Z</time>
      </trkpt>
      <trkpt lat="43.60898" lon="6.78829">
        <ele>286.13</ele>
        <time>2011-07-06T16:37:19Z</time>
      </trkpt>
      <trkpt lat="43.60894" lon="6.78823">
        <ele>285.65</ele>
        <time>2011-07-06T16:37:20Z</time>
      </trkpt>
      <trkpt lat="43.60889" lon="6.7882">
        <ele>285.65</ele>
        <time>2011-07-06T16:37:21Z</time>
      </trkpt>
      <trkpt lat="43.60884" lon="6.7882">
        <ele>285.65</ele>
        <time>2011-07-06T16:37:22Z</time>
      </trkpt>
      <trkpt lat="43.60879" lon="6.78821">
        <ele>285.17</ele>
        <time>2011-07-06T16:37:23Z</time>
      </trkpt>
      <trkpt lat="43.60874" lon="6.78822">
        <ele>285.65</ele>
        <time>2011-07-06T16:37:24Z</time>
      </trkpt>
      <trkpt lat="43.6087" lon="6.78825">
        <ele>285.17</ele>
        <time>2011-07-06T16:37:25Z</time>
      </trkpt>
      <trkpt lat="43.60861" lon="6.78833">
        <ele>284.69</ele>
        <time>2011-07-06T16:37:27Z</time>
      </trkpt>
      <trkpt lat="43.60846" lon="6.7887">
        <ele>282.77</ele>
        <time>2011-07-06T16:37:34Z</time>
      </trkpt>
      <trkpt lat="43.60843" lon="6.78872">
        <ele>282.77</ele>
        <time>2011-07-06T16:37:35Z</time>
      </trkpt>
      <trkpt lat="43.60828" lon="6.78874">
        <ele>282.28</ele>
        <time>2011-07-06T16:37:39Z</time>
      </trkpt>
      <trkpt lat="43.60823" lon="6.78875">
        <ele>282.28</ele>
        <time>2011-07-06T16:37:40Z</time>
      </trkpt>
      <trkpt lat="43.60819" lon="6.78878">
        <ele>282.77</ele>
        <time>2011-07-06T16:37:41Z</time>
      </trkpt>
      <trkpt lat="43.60818" lon="6.78881">
        <ele>283.25</ele>
        <time>2011-07-06T16:37:42Z</time>
      </trkpt>
      <trkpt lat="43.60835" lon="6.78917">
        <ele>284.21</ele>
        <time>2011-07-06T16:37:48Z</time>
      </trkpt>
      <trkpt lat="43.6084" lon="6.78923">
        <ele>283.73</ele>
        <time>2011-07-06T16:37:49Z</time>
      </trkpt>
      <trkpt lat="43.60846" lon="6.78928">
        <ele>283.25</ele>
        <time>2011-07-06T16:37:50Z</time>
      </trkpt>
      <trkpt lat="43.60851" lon="6.78931">
        <ele>283.25</ele>
        <time>2011-07-06T16:37:51Z</time>
      </trkpt>
      <trkpt lat="43.60856" lon="6.78935">
        <ele>282.77</ele>
        <time>2011-07-06T16:37:52Z</time>
      </trkpt>
      <trkpt lat="43.6086" lon="6.7894">
        <ele>282.77</ele>
        <time>2011-07-06T16:37:53Z</time>
      </trkpt>
      <trkpt lat="43.60863" lon="6.78947">
        <ele>280.84</ele>
        <time>2011-07-06T16:37:54Z</time>
      </trkpt>
      <trkpt lat="43.60865" lon="6.78954">
        <ele>279.88</ele>
        <time>2011-07-06T16:37:55Z</time>
      </trkpt>
      <trkpt lat="43.60867" lon="6.78962">
        <ele>278.44</ele>
        <time>2011-07-06T16:37:56Z</time>
      </trkpt>
      <trkpt lat="43.60867" lon="6.78969">
        <ele>277</ele>
        <time>2011-07-06T16:37:57Z</time>
      </trkpt>
      <trkpt lat="43.60865" lon="6.78978">
        <ele>275.56</ele>
        <time>2011-07-06T16:37:58Z</time>
      </trkpt>
      <trkpt lat="43.60864" lon="6.78986">
        <ele>274.59</ele>
        <time>2011-07-06T16:37:59Z</time>
      </trkpt>
      <trkpt lat="43.60862" lon="6.78994">
        <ele>273.15</ele>
        <time>2011-07-06T16:38:00Z</time>
      </trkpt>
      <trkpt lat="43.60859" lon="6.79002">
        <ele>271.23</ele>
        <time>2011-07-06T16:38:01Z</time>
      </trkpt>
      <trkpt lat="43.60856" lon="6.7901">
        <ele>270.27</ele>
        <time>2011-07-06T16:38:02Z</time>
      </trkpt>
      <trkpt lat="43.60854" lon="6.79018">
        <ele>268.83</ele>
        <time>2011-07-06T16:38:03Z</time>
      </trkpt>
      <trkpt lat="43.60853" lon="6.79026">
        <ele>267.38</ele>
        <time>2011-07-06T16:38:04Z</time>
      </trkpt>
      <trkpt lat="43.60854" lon="6.79031">
        <ele>266.42</ele>
        <time>2011-07-06T16:38:05Z</time>
      </trkpt>
      <trkpt lat="43.60853" lon="6.79037">
        <ele>264.98</ele>
        <time>2011-07-06T16:38:06Z</time>
      </trkpt>
      <trkpt lat="43.60852" lon="6.79043">
        <ele>264.02</ele>
        <time>2011-07-06T16:38:07Z</time>
      </trkpt>
      <trkpt lat="43.60849" lon="6.7905">
        <ele>263.06</ele>
        <time>2011-07-06T16:38:08Z</time>
      </trkpt>
      <trkpt lat="43.60845" lon="6.79058">
        <ele>261.62</ele>
        <time>2011-07-06T16:38:09Z</time>
      </trkpt>
      <trkpt lat="43.60841" lon="6.79066">
        <ele>260.17</ele>
        <time>2011-07-06T16:38:10Z</time>
      </trkpt>
      <trkpt lat="43.60836" lon="6.79073">
        <ele>258.73</ele>
        <time>2011-07-06T16:38:11Z</time>
      </trkpt>
      <trkpt lat="43.60823" lon="6.79096">
        <ele>254.89</ele>
        <time>2011-07-06T16:38:14Z</time>
      </trkpt>
      <trkpt lat="43.60815" lon="6.79112">
        <ele>252.48</ele>
        <time>2011-07-06T16:38:16Z</time>
      </trkpt>
      <trkpt lat="43.60812" lon="6.79121">
        <ele>251.04</ele>
        <time>2011-07-06T16:38:17Z</time>
      </trkpt>
      <trkpt lat="43.60809" lon="6.7913">
        <ele>249.6</ele>
        <time>2011-07-06T16:38:18Z</time>
      </trkpt>
      <trkpt lat="43.60807" lon="6.79139">
        <ele>247.2</ele>
        <time>2011-07-06T16:38:19Z</time>
      </trkpt>
      <trkpt lat="43.60805" lon="6.79147">
        <ele>246.23</ele>
        <time>2011-07-06T16:38:20Z</time>
      </trkpt>
      <trkpt lat="43.60803" lon="6.79154">
        <ele>245.75</ele>
        <time>2011-07-06T16:38:21Z</time>
      </trkpt>
      <trkpt lat="43.60799" lon="6.79166">
        <ele>243.35</ele>
        <time>2011-07-06T16:38:23Z</time>
      </trkpt>
      <trkpt lat="43.60794" lon="6.7917">
        <ele>242.87</ele>
        <time>2011-07-06T16:38:24Z</time>
      </trkpt>
      <trkpt lat="43.6079" lon="6.79171">
        <ele>242.39</ele>
        <time>2011-07-06T16:38:25Z</time>
      </trkpt>
      <trkpt lat="43.60785" lon="6.7917">
        <ele>241.91</ele>
        <time>2011-07-06T16:38:26Z</time>
      </trkpt>
      <trkpt lat="43.60778" lon="6.79167">
        <ele>240.47</ele>
        <time>2011-07-06T16:38:27Z</time>
      </trkpt>
      <trkpt lat="43.60735" lon="6.79142">
        <ele>238.54</ele>
        <time>2011-07-06T16:38:31Z</time>
      </trkpt>
      <trkpt lat="43.60727" lon="6.79134">
        <ele>238.54</ele>
        <time>2011-07-06T16:38:32Z</time>
      </trkpt>
      <trkpt lat="43.60721" lon="6.79126">
        <ele>237.58</ele>
        <time>2011-07-06T16:38:33Z</time>
      </trkpt>
      <trkpt lat="43.60714" lon="6.79117">
        <ele>237.58</ele>
        <time>2011-07-06T16:38:34Z</time>
      </trkpt>
      <trkpt lat="43.60708" lon="6.79107">
        <ele>236.62</ele>
        <time>2011-07-06T16:38:35Z</time>
      </trkpt>
      <trkpt lat="43.60701" lon="6.79098">
        <ele>235.66</ele>
        <time>2011-07-06T16:38:36Z</time>
      </trkpt>
      <trkpt lat="43.60695" lon="6.7909">
        <ele>235.18</ele>
        <time>2011-07-06T16:38:37Z</time>
      </trkpt>
      <trkpt lat="43.60683" lon="6.79077">
        <ele>234.22</ele>
        <time>2011-07-06T16:38:38Z</time>
      </trkpt>
      <trkpt lat="43.60657" lon="6.79046">
        <ele>231.33</ele>
        <time>2011-07-06T16:38:42Z</time>
      </trkpt>
      <trkpt lat="43.60646" lon="6.7903">
        <ele>230.85</ele>
        <time>2011-07-06T16:38:44Z</time>
      </trkpt>
      <trkpt lat="43.6064" lon="6.79019">
        <ele>230.37</ele>
        <time>2011-07-06T16:38:45Z</time>
      </trkpt>
      <trkpt lat="43.60628" lon="6.78991">
        <ele>229.41</ele>
        <time>2011-07-06T16:38:48Z</time>
      </trkpt>
      <trkpt lat="43.60624" lon="6.78984">
        <ele>229.41</ele>
        <time>2011-07-06T16:38:49Z</time>
      </trkpt>
      <trkpt lat="43.60619" lon="6.7898">
        <ele>228.45</ele>
        <time>2011-07-06T16:38:50Z</time>
      </trkpt>
      <trkpt lat="43.60614" lon="6.78975">
        <ele>227.01</ele>
        <time>2011-07-06T16:38:51Z</time>
      </trkpt>
      <trkpt lat="43.60608" lon="6.78968">
        <ele>227.01</ele>
        <time>2011-07-06T16:38:52Z</time>
      </trkpt>
      <trkpt lat="43.60604" lon="6.7896">
        <ele>227.01</ele>
        <time>2011-07-06T16:38:53Z</time>
      </trkpt>
      <trkpt lat="43.60594" lon="6.78935">
        <ele>226.53</ele>
        <time>2011-07-06T16:38:56Z</time>
      </trkpt>
      <trkpt lat="43.6059" lon="6.7893">
        <ele>226.53</ele>
        <time>2011-07-06T16:38:57Z</time>
      </trkpt>
      <trkpt lat="43.60585" lon="6.78927">
        <ele>226.53</ele>
        <time>2011-07-06T16:38:58Z</time>
      </trkpt>
      <trkpt lat="43.60574" lon="6.78921">
        <ele>226.05</ele>
        <time>2011-07-06T16:39:00Z</time>
      </trkpt>
      <trkpt lat="43.60557" lon="6.78906">
        <ele>223.64</ele>
        <time>2011-07-06T16:39:03Z</time>
      </trkpt>
      <trkpt lat="43.60533" lon="6.78873">
        <ele>221.72</ele>
        <time>2011-07-06T16:39:07Z</time>
      </trkpt>
      <trkpt lat="43.60518" lon="6.78837">
        <ele>220.28</ele>
        <time>2011-07-06T16:39:10Z</time>
      </trkpt>
      <trkpt lat="43.60487" lon="6.7878">
        <ele>216.91</ele>
        <time>2011-07-06T16:39:16Z</time>
      </trkpt>
      <trkpt lat="43.60483" lon="6.78772">
        <ele>217.4</ele>
        <time>2011-07-06T16:39:17Z</time>
      </trkpt>
      <trkpt lat="43.60471" lon="6.7875">
        <ele>215.95</ele>
        <time>2011-07-06T16:39:21Z</time>
      </trkpt>
      <trkpt lat="43.60468" lon="6.78749">
        <ele>216.91</ele>
        <time>2011-07-06T16:39:22Z</time>
      </trkpt>
      <trkpt lat="43.60465" lon="6.7875">
        <ele>216.91</ele>
        <time>2011-07-06T16:39:23Z</time>
      </trkpt>
      <trkpt lat="43.60463" lon="6.78751">
        <ele>217.4</ele>
        <time>2011-07-06T16:39:24Z</time>
      </trkpt>
      <trkpt lat="43.60462" lon="6.78753">
        <ele>218.36</ele>
        <time>2011-07-06T16:39:25Z</time>
      </trkpt>
      <trkpt lat="43.6046" lon="6.78754">
        <ele>218.36</ele>
        <time>2011-07-06T16:39:26Z</time>
      </trkpt>
      <trkpt lat="43.60458" lon="6.78754">
        <ele>219.32</ele>
        <time>2011-07-06T16:39:27Z</time>
      </trkpt>
      <trkpt lat="43.60457" lon="6.78754">
        <ele>219.8</ele>
        <time>2011-07-06T16:39:28Z</time>
      </trkpt>
      <trkpt lat="43.60454" lon="6.78755">
        <ele>220.28</ele>
        <time>2011-07-06T16:39:29Z</time>
      </trkpt>
      <trkpt lat="43.60452" lon="6.78756">
        <ele>220.28</ele>
        <time>2011-07-06T16:39:30Z</time>
      </trkpt>
      <trkpt lat="43.60421" lon="6.78777">
        <ele>221.72</ele>
        <time>2011-07-06T16:39:43Z</time>
      </trkpt>
      <trkpt lat="43.60362" lon="6.78773">
        <ele>222.2</ele>
        <time>2011-07-06T16:39:59Z</time>
      </trkpt>
      <trkpt lat="43.603" lon="6.78749">
        <ele>222.68</ele>
        <time>2011-07-06T16:40:15Z</time>
      </trkpt>
      <trkpt lat="43.60209" lon="6.78728">
        <ele>225.09</ele>
        <time>2011-07-06T16:40:36Z</time>
      </trkpt>
      <trkpt lat="43.60204" lon="6.78729">
        <ele>225.09</ele>
        <time>2011-07-06T16:40:37Z</time>
      </trkpt>
      <trkpt lat="43.60142" lon="6.78753">
        <ele>226.05</ele>
        <time>2011-07-06T16:40:53Z</time>
      </trkpt>
      <trkpt lat="43.60081" lon="6.78804">
        <ele>227.01</ele>
        <time>2011-07-06T16:41:09Z</time>
      </trkpt>
      <trkpt lat="43.6003" lon="6.78846">
        <ele>229.41</ele>
        <time>2011-07-06T16:41:24Z</time>
      </trkpt>
      <trkpt lat="43.60018" lon="6.78855">
        <ele>229.41</ele>
        <time>2011-07-06T16:41:27Z</time>
      </trkpt>
      <trkpt lat="43.59966" lon="6.78873">
        <ele>230.37</ele>
        <time>2011-07-06T16:41:40Z</time>
      </trkpt>
      <trkpt lat="43.59901" lon="6.78889">
        <ele>231.81</ele>
        <time>2011-07-06T16:41:56Z</time>
      </trkpt>
      <trkpt lat="43.59885" lon="6.78894">
        <ele>231.81</ele>
        <time>2011-07-06T16:42:00Z</time>
      </trkpt>
      <trkpt lat="43.59881" lon="6.78896">
        <ele>232.3</ele>
        <time>2011-07-06T16:42:01Z</time>
      </trkpt>
      <trkpt lat="43.59835" lon="6.78924">
        <ele>233.26</ele>
        <time>2011-07-06T16:42:14Z</time>
      </trkpt>
      <trkpt lat="43.59814" lon="6.78943">
        <ele>233.26</ele>
        <time>2011-07-06T16:42:20Z</time>
      </trkpt>
      <trkpt lat="43.59772" lon="6.78992">
        <ele>234.22</ele>
        <time>2011-07-06T16:42:34Z</time>
      </trkpt>
      <trkpt lat="43.59763" lon="6.7899">
        <ele>233.74</ele>
        <time>2011-07-06T16:42:44Z</time>
      </trkpt>
      <trkpt lat="43.59763" lon="6.78987">
        <ele>233.26</ele>
        <time>2011-07-06T16:42:52Z</time>
      </trkpt>
      <trkpt lat="43.59763" lon="6.78984">
        <ele>233.74</ele>
        <time>2011-07-06T16:42:53Z</time>
      </trkpt>
      <trkpt lat="43.59763" lon="6.78981">
        <ele>233.74</ele>
        <time>2011-07-06T16:42:54Z</time>
      </trkpt>
      <trkpt lat="43.59761" lon="6.78978">
        <ele>233.74</ele>
        <time>2011-07-06T16:42:55Z</time>
      </trkpt>
      <trkpt lat="43.59759" lon="6.78976">
        <ele>233.74</ele>
        <time>2011-07-06T16:42:56Z</time>
      </trkpt>
      <trkpt lat="43.59757" lon="6.78976">
        <ele>234.22</ele>
        <time>2011-07-06T16:42:57Z</time>
      </trkpt>
      <trkpt lat="43.59756" lon="6.78976">
        <ele>234.22</ele>
        <time>2011-07-06T16:42:58Z</time>
      </trkpt>
      <trkpt lat="43.59758" lon="6.78976">
        <ele>234.22</ele>
        <time>2011-07-06T16:43:09Z</time>
      </trkpt>
      <trkpt lat="43.59759" lon="6.78975">
        <ele>234.22</ele>
        <time>2011-07-06T16:43:10Z</time>
      </trkpt>
      <trkpt lat="43.5976" lon="6.78973">
        <ele>234.22</ele>
        <time>2011-07-06T16:43:11Z</time>
      </trkpt>
      <trkpt lat="43.59761" lon="6.78969">
        <ele>234.22</ele>
        <time>2011-07-06T16:43:12Z</time>
      </trkpt>
      <trkpt lat="43.59762" lon="6.78966">
        <ele>233.74</ele>
        <time>2011-07-06T16:43:13Z</time>
      </trkpt>
      <trkpt lat="43.59766" lon="6.78962">
        <ele>233.26</ele>
        <time>2011-07-06T16:43:25Z</time>
      </trkpt>
      <trkpt lat="43.59765" lon="6.78963">
        <ele>233.74</ele>
        <time>2011-07-06T16:43:43Z</time>
      </trkpt>
      <trkpt lat="43.59765" lon="6.78965">
        <ele>233.26</ele>
        <time>2011-07-06T16:43:53Z</time>
      </trkpt>
      <trkpt lat="43.59764" lon="6.78967">
        <ele>233.26</ele>
        <time>2011-07-06T16:43:54Z</time>
      </trkpt>
      <trkpt lat="43.59763" lon="6.7897">
        <ele>233.74</ele>
        <time>2011-07-06T16:43:55Z</time>
      </trkpt>
      <trkpt lat="43.59739" lon="6.79009">
        <ele>235.18</ele>
        <time>2011-07-06T16:44:09Z</time>
      </trkpt>
      <trkpt lat="43.59721" lon="6.79067">
        <ele>235.66</ele>
        <time>2011-07-06T16:44:21Z</time>
      </trkpt>
      <trkpt lat="43.59703" lon="6.79116">
        <ele>236.14</ele>
        <time>2011-07-06T16:44:34Z</time>
      </trkpt>
      <trkpt lat="43.59677" lon="6.79157">
        <ele>232.78</ele>
        <time>2011-07-06T16:44:42Z</time>
      </trkpt>
      <trkpt lat="43.59663" lon="6.79178">
        <ele>231.33</ele>
        <time>2011-07-06T16:44:46Z</time>
      </trkpt>
      <trkpt lat="43.59644" lon="6.79212">
        <ele>227.97</ele>
        <time>2011-07-06T16:44:51Z</time>
      </trkpt>
      <trkpt lat="43.59641" lon="6.79219">
        <ele>227.97</ele>
        <time>2011-07-06T16:44:52Z</time>
      </trkpt>
      <trkpt lat="43.59637" lon="6.79224">
        <ele>227.49</ele>
        <time>2011-07-06T16:44:53Z</time>
      </trkpt>
      <trkpt lat="43.59627" lon="6.79237">
        <ele>226.53</ele>
        <time>2011-07-06T16:44:56Z</time>
      </trkpt>
      <trkpt lat="43.59611" lon="6.79268">
        <ele>223.64</ele>
        <time>2011-07-06T16:45:01Z</time>
      </trkpt>
      <trkpt lat="43.59606" lon="6.79274">
        <ele>222.68</ele>
        <time>2011-07-06T16:45:02Z</time>
      </trkpt>
      <trkpt lat="43.596" lon="6.7928">
        <ele>222.2</ele>
        <time>2011-07-06T16:45:03Z</time>
      </trkpt>
      <trkpt lat="43.59594" lon="6.79284">
        <ele>221.24</ele>
        <time>2011-07-06T16:45:04Z</time>
      </trkpt>
      <trkpt lat="43.59586" lon="6.79287">
        <ele>221.24</ele>
        <time>2011-07-06T16:45:05Z</time>
      </trkpt>
      <trkpt lat="43.59549" lon="6.79309">
        <ele>220.76</ele>
        <time>2011-07-06T16:45:11Z</time>
      </trkpt>
      <trkpt lat="43.59541" lon="6.79317">
        <ele>221.72</ele>
        <time>2011-07-06T16:45:13Z</time>
      </trkpt>
      <trkpt lat="43.59538" lon="6.79321">
        <ele>221.72</ele>
        <time>2011-07-06T16:45:14Z</time>
      </trkpt>
      <trkpt lat="43.59501" lon="6.79363">
        <ele>225.57</ele>
        <time>2011-07-06T16:45:27Z</time>
      </trkpt>
      <trkpt lat="43.5948" lon="6.794">
        <ele>228.45</ele>
        <time>2011-07-06T16:45:39Z</time>
      </trkpt>
      <trkpt lat="43.59469" lon="6.79467">
        <ele>230.37</ele>
        <time>2011-07-06T16:45:54Z</time>
      </trkpt>
      <trkpt lat="43.59468" lon="6.79477">
        <ele>229.89</ele>
        <time>2011-07-06T16:45:56Z</time>
      </trkpt>
      <trkpt lat="43.59466" lon="6.79483">
        <ele>230.37</ele>
        <time>2011-07-06T16:45:57Z</time>
      </trkpt>
      <trkpt lat="43.59464" lon="6.79487">
        <ele>230.37</ele>
        <time>2011-07-06T16:45:58Z</time>
      </trkpt>
      <trkpt lat="43.59461" lon="6.79491">
        <ele>229.89</ele>
        <time>2011-07-06T16:45:59Z</time>
      </trkpt>
      <trkpt lat="43.59458" lon="6.79495">
        <ele>230.37</ele>
        <time>2011-07-06T16:46:00Z</time>
      </trkpt>
      <trkpt lat="43.59427" lon="6.79517">
        <ele>232.78</ele>
        <time>2011-07-06T16:46:11Z</time>
      </trkpt>
      <trkpt lat="43.59393" lon="6.79523">
        <ele>234.22</ele>
        <time>2011-07-06T16:46:23Z</time>
      </trkpt>
      <trkpt lat="43.59359" lon="6.79556">
        <ele>237.1</ele>
        <time>2011-07-06T16:46:38Z</time>
      </trkpt>
      <trkpt lat="43.59322" lon="6.79584">
        <ele>236.14</ele>
        <time>2011-07-06T16:46:50Z</time>
      </trkpt>
      <trkpt lat="43.59306" lon="6.79594">
        <ele>234.22</ele>
        <time>2011-07-06T16:46:54Z</time>
      </trkpt>
      <trkpt lat="43.59287" lon="6.79617">
        <ele>232.78</ele>
        <time>2011-07-06T16:46:59Z</time>
      </trkpt>
      <trkpt lat="43.59287" lon="6.79624">
        <ele>232.3</ele>
        <time>2011-07-06T16:47:00Z</time>
      </trkpt>
      <trkpt lat="43.59286" lon="6.79637">
        <ele>230.85</ele>
        <time>2011-07-06T16:47:02Z</time>
      </trkpt>
      <trkpt lat="43.59284" lon="6.79643">
        <ele>230.37</ele>
        <time>2011-07-06T16:47:03Z</time>
      </trkpt>
      <trkpt lat="43.59282" lon="6.79648">
        <ele>229.41</ele>
        <time>2011-07-06T16:47:04Z</time>
      </trkpt>
      <trkpt lat="43.59277" lon="6.79652">
        <ele>228.93</ele>
        <time>2011-07-06T16:47:05Z</time>
      </trkpt>
      <trkpt lat="43.59272" lon="6.79655">
        <ele>228.45</ele>
        <time>2011-07-06T16:47:06Z</time>
      </trkpt>
      <trkpt lat="43.59261" lon="6.79659">
        <ele>227.49</ele>
        <time>2011-07-06T16:47:08Z</time>
      </trkpt>
      <trkpt lat="43.59251" lon="6.79662">
        <ele>226.05</ele>
        <time>2011-07-06T16:47:10Z</time>
      </trkpt>
      <trkpt lat="43.59245" lon="6.79662">
        <ele>226.53</ele>
        <time>2011-07-06T16:47:11Z</time>
      </trkpt>
      <trkpt lat="43.5924" lon="6.7966">
        <ele>226.53</ele>
        <time>2011-07-06T16:47:12Z</time>
      </trkpt>
      <trkpt lat="43.59235" lon="6.79657">
        <ele>226.53</ele>
        <time>2011-07-06T16:47:13Z</time>
      </trkpt>
      <trkpt lat="43.59231" lon="6.79654">
        <ele>226.05</ele>
        <time>2011-07-06T16:47:14Z</time>
      </trkpt>
      <trkpt lat="43.5922" lon="6.79649">
        <ele>225.09</ele>
        <time>2011-07-06T16:47:23Z</time>
      </trkpt>
      <trkpt lat="43.5922" lon="6.79649">
        <ele>224.61</ele>
        <time>2011-07-06T16:47:58Z</time>
      </trkpt>
      <trkpt lat="43.5922" lon="6.79649">
        <ele>225.09</ele>
        <time>2011-07-06T16:48:33Z</time>
      </trkpt>
      <trkpt lat="43.5922" lon="6.79649">
        <ele>224.12</ele>
        <time>2011-07-06T16:49:07Z</time>
      </trkpt>
      <trkpt lat="43.5922" lon="6.79648">
        <ele>224.12</ele>
        <time>2011-07-06T16:49:46Z</time>
      </trkpt>
      <trkpt lat="43.59219" lon="6.79651">
        <ele>224.12</ele>
        <time>2011-07-06T16:50:14Z</time>
      </trkpt>
      <trkpt lat="43.59219" lon="6.79653">
        <ele>223.64</ele>
        <time>2011-07-06T16:50:15Z</time>
      </trkpt>
      <trkpt lat="43.59221" lon="6.79656">
        <ele>223.64</ele>
        <time>2011-07-06T16:50:16Z</time>
      </trkpt>
      <trkpt lat="43.59223" lon="6.79658">
        <ele>223.64</ele>
        <time>2011-07-06T16:50:17Z</time>
      </trkpt>
      <trkpt lat="43.59225" lon="6.7966">
        <ele>223.64</ele>
        <time>2011-07-06T16:50:18Z</time>
      </trkpt>
      <trkpt lat="43.59239" lon="6.79673">
        <ele>222.2</ele>
        <time>2011-07-06T16:50:26Z</time>
      </trkpt>
      <trkpt lat="43.5924" lon="6.79675">
        <ele>222.2</ele>
        <time>2011-07-06T16:50:27Z</time>
      </trkpt>
      <trkpt lat="43.59239" lon="6.79676">
        <ele>222.2</ele>
        <time>2011-07-06T16:50:28Z</time>
      </trkpt>
      <trkpt lat="43.59238" lon="6.79677">
        <ele>222.2</ele>
        <time>2011-07-06T16:50:38Z</time>
      </trkpt>
      <trkpt lat="43.59237" lon="6.79678">
        <ele>221.72</ele>
        <time>2011-07-06T16:51:13Z</time>
      </trkpt>
      <trkpt lat="43.59236" lon="6.79678">
        <ele>222.2</ele>
        <time>2011-07-06T16:51:14Z</time>
      </trkpt>
      <trkpt lat="43.59235" lon="6.79678">
        <ele>221.72</ele>
        <time>2011-07-06T16:51:15Z</time>
      </trkpt>
      <trkpt lat="43.59233" lon="6.79678">
        <ele>221.24</ele>
        <time>2011-07-06T16:51:16Z</time>
      </trkpt>
      <trkpt lat="43.59231" lon="6.79678">
        <ele>221.24</ele>
        <time>2011-07-06T16:51:17Z</time>
      </trkpt>
      <trkpt lat="43.59215" lon="6.79665">
        <ele>221.24</ele>
        <time>2011-07-06T16:51:28Z</time>
      </trkpt>
      <trkpt lat="43.59206" lon="6.79657">
        <ele>221.72</ele>
        <time>2011-07-06T16:51:36Z</time>
      </trkpt>
      <trkpt lat="43.59203" lon="6.79656">
        <ele>221.72</ele>
        <time>2011-07-06T16:51:45Z</time>
      </trkpt>
      <trkpt lat="43.59204" lon="6.79656">
        <ele>220.28</ele>
        <time>2011-07-06T16:51:48Z</time>
      </trkpt>
    </trkseg>
  </trk>
</gpx>